Guest User

Untitled

a guest
Jun 11th, 2021
14
Never
Not a member of Pastebin yet? Sign Up, it unlocks many cool features!
  1. ************ : log created on : Friday June 11 2021 @ 15:12:09
  2. 00:00:00.000 : [sys] running on x86_64 / Windows 10 x64 (version 10.0)
  3. 00:00:00.000 : [sys] Command line: D:\Steam\steamapps\common\Euro Truck Simulator 2\bin\win_x64\eurotrucks2.exe
  4. 00:00:00.000 : [cpu] CPU0: GenuineIntel [ Intel(R) Core(TM) i5-2500 CPU @ 3.30GHz] with 4 cores (4 threads) at ~3293MHz.
  5. 00:00:00.000 : [sys] using 3 worker thread(s)
  6. 00:00:00.000 : [sys] and 3 worker threads for IO.
  7. 00:00:00.000 : [sys] plus 3 real-time worker threads.
  8. 00:00:00.000 : [sys] using QPC / HPET timer, frequency 10000000Hz
  9. 00:00:00.000 : [mem] physical total: 8164M
  10. 00:00:00.000 : [mem] physical avail: 3389M
  11. 00:00:00.001 : [mem] virtual total: 134217727M
  12. 00:00:00.002 : [mem] virtual avail: 134213028M
  13. 00:00:00.002 : [mem] Trying to allocate memory pool (1048576K)
  14. 00:00:00.002 : [mem] Allocated 5 temporary loading buffer(s)
  15. 00:00:00.048 : [xinput] Using XInput version 1.4.0
  16. 00:00:00.071 : [hashfs] effect.scs: Created and validated, 14066 entries (488B2DF33AFB4FDCB029121C4C41494D16A5D9C04FE423E79F065CA4F8893C59)
  17. 00:00:00.071 : [fs] device effect.scs mounted.
  18. 00:00:00.200 : [hashfs] base.scs: Created and validated, 116175 entries (86E744FA4CDCC773D5CC776B7B8C7089664568BB8C14F93D0D3D723E66A1280D)
  19. 00:00:00.200 : [fs] device base.scs mounted.
  20. 00:00:00.201 : [hashfs] core.scs: Created and validated, 9 entries (75C944F3F5D0E915C1F618B08AD56CBDE038297E86CCB042FC0A6A0DB1C3D6E5)
  21. 00:00:00.201 : [fs] device core.scs mounted.
  22. 00:00:00.723 : [hashfs] def.scs: Created and validated, 22872 entries (4C60A5E31E5ED49467D78E3735678C8E3556A0B8F1AA1F49C6DD3B75EED41055)
  23. 00:00:00.723 : [fs] device def.scs mounted.
  24. 00:00:00.996 : [hashfs] locale.scs: Created and validated, 214 entries (8701BBB2A5489525990A5D348F256A9CCE5C7DB5FC7FAE535A398922223401DD)
  25. 00:00:00.997 : [fs] device locale.scs mounted.
  26. 00:00:00.997 : [hashfs] base_cfg.scs: Created and validated, 1 entries (BD203F077815779E18B8FD406727025D02B66C6F140F0C86EB6DC8F5DBB4BA31)
  27. 00:00:00.997 : [fs] device base_cfg.scs mounted.
  28. 00:00:00.997 : [ufs] Home directory: 'C:/Users/olmen/Documents/Euro Truck Simulator 2'.
  29. 00:00:00.998 : [fs] device C:/Users/olmen/Documents/Euro Truck Simulator 2 mounted.
  30. 00:00:01.016 : [hashfs] dlc_actros_tuning.scs: Created and validated, 2612 entries (892BDA040E963B2F0BC593607DD1823AFE3FF9A6E12D8F474D80DE4E1E44A9ED)
  31. 00:00:01.156 : [hashfs] dlc_balkan_e.scs: Created and validated, 10793 entries (6261CE78DCC995B7F8ACA3306403D459E36ACB20C8C81253EDF831C5C5A0EB9E)
  32. 00:00:01.298 : [hashfs] dlc_balt.scs: Created and validated, 11657 entries (79AACD60280FE1C7D6C56C60C1874B0A35DAD37F3E2511F89EDEF9E9CA2CDADC)
  33. 00:00:01.343 : [hashfs] dlc_daf_2021.scs: Created and validated, 1861 entries (3F95E3421155A220DE55E90636280A1147FE12B6B9690ECB274BAA13E1E74507)
  34. 00:00:01.363 : [hashfs] dlc_daf_tuning_pack.scs: Created and validated, 2539 entries (2421A736E5B1D5BBF9F876A24EF0E519D28F5739E0C8C9C4A2A31B18D513674D)
  35. 00:00:01.370 : [hashfs] dlc_east.scs: Created and validated, 969 entries (478F027C9EF0AF8DBE83E8233A2F7901F86074B1B53D67B0F2E1E744A5023A45)
  36. 00:00:01.380 : [hashfs] dlc_fantasy.scs: Created and validated, 1710 entries (1FC8F6EAB2D7BB368F14A6998D50A89D5B7D08D34BE58F15F2EC868F21F9A21A)
  37. 00:00:01.389 : [hashfs] dlc_flags_be.scs: Created and validated, 1413 entries (29D32D31B9E9F3A3315BA9E4A5CA167973AD64ED9104ED9426CD8C9869C9C395)
  38. 00:00:01.396 : [hashfs] dlc_flags_jp.scs: Created and validated, 1138 entries (DBB5CF4BCD2B13A9F7E277291B0E91F985585F71C1A92602DF27737F0F3228EF)
  39. 00:00:01.403 : [hashfs] dlc_flags_pl.scs: Created and validated, 964 entries (3EBBD6605CFBE61817EFF88401256A5F319A25722F297483F28B6E3B9F075881)
  40. 00:00:01.452 : [hashfs] dlc_fr.scs: Created and validated, 3893 entries (6AA9F7A878381C0A55D5E36C6907BD4454E8FB325CC88A0535C1158772EAFF50)
  41. 00:00:01.556 : [hashfs] dlc_iberia.scs: Created and validated, 12249 entries (C9F42E0FE5BD500B79BD4B0EC7A9754AE3DD9CC6325E1230D8085AEE597B3813)
  42. 00:00:01.611 : [hashfs] dlc_it.scs: Created and validated, 4533 entries (93B4F4FAF5BDF030D3306C37395CF12355DFDC1639CB3E34B6C3806AD7BD9E37)
  43. 00:00:01.642 : [hashfs] dlc_krone.scs: Created and validated, 3505 entries (A9FD2E780FF539EC9A431E9D03CC0AA88E51256DAC305BDC02BE0ABAA3576AC6)
  44. 00:00:01.655 : [hashfs] dlc_metallics.scs: Created and validated, 631 entries (92295E9EB348F4CBB45AB279822951EEA16A241A3343D64764A45ED2EA28AC0D)
  45. 00:00:01.669 : [hashfs] dlc_metallics2.scs: Created and validated, 725 entries (2CF15833301F86782D662817533F96912104D1DDC4439F2E5A9DC8FCDF05DC39)
  46. 00:00:01.692 : [hashfs] dlc_mighty_griffin.scs: Created and validated, 2955 entries (960F3C06FD6251921041D3859BAE44900B4EF86B7948A0C43E5C4F24E27D93F6)
  47. 00:00:01.704 : [hashfs] dlc_nature.scs: Created and validated, 2478 entries (593D9B2F9BEFD2E40264D4F6B710847057172C5B0BBB3BDAEFE53C8EF36D0CCF)
  48. 00:00:01.786 : [hashfs] dlc_north.scs: Created and validated, 5581 entries (682A2E542DBF151727F60B92B1FAAF6C6CEE129A7922564EC3C92FCB98425B77)
  49. 00:00:01.799 : [hashfs] dlc_oversize.scs: Created and validated, 678 entries (D71F4FD488E6779A87E80415F4B838D141A4A5852EF92F3BD2DFFA9AA7539940)
  50. 00:00:01.802 : [hashfs] dlc_rocket_league.scs: Created and validated, 142 entries (296026E611AFF99D07503B28BF3D17C1F3ACD866BB441D1741C293C265C47D77)
  51. 00:00:01.832 : [hashfs] dlc_schwarzmuller.scs: Created and validated, 3803 entries (3180E01F38164F189821C265447C8F74B475DDE49D974103BEE12E1B353DF420)
  52. 00:00:01.867 : [hashfs] dlc_toys.scs: Created and validated, 2659 entries (22FDD54A0CB4FD097AEDD69F1AC085EF4AE50D8C31BF80B483BBC30A2AAA5663)
  53. 00:00:01.893 : [hashfs] dlc_trailers.scs: Created and validated, 2343 entries (54E01E0AF7F129E6F7B37C4673BF1A5CA8AA01A628AA7D0D9D4A5E6B86EF1358)
  54. 00:00:01.908 : [hashfs] dlc_winter.scs: Created and validated, 2725 entries (1E4867E7E3BF989E3373A59358DCCEBCF82A90E6DFC74B0DA91A4D27E91ED6FE)
  55. 00:00:01.932 : [hashfs] 144L_460_1.39.scs: Created, 778 entries
  56. 00:00:01.932 : <WARNING> [mods] No valid categories defined for 144L_460_1.39. Setting defaults.
  57. 00:00:01.932 : <ERROR> [mods] Cannot find '/mod_description.txt' description file for mod '144L_460_1.39'.
  58. 00:00:01.933 : [zipfs] 2_kontur.scs: Created, 8 entries
  59. 00:00:01.934 : [zipfs] 4k_8k_scania_s_griffin_transport_multicolor_combo_skin_by_A.Mikhaylov.scs: Created, 68 entries
  60. 00:00:01.935 : [zipfs] 50k_DAF_XF_1.39.scs: Created, 395 entries
  61. 00:00:01.937 : [zipfs] A5C_-_ACTROS_5_2019_-_BASE.scs: Created, 2371 entries
  62. 00:00:01.938 : <ERROR> [zipfs] Unsupported compression method used: 99 for record #6 - def/vehicle/trailer_owned/krone.coolliner/paint_job/accessory/costa.sii from 'C:/Users/olmen/Documents/Euro Truck Simulator 2/mod/Adar_CoolLiner.scs'.
  63. 00:00:01.938 : <ERROR> [zipfs] Unsupported compression method used: 99 for record #7 - def/vehicle/trailer_owned/krone.coolliner/paint_job/costa.sii from 'C:/Users/olmen/Documents/Euro Truck Simulator 2/mod/Adar_CoolLiner.scs'.
  64. 00:00:01.938 : <ERROR> [zipfs] Unsupported compression method used: 99 for record #8 - def/vehicle/trailer_owned/krone.coolliner/paint_job/costa_shared.sui from 'C:/Users/olmen/Documents/Euro Truck Simulator 2/mod/Adar_CoolLiner.scs'.
  65. 00:00:01.938 : <ERROR> [zipfs] Unsupported compression method used: 99 for record #12 - material/ui/accessory/costa.dds from 'C:/Users/olmen/Documents/Euro Truck Simulator 2/mod/Adar_CoolLiner.scs'.
  66. 00:00:01.938 : <ERROR> [zipfs] Unsupported compression method used: 99 for record #13 - material/ui/accessory/costa.mat from 'C:/Users/olmen/Documents/Euro Truck Simulator 2/mod/Adar_CoolLiner.scs'.
  67. 00:00:01.938 : <ERROR> [zipfs] Unsupported compression method used: 99 for record #14 - material/ui/accessory/costa.tobj from 'C:/Users/olmen/Documents/Euro Truck Simulator 2/mod/Adar_CoolLiner.scs'.
  68. 00:00:01.938 : <ERROR> [zipfs] Unsupported compression method used: 99 for record #22 - vehicle/trailer_owned/upgrade/paintjob/krone.coolliner/costa/accessories/acc_0.dds from 'C:/Users/olmen/Documents/Euro Truck Simulator 2/mod/Adar_CoolLiner.scs'.
  69. 00:00:01.938 : <ERROR> [zipfs] Unsupported compression method used: 99 for record #23 - vehicle/trailer_owned/upgrade/paintjob/krone.coolliner/costa/accessories/acc_0.tobj from 'C:/Users/olmen/Documents/Euro Truck Simulator 2/mod/Adar_CoolLiner.scs'.
  70. 00:00:01.938 : <ERROR> [zipfs] Unsupported compression method used: 99 for record #24 - vehicle/trailer_owned/upgrade/paintjob/krone.coolliner/costa/costa_shared.dds from 'C:/Users/olmen/Documents/Euro Truck Simulator 2/mod/Adar_CoolLiner.scs'.
  71. 00:00:01.938 : <ERROR> [zipfs] Unsupported compression method used: 99 for record #25 - vehicle/trailer_owned/upgrade/paintjob/krone.coolliner/costa/costa_shared.tobj from 'C:/Users/olmen/Documents/Euro Truck Simulator 2/mod/Adar_CoolLiner.scs'.
  72. 00:00:01.938 : <ERROR> [zipfs] Unsupported compression method used: 99 for record #26 - manifest.sii from 'C:/Users/olmen/Documents/Euro Truck Simulator 2/mod/Adar_CoolLiner.scs'.
  73. 00:00:01.938 : <ERROR> [zipfs] Unsupported compression method used: 99 for record #27 - mod_description.txt from 'C:/Users/olmen/Documents/Euro Truck Simulator 2/mod/Adar_CoolLiner.scs'.
  74. 00:00:01.938 : <ERROR> [zipfs] Unsupported compression method used: 99 for record #28 - mod_icon.jpg from 'C:/Users/olmen/Documents/Euro Truck Simulator 2/mod/Adar_CoolLiner.scs'.
  75. 00:00:01.938 : [zipfs] Adar_CoolLiner.scs: Created, 29 entries
  76. 00:00:01.938 : <WARNING> [mod] Mod package 'Adar_CoolLiner' does not contain a manifest file 'manifest.sii', creating default information set.
  77. 00:00:01.939 : [zipfs] Adar_garage.scs: Created, 360 entries
  78. 00:00:01.939 : <WARNING> [mods] Unknown category 'others' defined for Adar_garage. Ignoring.
  79. 00:00:01.939 : <WARNING> [mods] No valid categories defined for Adar_garage. Setting defaults.
  80. 00:00:01.940 : <ERROR> [zipfs] Unsupported compression method used: 99 for record #6 - def/vehicle/trailer_owned/krone.profiliner/paint_job/accessory/costa.sii from 'C:/Users/olmen/Documents/Euro Truck Simulator 2/mod/Adar_ProfiLiner.scs'.
  81. 00:00:01.940 : <ERROR> [zipfs] Unsupported compression method used: 99 for record #7 - def/vehicle/trailer_owned/krone.profiliner/paint_job/costa.sii from 'C:/Users/olmen/Documents/Euro Truck Simulator 2/mod/Adar_ProfiLiner.scs'.
  82. 00:00:01.940 : <ERROR> [zipfs] Unsupported compression method used: 99 for record #8 - def/vehicle/trailer_owned/krone.profiliner/paint_job/costa_shared.sui from 'C:/Users/olmen/Documents/Euro Truck Simulator 2/mod/Adar_ProfiLiner.scs'.
  83. 00:00:01.940 : <ERROR> [zipfs] Unsupported compression method used: 99 for record #12 - material/ui/accessory/costa.dds from 'C:/Users/olmen/Documents/Euro Truck Simulator 2/mod/Adar_ProfiLiner.scs'.
  84. 00:00:01.940 : <ERROR> [zipfs] Unsupported compression method used: 99 for record #13 - material/ui/accessory/costa.mat from 'C:/Users/olmen/Documents/Euro Truck Simulator 2/mod/Adar_ProfiLiner.scs'.
  85. 00:00:01.940 : <ERROR> [zipfs] Unsupported compression method used: 99 for record #14 - material/ui/accessory/costa.tobj from 'C:/Users/olmen/Documents/Euro Truck Simulator 2/mod/Adar_ProfiLiner.scs'.
  86. 00:00:01.940 : <ERROR> [zipfs] Unsupported compression method used: 99 for record #22 - vehicle/trailer_owned/upgrade/paintjob/krone.profiliner/costa/accessories/acc_0.dds from 'C:/Users/olmen/Documents/Euro Truck Simulator 2/mod/Adar_ProfiLiner.scs'.
  87. 00:00:01.940 : <ERROR> [zipfs] Unsupported compression method used: 99 for record #23 - vehicle/trailer_owned/upgrade/paintjob/krone.profiliner/costa/accessories/acc_0.tobj from 'C:/Users/olmen/Documents/Euro Truck Simulator 2/mod/Adar_ProfiLiner.scs'.
  88. 00:00:01.940 : <ERROR> [zipfs] Unsupported compression method used: 99 for record #24 - vehicle/trailer_owned/upgrade/paintjob/krone.profiliner/costa/costa_shared.dds from 'C:/Users/olmen/Documents/Euro Truck Simulator 2/mod/Adar_ProfiLiner.scs'.
  89. 00:00:01.940 : <ERROR> [zipfs] Unsupported compression method used: 99 for record #25 - vehicle/trailer_owned/upgrade/paintjob/krone.profiliner/costa/costa_shared.tobj from 'C:/Users/olmen/Documents/Euro Truck Simulator 2/mod/Adar_ProfiLiner.scs'.
  90. 00:00:01.940 : <ERROR> [zipfs] Unsupported compression method used: 99 for record #26 - manifest.sii from 'C:/Users/olmen/Documents/Euro Truck Simulator 2/mod/Adar_ProfiLiner.scs'.
  91. 00:00:01.940 : <ERROR> [zipfs] Unsupported compression method used: 99 for record #27 - mod_description.txt from 'C:/Users/olmen/Documents/Euro Truck Simulator 2/mod/Adar_ProfiLiner.scs'.
  92. 00:00:01.940 : <ERROR> [zipfs] Unsupported compression method used: 99 for record #28 - mod_icon.jpg from 'C:/Users/olmen/Documents/Euro Truck Simulator 2/mod/Adar_ProfiLiner.scs'.
  93. 00:00:01.940 : [zipfs] Adar_ProfiLiner.scs: Created, 29 entries
  94. 00:00:01.940 : <WARNING> [mod] Mod package 'Adar_ProfiLiner' does not contain a manifest file 'manifest.sii', creating default information set.
  95. 00:00:01.941 : [zipfs] Adar_Standard.scs: Created, 29 entries
  96. 00:00:01.942 : [zipfs] Addon - Less visibility in windows.scs: Created, 6 entries
  97. 00:00:01.945 : [zipfs] AI_ETS2_TRUCK_Real_Traf_6.3_1.38_RCKPS.scs: Created, 4068 entries
  98. 00:00:01.950 : [zipfs] All propiska.scs: Created, 5534 entries
  99. 00:00:01.951 : [zipfs] BigPack_Tuning_Scania_NG_1_6.scs: Created, 670 entries
  100. 00:00:01.951 : <WARNING> [mods] Incompatible mod - BigPack_Tuning_Scania_NG_1_6
  101. 00:00:01.953 : [zipfs] Brick Trailer Pack.scs: Created, 1198 entries
  102. 00:00:01.953 : <WARNING> [mods] Unknown category 'Trailer' defined for Brick Trailer Pack. Ignoring.
  103. 00:00:01.953 : <WARNING> [mods] No valid categories defined for Brick Trailer Pack. Setting defaults.
  104. 00:00:01.954 : [zipfs] Cold Rain v0.2 for 1.40.scs: Created, 52 entries
  105. 00:00:01.956 : [zipfs] Daf Xf 106 District New 414.scs: Created, 2215 entries
  106. 00:00:01.958 : [zipfs] DAF XF Euro6.scs: Created, 2043 entries
  107. 00:00:01.961 : [zipfs] daf_95_ati.scs: Created, 3042 entries
  108. 00:00:01.963 : [zipfs] daf_95_ati_bdf_trailer.scs: Created, 350 entries
  109. 00:00:01.963 : [zipfs] daf_95_ati_cabin_accessories.scs: Created, 48 entries
  110. 00:00:01.964 : [zipfs] daf_95_ati_tuning.scs: Created, 30 entries
  111. 00:00:01.965 : [zipfs] Daf_Xf_105_Open_Pipe_sound_Reworked_Fix.scs: Created, 27 entries
  112. 00:00:01.965 : [zipfs] Dark_interior_daf_xf_105_3.01.scs: Created, 53 entries
  113. 00:00:01.966 : [zipfs] dark_skies.scs: Created, 32 entries
  114. 00:00:01.974 : [zipfs] dd_tandem_truck_pack.scs: Created, 8763 entries
  115. 00:00:01.975 : [zipfs] Def File 1.39.X(AryanEdit).scs: Created, 243 entries
  116. 00:00:01.975 : <WARNING> [mods] Incompatible mod - Def File 1.39.X(AryanEdit)
  117. 00:00:01.976 : [zipfs] dimmed_headlights.scs: Created, 76 entries
  118. 00:00:01.977 : [zipfs] ETS2_Interior_Driver_1.00_for_1.39.scs: Created, 714 entries
  119. 00:00:01.978 : [hashfs] ETS2_Realistic_Lights_Effect_V2_0.scs: Created, 76 entries
  120. 00:00:02.075 : [zipfs] FikcyjnaPolska v1.39.scs: Created, 48662 entries
  121. 00:00:02.076 : [zipfs] FIX_daf_95_ati_for_ETS2-1.39.scs: Created, 74 entries
  122. 00:00:02.077 : [zipfs] FrontBadgeScaniaNg.scs: Created, 229 entries
  123. 00:00:02.077 : <WARNING> [mods] Incompatible mod - FrontBadgeScaniaNg
  124. 00:00:02.108 : [zipfs] frosty_8.scs: Created, 8525 entries
  125. 00:00:02.113 : [zipfs] frosty_heavy_winter_8.scs: Created, 717 entries
  126. 00:00:02.114 : [zipfs] frosty_no_fog_8.scs: Created, 39 entries
  127. 00:00:02.114 : [zipfs] frosty_physics_8_02.scs: Created, 6 entries
  128. 00:00:02.117 : [zipfs] frosty_wheels.scs: Created, 344 entries
  129. 00:00:02.119 : [zipfs] Godzilla Racing Trailer.scs: Created, 15 entries
  130. 00:00:02.125 : [zipfs] Interior Back Lights v6.7-1.40.scs: Created, 2905 entries
  131. 00:00:02.126 : [zipfs] interior_cabin_lights_3_0.scs: Created, 216 entries
  132. 00:00:02.128 : [zipfs] International.scs: Created, 1303 entries
  133. 00:00:02.128 : <WARNING> [mod] Mod package 'International' does not contain a manifest file 'manifest.sii', creating default information set.
  134. 00:00:02.140 : [zipfs] Iveco Hi-Way.scs: Created, 2122 entries
  135. 00:00:02.144 : [zipfs] Krone New District 26.scs: Created, 3633 entries
  136. 00:00:02.146 : [hashfs] MAN F2000 Commander.scs: Created, 2786 entries
  137. 00:00:02.146 : <WARNING> [mods] Incompatible mod - MAN F2000 Commander
  138. 00:00:02.148 : [zipfs] MAN F2000 custom number.scs: Created, 9 entries
  139. 00:00:02.149 : [zipfs] Man Godzilla Racing.scs: Created, 21 entries
  140. 00:00:02.151 : [zipfs] man_euro6_v1.scs: Created, 53 entries
  141. 00:00:02.152 : <WARNING> [mods] Unknown category 'sounds' defined for man_euro6_v1. Ignoring.
  142. 00:00:02.152 : <WARNING> [mods] No valid categories defined for man_euro6_v1. Setting defaults.
  143. 00:00:02.152 : <WARNING> [mods] Incompatible mod - man_euro6_v1
  144. 00:00:02.154 : [zipfs] man_tga_byMADster_v1.6_1.39_fix.scs: Created, 1436 entries
  145. 00:00:02.162 : [zipfs] MAN_TGX_2020_1.39.scs: Created, 1221 entries
  146. 00:00:02.164 : [zipfs] MAN_TGX_E6_2015_by_Gloover_v.1.0.scs: Created, 2759 entries
  147. 00:00:02.165 : <WARNING> [mods] No valid categories defined for MAN_TGX_E6_2015_by_Gloover_v.1.0. Setting defaults.
  148. 00:00:02.167 : [zipfs] MB_1933_V2.scs: Created, 1308 entries
  149. 00:00:02.169 : [zipfs] C:/Users/olmen/Documents/Euro Truck Simulator 2/mod/Mega_mod_Magnum_1.40_l.scs: AEM¨ľ¸ŃŔŁĽŇ˛ŐPK
  150. 00:00:02.169 : [zipfs] Mega_mod_Magnum_1.40_l.scs: Created, 458 entries
  151. 00:00:02.180 : [zipfs] Mercedes Actros MP4.scs: Created, 1849 entries
  152. 00:00:02.181 : [hashfs] MERCEDES BENZ SK 1838.scs: Created, 509 entries
  153. 00:00:02.182 : [hashfs] Mercedes-Benz Actros MP5 2019.scs: Created, 1335 entries
  154. 00:00:02.192 : [zipfs] Mercedes_Actros_MP1_[1.39].scs: Created, 2039 entries
  155. 00:00:02.193 : <WARNING> [mods] Incompatible mod - Mercedes_Actros_MP1_[1.39]
  156. 00:00:02.199 : [zipfs] mercedes_sk.scs: Created, 3093 entries
  157. 00:00:02.200 : [zipfs] mercedes_sk_8x4.scs: Created, 306 entries
  158. 00:00:02.206 : [zipfs] Mercedes_Sprinter_2019_BETA03.scs: Created, 845 entries
  159. 00:00:02.206 : <WARNING> [mods] Too many categories defined for Mercedes_Sprinter_2019_BETA03 - limit 2. Using first 2.
  160. 00:00:02.206 : <WARNING> [mods] Incompatible mod - Mercedes_Sprinter_2019_BETA03
  161. 00:00:02.207 : [zipfs] Mercedes_Sprinter_2019_license_plate_template.scs: Created, 15 entries
  162. 00:00:02.207 : <WARNING> [mod] Mod package 'Mercedes_Sprinter_2019_license_plate_template' does not contain a manifest file 'manifest.sii', creating default information set.
  163. 00:00:02.208 : [zipfs] Mercedes_Sprinter_2019_template.scs: Created, 17 entries
  164. 00:00:02.211 : [zipfs] orange_pack.scs: Created, 503 entries
  165. 00:00:02.212 : [zipfs] Pennant DAF.scs: Created, 224 entries
  166. 00:00:02.214 : [zipfs] Pennant Gaz.scs: Created, 222 entries
  167. 00:00:02.215 : [zipfs] Pennant Iveco.scs: Created, 224 entries
  168. 00:00:02.216 : [zipfs] Pennant Kamaz.scs: Created, 224 entries
  169. 00:00:02.217 : [zipfs] Pennant MAN.scs: Created, 224 entries
  170. 00:00:02.217 : [zipfs] Pennant Maz.scs: Created, 222 entries
  171. 00:00:02.218 : [zipfs] Pennant Mercedes-Benz.scs: Created, 224 entries
  172. 00:00:02.219 : [zipfs] Pennant RENO.scs: Created, 224 entries
  173. 00:00:02.220 : [zipfs] Pennant SCANIA.scs: Created, 224 entries
  174. 00:00:02.221 : [zipfs] Pennant VOLVO.scs: Created, 224 entries
  175. 00:00:02.224 : [zipfs] PM246_RM2.1.1_PR2.4.2_roadconnection (1).scs: Created, 253 entries
  176. 00:00:02.228 : [zipfs] PM246_RM2.1.1_PR2.4.2_roadconnection.scs: Created, 253 entries
  177. 00:00:02.231 : [zipfs] PM251_RM2.3.1_PR2.4.4_roadconnection.scs: Created, 314 entries
  178. 00:00:02.233 : [zipfs] PM255_RM2.4.1_PR2.5_roadconnectionV2.scs: Created, 322 entries
  179. 00:00:02.287 : [zipfs] Poland Detail-Adding Mod 2.0 Open Beta.scs: Created, 19190 entries
  180. 00:00:02.288 : [zipfs] C:/Users/olmen/Documents/Euro Truck Simulator 2/mod/privolzhe_group_dirt.scs: Created with ETS2 Studio v.0.6.1.8
  181.  
  182. 00:00:02.288 : [zipfs] C:/Users/olmen/Documents/Euro Truck Simulator 2/mod/privolzhe_group_dirt.scs: www.ets2studio.com
  183. 00:00:02.288 : [zipfs] privolzhe_group_dirt.scs: Created, 18 entries
  184. 00:00:02.288 : <WARNING> [mod] Mod package 'privolzhe_group_dirt' does not contain a manifest file 'manifest.sii', creating default information set.
  185. 00:00:02.297 : [hashfs] promods-assets-v251.scs: Created, 44346 entries
  186. 00:00:02.298 : <WARNING> [mods] Incompatible mod - promods-assets-v251
  187. 00:00:02.305 : [hashfs] promods-assets-v255.scs: Created, 36239 entries
  188. 00:00:02.317 : [zipfs] promods-def-st-v251.scs: Created, 2435 entries
  189. 00:00:02.317 : <WARNING> [mods] Incompatible mod - promods-def-st-v251
  190. 00:00:02.321 : [zipfs] promods-def-st-v255.scs: Created, 2412 entries
  191. 00:00:02.436 : [zipfs] promods-map-v251.scs: Created, 33801 entries
  192. 00:00:02.436 : <WARNING> [mods] Incompatible mod - promods-map-v251
  193. 00:00:02.555 : [zipfs] promods-map-v255.scs: Created, 36422 entries
  194. 00:00:02.557 : [hashfs] promods-me-assets-v251.scs: Created, 3649 entries
  195. 00:00:02.558 : <WARNING> [mods] Incompatible mod - promods-me-assets-v251
  196. 00:00:02.559 : [hashfs] promods-me-assets-v255a.scs: Created, 3777 entries
  197. 00:00:02.567 : [zipfs] promods-me-defmap-v251.scs: Created, 1088 entries
  198. 00:00:02.567 : <WARNING> [mods] Incompatible mod - promods-me-defmap-v251
  199. 00:00:02.574 : [zipfs] promods-me-defmap-v255a.scs: Created, 1290 entries
  200. 00:00:02.575 : [hashfs] promods-media-v251.scs: Created, 11 entries
  201. 00:00:02.575 : <WARNING> [mods] Incompatible mod - promods-media-v251
  202. 00:00:02.575 : [hashfs] promods-media-v255.scs: Created, 11 entries
  203. 00:00:02.579 : [hashfs] promods-model1-v251.scs: Created, 15862 entries
  204. 00:00:02.580 : <WARNING> [mods] Incompatible mod - promods-model1-v251
  205. 00:00:02.581 : [hashfs] promods-model1-v255.scs: Created, 15792 entries
  206. 00:00:02.586 : [hashfs] promods-model2-v251.scs: Created, 22038 entries
  207. 00:00:02.587 : <WARNING> [mods] Incompatible mod - promods-model2-v251
  208. 00:00:02.588 : [hashfs] promods-model2-v255.scs: Created, 22202 entries
  209. 00:00:02.591 : [hashfs] promods-model3-v251.scs: Created, 7462 entries
  210. 00:00:02.592 : <WARNING> [mods] Incompatible mod - promods-model3-v251
  211. 00:00:02.592 : [hashfs] promods-model3-v255.scs: Created, 7424 entries
  212. 00:00:02.607 : [zipfs] PROMZONA 7_1.37_ROS_RM_PITER.scs: Created, 2840 entries
  213. 00:00:02.639 : [zipfs] PROMZONA 7_1.37_ROS_RM_PR.scs: Created, 8938 entries
  214. 00:00:02.646 : [zipfs] R_O_S_heavy_cargo39.scs: Created, 1099 entries
  215. 00:00:02.651 : [zipfs] Realistic Brutal Weather Unforgiving By Kass.scs: Created, 849 entries
  216. 00:00:02.657 : [zipfs] Renault Premium.scs: Created, 2095 entries
  217. 00:00:02.667 : [zipfs] Renault12Toros_V1R40_ETS2_ATS_1_38_X_emirbardakci_com.scs: Created, 1951 entries
  218. 00:00:02.667 : <WARNING> [mods] Unknown category 'Car' defined for Renault12Toros_V1R40_ETS2_ATS_1_38_X_emirbardakci_com. Ignoring.
  219. 00:00:02.667 : <WARNING> [mods] No valid categories defined for Renault12Toros_V1R40_ETS2_ATS_1_38_X_emirbardakci_com. Setting defaults.
  220. 00:00:02.667 : <WARNING> [mods] Incompatible mod - Renault12Toros_V1R40_ETS2_ATS_1_38_X_emirbardakci_com
  221. 00:00:02.668 : [zipfs] Renault_MAGNUM_DXI_Open_Pipe.scs: Created, 58 entries
  222. 00:00:02.680 : [zipfs] Renault_Major_1.39x.scs: Created, 2348 entries
  223. 00:00:02.681 : [hashfs] ROEXallPM251RUS231PR244RCfullv4.scs: Created, 710 entries
  224. 00:00:02.681 : <WARNING> [unit] Ignored unknown attribute compatible_version[] =
  225. 00:00:02.684 : [zipfs] Roman_Diesel_byMADster_v1.3.1.scs: Created, 1243 entries
  226. 00:00:02.685 : [zipfs] Ronco Direto.scs: Created, 49 entries
  227. 00:00:02.685 : <WARNING> [mod] Mod package 'Ronco Direto' does not contain a manifest file 'manifest.sii', creating default information set.
  228. 00:00:02.688 : [hashfs] RusMap-def_v2.3.1.scs: Created, 7503 entries
  229. 00:00:02.688 : [hashfs] RusMap-map_v2.3.1.scs: Created, 814 entries
  230. 00:00:02.689 : [hashfs] RusMap-model2_v2.3.1.scs: Created, 7397 entries
  231. 00:00:02.726 : [zipfs] RusMap-model_v2.3.1.scs: Created, 20008 entries
  232. 00:00:02.772 : [zipfs] Russian_open_spaces_39.scs: Created, 11208 entries
  233. 00:00:02.801 : [zipfs] Russian_open_spaces_39map.scs: Created, 8420 entries
  234. 00:00:02.827 : [zipfs] Russian_open_spaces_model_39.scs: Created, 6950 entries
  235. 00:00:02.846 : [zipfs] Russian_open_spaces_vehicle_39.scs: Created, 4599 entries
  236. 00:00:02.858 : [zipfs] Russian_open_spaces_vehicle_truck_39.scs: Created, 2572 entries
  237. 00:00:02.894 : [zipfs] Scania 111.scs: Created, 8416 entries
  238. 00:00:02.894 : <ERROR> [mods] Cannot find '/mod_description.txt' description file for mod 'Scania 111'.
  239. 00:00:02.903 : [zipfs] Scania 124G Frontal.scs: Created, 1952 entries
  240. 00:00:02.903 : <WARNING> [mod] Mod package 'Scania 124G Frontal' does not contain a manifest file 'manifest.sii', creating default information set.
  241. 00:00:02.915 : [zipfs] Scania 143m edit by Ekualizer and Mango - [1.39].scs: Created, 2410 entries
  242. 00:00:02.922 : [zipfs] Scania R620 Fleurs denmark team modifications.scs: Created, 1063 entries
  243. 00:00:02.926 : [zipfs] Scania_lk.scs: Created, 2128 entries
  244. 00:00:02.926 : <ERROR> [mods] Cannot find '/mod_description.txt' description file for mod 'Scania_lk'.
  245. 00:00:02.928 : [zipfs] Scania_R700_HS_Schoch_DLC_Support_V1.1.scs: Created, 117 entries
  246. 00:00:02.933 : [zipfs] Scania_R700_Mighty_Griffin_DLC_Support_V1.1.scs: Created, 512 entries
  247. 00:00:02.956 : [zipfs] Scania_R700_Reworked_v3.1.scs: Created, 6873 entries
  248. 00:00:02.957 : [zipfs] Scania_R700_SiSL_Mega_Pack_Support.scs: Created, 175 entries
  249. 00:00:02.958 : [zipfs] Scania_R700_V8_Open_Pipe_V14_Support.scs: Created, 24 entries
  250. 00:00:02.967 : [zipfs] Scania_S730T_Vlaustin_Ed.scs: Created, 2516 entries
  251. 00:00:02.969 : [zipfs] scania_v8_v13.scs: Created, 200 entries
  252. 00:00:02.971 : [zipfs] schulman.scs: Created, 13 entries
  253. 00:00:03.009 : [zipfs] Shipping_Container_Cargo_Pack_v2.2_by_Satyanwesi_ETS2_1.38.scs: Created, 11576 entries
  254. 00:00:03.024 : [zipfs] sisu_m.scs: Created, 3367 entries
  255. 00:00:03.024 : [zipfs] sisu_m_cabin_accessories.scs: Created, 41 entries
  256. 00:00:03.026 : <ERROR> [zipfs] Cannot find the zip_central_dir_end signature in 'C:/Users/olmen/Documents/Euro Truck Simulator 2/mod/SKINS_RenaultTrucks_Alpine_byGrafBoinenn.scs'.
  257. 00:00:03.026 : <WARNING> [mod] Mod package 'SKINS_RenaultTrucks_Alpine_byGrafBoinenn' does not contain a manifest file 'manifest.sii', creating default information set.
  258. 00:00:03.028 : [zipfs] Snow_terrain_fix_promods_russian_open_spaces_v1.2.scs: Created, 18 entries
  259. 00:00:03.028 : <WARNING> [mods] Unknown category 'terrain' defined for Snow_terrain_fix_promods_russian_open_spaces_v1.2. Ignoring.
  260. 00:00:03.029 : [zipfs] Som_MB_1933.scs: Created, 39 entries
  261. 00:00:03.036 : [zipfs] spring_v4_1.scs: Created, 1346 entries
  262. 00:00:03.039 : [zipfs] SuperGreatV.scs: Created, 1585 entries
  263. 00:00:03.040 : [zipfs] the speed of the snow.scs: Created, 52 entries
  264. 00:00:03.045 : [zipfs] Trailer_double_ROS_39.scs: Created, 980 entries
  265. 00:00:03.051 : [zipfs] URAL-6464_ets2_ats_v26.02.21_1.39_1.40.scs: Created, 1134 entries
  266. 00:00:03.051 : [zipfs] Viking_sticker_addon.scs: Created, 9 entries
  267. 00:00:03.058 : [zipfs] VOLVO FH.scs: Created, 1194 entries
  268. 00:00:03.062 : [zipfs] Volvo Fh12(AryanEdit).scs: Created, 579 entries
  269. 00:00:03.068 : [zipfs] VOLVO NL12 EDC.scs: Created, 1031 entries
  270. 00:00:03.077 : [zipfs] Volvo460FHMegaTruck.scs: Created, 2375 entries
  271. 00:00:03.077 : <WARNING> [unit] Ignored unknown attribute compatible_version[] = 1.39.*
  272. 00:00:03.077 : <ERROR> [mods] Cannot find '/mod_description.txt' description file for mod 'Volvo460FHMegaTruck'.
  273. 00:00:03.078 : [hashfs] vw_constellation.scs: Created, 2181 entries
  274. 00:00:03.079 : <WARNING> [mods] Unknown category 'TRUCK' defined for vw_constellation. Ignoring.
  275. 00:00:03.079 : <WARNING> [mods] No valid categories defined for vw_constellation. Setting defaults.
  276. 00:00:03.079 : <ERROR> [mods] Cannot find '/description.txt' description file for mod 'vw_constellation'.
  277. 00:00:03.080 : [zipfs] WF_metallic_stripe_NG_R.scs: Created, 37 entries
  278. 00:00:03.080 : <WARNING> [mods] No valid categories defined for WF_metallic_stripe_NG_R. Setting defaults.
  279. 00:00:03.080 : <WARNING> [mods] No display_name defined in WF_metallic_stripe_NG_R. Using package name instead.
  280. 00:00:03.083 : [zipfs] Your_trailer_ROS_39.scs: Created, 198 entries
  281. 00:00:03.088 : [zipfs] Yusuf Arda Scania R500 Edit.scs: Created, 976 entries
  282. 00:00:03.088 : <WARNING> [mod] Mod package 'Yusuf Arda Scania R500 Edit' does not contain a manifest file 'manifest.sii', creating default information set.
  283. 00:00:03.093 : [zipfs] z1_PL_Rebuilding_2.5_def.scs: Created, 4619 entries
  284. 00:00:03.094 : [hashfs] z2_PL_Rebuilding_2.5_map.scs: Created, 320 entries
  285. 00:00:03.095 : [hashfs] z3_PL_Rebuilding_2.5_models.scs: Created, 16734 entries
  286. 00:00:03.095 : [hashfs] z4_PL_Rebuilding_2.5_assets.scs: Created, 6175 entries
  287. 00:00:03.096 : [zipfs] zz_PL_Rebuilding_2.5_ST.scs: Created, 17 entries
  288. 00:00:03.096 : [mod_package_manager] Requesting Steam Workshop content..
  289. 00:00:03.098 : exec /home/config.cfg
  290. 00:00:03.098 : [sys] Executing /home/config.cfg ...
  291. 00:00:03.098 : uset s_init_intro_music_mute "0"
  292. 00:00:03.098 : uset s_init_intro_music_volume "0.5"
  293. 00:00:03.098 : uset s_init_ui_music_mute "0"
  294. 00:00:03.098 : uset s_init_ui_music_volume "0.5"
  295. 00:00:03.098 : uset s_init_master_mute "0"
  296. 00:00:03.098 : uset s_init_master_volume "0.75"
  297. 00:00:03.098 : uset s_output_driver "{6794c729-148e-428f-8663-569816891875}|2|Głośniki (High Definition Audio Device) (48000 Hz)"
  298. 00:00:03.098 : uset s_live_update "0"
  299. 00:00:03.098 : uset s_suspend_sound "1"
  300. 00:00:03.098 : uset s_sound_debug "0"
  301. 00:00:03.098 : uset r_show_sun_cascades "0"
  302. 00:00:03.098 : uset r_tonemap_debug "0"
  303. 00:00:03.098 : uset r_drr_strength "8.0"
  304. 00:00:03.099 : uset r_hide_helpers "0"
  305. 00:00:03.099 : uset r_full_resolution_corrections "0"
  306. 00:00:03.099 : uset g_mm_help_shown "1"
  307. 00:00:03.099 : uset g_frame_image_fmt "jpg"
  308. 00:00:03.099 : uset g_frames_path ""
  309. 00:00:03.099 : uset g_map_note_user_id "0"
  310. 00:00:03.099 : uset g_color_feedback "1"
  311. 00:00:03.099 : uset g_disable_hud_activation "0"
  312. 00:00:03.099 : uset r_wireframe "0"
  313. 00:00:03.099 : uset g_interior_camera_zero_pitch "0"
  314. 00:00:03.099 : uset r_multimon_exterior_in_aux "0"
  315. 00:00:03.099 : uset r_multimon_interior_in_main "1"
  316. 00:00:03.099 : uset r_multimon_rotation_aux "0"
  317. 00:00:03.099 : uset r_multimon_rotation_right "0"
  318. 00:00:03.099 : uset r_multimon_rotation_left "0"
  319. 00:00:03.099 : uset r_multimon_rotation_center "0"
  320. 00:00:03.099 : uset r_multimon_vert_offset_right "0"
  321. 00:00:03.099 : uset r_multimon_vert_offset_left "0"
  322. 00:00:03.099 : uset r_multimon_border_fov_right "0"
  323. 00:00:03.099 : uset r_multimon_border_fov_left "0"
  324. 00:00:03.099 : uset r_multimon_fov_vertical "0"
  325. 00:00:03.099 : uset r_multimon_fov_horizontal "50"
  326. 00:00:03.099 : uset r_multimon_mode "0"
  327. 00:00:03.099 : uset r_use_depth_bounds "1"
  328. 00:00:03.099 : uset r_buffer_page_size "10"
  329. 00:00:03.099 : uset r_deferred_debug "0"
  330. 00:00:03.099 : uset r_mirror_scale_y "2"
  331. 00:00:03.099 : uset r_mirror_scale_x "2"
  332. 00:00:03.099 : uset r_scale_y "1.25"
  333. 00:00:03.100 : uset r_scale_x "1"
  334. 00:00:03.100 : uset r_normal_maps "1"
  335. 00:00:03.100 : uset r_sunshafts "1"
  336. 00:00:03.100 : uset r_color_saturation "1.0"
  337. 00:00:03.100 : uset r_color_yellow_blue "0.0"
  338. 00:00:03.100 : uset r_color_magenta_green "0.0"
  339. 00:00:03.100 : uset r_color_cyan_red "0.0"
  340. 00:00:03.100 : uset r_color_correction "1"
  341. 00:00:03.100 : uset r_light_flares "1"
  342. 00:00:03.100 : uset r_cloud_shadows "1"
  343. 00:00:03.100 : uset r_dof_filter_size "0.5"
  344. 00:00:03.100 : uset r_dof_transition "400.0"
  345. 00:00:03.100 : uset r_dof_start "200.0"
  346. 00:00:03.100 : uset r_dof "1"
  347. 00:00:03.100 : uset r_ssao "3"
  348. 00:00:03.100 : uset r_smaa "3"
  349. 00:00:03.100 : uset r_fake_shadows "2"
  350. 00:00:03.100 : uset r_sun_shadow_texture_size "4096"
  351. 00:00:03.100 : uset r_sun_shadow_quality "4"
  352. 00:00:03.100 : uset r_mirror_group "3"
  353. 00:00:03.100 : uset r_mirror_view_distance "120"
  354. 00:00:03.100 : uset r_deferred_mirrors "2"
  355. 00:00:03.100 : uset r_nowmi "0"
  356. 00:00:03.100 : uset r_startup_progress "0"
  357. 00:00:03.100 : uset r_setup_done "1"
  358. 00:00:03.100 : uset r_gamma "1"
  359. 00:00:03.100 : uset r_manual_stereo_buffer_scale "1.0"
  360. 00:00:03.100 : uset r_manual_stereo_ui_fov_game "100"
  361. 00:00:03.100 : uset r_manual_stereo_ui_fov "80"
  362. 00:00:03.100 : uset r_manual_stereo_ui_dist_game "0.5"
  363. 00:00:03.101 : uset r_manual_stereo_ui_dist "0.8"
  364. 00:00:03.101 : uset r_manual_stereo_in_menu "1"
  365. 00:00:03.101 : uset r_minimal_unfinished_frames "0"
  366. 00:00:03.101 : uset r_no_frame_tracking "0"
  367. 00:00:03.101 : uset r_fullscreen "1"
  368. 00:00:03.101 : uset r_mode_refresh "144"
  369. 00:00:03.101 : uset r_mode_height "1080"
  370. 00:00:03.101 : uset r_mode_width "1920"
  371. 00:00:03.101 : uset r_path ""
  372. 00:00:03.101 : uset r_device "dx11"
  373. 00:00:03.101 : uset i_virtual_cursor_speed "500.0"
  374. 00:00:03.101 : uset g_stream_exts ".ogg;.mp3"
  375. 00:00:03.101 : uset g_tobii "1"
  376. 00:00:03.101 : uset g_trackir "1"
  377. 00:00:03.101 : uset g_lod_factor_pedestrian "1"
  378. 00:00:03.101 : uset g_pedestrian "1"
  379. 00:00:03.101 : uset g_light_span_factor "1"
  380. 00:00:03.101 : uset g_light_distance_factor "1"
  381. 00:00:03.101 : uset g_vehicle_flare_lights "1"
  382. 00:00:03.101 : uset g_auto_traffic_headlights "1"
  383. 00:00:03.101 : uset g_lod_factor_parked "1.0"
  384. 00:00:03.101 : uset g_lod_factor_traffic "1.0"
  385. 00:00:03.101 : uset g_traffic "1.0"
  386. 00:00:03.101 : uset g_kdop_preview "0"
  387. 00:00:03.101 : uset g_screenshot_on_bug_quality "100"
  388. 00:00:03.101 : uset g_screenshot_on_bug "0"
  389. 00:00:03.101 : uset g_shoulder_block_coloring "0"
  390. 00:00:03.101 : uset g_debug_map_limits "0"
  391. 00:00:03.101 : uset g_city_name_move "0"
  392. 00:00:03.101 : uset g_developer "0"
  393. 00:00:03.102 : uset g_semantical_pause_inactivity "120"
  394. 00:00:03.102 : uset g_pause_on_disconnect "1"
  395. 00:00:03.102 : uset g_semantical_ff_inactivity "300"
  396. 00:00:03.102 : uset g_steam_rich_presence "1"
  397. 00:00:03.102 : uset g_steam_browser "1"
  398. 00:00:03.102 : uset g_steam_screenshots "2"
  399. 00:00:03.102 : uset g_artist_id "0"
  400. 00:00:03.102 : uset g_save_format "0"
  401. 00:00:03.102 : uset g_trailer_cables_mode "2"
  402. 00:00:03.102 : uset g_spec_trans_refill_tank "1"
  403. 00:00:03.102 : uset g_flyspeed "100.0"
  404. 00:00:03.102 : uset g_online_loading_screens "0"
  405. 00:00:03.102 : uset g_news "0"
  406. 00:00:03.102 : uset g_colbox "0"
  407. 00:00:03.102 : uset g_radio_mode "1"
  408. 00:00:03.102 : uset g_ignore_low_fps "0"
  409. 00:00:03.102 : uset g_truck_light_specular "1"
  410. 00:00:03.102 : uset g_gfx_all_scales "0"
  411. 00:00:03.102 : uset g_gfx_advanced "1"
  412. 00:00:03.102 : uset g_gfx_quality "-1"
  413. 00:00:03.102 : uset g_hq_3d_scale "0.0"
  414. 00:00:03.102 : uset g_hq_3d_screenshot "0"
  415. 00:00:03.102 : uset g_menu_aa_limit "8"
  416. 00:00:03.102 : uset g_additional_water_fov "20.0f"
  417. 00:00:03.102 : uset g_rain_reflect_hookups "1"
  418. 00:00:03.102 : uset g_rain_reflect_actor "1"
  419. 00:00:03.102 : uset g_rain_reflect_traffic "1"
  420. 00:00:03.102 : uset g_rain_reflect_cache "1"
  421. 00:00:03.102 : uset g_rain_reflection "3"
  422. 00:00:03.102 : uset g_reflection_scale "0"
  423. 00:00:03.103 : uset g_reflection "3"
  424. 00:00:03.103 : uset g_grass_density "2"
  425. 00:00:03.103 : uset g_veg_detail "2"
  426. 00:00:03.103 : uset g_save_indicator "1"
  427. 00:00:03.103 : uset g_game_version "1.40.5.0"
  428. 00:00:03.103 : uset g_force_online_lscrs "0"
  429. 00:00:03.103 : uset g_hw_info "1"
  430. 00:00:03.103 : uset g_glass_debugging_level "0"
  431. 00:00:03.103 : uset g_line_sort "0"
  432. 00:00:03.103 : uset g_cargo_sort "0"
  433. 00:00:03.103 : uset g_bloom_standard_deviation "0.5"
  434. 00:00:03.103 : uset g_bloom_override "0"
  435. 00:00:03.103 : uset g_bloom "1.0"
  436. 00:00:03.103 : uset g_global_force_load_selector "0"
  437. 00:00:03.103 : uset g_desktop_fadeout "60"
  438. 00:00:03.103 : uset g_minicon "0"
  439. 00:00:03.103 : uset g_console_state "0"
  440. 00:00:03.103 : uset g_console "0"
  441. 00:00:03.103 : uset g_texture_usage_stats "0"
  442. 00:00:03.103 : uset g_fps "0"
  443. 00:00:03.103 : uset ui_tooltip_delay "0.4"
  444. 00:00:03.103 : uset r_output "-1"
  445. 00:00:03.103 : uset r_adapter "-1"
  446. 00:00:03.103 : uset r_vsync "1"
  447. 00:00:03.103 : uset r_color_mode "0"
  448. 00:00:03.103 : uset r_anisotropy_factor "1"
  449. 00:00:03.103 : uset r_texture_detail "0"
  450. 00:00:03.103 : uset cf_asus_aura "1"
  451. 00:00:03.103 : uset cf_razer_chroma "1"
  452. 00:00:03.103 : uset v_bug_break "0"
  453. 00:00:03.104 : uset t_locked_fps "0"
  454. 00:00:03.104 : uset t_averaging_window_length "20"
  455. 00:00:03.123 : [lang] Language autodetection: 415
  456. 00:00:03.136 : Selected language: pl_pl
  457. 00:00:03.136 : Euro Truck Simulator 2 init ver.1.40.5.0s (rev. 1edab13331ec)
  458. 00:00:03.137 : [gfx] Selected rendering device: dx11
  459. 00:00:03.163 : [gfx] NVAPI initialized
  460. 00:00:03.167 : [gfx] AGS not detected. (6)
  461. 00:00:03.298 : [net] LOG INFO: Started
  462. 00:00:03.308 : [fs] device mounted.
  463. 00:00:03.310 : Setting UI reference mode to: 1440x900...
  464. 00:00:03.312 : [dxgi] Detected following adapters:
  465. 00:00:03.317 : [dxgi] 0 - NVIDIA GeForce GTX 1060 6GB (27.21.14.5751) [6052 MB]
  466. 00:00:03.318 : [gfx] Using the DXGI display backend
  467. 00:00:03.459 : [dxgi] Using adapter: NVIDIA GeForce GTX 1060 6GB (27.21.14.5751) [6052 MB]
  468. 00:00:03.468 : [dx11] Using SM5X rendering path
  469. 00:00:03.677 : [disp] Adapter 0: on DXGI backend
  470. 00:00:03.677 : [disp] Output 0 : \\.\DISPLAY1 - CRTC @ (0, 0, 1920, 1080)
  471. 00:00:03.677 : [disp] Detected color modes:
  472. 00:00:03.678 : [disp] Mode 0 - SDR
  473. 00:00:03.678 : [disp] Display MinLum: 0.500000, MaxLum 270.000000, MaxAvgLum: 270.000000
  474. 00:00:03.678 : [disp] Mode 0 - 640x480 (32bpp) [60Hz]
  475. 00:00:03.678 : [disp] Mode 1 - 640x480 (32bpp) [60Hz]
  476. 00:00:03.678 : [disp] Mode 2 - 640x480 (32bpp) [99Hz]
  477. 00:00:03.678 : [disp] Mode 3 - 640x480 (32bpp) [99Hz]
  478. 00:00:03.678 : [disp] Mode 4 - 640x480 (32bpp) [119Hz]
  479. 00:00:03.678 : [disp] Mode 5 - 640x480 (32bpp) [119Hz]
  480. 00:00:03.678 : [disp] Mode 6 - 640x480 (32bpp) [144Hz]
  481. 00:00:03.678 : [disp] Mode 7 - 640x480 (32bpp) [144Hz]
  482. 00:00:03.678 : [disp] Mode 8 - 720x480 (32bpp) [60Hz]
  483. 00:00:03.678 : [disp] Mode 9 - 720x480 (32bpp) [60Hz]
  484. 00:00:03.678 : [disp] Mode 10 - 720x480 (32bpp) [99Hz]
  485. 00:00:03.678 : [disp] Mode 11 - 720x480 (32bpp) [99Hz]
  486. 00:00:03.678 : [disp] Mode 12 - 720x480 (32bpp) [119Hz]
  487. 00:00:03.678 : [disp] Mode 13 - 720x480 (32bpp) [119Hz]
  488. 00:00:03.678 : [disp] Mode 14 - 720x480 (32bpp) [144Hz]
  489. 00:00:03.678 : [disp] Mode 15 - 720x480 (32bpp) [144Hz]
  490. 00:00:03.678 : [disp] Mode 16 - 720x576 (32bpp) [60Hz]
  491. 00:00:03.678 : [disp] Mode 17 - 720x576 (32bpp) [60Hz]
  492. 00:00:03.678 : [disp] Mode 18 - 720x576 (32bpp) [99Hz]
  493. 00:00:03.678 : [disp] Mode 19 - 720x576 (32bpp) [99Hz]
  494. 00:00:03.678 : [disp] Mode 20 - 720x576 (32bpp) [119Hz]
  495. 00:00:03.678 : [disp] Mode 21 - 720x576 (32bpp) [119Hz]
  496. 00:00:03.678 : [disp] Mode 22 - 720x576 (32bpp) [144Hz]
  497. 00:00:03.678 : [disp] Mode 23 - 720x576 (32bpp) [144Hz]
  498. 00:00:03.678 : [disp] Mode 24 - 800x600 (32bpp) [60Hz]
  499. 00:00:03.678 : [disp] Mode 25 - 800x600 (32bpp) [60Hz]
  500. 00:00:03.679 : [disp] Mode 26 - 800x600 (32bpp) [99Hz]
  501. 00:00:03.679 : [disp] Mode 27 - 800x600 (32bpp) [99Hz]
  502. 00:00:03.679 : [disp] Mode 28 - 800x600 (32bpp) [119Hz]
  503. 00:00:03.679 : [disp] Mode 29 - 800x600 (32bpp) [119Hz]
  504. 00:00:03.679 : [disp] Mode 30 - 800x600 (32bpp) [144Hz]
  505. 00:00:03.679 : [disp] Mode 31 - 800x600 (32bpp) [144Hz]
  506. 00:00:03.679 : [disp] Mode 32 - 1024x768 (32bpp) [60Hz]
  507. 00:00:03.679 : [disp] Mode 33 - 1024x768 (32bpp) [60Hz]
  508. 00:00:03.679 : [disp] Mode 34 - 1024x768 (32bpp) [99Hz]
  509. 00:00:03.679 : [disp] Mode 35 - 1024x768 (32bpp) [99Hz]
  510. 00:00:03.679 : [disp] Mode 36 - 1024x768 (32bpp) [119Hz]
  511. 00:00:03.679 : [disp] Mode 37 - 1024x768 (32bpp) [119Hz]
  512. 00:00:03.679 : [disp] Mode 38 - 1024x768 (32bpp) [144Hz]
  513. 00:00:03.679 : [disp] Mode 39 - 1024x768 (32bpp) [144Hz]
  514. 00:00:03.679 : [disp] Mode 40 - 1152x864 (32bpp) [60Hz]
  515. 00:00:03.679 : [disp] Mode 41 - 1152x864 (32bpp) [60Hz]
  516. 00:00:03.679 : [disp] Mode 42 - 1152x864 (32bpp) [99Hz]
  517. 00:00:03.679 : [disp] Mode 43 - 1152x864 (32bpp) [99Hz]
  518. 00:00:03.679 : [disp] Mode 44 - 1152x864 (32bpp) [119Hz]
  519. 00:00:03.679 : [disp] Mode 45 - 1152x864 (32bpp) [119Hz]
  520. 00:00:03.679 : [disp] Mode 46 - 1152x864 (32bpp) [144Hz]
  521. 00:00:03.679 : [disp] Mode 47 - 1152x864 (32bpp) [144Hz]
  522. 00:00:03.679 : [disp] Mode 48 - 1280x720 (32bpp) [60Hz]
  523. 00:00:03.679 : [disp] Mode 49 - 1280x720 (32bpp) [60Hz]
  524. 00:00:03.679 : [disp] Mode 50 - 1280x720 (32bpp) [99Hz]
  525. 00:00:03.679 : [disp] Mode 51 - 1280x720 (32bpp) [99Hz]
  526. 00:00:03.679 : [disp] Mode 52 - 1280x720 (32bpp) [119Hz]
  527. 00:00:03.679 : [disp] Mode 53 - 1280x720 (32bpp) [119Hz]
  528. 00:00:03.679 : [disp] Mode 54 - 1280x720 (32bpp) [144Hz]
  529. 00:00:03.679 : [disp] Mode 55 - 1280x720 (32bpp) [144Hz]
  530. 00:00:03.680 : [disp] Mode 56 - 1280x768 (32bpp) [60Hz]
  531. 00:00:03.680 : [disp] Mode 57 - 1280x768 (32bpp) [60Hz]
  532. 00:00:03.680 : [disp] Mode 58 - 1280x768 (32bpp) [99Hz]
  533. 00:00:03.680 : [disp] Mode 59 - 1280x768 (32bpp) [99Hz]
  534. 00:00:03.680 : [disp] Mode 60 - 1280x768 (32bpp) [119Hz]
  535. 00:00:03.680 : [disp] Mode 61 - 1280x768 (32bpp) [119Hz]
  536. 00:00:03.680 : [disp] Mode 62 - 1280x768 (32bpp) [144Hz]
  537. 00:00:03.680 : [disp] Mode 63 - 1280x768 (32bpp) [144Hz]
  538. 00:00:03.680 : [disp] Mode 64 - 1280x800 (32bpp) [60Hz]
  539. 00:00:03.680 : [disp] Mode 65 - 1280x800 (32bpp) [60Hz]
  540. 00:00:03.680 : [disp] Mode 66 - 1280x800 (32bpp) [99Hz]
  541. 00:00:03.680 : [disp] Mode 67 - 1280x800 (32bpp) [99Hz]
  542. 00:00:03.680 : [disp] Mode 68 - 1280x800 (32bpp) [119Hz]
  543. 00:00:03.680 : [disp] Mode 69 - 1280x800 (32bpp) [119Hz]
  544. 00:00:03.680 : [disp] Mode 70 - 1280x800 (32bpp) [144Hz]
  545. 00:00:03.680 : [disp] Mode 71 - 1280x800 (32bpp) [144Hz]
  546. 00:00:03.680 : [disp] Mode 72 - 1280x960 (32bpp) [60Hz]
  547. 00:00:03.680 : [disp] Mode 73 - 1280x960 (32bpp) [60Hz]
  548. 00:00:03.680 : [disp] Mode 74 - 1280x960 (32bpp) [99Hz]
  549. 00:00:03.680 : [disp] Mode 75 - 1280x960 (32bpp) [99Hz]
  550. 00:00:03.680 : [disp] Mode 76 - 1280x960 (32bpp) [119Hz]
  551. 00:00:03.680 : [disp] Mode 77 - 1280x960 (32bpp) [119Hz]
  552. 00:00:03.680 : [disp] Mode 78 - 1280x960 (32bpp) [144Hz]
  553. 00:00:03.680 : [disp] Mode 79 - 1280x960 (32bpp) [144Hz]
  554. 00:00:03.680 : [disp] Mode 80 - 1280x1024 (32bpp) [60Hz]
  555. 00:00:03.680 : [disp] Mode 81 - 1280x1024 (32bpp) [60Hz]
  556. 00:00:03.680 : [disp] Mode 82 - 1280x1024 (32bpp) [99Hz]
  557. 00:00:03.680 : [disp] Mode 83 - 1280x1024 (32bpp) [99Hz]
  558. 00:00:03.681 : [disp] Mode 84 - 1280x1024 (32bpp) [119Hz]
  559. 00:00:03.681 : [disp] Mode 85 - 1280x1024 (32bpp) [119Hz]
  560. 00:00:03.681 : [disp] Mode 86 - 1280x1024 (32bpp) [144Hz]
  561. 00:00:03.681 : [disp] Mode 87 - 1280x1024 (32bpp) [144Hz]
  562. 00:00:03.681 : [disp] Mode 88 - 1360x768 (32bpp) [60Hz]
  563. 00:00:03.681 : [disp] Mode 89 - 1360x768 (32bpp) [60Hz]
  564. 00:00:03.681 : [disp] Mode 90 - 1360x768 (32bpp) [99Hz]
  565. 00:00:03.681 : [disp] Mode 91 - 1360x768 (32bpp) [99Hz]
  566. 00:00:03.681 : [disp] Mode 92 - 1360x768 (32bpp) [119Hz]
  567. 00:00:03.681 : [disp] Mode 93 - 1360x768 (32bpp) [119Hz]
  568. 00:00:03.681 : [disp] Mode 94 - 1360x768 (32bpp) [144Hz]
  569. 00:00:03.681 : [disp] Mode 95 - 1360x768 (32bpp) [144Hz]
  570. 00:00:03.681 : [disp] Mode 96 - 1366x768 (32bpp) [60Hz]
  571. 00:00:03.681 : [disp] Mode 97 - 1366x768 (32bpp) [60Hz]
  572. 00:00:03.681 : [disp] Mode 98 - 1366x768 (32bpp) [99Hz]
  573. 00:00:03.681 : [disp] Mode 99 - 1366x768 (32bpp) [99Hz]
  574. 00:00:03.681 : [disp] Mode 100 - 1366x768 (32bpp) [119Hz]
  575. 00:00:03.681 : [disp] Mode 101 - 1366x768 (32bpp) [119Hz]
  576. 00:00:03.681 : [disp] Mode 102 - 1366x768 (32bpp) [144Hz]
  577. 00:00:03.681 : [disp] Mode 103 - 1366x768 (32bpp) [144Hz]
  578. 00:00:03.681 : [disp] Mode 104 - 1440x900 (32bpp) [60Hz]
  579. 00:00:03.681 : [disp] Mode 105 - 1440x900 (32bpp) [60Hz]
  580. 00:00:03.681 : [disp] Mode 106 - 1440x900 (32bpp) [99Hz]
  581. 00:00:03.681 : [disp] Mode 107 - 1440x900 (32bpp) [99Hz]
  582. 00:00:03.681 : [disp] Mode 108 - 1440x900 (32bpp) [119Hz]
  583. 00:00:03.681 : [disp] Mode 109 - 1440x900 (32bpp) [119Hz]
  584. 00:00:03.681 : [disp] Mode 110 - 1440x900 (32bpp) [144Hz]
  585. 00:00:03.681 : [disp] Mode 111 - 1440x900 (32bpp) [144Hz]
  586. 00:00:03.681 : [disp] Mode 112 - 1600x900 (32bpp) [60Hz]
  587. 00:00:03.681 : [disp] Mode 113 - 1600x900 (32bpp) [60Hz]
  588. 00:00:03.682 : [disp] Mode 114 - 1600x900 (32bpp) [99Hz]
  589. 00:00:03.682 : [disp] Mode 115 - 1600x900 (32bpp) [99Hz]
  590. 00:00:03.682 : [disp] Mode 116 - 1600x900 (32bpp) [119Hz]
  591. 00:00:03.682 : [disp] Mode 117 - 1600x900 (32bpp) [119Hz]
  592. 00:00:03.682 : [disp] Mode 118 - 1600x900 (32bpp) [144Hz]
  593. 00:00:03.682 : [disp] Mode 119 - 1600x900 (32bpp) [144Hz]
  594. 00:00:03.682 : [disp] Mode 120 - 1600x1024 (32bpp) [60Hz]
  595. 00:00:03.682 : [disp] Mode 121 - 1600x1024 (32bpp) [60Hz]
  596. 00:00:03.682 : [disp] Mode 122 - 1600x1024 (32bpp) [99Hz]
  597. 00:00:03.682 : [disp] Mode 123 - 1600x1024 (32bpp) [99Hz]
  598. 00:00:03.682 : [disp] Mode 124 - 1600x1024 (32bpp) [119Hz]
  599. 00:00:03.682 : [disp] Mode 125 - 1600x1024 (32bpp) [119Hz]
  600. 00:00:03.682 : [disp] Mode 126 - 1600x1024 (32bpp) [144Hz]
  601. 00:00:03.682 : [disp] Mode 127 - 1600x1024 (32bpp) [144Hz]
  602. 00:00:03.682 : [disp] Mode 128 - 1680x1050 (32bpp) [60Hz]
  603. 00:00:03.682 : [disp] Mode 129 - 1680x1050 (32bpp) [60Hz]
  604. 00:00:03.682 : [disp] Mode 130 - 1680x1050 (32bpp) [99Hz]
  605. 00:00:03.682 : [disp] Mode 131 - 1680x1050 (32bpp) [99Hz]
  606. 00:00:03.682 : [disp] Mode 132 - 1680x1050 (32bpp) [119Hz]
  607. 00:00:03.682 : [disp] Mode 133 - 1680x1050 (32bpp) [119Hz]
  608. 00:00:03.682 : [disp] Mode 134 - 1680x1050 (32bpp) [144Hz]
  609. 00:00:03.682 : [disp] Mode 135 - 1680x1050 (32bpp) [144Hz]
  610. 00:00:03.682 : [disp] Mode 136 - 1920x1080 (32bpp) [60Hz]
  611. 00:00:03.682 : [disp] Mode 137 - 1920x1080 (32bpp) [99Hz]
  612. 00:00:03.682 : [disp] Mode 138 - 1920x1080 (32bpp) [119Hz]
  613. 00:00:03.682 : [disp] Mode 139 - 1920x1080 (32bpp) [144Hz]
  614. 00:00:04.600 : [sound] Available drivers: #2
  615. 00:00:04.604 : [sound] Driver 0 = Głośniki (High Definition Audio Device) (48000 Hz) ({6794c729-148e-428f-8663-569816891875})
  616. 00:00:04.619 : [sound] Driver 1 = Głośniki (USB PnP Sound Device) (48000 Hz) ({fe9cbd6f-1693-40b1-9528-33aabc1659fc})
  617. 00:00:04.793 : [sound] Selecting audio driver Głośniki (High Definition Audio Device) (48000 Hz) ({6794c729-148e-428f-8663-569816891875})
  618. 00:00:04.961 : [di8] Initializing device '@@keyboard@@' as 'keyboard'
  619. 00:00:04.962 : [di8] Initializing device '@@i_mouse@@' as 'mouse'
  620. 00:00:05.094 : <WARNING> [di8] Device detection did take 131ms, disabling interactive detections
  621. 00:00:05.803 : dispatch
  622. 00:00:05.803 : exit
  623. 00:00:06.166 : [bullet] Starting physics server: Bullet
  624. 00:00:07.535 : [fs] device D:/Steam/steamapps/workshop/content/227300/1911063424 mounted.
  625. 00:00:07.536 : [fs] device D:/Steam/steamapps/workshop/content/227300/1911063424/universal mounted.
  626. 00:00:07.538 : [fs] device D:/Steam/steamapps/workshop/content/227300/695558935 mounted.
  627. 00:00:07.540 : [zipfs] universal.zip: Created, 255 entries
  628. 00:00:07.540 : [fs] device D:/Steam/steamapps/workshop/content/227300/695558935/universal.zip mounted.
  629. 00:00:07.540 : [zipfs] universal.zip: Unmounted
  630. 00:00:07.541 : [fs] device D:/Steam/steamapps/workshop/content/227300/1086441214 mounted.
  631. 00:00:07.542 : [fs] device D:/Steam/steamapps/workshop/content/227300/1086441214/universal mounted.
  632. 00:00:07.543 : [fs] device D:/Steam/steamapps/workshop/content/227300/2490299318 mounted.
  633. 00:00:07.613 : [zipfs] 4k_8k_scania_s_le_130_years_skinpack.zip: Created, 122 entries
  634. 00:00:07.613 : [fs] device D:/Steam/steamapps/workshop/content/227300/2490299318/4k_8k_scania_s_le_130_years_skinpack.zip mounted.
  635. 00:00:07.613 : [zipfs] 4k_8k_scania_s_le_130_years_skinpack.zip: Unmounted
  636. 00:00:07.615 : [fs] device D:/Steam/steamapps/workshop/content/227300/1517604028 mounted.
  637. 00:00:07.616 : [fs] device D:/Steam/steamapps/workshop/content/227300/1517604028/universal mounted.
  638. 00:00:07.618 : [fs] device D:/Steam/steamapps/workshop/content/227300/1541812438 mounted.
  639. 00:00:07.618 : [fs] device D:/Steam/steamapps/workshop/content/227300/1541812438/universal mounted.
  640. 00:00:07.620 : [fs] device D:/Steam/steamapps/workshop/content/227300/651417619 mounted.
  641. 00:00:07.649 : [zipfs] accessories_by_michaleczeq_v5_0.zip: Created, 684 entries
  642. 00:00:07.649 : [fs] device D:/Steam/steamapps/workshop/content/227300/651417619/accessories_by_michaleczeq_v5_0.zip mounted.
  643. 00:00:07.649 : [zipfs] accessories_by_michaleczeq_v5_0.zip: Unmounted
  644. 00:00:07.650 : [fs] device D:/Steam/steamapps/workshop/content/227300/2330331389 mounted.
  645. 00:00:07.651 : [zipfs] universal.zip: Created, 18 entries
  646. 00:00:07.651 : [fs] device D:/Steam/steamapps/workshop/content/227300/2330331389/universal.zip mounted.
  647. 00:00:07.651 : [zipfs] universal.zip: Unmounted
  648. 00:00:07.651 : [fs] device D:/Steam/steamapps/workshop/content/227300/1061306287 mounted.
  649. 00:00:07.652 : [fs] device D:/Steam/steamapps/workshop/content/227300/1061306287/neu mounted.
  650. 00:00:07.652 : <WARNING> [mods] No valid categories defined for mod_workshop_package.000000003F423FAF. Setting defaults.
  651. 00:00:07.653 : [fs] device D:/Steam/steamapps/workshop/content/227300/2181133035 mounted.
  652. 00:00:07.653 : [fs] device D:/Steam/steamapps/workshop/content/227300/2181133035/addonrr_info mounted.
  653. 00:00:07.654 : [fs] device D:/Steam/steamapps/workshop/content/227300/811342223 mounted.
  654. 00:00:07.655 : [fs] device D:/Steam/steamapps/workshop/content/227300/811342223/aam_randleman mounted.
  655. 00:00:07.656 : <WARNING> [mods] Too many categories defined for mod_workshop_package.00000000305C198F - limit 2. Using first 2.
  656. 00:00:07.657 : [fs] device D:/Steam/steamapps/workshop/content/227300/1242589995 mounted.
  657. 00:00:07.657 : [fs] device D:/Steam/steamapps/workshop/content/227300/1242589995/universal mounted.
  658. 00:00:07.658 : [fs] device D:/Steam/steamapps/workshop/content/227300/1582135407 mounted.
  659. 00:00:07.659 : [fs] device D:/Steam/steamapps/workshop/content/227300/1582135407/universal mounted.
  660. 00:00:07.660 : [fs] device D:/Steam/steamapps/workshop/content/227300/1895710100 mounted.
  661. 00:00:07.660 : [fs] device D:/Steam/steamapps/workshop/content/227300/1895710100/universal mounted.
  662. 00:00:07.661 : [fs] device D:/Steam/steamapps/workshop/content/227300/682436626 mounted.
  663. 00:00:07.707 : [zipfs] D:/Steam/steamapps/workshop/content/227300/682436626/all_special_cars_in_traffic_v_1_8_8_1s_skleroza.zip: www.skleroza.ge
  664.  
  665. 00:00:07.707 : [zipfs] D:/Steam/steamapps/workshop/content/227300/682436626/all_special_cars_in_traffic_v_1_8_8_1s_skleroza.zip: skleroza@skleroza.ge
  666.  
  667. 00:00:07.707 : [zipfs] D:/Steam/steamapps/workshop/content/227300/682436626/all_special_cars_in_traffic_v_1_8_8_1s_skleroza.zip: all rights reserved
  668.  
  669. 00:00:07.707 : [zipfs] D:/Steam/steamapps/workshop/content/227300/682436626/all_special_cars_in_traffic_v_1_8_8_1s_skleroza.zip: © skleroza 2016-2019
  670. 00:00:07.707 : [zipfs] all_special_cars_in_traffic_v_1_8_8_1s_skleroza.zip: Created, 1089 entries
  671. 00:00:07.707 : [fs] device D:/Steam/steamapps/workshop/content/227300/682436626/all_special_cars_in_traffic_v_1_8_8_1s_skleroza.zip mounted.
  672. 00:00:07.707 : [zipfs] all_special_cars_in_traffic_v_1_8_8_1s_skleroza.zip: Unmounted
  673. 00:00:07.708 : [fs] device D:/Steam/steamapps/workshop/content/227300/2361732641 mounted.
  674. 00:00:07.748 : [zipfs] alpinef1tdp.zip: Created, 67 entries
  675. 00:00:07.749 : [fs] device D:/Steam/steamapps/workshop/content/227300/2361732641/alpinef1tdp.zip mounted.
  676. 00:00:07.749 : <WARNING> [mods] Too many categories defined for mod_workshop_package.000000008CC52E21 - limit 2. Using first 2.
  677. 00:00:07.749 : [zipfs] alpinef1tdp.zip: Unmounted
  678. 00:00:07.750 : [fs] device D:/Steam/steamapps/workshop/content/227300/1077562289 mounted.
  679. 00:00:07.752 : [zipfs] symbole.zip: Created, 16 entries
  680. 00:00:07.752 : [fs] device D:/Steam/steamapps/workshop/content/227300/1077562289/symbole.zip mounted.
  681. 00:00:07.753 : [zipfs] symbole.zip: Unmounted
  682. 00:00:07.754 : [fs] device D:/Steam/steamapps/workshop/content/227300/2428032098 mounted.
  683. 00:00:07.777 : [zipfs] universal.zip: Created, 1085 entries
  684. 00:00:07.777 : [fs] device D:/Steam/steamapps/workshop/content/227300/2428032098/universal.zip mounted.
  685. 00:00:07.778 : [zipfs] universal.zip: Unmounted
  686. 00:00:07.779 : [fs] device D:/Steam/steamapps/workshop/content/227300/950255772 mounted.
  687. 00:00:07.779 : [fs] device D:/Steam/steamapps/workshop/content/227300/950255772/universal mounted.
  688. 00:00:07.781 : [fs] device D:/Steam/steamapps/workshop/content/227300/1130241678 mounted.
  689. 00:00:07.782 : [fs] device D:/Steam/steamapps/workshop/content/227300/1130241678/aqteam_daf mounted.
  690. 00:00:07.782 : <WARNING> [mods] Unknown category 'truck parts' defined for mod_workshop_package.00000000435E1E8E. Ignoring.
  691. 00:00:07.782 : <WARNING> [mods] No valid categories defined for mod_workshop_package.00000000435E1E8E. Setting defaults.
  692. 00:00:07.783 : [fs] device D:/Steam/steamapps/workshop/content/227300/1203474845 mounted.
  693. 00:00:07.821 : [zipfs] 140.zip: Created, 198 entries
  694. 00:00:07.822 : [fs] device D:/Steam/steamapps/workshop/content/227300/1203474845/140.zip mounted.
  695. 00:00:07.822 : [zipfs] 140.zip: Unmounted
  696. 00:00:07.823 : [fs] device D:/Steam/steamapps/workshop/content/227300/1447634089 mounted.
  697. 00:00:07.847 : [zipfs] universal.zip: Created, 116 entries
  698. 00:00:07.847 : [fs] device D:/Steam/steamapps/workshop/content/227300/1447634089/universal.zip mounted.
  699. 00:00:07.847 : [zipfs] universal.zip: Unmounted
  700. 00:00:07.849 : [fs] device D:/Steam/steamapps/workshop/content/227300/1448685199 mounted.
  701. 00:00:07.850 : [zipfs] universal.zip: Created, 35 entries
  702. 00:00:07.851 : [fs] device D:/Steam/steamapps/workshop/content/227300/1448685199/universal.zip mounted.
  703. 00:00:07.851 : [zipfs] universal.zip: Unmounted
  704. 00:00:07.852 : [fs] device D:/Steam/steamapps/workshop/content/227300/669953823 mounted.
  705. 00:00:07.914 : [zipfs] bsm16_3.zip: Created, 3313 entries
  706. 00:00:07.914 : [fs] device D:/Steam/steamapps/workshop/content/227300/669953823/bsm16_3.zip mounted.
  707. 00:00:07.914 : [zipfs] bsm16_3.zip: Unmounted
  708. 00:00:07.915 : [fs] device D:/Steam/steamapps/workshop/content/227300/645588605 mounted.
  709. 00:00:07.955 : [zipfs] D:/Steam/steamapps/workshop/content/227300/645588605/bigbus_traffic_pack_v_1_6_4_skleroza.zip: www.skleroza.ge
  710.  
  711. 00:00:07.955 : [zipfs] D:/Steam/steamapps/workshop/content/227300/645588605/bigbus_traffic_pack_v_1_6_4_skleroza.zip: skleroza@skleroza.ge
  712.  
  713. 00:00:07.956 : [zipfs] D:/Steam/steamapps/workshop/content/227300/645588605/bigbus_traffic_pack_v_1_6_4_skleroza.zip: all rights reserved
  714.  
  715. 00:00:07.956 : [zipfs] D:/Steam/steamapps/workshop/content/227300/645588605/bigbus_traffic_pack_v_1_6_4_skleroza.zip: © skleroza 2016-2019
  716. 00:00:07.956 : [zipfs] bigbus_traffic_pack_v_1_6_4_skleroza.zip: Created, 276 entries
  717. 00:00:07.956 : [fs] device D:/Steam/steamapps/workshop/content/227300/645588605/bigbus_traffic_pack_v_1_6_4_skleroza.zip mounted.
  718. 00:00:07.957 : [zipfs] bigbus_traffic_pack_v_1_6_4_skleroza.zip: Unmounted
  719. 00:00:07.957 : [fs] device D:/Steam/steamapps/workshop/content/227300/2116275818 mounted.
  720. 00:00:07.958 : [fs] device D:/Steam/steamapps/workshop/content/227300/2116275818/universal mounted.
  721. 00:00:07.959 : [fs] device D:/Steam/steamapps/workshop/content/227300/1163681826 mounted.
  722. 00:00:07.960 : [fs] device D:/Steam/steamapps/workshop/content/227300/1163681826/maika mounted.
  723. 00:00:07.961 : <WARNING> [mods] No valid categories defined for mod_workshop_package.00000000455C6022. Setting defaults.
  724. 00:00:07.962 : [fs] device D:/Steam/steamapps/workshop/content/227300/1307792187 mounted.
  725. 00:00:07.995 : [zipfs] obel_bore_led_v18.zip: Created, 245 entries
  726. 00:00:07.995 : [fs] device D:/Steam/steamapps/workshop/content/227300/1307792187/obel_bore_led_v18.zip mounted.
  727. 00:00:07.995 : [zipfs] obel_bore_led_v18.zip: Unmounted
  728. 00:00:07.997 : [fs] device D:/Steam/steamapps/workshop/content/227300/722556390 mounted.
  729. 00:00:07.998 : [fs] device D:/Steam/steamapps/workshop/content/227300/722556390/universal mounted.
  730. 00:00:08.000 : [fs] device D:/Steam/steamapps/workshop/content/227300/703424203 mounted.
  731. 00:00:08.001 : [fs] device D:/Steam/steamapps/workshop/content/227300/703424203/ultimate mounted.
  732. 00:00:08.002 : <WARNING> [mods] No valid categories defined for mod_workshop_package.0000000029ED66CB. Setting defaults.
  733. 00:00:08.004 : [fs] device D:/Steam/steamapps/workshop/content/227300/812055139 mounted.
  734. 00:00:08.005 : [zipfs] info_content.zip: Created, 3 entries
  735. 00:00:08.006 : [fs] device D:/Steam/steamapps/workshop/content/227300/812055139/info_content.zip mounted.
  736. 00:00:08.006 : [zipfs] info_content.zip: Unmounted
  737. 00:00:08.007 : [fs] device D:/Steam/steamapps/workshop/content/227300/2118463356 mounted.
  738. 00:00:08.008 : [fs] device D:/Steam/steamapps/workshop/content/227300/2118463356/universal mounted.
  739. 00:00:08.009 : [fs] device D:/Steam/steamapps/workshop/content/227300/1264470896 mounted.
  740. 00:00:08.010 : [fs] device D:/Steam/steamapps/workshop/content/227300/1264470896/universal mounted.
  741. 00:00:08.011 : <WARNING> [mods] Unknown category 'acessories' defined for mod_workshop_package.000000004B5E4B70. Ignoring.
  742. 00:00:08.011 : <WARNING> [mods] No valid categories defined for mod_workshop_package.000000004B5E4B70. Setting defaults.
  743. 00:00:08.012 : [fs] device D:/Steam/steamapps/workshop/content/227300/1116441136 mounted.
  744. 00:00:08.013 : [fs] device D:/Steam/steamapps/workshop/content/227300/1116441136/universal mounted.
  745. 00:00:08.014 : [fs] device D:/Steam/steamapps/workshop/content/227300/1398224880 mounted.
  746. 00:00:08.015 : [fs] device D:/Steam/steamapps/workshop/content/227300/1398224880/universal mounted.
  747. 00:00:08.016 : [fs] device D:/Steam/steamapps/workshop/content/227300/1588303211 mounted.
  748. 00:00:08.017 : [fs] device D:/Steam/steamapps/workshop/content/227300/1588303211/universal mounted.
  749. 00:00:08.019 : [fs] device D:/Steam/steamapps/workshop/content/227300/1366662994 mounted.
  750. 00:00:08.019 : [fs] device D:/Steam/steamapps/workshop/content/227300/1366662994/dafvoeg mounted.
  751. 00:00:08.021 : [fs] device D:/Steam/steamapps/workshop/content/227300/1374997866 mounted.
  752. 00:00:08.022 : [fs] device D:/Steam/steamapps/workshop/content/227300/1374997866/universal mounted.
  753. 00:00:08.023 : [fs] device D:/Steam/steamapps/workshop/content/227300/1117624709 mounted.
  754. 00:00:08.024 : [fs] device D:/Steam/steamapps/workshop/content/227300/1117624709/daf mounted.
  755. 00:00:08.026 : [fs] device D:/Steam/steamapps/workshop/content/227300/955832924 mounted.
  756. 00:00:08.026 : [fs] device D:/Steam/steamapps/workshop/content/227300/955832924/universal mounted.
  757. 00:00:08.027 : [fs] device D:/Steam/steamapps/workshop/content/227300/1987056612 mounted.
  758. 00:00:08.027 : [fs] device D:/Steam/steamapps/workshop/content/227300/1987056612/universal mounted.
  759. 00:00:08.028 : [fs] device D:/Steam/steamapps/workshop/content/227300/2059298298 mounted.
  760. 00:00:08.029 : [zipfs] dbus_shared_assets_40_s.zip: Created, 216 entries
  761. 00:00:08.029 : [fs] device D:/Steam/steamapps/workshop/content/227300/2059298298/dbus_shared_assets_40_s.zip mounted.
  762. 00:00:08.029 : [zipfs] dbus_shared_assets_40_s.zip: Unmounted
  763. 00:00:08.030 : [fs] device D:/Steam/steamapps/workshop/content/227300/620895569 mounted.
  764. 00:00:08.030 : [fs] device D:/Steam/steamapps/workshop/content/227300/620895569/universal mounted.
  765. 00:00:08.031 : [fs] device D:/Steam/steamapps/workshop/content/227300/620915774 mounted.
  766. 00:00:08.031 : [fs] device D:/Steam/steamapps/workshop/content/227300/620915774/universal mounted.
  767. 00:00:08.032 : [fs] device D:/Steam/steamapps/workshop/content/227300/1550090553 mounted.
  768. 00:00:08.033 : [zipfs] universal.zip: Created, 143 entries
  769. 00:00:08.033 : [fs] device D:/Steam/steamapps/workshop/content/227300/1550090553/universal.zip mounted.
  770. 00:00:08.033 : [zipfs] universal.zip: Unmounted
  771. 00:00:08.033 : [fs] device D:/Steam/steamapps/workshop/content/227300/2466501192 mounted.
  772. 00:00:08.033 : [fs] device D:/Steam/steamapps/workshop/content/227300/2466501192/universal mounted.
  773. 00:00:08.034 : [fs] device D:/Steam/steamapps/workshop/content/227300/959120055 mounted.
  774. 00:00:08.034 : [fs] device D:/Steam/steamapps/workshop/content/227300/959120055/universal mounted.
  775. 00:00:08.035 : [fs] device D:/Steam/steamapps/workshop/content/227300/2182624925 mounted.
  776. 00:00:08.035 : [fs] device D:/Steam/steamapps/workshop/content/227300/2182624925/universal mounted.
  777. 00:00:08.036 : [fs] device D:/Steam/steamapps/workshop/content/227300/1593914090 mounted.
  778. 00:00:08.065 : [zipfs] universal.zip: Created, 26 entries
  779. 00:00:08.065 : [fs] device D:/Steam/steamapps/workshop/content/227300/1593914090/universal.zip mounted.
  780. 00:00:08.065 : [zipfs] universal.zip: Unmounted
  781. 00:00:08.066 : [fs] device D:/Steam/steamapps/workshop/content/227300/1331799328 mounted.
  782. 00:00:08.066 : [fs] device D:/Steam/steamapps/workshop/content/227300/1331799328/universal mounted.
  783. 00:00:08.066 : <WARNING> [mods] Unknown category 'engines' defined for mod_workshop_package.000000004F61A520. Ignoring.
  784. 00:00:08.067 : <WARNING> [mods] No valid categories defined for mod_workshop_package.000000004F61A520. Setting defaults.
  785. 00:00:08.067 : [fs] device D:/Steam/steamapps/workshop/content/227300/1249596467 mounted.
  786. 00:00:08.067 : [fs] device D:/Steam/steamapps/workshop/content/227300/1249596467/latest mounted.
  787. 00:00:08.068 : [fs] device D:/Steam/steamapps/workshop/content/227300/897109701 mounted.
  788. 00:00:08.068 : [fs] device D:/Steam/steamapps/workshop/content/227300/897109701/universal mounted.
  789. 00:00:08.069 : <WARNING> [mods] Unknown category 'Lights' defined for mod_workshop_package.000000003578CEC5. Ignoring.
  790. 00:00:08.069 : <WARNING> [mods] No valid categories defined for mod_workshop_package.000000003578CEC5. Setting defaults.
  791. 00:00:08.069 : [fs] device D:/Steam/steamapps/workshop/content/227300/909619388 mounted.
  792. 00:00:08.070 : [fs] device D:/Steam/steamapps/workshop/content/227300/909619388/universal mounted.
  793. 00:00:08.070 : <WARNING> [mods] Unknown category 'winter' defined for mod_workshop_package.000000003637B0BC. Ignoring.
  794. 00:00:08.070 : <WARNING> [mods] Unknown category 'wintermod' defined for mod_workshop_package.000000003637B0BC. Ignoring.
  795. 00:00:08.070 : <WARNING> [mods] No valid categories defined for mod_workshop_package.000000003637B0BC. Setting defaults.
  796. 00:00:08.070 : [fs] device D:/Steam/steamapps/workshop/content/227300/926118980 mounted.
  797. 00:00:08.071 : [fs] device D:/Steam/steamapps/workshop/content/227300/926118980/universal mounted.
  798. 00:00:08.071 : [fs] device D:/Steam/steamapps/workshop/content/227300/755252536 mounted.
  799. 00:00:08.072 : [fs] device D:/Steam/steamapps/workshop/content/227300/755252536/universal mounted.
  800. 00:00:08.073 : [fs] device D:/Steam/steamapps/workshop/content/227300/1352150188 mounted.
  801. 00:00:08.073 : [fs] device D:/Steam/steamapps/workshop/content/227300/1352150188/universal mounted.
  802. 00:00:08.074 : [fs] device D:/Steam/steamapps/workshop/content/227300/1575645365 mounted.
  803. 00:00:08.074 : [fs] device D:/Steam/steamapps/workshop/content/227300/1575645365/universal mounted.
  804. 00:00:08.075 : [fs] device D:/Steam/steamapps/workshop/content/227300/941456635 mounted.
  805. 00:00:08.075 : [fs] device D:/Steam/steamapps/workshop/content/227300/941456635/universal mounted.
  806. 00:00:08.076 : [fs] device D:/Steam/steamapps/workshop/content/227300/1915327839 mounted.
  807. 00:00:08.077 : [zipfs] fmaxtoys_140.zip: Created, 92 entries
  808. 00:00:08.077 : [fs] device D:/Steam/steamapps/workshop/content/227300/1915327839/fmaxtoys_140.zip mounted.
  809. 00:00:08.077 : [zipfs] fmaxtoys_140.zip: Unmounted
  810. 00:00:08.077 : [fs] device D:/Steam/steamapps/workshop/content/227300/1915324242 mounted.
  811. 00:00:08.078 : [zipfs] default.zip: Created, 20 entries
  812. 00:00:08.078 : [fs] device D:/Steam/steamapps/workshop/content/227300/1915324242/default.zip mounted.
  813. 00:00:08.078 : [zipfs] default.zip: Unmounted
  814. 00:00:08.078 : [fs] device D:/Steam/steamapps/workshop/content/227300/1915802227 mounted.
  815. 00:00:08.113 : [zipfs] base140.zip: Created, 1943 entries
  816. 00:00:08.113 : [fs] device D:/Steam/steamapps/workshop/content/227300/1915802227/base140.zip mounted.
  817. 00:00:08.113 : [zipfs] base140.zip: Unmounted
  818. 00:00:08.114 : [fs] device D:/Steam/steamapps/workshop/content/227300/946578182 mounted.
  819. 00:00:08.114 : [fs] device D:/Steam/steamapps/workshop/content/227300/946578182/universal mounted.
  820. 00:00:08.115 : [fs] device D:/Steam/steamapps/workshop/content/227300/1138314374 mounted.
  821. 00:00:08.117 : [zipfs] googlemapsnavigation.zip: Created, 34 entries
  822. 00:00:08.117 : [fs] device D:/Steam/steamapps/workshop/content/227300/1138314374/googlemapsnavigation.zip mounted.
  823. 00:00:08.117 : [zipfs] googlemapsnavigation.zip: Unmounted
  824. 00:00:08.118 : [fs] device D:/Steam/steamapps/workshop/content/227300/1147614012 mounted.
  825. 00:00:08.119 : [zipfs] googlemapsnavigationnight.zip: Created, 34 entries
  826. 00:00:08.119 : [fs] device D:/Steam/steamapps/workshop/content/227300/1147614012/googlemapsnavigationnight.zip mounted.
  827. 00:00:08.120 : [zipfs] googlemapsnavigationnight.zip: Unmounted
  828. 00:00:08.121 : [fs] device D:/Steam/steamapps/workshop/content/227300/2115873179 mounted.
  829. 00:00:08.122 : [fs] device D:/Steam/steamapps/workshop/content/227300/2115873179/universal mounted.
  830. 00:00:08.122 : <WARNING> [mods] No valid categories defined for mod_workshop_package.000000007E1DA99B. Setting defaults.
  831. 00:00:08.124 : [fs] device D:/Steam/steamapps/workshop/content/227300/959125028 mounted.
  832. 00:00:08.124 : [fs] device D:/Steam/steamapps/workshop/content/227300/959125028/universal mounted.
  833. 00:00:08.126 : [fs] device D:/Steam/steamapps/workshop/content/227300/784560065 mounted.
  834. 00:00:08.128 : [zipfs] universal.zip: Created, 30 entries
  835. 00:00:08.128 : [fs] device D:/Steam/steamapps/workshop/content/227300/784560065/universal.zip mounted.
  836. 00:00:08.128 : [zipfs] universal.zip: Unmounted
  837. 00:00:08.129 : [fs] device D:/Steam/steamapps/workshop/content/227300/1179852675 mounted.
  838. 00:00:08.131 : [zipfs] husevke.zip: Created, 111 entries
  839. 00:00:08.131 : [fs] device D:/Steam/steamapps/workshop/content/227300/1179852675/husevke.zip mounted.
  840. 00:00:08.131 : <WARNING> [mods] Unknown category 'accessory' defined for mod_workshop_package.0000000046531F83. Ignoring.
  841. 00:00:08.131 : <WARNING> [mods] No valid categories defined for mod_workshop_package.0000000046531F83. Setting defaults.
  842. 00:00:08.131 : [zipfs] husevke.zip: Unmounted
  843. 00:00:08.132 : [fs] device D:/Steam/steamapps/workshop/content/227300/670285471 mounted.
  844. 00:00:08.134 : [zipfs] hemilsra138.zip: Created, 35 entries
  845. 00:00:08.134 : [fs] device D:/Steam/steamapps/workshop/content/227300/670285471/hemilsra138.zip mounted.
  846. 00:00:08.134 : [zipfs] hemilsra138.zip: Unmounted
  847. 00:00:08.135 : [fs] device D:/Steam/steamapps/workshop/content/227300/1116774921 mounted.
  848. 00:00:08.136 : [fs] device D:/Steam/steamapps/workshop/content/227300/1116774921/universal mounted.
  849. 00:00:08.137 : [fs] device D:/Steam/steamapps/workshop/content/227300/1623845592 mounted.
  850. 00:00:08.198 : [zipfs] ijsairfresh2.zip: Created, 1586 entries
  851. 00:00:08.198 : [fs] device D:/Steam/steamapps/workshop/content/227300/1623845592/ijsairfresh2.zip mounted.
  852. 00:00:08.199 : [zipfs] ijsairfresh2.zip: Unmounted
  853. 00:00:08.204 : [fs] device D:/Steam/steamapps/workshop/content/227300/655605735 mounted.
  854. 00:00:08.205 : [fs] device D:/Steam/steamapps/workshop/content/227300/655605735/universal mounted.
  855. 00:00:08.207 : [fs] device D:/Steam/steamapps/workshop/content/227300/1671337283 mounted.
  856. 00:00:08.208 : [fs] device D:/Steam/steamapps/workshop/content/227300/1671337283/universal mounted.
  857. 00:00:08.210 : [fs] device D:/Steam/steamapps/workshop/content/227300/2150504051 mounted.
  858. 00:00:08.211 : [fs] device D:/Steam/steamapps/workshop/content/227300/2150504051/universal mounted.
  859. 00:00:08.212 : [fs] device D:/Steam/steamapps/workshop/content/227300/2000874661 mounted.
  860. 00:00:08.213 : [fs] device D:/Steam/steamapps/workshop/content/227300/2000874661/universal mounted.
  861. 00:00:08.215 : [fs] device D:/Steam/steamapps/workshop/content/227300/956083331 mounted.
  862. 00:00:08.397 : [zipfs] latest.zip: Created, 32984 entries
  863. 00:00:08.397 : [fs] device D:/Steam/steamapps/workshop/content/227300/956083331/latest.zip mounted.
  864. 00:00:08.397 : [zipfs] latest.zip: Unmounted
  865. 00:00:08.398 : [fs] device D:/Steam/steamapps/workshop/content/227300/2435008284 mounted.
  866. 00:00:08.423 : [zipfs] base140.zip: Created, 233 entries
  867. 00:00:08.423 : [fs] device D:/Steam/steamapps/workshop/content/227300/2435008284/base140.zip mounted.
  868. 00:00:08.423 : [zipfs] base140.zip: Unmounted
  869. 00:00:08.424 : [fs] device D:/Steam/steamapps/workshop/content/227300/649396234 mounted.
  870. 00:00:08.424 : [fs] device D:/Steam/steamapps/workshop/content/227300/649396234/universal mounted.
  871. 00:00:08.425 : [fs] device D:/Steam/steamapps/workshop/content/227300/1257484219 mounted.
  872. 00:00:08.425 : [fs] device D:/Steam/steamapps/workshop/content/227300/1257484219/universal mounted.
  873. 00:00:08.426 : [fs] device D:/Steam/steamapps/workshop/content/227300/2490299559 mounted.
  874. 00:00:08.426 : [fs] device D:/Steam/steamapps/workshop/content/227300/2490299559/universal mounted.
  875. 00:00:08.427 : [fs] device D:/Steam/steamapps/workshop/content/227300/1986485167 mounted.
  876. 00:00:08.474 : [zipfs] iveco_evadys_40_s.zip: Created, 917 entries
  877. 00:00:08.474 : [fs] device D:/Steam/steamapps/workshop/content/227300/1986485167/iveco_evadys_40_s.zip mounted.
  878. 00:00:08.475 : [zipfs] iveco_evadys_40_s.zip: Unmounted
  879. 00:00:08.475 : [fs] device D:/Steam/steamapps/workshop/content/227300/1599373074 mounted.
  880. 00:00:08.476 : [fs] device D:/Steam/steamapps/workshop/content/227300/1599373074/139_content mounted.
  881. 00:00:08.478 : [fs] device D:/Steam/steamapps/workshop/content/227300/1645834122 mounted.
  882. 00:00:08.531 : [zipfs] universal.zip: Created, 135 entries
  883. 00:00:08.531 : [fs] device D:/Steam/steamapps/workshop/content/227300/1645834122/universal.zip mounted.
  884. 00:00:08.532 : [zipfs] universal.zip: Unmounted
  885. 00:00:08.533 : [fs] device D:/Steam/steamapps/workshop/content/227300/2059274297 mounted.
  886. 00:00:08.592 : [zipfs] karosa_95x_pack_40_s.zip: Created, 2674 entries
  887. 00:00:08.592 : [fs] device D:/Steam/steamapps/workshop/content/227300/2059274297/karosa_95x_pack_40_s.zip mounted.
  888. 00:00:08.593 : [zipfs] karosa_95x_pack_40_s.zip: Unmounted
  889. 00:00:08.593 : [fs] device D:/Steam/steamapps/workshop/content/227300/2499194144 mounted.
  890. 00:00:08.594 : [zipfs] universal.zip: Created, 70 entries
  891. 00:00:08.594 : [fs] device D:/Steam/steamapps/workshop/content/227300/2499194144/universal.zip mounted.
  892. 00:00:08.594 : [zipfs] universal.zip: Unmounted
  893. 00:00:08.595 : [fs] device D:/Steam/steamapps/workshop/content/227300/647441686 mounted.
  894. 00:00:08.595 : [fs] device D:/Steam/steamapps/workshop/content/227300/647441686/universal mounted.
  895. 00:00:08.596 : [fs] device D:/Steam/steamapps/workshop/content/227300/648967076 mounted.
  896. 00:00:08.597 : [fs] device D:/Steam/steamapps/workshop/content/227300/648967076/universal mounted.
  897. 00:00:08.598 : [fs] device D:/Steam/steamapps/workshop/content/227300/2497843439 mounted.
  898. 00:00:08.599 : <ERROR> [unit] File '<D:/Steam/steamapps/workshop/content/227300/2497843439 | /workshop_item>/versions.sii', line 9:
  899. 00:00:08.599 : <ERROR> Expecting end of file, found 'p'
  900. 00:00:08.599 : [fs] device D:/Steam/steamapps/workshop/content/227300/2497843439/name mounted.
  901. 00:00:08.601 : [fs] device D:/Steam/steamapps/workshop/content/227300/1709544505 mounted.
  902. 00:00:08.649 : [zipfs] universal.zip: Created, 2748 entries
  903. 00:00:08.649 : [fs] device D:/Steam/steamapps/workshop/content/227300/1709544505/universal.zip mounted.
  904. 00:00:08.649 : [zipfs] universal.zip: Unmounted
  905. 00:00:08.650 : [fs] device D:/Steam/steamapps/workshop/content/227300/1120139657 mounted.
  906. 00:00:08.651 : [fs] device D:/Steam/steamapps/workshop/content/227300/1120139657/universal mounted.
  907. 00:00:08.652 : [fs] device D:/Steam/steamapps/workshop/content/227300/2427784797 mounted.
  908. 00:00:08.653 : [fs] device D:/Steam/steamapps/workshop/content/227300/2427784797/universal mounted.
  909. 00:00:08.653 : <WARNING> [mods] No valid categories defined for mod_workshop_package.0000000090B50E5D. Setting defaults.
  910. 00:00:08.654 : [fs] device D:/Steam/steamapps/workshop/content/227300/1332699760 mounted.
  911. 00:00:08.687 : [zipfs] universal.zip: Created, 89 entries
  912. 00:00:08.687 : [fs] device D:/Steam/steamapps/workshop/content/227300/1332699760/universal.zip mounted.
  913. 00:00:08.687 : [zipfs] universal.zip: Unmounted
  914. 00:00:08.688 : [fs] device D:/Steam/steamapps/workshop/content/227300/1465115042 mounted.
  915. 00:00:08.758 : [zipfs] 140.zip: Created, 1681 entries
  916. 00:00:08.758 : [fs] device D:/Steam/steamapps/workshop/content/227300/1465115042/140.zip mounted.
  917. 00:00:08.758 : [zipfs] 140.zip: Unmounted
  918. 00:00:08.759 : [fs] device D:/Steam/steamapps/workshop/content/227300/1962012800 mounted.
  919. 00:00:08.760 : [fs] device D:/Steam/steamapps/workshop/content/227300/1962012800/latest mounted.
  920. 00:00:08.762 : [fs] device D:/Steam/steamapps/workshop/content/227300/950162255 mounted.
  921. 00:00:08.762 : [fs] device D:/Steam/steamapps/workshop/content/227300/950162255/universal mounted.
  922. 00:00:08.764 : [fs] device D:/Steam/steamapps/workshop/content/227300/1747752772 mounted.
  923. 00:00:08.765 : [fs] device D:/Steam/steamapps/workshop/content/227300/1747752772/universal mounted.
  924. 00:00:08.766 : [fs] device D:/Steam/steamapps/workshop/content/227300/787902847 mounted.
  925. 00:00:08.802 : [zipfs] universal.zip: Created, 270 entries
  926. 00:00:08.802 : [fs] device D:/Steam/steamapps/workshop/content/227300/787902847/universal.zip mounted.
  927. 00:00:08.802 : [zipfs] universal.zip: Unmounted
  928. 00:00:08.803 : [fs] device D:/Steam/steamapps/workshop/content/227300/2202588952 mounted.
  929. 00:00:08.804 : <ERROR> [unit] File '<D:/Steam/steamapps/workshop/content/227300/2202588952 | /workshop_item>/versions.sii', line 8:
  930. 00:00:08.804 : <ERROR> Expecting end of file, found '}'
  931. 00:00:08.804 : [fs] device D:/Steam/steamapps/workshop/content/227300/2202588952/man_dbcolor mounted.
  932. 00:00:08.805 : [fs] device D:/Steam/steamapps/workshop/content/227300/2091516269 mounted.
  933. 00:00:08.822 : [zipfs] 140_content.zip: Created, 991 entries
  934. 00:00:08.822 : [fs] device D:/Steam/steamapps/workshop/content/227300/2091516269/140_content.zip mounted.
  935. 00:00:08.822 : [zipfs] 140_content.zip: Unmounted
  936. 00:00:08.824 : [fs] device D:/Steam/steamapps/workshop/content/227300/1908238520 mounted.
  937. 00:00:08.824 : [fs] device D:/Steam/steamapps/workshop/content/227300/1908238520/universal mounted.
  938. 00:00:08.825 : <WARNING> [mods] Too many categories defined for mod_workshop_package.0000000071BD68B8 - limit 2. Using first 2.
  939. 00:00:08.826 : [fs] device D:/Steam/steamapps/workshop/content/227300/2046817809 mounted.
  940. 00:00:08.827 : [fs] device D:/Steam/steamapps/workshop/content/227300/2046817809/universal mounted.
  941. 00:00:08.828 : [fs] device D:/Steam/steamapps/workshop/content/227300/678484098 mounted.
  942. 00:00:08.829 : [fs] device D:/Steam/steamapps/workshop/content/227300/678484098/universal mounted.
  943. 00:00:08.830 : <WARNING> [mods] Too many categories defined for mod_workshop_package.000000002870D882 - limit 2. Using first 2.
  944. 00:00:08.831 : [fs] device D:/Steam/steamapps/workshop/content/227300/672928640 mounted.
  945. 00:00:08.832 : [fs] device D:/Steam/steamapps/workshop/content/227300/672928640/universal mounted.
  946. 00:00:08.833 : [fs] device D:/Steam/steamapps/workshop/content/227300/2333621047 mounted.
  947. 00:00:08.834 : [fs] device D:/Steam/steamapps/workshop/content/227300/2333621047/actros_mp2 mounted.
  948. 00:00:08.836 : [fs] device D:/Steam/steamapps/workshop/content/227300/1362625920 mounted.
  949. 00:00:08.837 : [fs] device D:/Steam/steamapps/workshop/content/227300/1362625920/140_content mounted.
  950. 00:00:08.838 : [fs] device D:/Steam/steamapps/workshop/content/227300/1930759849 mounted.
  951. 00:00:08.841 : [zipfs] universal.zip: Created, 101 entries
  952. 00:00:08.841 : [fs] device D:/Steam/steamapps/workshop/content/227300/1930759849/universal.zip mounted.
  953. 00:00:08.842 : [zipfs] universal.zip: Unmounted
  954. 00:00:08.842 : [fs] device D:/Steam/steamapps/workshop/content/227300/2379059804 mounted.
  955. 00:00:08.843 : [fs] device D:/Steam/steamapps/workshop/content/227300/2379059804/universal mounted.
  956. 00:00:08.844 : [fs] device D:/Steam/steamapps/workshop/content/227300/1739416768 mounted.
  957. 00:00:08.861 : [zipfs] universal.zip: Created, 91 entries
  958. 00:00:08.862 : [fs] device D:/Steam/steamapps/workshop/content/227300/1739416768/universal.zip mounted.
  959. 00:00:08.862 : [zipfs] universal.zip: Unmounted
  960. 00:00:08.863 : [fs] device D:/Steam/steamapps/workshop/content/227300/1764268887 mounted.
  961. 00:00:08.864 : [fs] device D:/Steam/steamapps/workshop/content/227300/1764268887/nextgenscaniarework mounted.
  962. 00:00:08.866 : [fs] device D:/Steam/steamapps/workshop/content/227300/666368716 mounted.
  963. 00:00:08.867 : [fs] device D:/Steam/steamapps/workshop/content/227300/666368716/universal mounted.
  964. 00:00:08.869 : [fs] device D:/Steam/steamapps/workshop/content/227300/862618103 mounted.
  965. 00:00:08.870 : [zipfs] universal.zip: Created, 21 entries
  966. 00:00:08.870 : [fs] device D:/Steam/steamapps/workshop/content/227300/862618103/universal.zip mounted.
  967. 00:00:08.871 : [zipfs] universal.zip: Unmounted
  968. 00:00:08.872 : [fs] device D:/Steam/steamapps/workshop/content/227300/2502241635 mounted.
  969. 00:00:08.913 : [zipfs] universal.zip: Created, 47 entries
  970. 00:00:08.913 : [fs] device D:/Steam/steamapps/workshop/content/227300/2502241635/universal.zip mounted.
  971. 00:00:08.914 : [zipfs] universal.zip: Unmounted
  972. 00:00:08.915 : [fs] device D:/Steam/steamapps/workshop/content/227300/756610656 mounted.
  973. 00:00:08.916 : [fs] device D:/Steam/steamapps/workshop/content/227300/756610656/universal mounted.
  974. 00:00:08.916 : <WARNING> [mods] Unknown category 'Rims' defined for mod_workshop_package.000000002D18F660. Ignoring.
  975. 00:00:08.916 : <WARNING> [mods] No valid categories defined for mod_workshop_package.000000002D18F660. Setting defaults.
  976. 00:00:08.917 : [fs] device D:/Steam/steamapps/workshop/content/227300/1253586439 mounted.
  977. 00:00:08.919 : [zipfs] universal.zip: Created, 21 entries
  978. 00:00:08.919 : [fs] device D:/Steam/steamapps/workshop/content/227300/1253586439/universal.zip mounted.
  979. 00:00:08.920 : [zipfs] universal.zip: Unmounted
  980. 00:00:08.921 : [fs] device D:/Steam/steamapps/workshop/content/227300/1539946896 mounted.
  981. 00:00:08.922 : [fs] device D:/Steam/steamapps/workshop/content/227300/1539946896/universal mounted.
  982. 00:00:08.923 : [fs] device D:/Steam/steamapps/workshop/content/227300/937224479 mounted.
  983. 00:00:08.924 : [fs] device D:/Steam/steamapps/workshop/content/227300/937224479/universal mounted.
  984. 00:00:08.926 : [fs] device D:/Steam/steamapps/workshop/content/227300/2213234241 mounted.
  985. 00:00:08.927 : [fs] device D:/Steam/steamapps/workshop/content/227300/2213234241/140version mounted.
  986. 00:00:08.928 : [fs] device D:/Steam/steamapps/workshop/content/227300/2095666094 mounted.
  987. 00:00:08.961 : [zipfs] penguaero.zip: Created, 31 entries
  988. 00:00:08.961 : [fs] device D:/Steam/steamapps/workshop/content/227300/2095666094/penguaero.zip mounted.
  989. 00:00:08.962 : [zipfs] penguaero.zip: Unmounted
  990. 00:00:08.963 : [fs] device D:/Steam/steamapps/workshop/content/227300/1739900997 mounted.
  991. 00:00:08.997 : [zipfs] universal.zip: Created, 96 entries
  992. 00:00:08.997 : [fs] device D:/Steam/steamapps/workshop/content/227300/1739900997/universal.zip mounted.
  993. 00:00:08.997 : [zipfs] universal.zip: Unmounted
  994. 00:00:08.998 : [fs] device D:/Steam/steamapps/workshop/content/227300/759506509 mounted.
  995. 00:00:08.999 : [fs] device D:/Steam/steamapps/workshop/content/227300/759506509/universal mounted.
  996. 00:00:09.001 : [fs] device D:/Steam/steamapps/workshop/content/227300/959440594 mounted.
  997. 00:00:09.042 : [zipfs] pjmsk.zip: Created, 649 entries
  998. 00:00:09.043 : [fs] device D:/Steam/steamapps/workshop/content/227300/959440594/pjmsk.zip mounted.
  999. 00:00:09.043 : <WARNING> [mods] Too many categories defined for mod_workshop_package.00000000392FE6D2 - limit 2. Using first 2.
  1000. 00:00:09.043 : [zipfs] pjmsk.zip: Unmounted
  1001. 00:00:09.044 : [fs] device D:/Steam/steamapps/workshop/content/227300/2177418424 mounted.
  1002. 00:00:09.045 : [fs] device D:/Steam/steamapps/workshop/content/227300/2177418424/universal mounted.
  1003. 00:00:09.047 : [fs] device D:/Steam/steamapps/workshop/content/227300/1248913107 mounted.
  1004. 00:00:09.069 : [zipfs] realadvertisements.zip: Created, 150 entries
  1005. 00:00:09.069 : [fs] device D:/Steam/steamapps/workshop/content/227300/1248913107/realadvertisements.zip mounted.
  1006. 00:00:09.070 : [zipfs] realadvertisements.zip: Unmounted
  1007. 00:00:09.071 : [fs] device D:/Steam/steamapps/workshop/content/227300/2151383225 mounted.
  1008. 00:00:09.072 : [fs] device D:/Steam/steamapps/workshop/content/227300/2151383225/trailers mounted.
  1009. 00:00:09.074 : [fs] device D:/Steam/steamapps/workshop/content/227300/715807842 mounted.
  1010. 00:00:09.100 : [zipfs] realeurcomp.zip: Created, 1055 entries
  1011. 00:00:09.100 : [fs] device D:/Steam/steamapps/workshop/content/227300/715807842/realeurcomp.zip mounted.
  1012. 00:00:09.100 : [zipfs] realeurcomp.zip: Unmounted
  1013. 00:00:09.103 : [fs] device D:/Steam/steamapps/workshop/content/227300/673130767 mounted.
  1014. 00:00:09.119 : [zipfs] latest.zip: Created, 116 entries
  1015. 00:00:09.119 : [fs] device D:/Steam/steamapps/workshop/content/227300/673130767/latest.zip mounted.
  1016. 00:00:09.120 : [zipfs] latest.zip: Unmounted
  1017. 00:00:09.120 : [fs] device D:/Steam/steamapps/workshop/content/227300/1122486287 mounted.
  1018. 00:00:09.142 : [zipfs] universal.zip: Created, 188 entries
  1019. 00:00:09.142 : [fs] device D:/Steam/steamapps/workshop/content/227300/1122486287/universal.zip mounted.
  1020. 00:00:09.143 : [zipfs] universal.zip: Unmounted
  1021. 00:00:09.143 : [fs] device D:/Steam/steamapps/workshop/content/227300/883350847 mounted.
  1022. 00:00:09.144 : [zipfs] universal.zip: Created, 37 entries
  1023. 00:00:09.144 : [fs] device D:/Steam/steamapps/workshop/content/227300/883350847/universal.zip mounted.
  1024. 00:00:09.144 : [zipfs] universal.zip: Unmounted
  1025. 00:00:09.144 : [fs] device D:/Steam/steamapps/workshop/content/227300/645501409 mounted.
  1026. 00:00:09.180 : [zipfs] real_tyres_mod_63.zip: Created, 832 entries
  1027. 00:00:09.181 : [fs] device D:/Steam/steamapps/workshop/content/227300/645501409/real_tyres_mod_63.zip mounted.
  1028. 00:00:09.181 : [zipfs] real_tyres_mod_63.zip: Unmounted
  1029. 00:00:09.182 : [fs] device D:/Steam/steamapps/workshop/content/227300/851156561 mounted.
  1030. 00:00:09.216 : [zipfs] building.zip: Created, 793 entries
  1031. 00:00:09.216 : [fs] device D:/Steam/steamapps/workshop/content/227300/851156561/building.zip mounted.
  1032. 00:00:09.216 : [zipfs] building.zip: Unmounted
  1033. 00:00:09.216 : [fs] device D:/Steam/steamapps/workshop/content/227300/699670870 mounted.
  1034. 00:00:09.217 : [fs] device D:/Steam/steamapps/workshop/content/227300/699670870/universal mounted.
  1035. 00:00:09.218 : [fs] device D:/Steam/steamapps/workshop/content/227300/716956561 mounted.
  1036. 00:00:09.254 : [zipfs] latest.zip: Created, 59 entries
  1037. 00:00:09.254 : [fs] device D:/Steam/steamapps/workshop/content/227300/716956561/latest.zip mounted.
  1038. 00:00:09.255 : [zipfs] latest.zip: Unmounted
  1039. 00:00:09.255 : [fs] device D:/Steam/steamapps/workshop/content/227300/2112187479 mounted.
  1040. 00:00:09.256 : [fs] device D:/Steam/steamapps/workshop/content/227300/2112187479/universal mounted.
  1041. 00:00:09.256 : [fs] device D:/Steam/steamapps/workshop/content/227300/1787041596 mounted.
  1042. 00:00:09.257 : [fs] device D:/Steam/steamapps/workshop/content/227300/1787041596/140_content mounted.
  1043. 00:00:09.258 : [fs] device D:/Steam/steamapps/workshop/content/227300/713338424 mounted.
  1044. 00:00:09.258 : [fs] device D:/Steam/steamapps/workshop/content/227300/713338424/universal mounted.
  1045. 00:00:09.259 : [fs] device D:/Steam/steamapps/workshop/content/227300/1896775675 mounted.
  1046. 00:00:09.298 : [zipfs] universal.zip: Created, 983 entries
  1047. 00:00:09.298 : [fs] device D:/Steam/steamapps/workshop/content/227300/1896775675/universal.zip mounted.
  1048. 00:00:09.298 : [zipfs] universal.zip: Unmounted
  1049. 00:00:09.299 : [fs] device D:/Steam/steamapps/workshop/content/227300/1877823584 mounted.
  1050. 00:00:09.299 : [fs] device D:/Steam/steamapps/workshop/content/227300/1877823584/universal mounted.
  1051. 00:00:09.300 : [fs] device D:/Steam/steamapps/workshop/content/227300/1872419240 mounted.
  1052. 00:00:09.300 : [fs] device D:/Steam/steamapps/workshop/content/227300/1872419240/140_content mounted.
  1053. 00:00:09.301 : [fs] device D:/Steam/steamapps/workshop/content/227300/1301321626 mounted.
  1054. 00:00:09.301 : [fs] device D:/Steam/steamapps/workshop/content/227300/1301321626/voegle mounted.
  1055. 00:00:09.301 : [fs] device D:/Steam/steamapps/workshop/content/227300/647637188 mounted.
  1056. 00:00:09.348 : [zipfs] universal.zip: Created, 966 entries
  1057. 00:00:09.348 : [fs] device D:/Steam/steamapps/workshop/content/227300/647637188/universal.zip mounted.
  1058. 00:00:09.348 : [zipfs] universal.zip: Unmounted
  1059. 00:00:09.349 : [fs] device D:/Steam/steamapps/workshop/content/227300/1448653386 mounted.
  1060. 00:00:09.375 : [zipfs] universal.zip: Created, 21 entries
  1061. 00:00:09.375 : [fs] device D:/Steam/steamapps/workshop/content/227300/1448653386/universal.zip mounted.
  1062. 00:00:09.376 : [zipfs] universal.zip: Unmounted
  1063. 00:00:09.376 : [fs] device D:/Steam/steamapps/workshop/content/227300/1448674449 mounted.
  1064. 00:00:09.395 : [zipfs] universal.zip: Created, 21 entries
  1065. 00:00:09.395 : [fs] device D:/Steam/steamapps/workshop/content/227300/1448674449/universal.zip mounted.
  1066. 00:00:09.395 : [zipfs] universal.zip: Unmounted
  1067. 00:00:09.396 : [fs] device D:/Steam/steamapps/workshop/content/227300/2335493495 mounted.
  1068. 00:00:09.397 : [zipfs] universal.zip: Created, 98 entries
  1069. 00:00:09.397 : [fs] device D:/Steam/steamapps/workshop/content/227300/2335493495/universal.zip mounted.
  1070. 00:00:09.397 : [zipfs] universal.zip: Unmounted
  1071. 00:00:09.397 : [fs] device D:/Steam/steamapps/workshop/content/227300/2173243684 mounted.
  1072. 00:00:09.398 : [zipfs] universal.zip: Created, 14 entries
  1073. 00:00:09.398 : [fs] device D:/Steam/steamapps/workshop/content/227300/2173243684/universal.zip mounted.
  1074. 00:00:09.399 : <WARNING> [mods] No valid categories defined for mod_workshop_package.0000000081891124. Setting defaults.
  1075. 00:00:09.399 : [zipfs] universal.zip: Unmounted
  1076. 00:00:09.399 : [fs] device D:/Steam/steamapps/workshop/content/227300/1431991803 mounted.
  1077. 00:00:09.399 : [fs] device D:/Steam/steamapps/workshop/content/227300/1431991803/universal mounted.
  1078. 00:00:09.400 : [fs] device D:/Steam/steamapps/workshop/content/227300/1727946290 mounted.
  1079. 00:00:09.400 : [fs] device D:/Steam/steamapps/workshop/content/227300/1727946290/universal mounted.
  1080. 00:00:09.401 : [fs] device D:/Steam/steamapps/workshop/content/227300/1590741864 mounted.
  1081. 00:00:09.401 : [fs] device D:/Steam/steamapps/workshop/content/227300/1590741864/universal mounted.
  1082. 00:00:09.402 : [fs] device D:/Steam/steamapps/workshop/content/227300/1828854262 mounted.
  1083. 00:00:09.422 : [zipfs] universal.zip: Created, 58 entries
  1084. 00:00:09.422 : [fs] device D:/Steam/steamapps/workshop/content/227300/1828854262/universal.zip mounted.
  1085. 00:00:09.422 : [zipfs] universal.zip: Unmounted
  1086. 00:00:09.422 : [fs] device D:/Steam/steamapps/workshop/content/227300/1126628797 mounted.
  1087. 00:00:09.423 : [fs] device D:/Steam/steamapps/workshop/content/227300/1126628797/universal mounted.
  1088. 00:00:09.423 : <WARNING> [mods] Unknown category 'paintjob' defined for mod_workshop_package.000000004326FDBD. Ignoring.
  1089. 00:00:09.423 : <WARNING> [mods] No valid categories defined for mod_workshop_package.000000004326FDBD. Setting defaults.
  1090. 00:00:09.424 : [fs] device D:/Steam/steamapps/workshop/content/227300/2339554404 mounted.
  1091. 00:00:09.424 : [fs] device D:/Steam/steamapps/workshop/content/227300/2339554404/universal mounted.
  1092. 00:00:09.425 : [fs] device D:/Steam/steamapps/workshop/content/227300/1316867132 mounted.
  1093. 00:00:09.425 : [zipfs] universal.zip: Created, 9 entries
  1094. 00:00:09.425 : [fs] device D:/Steam/steamapps/workshop/content/227300/1316867132/universal.zip mounted.
  1095. 00:00:09.426 : [zipfs] universal.zip: Unmounted
  1096. 00:00:09.426 : [fs] device D:/Steam/steamapps/workshop/content/227300/2332689853 mounted.
  1097. 00:00:09.426 : [fs] device D:/Steam/steamapps/workshop/content/227300/2332689853/universal mounted.
  1098. 00:00:09.427 : <WARNING> [mods] Too many categories defined for mod_workshop_package.000000008B0A05BD - limit 2. Using first 2.
  1099. 00:00:09.427 : [fs] device D:/Steam/steamapps/workshop/content/227300/2041433517 mounted.
  1100. 00:00:09.427 : [fs] device D:/Steam/steamapps/workshop/content/227300/2041433517/universal mounted.
  1101. 00:00:09.428 : [fs] device D:/Steam/steamapps/workshop/content/227300/2495846750 mounted.
  1102. 00:00:09.428 : <ERROR> [unit] File '<D:/Steam/steamapps/workshop/content/227300/2495846750 | /workshop_item>/versions.sii', line 9:
  1103. 00:00:09.428 : <ERROR> Expecting end of file, found 'p'
  1104. 00:00:09.428 : [fs] device D:/Steam/steamapps/workshop/content/227300/2495846750/name mounted.
  1105. 00:00:09.429 : [fs] device D:/Steam/steamapps/workshop/content/227300/2050727507 mounted.
  1106. 00:00:09.429 : [fs] device D:/Steam/steamapps/workshop/content/227300/2050727507/universal mounted.
  1107. 00:00:09.430 : [fs] device D:/Steam/steamapps/workshop/content/227300/2350453819 mounted.
  1108. 00:00:09.431 : [fs] device D:/Steam/steamapps/workshop/content/227300/2350453819/universal mounted.
  1109. 00:00:09.431 : [fs] device D:/Steam/steamapps/workshop/content/227300/1634044392 mounted.
  1110. 00:00:09.452 : [zipfs] flowerliner_1.zip: Created, 44 entries
  1111. 00:00:09.452 : [fs] device D:/Steam/steamapps/workshop/content/227300/1634044392/flowerliner_1.zip mounted.
  1112. 00:00:09.452 : [zipfs] flowerliner_1.zip: Unmounted
  1113. 00:00:09.452 : [fs] device D:/Steam/steamapps/workshop/content/227300/1264900523 mounted.
  1114. 00:00:09.453 : [fs] device D:/Steam/steamapps/workshop/content/227300/1264900523/universal mounted.
  1115. 00:00:09.453 : [fs] device D:/Steam/steamapps/workshop/content/227300/873943180 mounted.
  1116. 00:00:09.454 : [fs] device D:/Steam/steamapps/workshop/content/227300/873943180/teleco mounted.
  1117. 00:00:09.454 : [fs] device D:/Steam/steamapps/workshop/content/227300/2005459749 mounted.
  1118. 00:00:09.455 : [fs] device D:/Steam/steamapps/workshop/content/227300/2005459749/universal mounted.
  1119. 00:00:09.455 : [fs] device D:/Steam/steamapps/workshop/content/227300/1206001048 mounted.
  1120. 00:00:09.456 : [fs] device D:/Steam/steamapps/workshop/content/227300/1206001048/universal mounted.
  1121. 00:00:09.456 : [fs] device D:/Steam/steamapps/workshop/content/227300/1535364197 mounted.
  1122. 00:00:09.457 : [fs] device D:/Steam/steamapps/workshop/content/227300/1535364197/universal mounted.
  1123. 00:00:09.457 : [fs] device D:/Steam/steamapps/workshop/content/227300/1088624917 mounted.
  1124. 00:00:09.458 : [fs] device D:/Steam/steamapps/workshop/content/227300/1088624917/universal mounted.
  1125. 00:00:09.459 : [fs] device D:/Steam/steamapps/workshop/content/227300/1568885110 mounted.
  1126. 00:00:09.459 : [fs] device D:/Steam/steamapps/workshop/content/227300/1568885110/universal mounted.
  1127. 00:00:09.459 : <WARNING> [mods] No valid categories defined for mod_workshop_package.000000005D834976. Setting defaults.
  1128. 00:00:09.460 : [fs] device D:/Steam/steamapps/workshop/content/227300/900768659 mounted.
  1129. 00:00:09.460 : [fs] device D:/Steam/steamapps/workshop/content/227300/900768659/universal mounted.
  1130. 00:00:09.460 : <WARNING> [mods] Unknown category 'paintjob' defined for mod_workshop_package.0000000035B0A393. Ignoring.
  1131. 00:00:09.460 : <WARNING> [mods] No valid categories defined for mod_workshop_package.0000000035B0A393. Setting defaults.
  1132. 00:00:09.461 : [fs] device D:/Steam/steamapps/workshop/content/227300/1659765007 mounted.
  1133. 00:00:09.462 : [zipfs] universal.zip: Created, 3 entries
  1134. 00:00:09.462 : [fs] device D:/Steam/steamapps/workshop/content/227300/1659765007/universal.zip mounted.
  1135. 00:00:09.462 : [zipfs] universal.zip: Unmounted
  1136. 00:00:09.462 : [fs] device D:/Steam/steamapps/workshop/content/227300/627000094 mounted.
  1137. 00:00:09.488 : [zipfs] aistock3.zip: Created, 211 entries
  1138. 00:00:09.489 : [fs] device D:/Steam/steamapps/workshop/content/227300/627000094/aistock3.zip mounted.
  1139. 00:00:09.489 : [zipfs] aistock3.zip: Unmounted
  1140. 00:00:09.489 : [fs] device D:/Steam/steamapps/workshop/content/227300/1765159059 mounted.
  1141. 00:00:09.490 : [fs] device D:/Steam/steamapps/workshop/content/227300/1765159059/universal mounted.
  1142. 00:00:09.490 : [fs] device D:/Steam/steamapps/workshop/content/227300/1735620558 mounted.
  1143. 00:00:09.511 : [zipfs] universal.zip: Created, 33 entries
  1144. 00:00:09.511 : [fs] device D:/Steam/steamapps/workshop/content/227300/1735620558/universal.zip mounted.
  1145. 00:00:09.512 : [zipfs] universal.zip: Unmounted
  1146. 00:00:09.512 : [fs] device D:/Steam/steamapps/workshop/content/227300/665408402 mounted.
  1147. 00:00:09.513 : [fs] device D:/Steam/steamapps/workshop/content/227300/665408402/universal mounted.
  1148. 00:00:09.514 : [fs] device D:/Steam/steamapps/workshop/content/227300/1552985188 mounted.
  1149. 00:00:09.560 : [zipfs] ets2_signs_on_your_trailer.zip: Created, 3825 entries
  1150. 00:00:09.561 : [fs] device D:/Steam/steamapps/workshop/content/227300/1552985188/ets2_signs_on_your_trailer.zip mounted.
  1151. 00:00:09.561 : [zipfs] ets2_signs_on_your_trailer.zip: Unmounted
  1152. 00:00:09.562 : [fs] device D:/Steam/steamapps/workshop/content/227300/688277995 mounted.
  1153. 00:00:09.633 : [zipfs] ets2_signs_on_your_truck.zip: Created, 5153 entries
  1154. 00:00:09.634 : [fs] device D:/Steam/steamapps/workshop/content/227300/688277995/ets2_signs_on_your_truck.zip mounted.
  1155. 00:00:09.634 : [zipfs] ets2_signs_on_your_truck.zip: Unmounted
  1156. 00:00:09.635 : [fs] device D:/Steam/steamapps/workshop/content/227300/1803532577 mounted.
  1157. 00:00:09.636 : [fs] device D:/Steam/steamapps/workshop/content/227300/1803532577/universal mounted.
  1158. 00:00:09.637 : [fs] device D:/Steam/steamapps/workshop/content/227300/1649102310 mounted.
  1159. 00:00:09.639 : [zipfs] markypeacb.zip: Created, 238 entries
  1160. 00:00:09.639 : [fs] device D:/Steam/steamapps/workshop/content/227300/1649102310/markypeacb.zip mounted.
  1161. 00:00:09.640 : [zipfs] markypeacb.zip: Unmounted
  1162. 00:00:09.641 : [fs] device D:/Steam/steamapps/workshop/content/227300/775158899 mounted.
  1163. 00:00:09.671 : [zipfs] sisl_dafint132.zip: Created, 235 entries
  1164. 00:00:09.671 : [fs] device D:/Steam/steamapps/workshop/content/227300/775158899/sisl_dafint132.zip mounted.
  1165. 00:00:09.672 : [zipfs] sisl_dafint132.zip: Unmounted
  1166. 00:00:09.673 : [fs] device D:/Steam/steamapps/workshop/content/227300/690213540 mounted.
  1167. 00:00:09.674 : [hashfs] flatui138.zip: Created, 610 entries
  1168. 00:00:09.674 : [fs] device D:/Steam/steamapps/workshop/content/227300/690213540/flatui138.zip mounted.
  1169. 00:00:09.689 : [hashfs] flatui138.zip: Unmounted.
  1170. 00:00:09.691 : [fs] device D:/Steam/steamapps/workshop/content/227300/645553604 mounted.
  1171. 00:00:09.896 : [zipfs] smp3_3_140.zip: Created, 37129 entries
  1172. 00:00:09.896 : [fs] device D:/Steam/steamapps/workshop/content/227300/645553604/smp3_3_140.zip mounted.
  1173. 00:00:09.897 : [zipfs] smp3_3_140.zip: Unmounted
  1174. 00:00:09.897 : [fs] device D:/Steam/steamapps/workshop/content/227300/646198883 mounted.
  1175. 00:00:09.898 : [zipfs] smp2_4swtraffic.zip: Created, 143 entries
  1176. 00:00:09.898 : [fs] device D:/Steam/steamapps/workshop/content/227300/646198883/smp2_4swtraffic.zip mounted.
  1177. 00:00:09.898 : [zipfs] smp2_4swtraffic.zip: Unmounted
  1178. 00:00:09.898 : [fs] device D:/Steam/steamapps/workshop/content/227300/646192570 mounted.
  1179. 00:00:09.899 : [zipfs] smp2_4traffic.zip: Created, 138 entries
  1180. 00:00:09.899 : [fs] device D:/Steam/steamapps/workshop/content/227300/646192570/smp2_4traffic.zip mounted.
  1181. 00:00:09.900 : [zipfs] smp2_4traffic.zip: Unmounted
  1182. 00:00:09.900 : [fs] device D:/Steam/steamapps/workshop/content/227300/842257514 mounted.
  1183. 00:00:09.941 : [zipfs] sisltrlmain140.zip: Created, 6550 entries
  1184. 00:00:09.941 : [fs] device D:/Steam/steamapps/workshop/content/227300/842257514/sisltrlmain140.zip mounted.
  1185. 00:00:09.941 : [zipfs] sisltrlmain140.zip: Unmounted
  1186. 00:00:09.941 : [fs] device D:/Steam/steamapps/workshop/content/227300/1121164704 mounted.
  1187. 00:00:09.942 : [fs] device D:/Steam/steamapps/workshop/content/227300/1121164704/universal mounted.
  1188. 00:00:09.942 : <WARNING> [mods] Unknown category 'paintjobs' defined for mod_workshop_package.0000000042D39DA0. Ignoring.
  1189. 00:00:09.942 : [fs] device D:/Steam/steamapps/workshop/content/227300/1893063436 mounted.
  1190. 00:00:09.982 : [zipfs] solaris_urbino_bvg_40_s.zip: Created, 762 entries
  1191. 00:00:09.982 : [fs] device D:/Steam/steamapps/workshop/content/227300/1893063436/solaris_urbino_bvg_40_s.zip mounted.
  1192. 00:00:09.982 : [zipfs] solaris_urbino_bvg_40_s.zip: Unmounted
  1193. 00:00:09.983 : [fs] device D:/Steam/steamapps/workshop/content/227300/648591060 mounted.
  1194. 00:00:10.015 : [zipfs] universal.zip: Created, 148 entries
  1195. 00:00:10.015 : [fs] device D:/Steam/steamapps/workshop/content/227300/648591060/universal.zip mounted.
  1196. 00:00:10.016 : [zipfs] universal.zip: Unmounted
  1197. 00:00:10.017 : [fs] device D:/Steam/steamapps/workshop/content/227300/1758709073 mounted.
  1198. 00:00:10.019 : [zipfs] spli.zip: Created, 168 entries
  1199. 00:00:10.019 : [fs] device D:/Steam/steamapps/workshop/content/227300/1758709073/spli.zip mounted.
  1200. 00:00:10.019 : [zipfs] spli.zip: Unmounted
  1201. 00:00:10.020 : [fs] device D:/Steam/steamapps/workshop/content/227300/1127167266 mounted.
  1202. 00:00:10.021 : [fs] device D:/Steam/steamapps/workshop/content/227300/1127167266/latest mounted.
  1203. 00:00:10.022 : [fs] device D:/Steam/steamapps/workshop/content/227300/959668503 mounted.
  1204. 00:00:10.054 : [zipfs] 128_130.zip: Created, 107 entries
  1205. 00:00:10.055 : [fs] device D:/Steam/steamapps/workshop/content/227300/959668503/128_130.zip mounted.
  1206. 00:00:10.055 : [zipfs] 128_130.zip: Unmounted
  1207. 00:00:10.056 : [fs] device D:/Steam/steamapps/workshop/content/227300/924432050 mounted.
  1208. 00:00:10.057 : [fs] device D:/Steam/steamapps/workshop/content/227300/924432050/139_content mounted.
  1209. 00:00:10.059 : [fs] device D:/Steam/steamapps/workshop/content/227300/1138493646 mounted.
  1210. 00:00:10.061 : [zipfs] universal.zip: Created, 21 entries
  1211. 00:00:10.061 : [fs] device D:/Steam/steamapps/workshop/content/227300/1138493646/universal.zip mounted.
  1212. 00:00:10.061 : [zipfs] universal.zip: Unmounted
  1213. 00:00:10.062 : [fs] device D:/Steam/steamapps/workshop/content/227300/1395037881 mounted.
  1214. 00:00:10.099 : [zipfs] universal.zip: Created, 21 entries
  1215. 00:00:10.099 : [fs] device D:/Steam/steamapps/workshop/content/227300/1395037881/universal.zip mounted.
  1216. 00:00:10.100 : [zipfs] universal.zip: Unmounted
  1217. 00:00:10.101 : [fs] device D:/Steam/steamapps/workshop/content/227300/1767139383 mounted.
  1218. 00:00:10.101 : [fs] device D:/Steam/steamapps/workshop/content/227300/1767139383/universal mounted.
  1219. 00:00:10.103 : [fs] device D:/Steam/steamapps/workshop/content/227300/1659094659 mounted.
  1220. 00:00:10.104 : [zipfs] universal.zip: Created, 54 entries
  1221. 00:00:10.104 : [fs] device D:/Steam/steamapps/workshop/content/227300/1659094659/universal.zip mounted.
  1222. 00:00:10.104 : [zipfs] universal.zip: Unmounted
  1223. 00:00:10.105 : [fs] device D:/Steam/steamapps/workshop/content/227300/1663522856 mounted.
  1224. 00:00:10.106 : [zipfs] universal.zip: Created, 7 entries
  1225. 00:00:10.106 : [fs] device D:/Steam/steamapps/workshop/content/227300/1663522856/universal.zip mounted.
  1226. 00:00:10.106 : [zipfs] universal.zip: Unmounted
  1227. 00:00:10.106 : [fs] device D:/Steam/steamapps/workshop/content/227300/2359679286 mounted.
  1228. 00:00:10.107 : [fs] device D:/Steam/steamapps/workshop/content/227300/2359679286/universal mounted.
  1229. 00:00:10.108 : [fs] device D:/Steam/steamapps/workshop/content/227300/780670180 mounted.
  1230. 00:00:10.108 : [fs] device D:/Steam/steamapps/workshop/content/227300/780670180/latest mounted.
  1231. 00:00:10.109 : [fs] device D:/Steam/steamapps/workshop/content/227300/839978173 mounted.
  1232. 00:00:10.109 : [fs] device D:/Steam/steamapps/workshop/content/227300/839978173/universal mounted.
  1233. 00:00:10.110 : [fs] device D:/Steam/steamapps/workshop/content/227300/1521874444 mounted.
  1234. 00:00:10.144 : [zipfs] latest.zip: Created, 196 entries
  1235. 00:00:10.144 : [fs] device D:/Steam/steamapps/workshop/content/227300/1521874444/latest.zip mounted.
  1236. 00:00:10.145 : [zipfs] latest.zip: Unmounted
  1237. 00:00:10.146 : [fs] device D:/Steam/steamapps/workshop/content/227300/1680992369 mounted.
  1238. 00:00:10.171 : [zipfs] trailer_sl.zip: Created, 230 entries
  1239. 00:00:10.171 : [fs] device D:/Steam/steamapps/workshop/content/227300/1680992369/trailer_sl.zip mounted.
  1240. 00:00:10.171 : [zipfs] trailer_sl.zip: Unmounted
  1241. 00:00:10.173 : [fs] device D:/Steam/steamapps/workshop/content/227300/1937505222 mounted.
  1242. 00:00:10.174 : [fs] device D:/Steam/steamapps/workshop/content/227300/1937505222/universal mounted.
  1243. 00:00:10.175 : [fs] device D:/Steam/steamapps/workshop/content/227300/1262538797 mounted.
  1244. 00:00:10.176 : [fs] device D:/Steam/steamapps/workshop/content/227300/1262538797/universal mounted.
  1245. 00:00:10.177 : <WARNING> [mods] Unknown category 'acessories' defined for mod_workshop_package.000000004B40D02D. Ignoring.
  1246. 00:00:10.177 : <WARNING> [mods] No valid categories defined for mod_workshop_package.000000004B40D02D. Setting defaults.
  1247. 00:00:10.178 : [fs] device D:/Steam/steamapps/workshop/content/227300/2228860868 mounted.
  1248. 00:00:10.179 : [fs] device D:/Steam/steamapps/workshop/content/227300/2228860868/universal mounted.
  1249. 00:00:10.180 : [fs] device D:/Steam/steamapps/workshop/content/227300/1131313782 mounted.
  1250. 00:00:10.181 : [fs] device D:/Steam/steamapps/workshop/content/227300/1131313782/universal mounted.
  1251. 00:00:10.183 : [fs] device D:/Steam/steamapps/workshop/content/227300/1561468963 mounted.
  1252. 00:00:10.184 : [fs] device D:/Steam/steamapps/workshop/content/227300/1561468963/mod mounted.
  1253. 00:00:10.185 : [fs] device D:/Steam/steamapps/workshop/content/227300/1447645714 mounted.
  1254. 00:00:10.187 : [zipfs] universal.zip: Created, 21 entries
  1255. 00:00:10.187 : [fs] device D:/Steam/steamapps/workshop/content/227300/1447645714/universal.zip mounted.
  1256. 00:00:10.188 : [zipfs] universal.zip: Unmounted
  1257. 00:00:10.189 : [fs] device D:/Steam/steamapps/workshop/content/227300/1112786497 mounted.
  1258. 00:00:10.191 : [zipfs] universal.zip: Created, 3 entries
  1259. 00:00:10.191 : [fs] device D:/Steam/steamapps/workshop/content/227300/1112786497/universal.zip mounted.
  1260. 00:00:10.191 : [zipfs] universal.zip: Unmounted
  1261. 00:00:10.192 : [fs] device D:/Steam/steamapps/workshop/content/227300/842154810 mounted.
  1262. 00:00:10.193 : [fs] device D:/Steam/steamapps/workshop/content/227300/842154810/ohahadb mounted.
  1263. 00:00:10.194 : [fs] device D:/Steam/steamapps/workshop/content/227300/1131584022 mounted.
  1264. 00:00:10.195 : [fs] device D:/Steam/steamapps/workshop/content/227300/1131584022/138 mounted.
  1265. 00:00:10.196 : [fs] device D:/Steam/steamapps/workshop/content/227300/1115343195 mounted.
  1266. 00:00:10.198 : [zipfs] universal.zip: Created, 10 entries
  1267. 00:00:10.198 : [fs] device D:/Steam/steamapps/workshop/content/227300/1115343195/universal.zip mounted.
  1268. 00:00:10.198 : [zipfs] universal.zip: Unmounted
  1269. 00:00:10.199 : [fs] device D:/Steam/steamapps/workshop/content/227300/1110953238 mounted.
  1270. 00:00:10.201 : [zipfs] universal.zip: Created, 9 entries
  1271. 00:00:10.201 : [fs] device D:/Steam/steamapps/workshop/content/227300/1110953238/universal.zip mounted.
  1272. 00:00:10.201 : [zipfs] universal.zip: Unmounted
  1273. 00:00:10.202 : [fs] device D:/Steam/steamapps/workshop/content/227300/1111879140 mounted.
  1274. 00:00:10.203 : [zipfs] universal.zip: Created, 9 entries
  1275. 00:00:10.203 : [fs] device D:/Steam/steamapps/workshop/content/227300/1111879140/universal.zip mounted.
  1276. 00:00:10.204 : [zipfs] universal.zip: Unmounted
  1277. 00:00:10.204 : [fs] device D:/Steam/steamapps/workshop/content/227300/1208790679 mounted.
  1278. 00:00:10.206 : [zipfs] universal.zip: Created, 21 entries
  1279. 00:00:10.206 : [fs] device D:/Steam/steamapps/workshop/content/227300/1208790679/universal.zip mounted.
  1280. 00:00:10.206 : [zipfs] universal.zip: Unmounted
  1281. 00:00:10.207 : [fs] device D:/Steam/steamapps/workshop/content/227300/2191820194 mounted.
  1282. 00:00:10.208 : [fs] device D:/Steam/steamapps/workshop/content/227300/2191820194/universal mounted.
  1283. 00:00:10.209 : [fs] device D:/Steam/steamapps/workshop/content/227300/2018643435 mounted.
  1284. 00:00:10.210 : [fs] device D:/Steam/steamapps/workshop/content/227300/2018643435/universal mounted.
  1285. 00:00:10.211 : [fs] device D:/Steam/steamapps/workshop/content/227300/1130726912 mounted.
  1286. 00:00:10.213 : [zipfs] universal.zip: Created, 21 entries
  1287. 00:00:10.213 : [fs] device D:/Steam/steamapps/workshop/content/227300/1130726912/universal.zip mounted.
  1288. 00:00:10.213 : [zipfs] universal.zip: Unmounted
  1289. 00:00:10.214 : [fs] device D:/Steam/steamapps/workshop/content/227300/664322535 mounted.
  1290. 00:00:10.282 : [zipfs] vnlets2.zip: Created, 4362 entries
  1291. 00:00:10.282 : [fs] device D:/Steam/steamapps/workshop/content/227300/664322535/vnlets2.zip mounted.
  1292. 00:00:10.283 : [zipfs] vnlets2.zip: Unmounted
  1293. 00:00:10.284 : [fs] device D:/Steam/steamapps/workshop/content/227300/1640895251 mounted.
  1294. 00:00:10.325 : [zipfs] universal.zip: Created, 194 entries
  1295. 00:00:10.325 : [fs] device D:/Steam/steamapps/workshop/content/227300/1640895251/universal.zip mounted.
  1296. 00:00:10.325 : [zipfs] universal.zip: Unmounted
  1297. 00:00:10.326 : [fs] device D:/Steam/steamapps/workshop/content/227300/1087755352 mounted.
  1298. 00:00:10.327 : [fs] device D:/Steam/steamapps/workshop/content/227300/1087755352/universal mounted.
  1299. 00:00:10.329 : [fs] device D:/Steam/steamapps/workshop/content/227300/2495094183 mounted.
  1300. 00:00:10.330 : [fs] device D:/Steam/steamapps/workshop/content/227300/2495094183/universal mounted.
  1301. 00:00:10.331 : [fs] device D:/Steam/steamapps/workshop/content/227300/1395894155 mounted.
  1302. 00:00:10.332 : [fs] device D:/Steam/steamapps/workshop/content/227300/1395894155/universal mounted.
  1303. 00:00:10.333 : <WARNING> [mods] Unknown category 'paintjob' defined for mod_workshop_package.000000005333A78B. Ignoring.
  1304. 00:00:10.333 : <WARNING> [mods] No valid categories defined for mod_workshop_package.000000005333A78B. Setting defaults.
  1305. 00:00:10.334 : [fs] device D:/Steam/steamapps/workshop/content/227300/2001036902 mounted.
  1306. 00:00:10.355 : [zipfs] universal.zip: Created, 143 entries
  1307. 00:00:10.355 : [fs] device D:/Steam/steamapps/workshop/content/227300/2001036902/universal.zip mounted.
  1308. 00:00:10.356 : [zipfs] universal.zip: Unmounted
  1309. 00:00:10.357 : [fs] device D:/Steam/steamapps/workshop/content/227300/682472036 mounted.
  1310. 00:00:10.358 : [fs] device D:/Steam/steamapps/workshop/content/227300/682472036/xantrios_signspack mounted.
  1311. 00:00:10.359 : [fs] device D:/Steam/steamapps/workshop/content/227300/2043171222 mounted.
  1312. 00:00:10.360 : [fs] device D:/Steam/steamapps/workshop/content/227300/2043171222/universal mounted.
  1313. 00:00:10.362 : [fs] device D:/Steam/steamapps/workshop/content/227300/1777704877 mounted.
  1314. 00:00:10.364 : [zipfs] ets2yandexnavi.zip: Created, 34 entries
  1315. 00:00:10.364 : [fs] device D:/Steam/steamapps/workshop/content/227300/1777704877/ets2yandexnavi.zip mounted.
  1316. 00:00:10.364 : [zipfs] ets2yandexnavi.zip: Unmounted
  1317. 00:00:10.365 : [fs] device D:/Steam/steamapps/workshop/content/227300/1777713125 mounted.
  1318. 00:00:10.367 : [zipfs] ets2yandexnavinight.zip: Created, 34 entries
  1319. 00:00:10.367 : [fs] device D:/Steam/steamapps/workshop/content/227300/1777713125/ets2yandexnavinight.zip mounted.
  1320. 00:00:10.367 : [zipfs] ets2yandexnavinight.zip: Unmounted
  1321. 00:00:10.368 : [fs] device D:/Steam/steamapps/workshop/content/227300/2065023559 mounted.
  1322. 00:00:10.369 : [fs] device D:/Steam/steamapps/workshop/content/227300/2065023559/universal mounted.
  1323. 00:00:10.370 : [fs] device D:/Steam/steamapps/workshop/content/227300/1879369205 mounted.
  1324. 00:00:10.371 : [fs] device D:/Steam/steamapps/workshop/content/227300/1879369205/truck mounted.
  1325. 00:00:10.372 : [fs] device D:/Steam/steamapps/workshop/content/227300/1875104122 mounted.
  1326. 00:00:10.373 : [fs] device D:/Steam/steamapps/workshop/content/227300/1875104122/truck mounted.
  1327. 00:00:10.374 : [fs] device D:/Steam/steamapps/workshop/content/227300/1732507701 mounted.
  1328. 00:00:10.375 : [fs] device D:/Steam/steamapps/workshop/content/227300/1732507701/universal mounted.
  1329. 00:00:10.376 : [fs] device D:/Steam/steamapps/workshop/content/227300/971534386 mounted.
  1330. 00:00:10.377 : [fs] device D:/Steam/steamapps/workshop/content/227300/971534386/3333333 mounted.
  1331. 00:00:10.379 : [fs] device D:/Steam/steamapps/workshop/content/227300/1233343065 mounted.
  1332. 00:00:10.380 : [zipfs] informational.zip: Created, 3 entries
  1333. 00:00:10.381 : [fs] device D:/Steam/steamapps/workshop/content/227300/1233343065/informational.zip mounted.
  1334. 00:00:10.381 : [zipfs] informational.zip: Unmounted
  1335. 00:00:10.382 : [fs] device D:/Steam/steamapps/workshop/content/227300/1087185039 mounted.
  1336. 00:00:10.382 : [fs] device D:/Steam/steamapps/workshop/content/227300/1087185039/blowyourmind mounted.
  1337. 00:00:10.384 : [fs] device D:/Steam/steamapps/workshop/content/227300/1082358654 mounted.
  1338. 00:00:10.384 : [fs] device D:/Steam/steamapps/workshop/content/227300/1082358654/noreg mounted.
  1339. 00:00:10.386 : [fs] device D:/Steam/steamapps/workshop/content/227300/956468886 mounted.
  1340. 00:00:10.387 : [fs] device D:/Steam/steamapps/workshop/content/227300/956468886/universal mounted.
  1341. 00:00:10.388 : [fs] device D:/Steam/steamapps/workshop/content/227300/1095334071 mounted.
  1342. 00:00:10.389 : [fs] device D:/Steam/steamapps/workshop/content/227300/1095334071/blackwido mounted.
  1343. 00:00:10.390 : [fs] device D:/Steam/steamapps/workshop/content/227300/1109608874 mounted.
  1344. 00:00:10.391 : [fs] device D:/Steam/steamapps/workshop/content/227300/1109608874/globetrotter mounted.
  1345. 00:00:10.392 : [mod_package_manager] Received list of the steam workshop subscribed mods. (received 243 mods total, 234 loaded, 0 scheduled for download)
  1346. 00:00:21.707 : mm_flush_repeatedly
  1347. 00:00:21.707 : [hashfs] 144L_460_1.39.scs: Unmounted.
  1348. 00:00:21.707 : [zipfs] zz_PL_Rebuilding_2.5_ST.scs: Unmounted
  1349. 00:00:21.707 : [hashfs] z4_PL_Rebuilding_2.5_assets.scs: Unmounted.
  1350. 00:00:21.707 : [hashfs] z3_PL_Rebuilding_2.5_models.scs: Unmounted.
  1351. 00:00:21.708 : [hashfs] z2_PL_Rebuilding_2.5_map.scs: Unmounted.
  1352. 00:00:21.708 : [zipfs] z1_PL_Rebuilding_2.5_def.scs: Unmounted
  1353. 00:00:21.708 : [zipfs] Yusuf Arda Scania R500 Edit.scs: Unmounted
  1354. 00:00:21.708 : [zipfs] Your_trailer_ROS_39.scs: Unmounted
  1355. 00:00:21.708 : [zipfs] WF_metallic_stripe_NG_R.scs: Unmounted
  1356. 00:00:21.708 : [hashfs] vw_constellation.scs: Unmounted.
  1357. 00:00:21.708 : [zipfs] Volvo460FHMegaTruck.scs: Unmounted
  1358. 00:00:21.708 : [zipfs] VOLVO NL12 EDC.scs: Unmounted
  1359. 00:00:21.708 : [zipfs] Volvo Fh12(AryanEdit).scs: Unmounted
  1360. 00:00:21.708 : [zipfs] VOLVO FH.scs: Unmounted
  1361. 00:00:21.708 : [zipfs] Viking_sticker_addon.scs: Unmounted
  1362. 00:00:21.709 : [zipfs] URAL-6464_ets2_ats_v26.02.21_1.39_1.40.scs: Unmounted
  1363. 00:00:21.709 : [zipfs] Trailer_double_ROS_39.scs: Unmounted
  1364. 00:00:21.709 : [zipfs] the speed of the snow.scs: Unmounted
  1365. 00:00:21.709 : [zipfs] SuperGreatV.scs: Unmounted
  1366. 00:00:21.709 : [zipfs] spring_v4_1.scs: Unmounted
  1367. 00:00:21.709 : [zipfs] Som_MB_1933.scs: Unmounted
  1368. 00:00:21.709 : [zipfs] Snow_terrain_fix_promods_russian_open_spaces_v1.2.scs: Unmounted
  1369. 00:00:21.709 : [zipfs] SKINS_RenaultTrucks_Alpine_byGrafBoinenn.scs: Unmounted
  1370. 00:00:21.709 : [zipfs] sisu_m_cabin_accessories.scs: Unmounted
  1371. 00:00:21.709 : [zipfs] sisu_m.scs: Unmounted
  1372. 00:00:21.709 : [zipfs] Shipping_Container_Cargo_Pack_v2.2_by_Satyanwesi_ETS2_1.38.scs: Unmounted
  1373. 00:00:21.709 : [zipfs] schulman.scs: Unmounted
  1374. 00:00:21.710 : [zipfs] scania_v8_v13.scs: Unmounted
  1375. 00:00:21.710 : [zipfs] Scania_S730T_Vlaustin_Ed.scs: Unmounted
  1376. 00:00:21.710 : [zipfs] Scania_R700_V8_Open_Pipe_V14_Support.scs: Unmounted
  1377. 00:00:21.710 : [zipfs] Scania_R700_SiSL_Mega_Pack_Support.scs: Unmounted
  1378. 00:00:21.710 : [zipfs] Scania_R700_Reworked_v3.1.scs: Unmounted
  1379. 00:00:21.710 : [zipfs] Scania_R700_Mighty_Griffin_DLC_Support_V1.1.scs: Unmounted
  1380. 00:00:21.710 : [zipfs] Scania_R700_HS_Schoch_DLC_Support_V1.1.scs: Unmounted
  1381. 00:00:21.710 : [zipfs] Scania_lk.scs: Unmounted
  1382. 00:00:21.710 : [zipfs] Scania R620 Fleurs denmark team modifications.scs: Unmounted
  1383. 00:00:21.710 : [zipfs] Scania 143m edit by Ekualizer and Mango - [1.39].scs: Unmounted
  1384. 00:00:21.710 : [zipfs] Scania 124G Frontal.scs: Unmounted
  1385. 00:00:21.710 : [zipfs] Scania 111.scs: Unmounted
  1386. 00:00:21.710 : [zipfs] Russian_open_spaces_vehicle_truck_39.scs: Unmounted
  1387. 00:00:21.710 : [zipfs] Russian_open_spaces_vehicle_39.scs: Unmounted
  1388. 00:00:21.710 : [zipfs] Russian_open_spaces_model_39.scs: Unmounted
  1389. 00:00:21.710 : [zipfs] Russian_open_spaces_39map.scs: Unmounted
  1390. 00:00:21.711 : [zipfs] Russian_open_spaces_39.scs: Unmounted
  1391. 00:00:21.711 : [zipfs] RusMap-model_v2.3.1.scs: Unmounted
  1392. 00:00:21.711 : [hashfs] RusMap-model2_v2.3.1.scs: Unmounted.
  1393. 00:00:21.711 : [hashfs] RusMap-map_v2.3.1.scs: Unmounted.
  1394. 00:00:21.711 : [hashfs] RusMap-def_v2.3.1.scs: Unmounted.
  1395. 00:00:21.711 : [zipfs] Ronco Direto.scs: Unmounted
  1396. 00:00:21.711 : [zipfs] Roman_Diesel_byMADster_v1.3.1.scs: Unmounted
  1397. 00:00:21.711 : [hashfs] ROEXallPM251RUS231PR244RCfullv4.scs: Unmounted.
  1398. 00:00:21.711 : [zipfs] Renault_Major_1.39x.scs: Unmounted
  1399. 00:00:21.711 : [zipfs] Renault_MAGNUM_DXI_Open_Pipe.scs: Unmounted
  1400. 00:00:21.711 : [zipfs] Renault12Toros_V1R40_ETS2_ATS_1_38_X_emirbardakci_com.scs: Unmounted
  1401. 00:00:21.712 : [zipfs] Renault Premium.scs: Unmounted
  1402. 00:00:21.712 : [zipfs] Realistic Brutal Weather Unforgiving By Kass.scs: Unmounted
  1403. 00:00:21.712 : [zipfs] R_O_S_heavy_cargo39.scs: Unmounted
  1404. 00:00:21.712 : [zipfs] PROMZONA 7_1.37_ROS_RM_PR.scs: Unmounted
  1405. 00:00:21.712 : [zipfs] PROMZONA 7_1.37_ROS_RM_PITER.scs: Unmounted
  1406. 00:00:21.712 : [hashfs] promods-model3-v255.scs: Unmounted.
  1407. 00:00:21.712 : [hashfs] promods-model3-v251.scs: Unmounted.
  1408. 00:00:21.712 : [hashfs] promods-model2-v255.scs: Unmounted.
  1409. 00:00:21.712 : [hashfs] promods-model2-v251.scs: Unmounted.
  1410. 00:00:21.712 : [hashfs] promods-model1-v255.scs: Unmounted.
  1411. 00:00:21.712 : [hashfs] promods-model1-v251.scs: Unmounted.
  1412. 00:00:21.713 : [hashfs] promods-media-v255.scs: Unmounted.
  1413. 00:00:21.713 : [hashfs] promods-media-v251.scs: Unmounted.
  1414. 00:00:21.713 : [zipfs] promods-me-defmap-v255a.scs: Unmounted
  1415. 00:00:21.713 : [zipfs] promods-me-defmap-v251.scs: Unmounted
  1416. 00:00:21.713 : [hashfs] promods-me-assets-v255a.scs: Unmounted.
  1417. 00:00:21.713 : [hashfs] promods-me-assets-v251.scs: Unmounted.
  1418. 00:00:21.713 : [zipfs] promods-map-v255.scs: Unmounted
  1419. 00:00:21.713 : [zipfs] promods-map-v251.scs: Unmounted
  1420. 00:00:21.713 : [zipfs] promods-def-st-v255.scs: Unmounted
  1421. 00:00:21.713 : [zipfs] promods-def-st-v251.scs: Unmounted
  1422. 00:00:21.713 : [hashfs] promods-assets-v255.scs: Unmounted.
  1423. 00:00:21.714 : [hashfs] promods-assets-v251.scs: Unmounted.
  1424. 00:00:21.714 : [zipfs] privolzhe_group_dirt.scs: Unmounted
  1425. 00:00:21.714 : [zipfs] Poland Detail-Adding Mod 2.0 Open Beta.scs: Unmounted
  1426. 00:00:21.714 : [zipfs] PM255_RM2.4.1_PR2.5_roadconnectionV2.scs: Unmounted
  1427. 00:00:21.714 : [zipfs] PM251_RM2.3.1_PR2.4.4_roadconnection.scs: Unmounted
  1428. 00:00:21.714 : [zipfs] PM246_RM2.1.1_PR2.4.2_roadconnection.scs: Unmounted
  1429. 00:00:21.714 : [zipfs] PM246_RM2.1.1_PR2.4.2_roadconnection (1).scs: Unmounted
  1430. 00:00:21.714 : [zipfs] Pennant VOLVO.scs: Unmounted
  1431. 00:00:21.714 : [zipfs] Pennant SCANIA.scs: Unmounted
  1432. 00:00:21.714 : [zipfs] Pennant RENO.scs: Unmounted
  1433. 00:00:21.714 : [zipfs] Pennant Mercedes-Benz.scs: Unmounted
  1434. 00:00:21.714 : [zipfs] Pennant Maz.scs: Unmounted
  1435. 00:00:21.714 : [zipfs] Pennant MAN.scs: Unmounted
  1436. 00:00:21.714 : [zipfs] Pennant Kamaz.scs: Unmounted
  1437. 00:00:21.715 : [zipfs] Pennant Iveco.scs: Unmounted
  1438. 00:00:21.715 : [zipfs] Pennant Gaz.scs: Unmounted
  1439. 00:00:21.715 : [zipfs] Pennant DAF.scs: Unmounted
  1440. 00:00:21.715 : [zipfs] orange_pack.scs: Unmounted
  1441. 00:00:21.715 : [zipfs] Mercedes_Sprinter_2019_template.scs: Unmounted
  1442. 00:00:21.715 : [zipfs] Mercedes_Sprinter_2019_license_plate_template.scs: Unmounted
  1443. 00:00:21.715 : [zipfs] Mercedes_Sprinter_2019_BETA03.scs: Unmounted
  1444. 00:00:21.715 : [zipfs] mercedes_sk_8x4.scs: Unmounted
  1445. 00:00:21.715 : [zipfs] mercedes_sk.scs: Unmounted
  1446. 00:00:21.715 : [zipfs] Mercedes_Actros_MP1_[1.39].scs: Unmounted
  1447. 00:00:21.715 : [hashfs] Mercedes-Benz Actros MP5 2019.scs: Unmounted.
  1448. 00:00:21.715 : [hashfs] MERCEDES BENZ SK 1838.scs: Unmounted.
  1449. 00:00:21.715 : [zipfs] Mercedes Actros MP4.scs: Unmounted
  1450. 00:00:21.715 : [zipfs] Mega_mod_Magnum_1.40_l.scs: Unmounted
  1451. 00:00:21.715 : [zipfs] MB_1933_V2.scs: Unmounted
  1452. 00:00:21.715 : [zipfs] MAN_TGX_E6_2015_by_Gloover_v.1.0.scs: Unmounted
  1453. 00:00:21.716 : [zipfs] MAN_TGX_2020_1.39.scs: Unmounted
  1454. 00:00:21.716 : [zipfs] man_tga_byMADster_v1.6_1.39_fix.scs: Unmounted
  1455. 00:00:21.716 : [zipfs] man_euro6_v1.scs: Unmounted
  1456. 00:00:21.716 : [zipfs] Man Godzilla Racing.scs: Unmounted
  1457. 00:00:21.716 : [zipfs] MAN F2000 custom number.scs: Unmounted
  1458. 00:00:21.716 : [hashfs] MAN F2000 Commander.scs: Unmounted.
  1459. 00:00:21.716 : [zipfs] Krone New District 26.scs: Unmounted
  1460. 00:00:21.716 : [zipfs] Iveco Hi-Way.scs: Unmounted
  1461. 00:00:21.716 : [zipfs] International.scs: Unmounted
  1462. 00:00:21.716 : [zipfs] interior_cabin_lights_3_0.scs: Unmounted
  1463. 00:00:21.716 : [zipfs] Interior Back Lights v6.7-1.40.scs: Unmounted
  1464. 00:00:21.716 : [zipfs] Godzilla Racing Trailer.scs: Unmounted
  1465. 00:00:21.716 : [zipfs] frosty_wheels.scs: Unmounted
  1466. 00:00:21.716 : [zipfs] frosty_physics_8_02.scs: Unmounted
  1467. 00:00:21.716 : [zipfs] frosty_no_fog_8.scs: Unmounted
  1468. 00:00:21.717 : [zipfs] frosty_heavy_winter_8.scs: Unmounted
  1469. 00:00:21.717 : [zipfs] frosty_8.scs: Unmounted
  1470. 00:00:21.717 : [zipfs] FrontBadgeScaniaNg.scs: Unmounted
  1471. 00:00:21.717 : [zipfs] FIX_daf_95_ati_for_ETS2-1.39.scs: Unmounted
  1472. 00:00:21.717 : [zipfs] FikcyjnaPolska v1.39.scs: Unmounted
  1473. 00:00:21.717 : [hashfs] ETS2_Realistic_Lights_Effect_V2_0.scs: Unmounted.
  1474. 00:00:21.717 : [zipfs] ETS2_Interior_Driver_1.00_for_1.39.scs: Unmounted
  1475. 00:00:21.717 : [zipfs] dimmed_headlights.scs: Unmounted
  1476. 00:00:21.717 : [zipfs] Def File 1.39.X(AryanEdit).scs: Unmounted
  1477. 00:00:21.717 : [zipfs] dd_tandem_truck_pack.scs: Unmounted
  1478. 00:00:21.717 : [zipfs] dark_skies.scs: Unmounted
  1479. 00:00:21.717 : [zipfs] Dark_interior_daf_xf_105_3.01.scs: Unmounted
  1480. 00:00:21.717 : [zipfs] Daf_Xf_105_Open_Pipe_sound_Reworked_Fix.scs: Unmounted
  1481. 00:00:21.717 : [zipfs] daf_95_ati_tuning.scs: Unmounted
  1482. 00:00:21.718 : [zipfs] daf_95_ati_cabin_accessories.scs: Unmounted
  1483. 00:00:21.718 : [zipfs] daf_95_ati_bdf_trailer.scs: Unmounted
  1484. 00:00:21.718 : [zipfs] daf_95_ati.scs: Unmounted
  1485. 00:00:21.718 : [zipfs] DAF XF Euro6.scs: Unmounted
  1486. 00:00:21.718 : [zipfs] Daf Xf 106 District New 414.scs: Unmounted
  1487. 00:00:21.718 : [zipfs] Cold Rain v0.2 for 1.40.scs: Unmounted
  1488. 00:00:21.718 : [zipfs] Brick Trailer Pack.scs: Unmounted
  1489. 00:00:21.718 : [zipfs] BigPack_Tuning_Scania_NG_1_6.scs: Unmounted
  1490. 00:00:21.718 : [zipfs] All propiska.scs: Unmounted
  1491. 00:00:21.718 : [zipfs] AI_ETS2_TRUCK_Real_Traf_6.3_1.38_RCKPS.scs: Unmounted
  1492. 00:00:21.718 : [zipfs] Addon - Less visibility in windows.scs: Unmounted
  1493. 00:00:21.718 : [zipfs] Adar_Standard.scs: Unmounted
  1494. 00:00:21.718 : [zipfs] Adar_ProfiLiner.scs: Unmounted
  1495. 00:00:21.718 : [zipfs] Adar_garage.scs: Unmounted
  1496. 00:00:21.718 : [zipfs] Adar_CoolLiner.scs: Unmounted
  1497. 00:00:21.719 : [zipfs] A5C_-_ACTROS_5_2019_-_BASE.scs: Unmounted
  1498. 00:00:21.719 : [zipfs] 50k_DAF_XF_1.39.scs: Unmounted
  1499. 00:00:21.719 : [zipfs] 4k_8k_scania_s_griffin_transport_multicolor_combo_skin_by_A.Mikhaylov.scs: Unmounted
  1500. 00:00:21.719 : [zipfs] 2_kontur.scs: Unmounted
  1501. 00:00:21.727 : [fs] device dlc_actros_tuning.scs mounted.
  1502. 00:00:21.727 : [fs] device dlc_balkan_e.scs mounted.
  1503. 00:00:21.727 : [fs] device dlc_balt.scs mounted.
  1504. 00:00:21.728 : [fs] device dlc_daf_2021.scs mounted.
  1505. 00:00:21.728 : [fs] device dlc_daf_tuning_pack.scs mounted.
  1506. 00:00:21.728 : [fs] device dlc_east.scs mounted.
  1507. 00:00:21.728 : [fs] device dlc_fantasy.scs mounted.
  1508. 00:00:21.728 : [fs] device dlc_flags_be.scs mounted.
  1509. 00:00:21.728 : [fs] device dlc_flags_jp.scs mounted.
  1510. 00:00:21.728 : [fs] device dlc_flags_pl.scs mounted.
  1511. 00:00:21.728 : [fs] device dlc_fr.scs mounted.
  1512. 00:00:21.729 : [fs] device dlc_iberia.scs mounted.
  1513. 00:00:21.729 : [fs] device dlc_it.scs mounted.
  1514. 00:00:21.729 : [fs] device dlc_krone.scs mounted.
  1515. 00:00:21.729 : [fs] device dlc_metallics.scs mounted.
  1516. 00:00:21.729 : [fs] device dlc_metallics2.scs mounted.
  1517. 00:00:21.729 : [fs] device dlc_mighty_griffin.scs mounted.
  1518. 00:00:21.729 : [fs] device dlc_nature.scs mounted.
  1519. 00:00:21.729 : [fs] device dlc_north.scs mounted.
  1520. 00:00:21.730 : [fs] device dlc_oversize.scs mounted.
  1521. 00:00:21.730 : [fs] device dlc_rocket_league.scs mounted.
  1522. 00:00:21.730 : [fs] device dlc_schwarzmuller.scs mounted.
  1523. 00:00:21.730 : [fs] device dlc_toys.scs mounted.
  1524. 00:00:21.730 : [fs] device dlc_trailers.scs mounted.
  1525. 00:00:21.730 : [fs] device dlc_winter.scs mounted.
  1526. 00:00:21.765 : uset s_voiceover_mute "0"
  1527. 00:00:21.765 : uset s_intro_music_mute "0"
  1528. 00:00:21.765 : uset s_ui_music_mute "0"
  1529. 00:00:21.765 : uset s_ui_mute "0"
  1530. 00:00:21.765 : uset s_navigation_mute "0"
  1531. 00:00:21.765 : uset s_music_mute "0"
  1532. 00:00:21.765 : uset s_radio_mute "0"
  1533. 00:00:21.765 : uset s_interior_mute "0"
  1534. 00:00:21.765 : uset s_ambient_mute "0"
  1535. 00:00:21.765 : uset s_world_mute "0"
  1536. 00:00:21.765 : uset s_traffic_mute "0"
  1537. 00:00:21.765 : uset s_trailer_mute "0"
  1538. 00:00:21.765 : uset s_truck_noise_mute "0"
  1539. 00:00:21.765 : uset s_truck_effects_mute "0"
  1540. 00:00:21.765 : uset s_truck_turbo_mute "0"
  1541. 00:00:21.765 : uset s_truck_exhaust_mute "0"
  1542. 00:00:21.765 : uset s_truck_engine_mute "0"
  1543. 00:00:21.765 : uset s_master_mute "0"
  1544. 00:00:21.765 : uset s_voiceover_volume "0.5"
  1545. 00:00:21.765 : uset s_intro_music_volume "0.5"
  1546. 00:00:21.765 : uset s_ui_music_volume "0.5"
  1547. 00:00:21.765 : uset s_ui_volume "0.5"
  1548. 00:00:21.766 : uset s_navigation_volume "0.5"
  1549. 00:00:21.766 : uset s_music_volume "0.5"
  1550. 00:00:21.766 : uset s_radio_volume "0.5"
  1551. 00:00:21.766 : uset s_interior_volume "0.5"
  1552. 00:00:21.766 : uset s_ambient_volume "0.5"
  1553. 00:00:21.766 : uset s_world_volume "0.5"
  1554. 00:00:21.766 : uset s_traffic_volume "0.5"
  1555. 00:00:21.766 : uset s_trailer_volume "0.5"
  1556. 00:00:21.766 : uset s_truck_noise_volume "0.5"
  1557. 00:00:21.766 : uset s_truck_effects_volume "0.5"
  1558. 00:00:21.766 : uset s_truck_turbo_volume "0.5"
  1559. 00:00:21.766 : uset s_truck_exhaust_volume "0.5"
  1560. 00:00:21.766 : uset s_truck_engine_volume "0.5"
  1561. 00:00:21.766 : uset s_master_volume "0.75"
  1562. 00:00:21.766 : uset i_oculus_eye_protrusion "0.09"
  1563. 00:00:21.766 : uset i_oculus_eye_height "0.15"
  1564. 00:00:21.766 : uset i_hmd_max_prediction "0.1"
  1565. 00:00:21.766 : uset i_hmd_min_prediction "0.0"
  1566. 00:00:21.766 : uset r_interior "1"
  1567. 00:00:21.766 : uset r_steering_wheel "1"
  1568. 00:00:21.766 : uset g_eye_preset_5 ""
  1569. 00:00:21.766 : uset g_eye_preset_4 ""
  1570. 00:00:21.766 : uset g_eye_preset_3 ""
  1571. 00:00:21.766 : uset g_eye_preset_2 ""
  1572. 00:00:21.766 : uset g_eye_preset_1 ""
  1573. 00:00:21.766 : uset g_eye_enable "0"
  1574. 00:00:21.766 : uset g_cam_window_block "0.0"
  1575. 00:00:21.766 : uset g_toy_physics "1"
  1576. 00:00:21.766 : uset g_cam_steering_reverse "1.0"
  1577. 00:00:21.766 : uset g_cam_steering_value "1.0"
  1578. 00:00:21.766 : uset g_cam_steering "0"
  1579. 00:00:21.767 : uset g_pedal_clutch_range "1.0"
  1580. 00:00:21.767 : uset g_brake_intensity "1.0"
  1581. 00:00:21.767 : uset g_steer_autocenter "1"
  1582. 00:00:21.767 : uset g_clutch_brake "0"
  1583. 00:00:21.767 : uset g_hshifter_synchronized "1"
  1584. 00:00:21.767 : uset g_hshifter_split "3"
  1585. 00:00:21.767 : uset g_hshifter_layout_shifting "1"
  1586. 00:00:21.767 : uset g_hshifter_layout "splitter"
  1587. 00:00:21.767 : uset g_trans "3"
  1588. 00:00:21.767 : uset g_baked_vehicle "1"
  1589. 00:00:21.767 : uset g_force_economy_reset "0"
  1590. 00:00:21.767 : uset g_input_configured "1"
  1591. 00:00:21.769 : uset s_reverb_world "1"
  1592. 00:00:21.769 : uset s_reverb_cabin "1"
  1593. 00:00:21.769 : uset s_noise_aero "1"
  1594. 00:00:21.769 : uset s_noise_windows "1"
  1595. 00:00:21.769 : uset s_rumble_enabled "1"
  1596. 00:00:21.769 : uset s_reverse_enabled "1"
  1597. 00:00:21.769 : uset g_disable_beacons "0"
  1598. 00:00:21.769 : uset g_show_game_elements "1"
  1599. 00:00:21.769 : uset g_hmd_no_3d_background "0"
  1600. 00:00:21.769 : uset g_hmd_no_special_menu "0"
  1601. 00:00:21.769 : uset g_hmd_reduced_cabin_movement "1"
  1602. 00:00:21.769 : uset g_hmd_no_artifical_movement "0"
  1603. 00:00:21.769 : uset g_eye_pause_gaze "3000"
  1604. 00:00:21.769 : uset g_eye_pause "0"
  1605. 00:00:21.769 : uset g_cam_blinker "0"
  1606. 00:00:21.769 : uset g_cam_physics_value "1.0"
  1607. 00:00:21.769 : uset g_cam_physics "1"
  1608. 00:00:21.769 : uset g_blinker_auto_off "1"
  1609. 00:00:21.769 : uset g_cruise_control_smart "5.0"
  1610. 00:00:21.769 : uset g_cruise_control_grid "5.0"
  1611. 00:00:21.769 : uset g_adaptive_shift "0.0"
  1612. 00:00:21.769 : uset g_fuel_simulation "0"
  1613. 00:00:21.769 : uset g_hardcore_simulation "1"
  1614. 00:00:21.769 : uset g_reg_setting ""
  1615. 00:00:21.770 : uset g_brake_light_all "0"
  1616. 00:00:21.770 : uset g_use_speed_limiter "0"
  1617. 00:00:21.770 : uset g_hud_speed_warning "0"
  1618. 00:00:21.770 : uset g_hud_speed_limit "1"
  1619. 00:00:21.770 : uset g_axle_drop_auto "1"
  1620. 00:00:21.770 : uset g_engine_start_auto "1"
  1621. 00:00:21.770 : uset g_motor_brake_auto "0"
  1622. 00:00:21.770 : uset g_retarder_auto "0"
  1623. 00:00:21.770 : uset g_cabin_suspension_stiffness "1.0"
  1624. 00:00:21.770 : uset g_suspension_stiffness "1.0"
  1625. 00:00:21.770 : uset g_trailer_stability "0.5"
  1626. 00:00:21.770 : uset g_truck_stability "0.5"
  1627. 00:00:21.770 : uset g_mpg "0"
  1628. 00:00:21.770 : uset g_gallon "0"
  1629. 00:00:21.770 : uset g_fahrenheit "0"
  1630. 00:00:21.770 : uset g_pounds "kg"
  1631. 00:00:21.770 : uset g_mph "0"
  1632. 00:00:21.770 : uset g_road_events "1.0"
  1633. 00:00:21.770 : uset g_detours "1.2544"
  1634. 00:00:21.770 : uset g_name_localization_secondary "0"
  1635. 00:00:21.770 : uset g_name_localization "1"
  1636. 00:00:21.770 : uset g_lang_set "1"
  1637. 00:00:21.770 : uset g_lang "pl_pl"
  1638. 00:00:21.770 : uset g_cutscenes "1"
  1639. 00:00:21.770 : uset g_phys_mirrors "0"
  1640. 00:00:21.770 : uset g_world_map_zoom "6"
  1641. 00:00:21.770 : uset g_cargo_load_require_park_brake "0"
  1642. 00:00:21.770 : uset g_cargo_load_require_engine_off "1"
  1643. 00:00:21.770 : uset g_show_always_wotr_event "0"
  1644. 00:00:21.771 : uset g_last_wotr_event_start "0"
  1645. 00:00:21.771 : uset g_force_load_selector "-1"
  1646. 00:00:21.771 : uset g_autoload_ignore_autosave "0"
  1647. 00:00:21.771 : uset g_start_in_truck "0"
  1648. 00:00:21.771 : uset g_park_brake_init "0"
  1649. 00:00:21.771 : uset g_trailer_advanced_coupling "0"
  1650. 00:00:21.771 : uset g_parking_difficulty "0"
  1651. 00:00:21.771 : uset g_simple_parking_doubles "1"
  1652. 00:00:21.771 : uset g_speed_warning "0"
  1653. 00:00:21.771 : uset g_voice_navigation_pack ""
  1654. 00:00:21.771 : uset g_voice_navigation "0"
  1655. 00:00:21.771 : uset g_job_distance "1.0"
  1656. 00:00:21.771 : uset g_job_distance_limit "-1.0"
  1657. 00:00:21.771 : uset g_income_factor "1.0"
  1658. 00:00:21.771 : uset g_currency "4"
  1659. 00:00:21.771 : uset g_bad_weather_factor "0.01"
  1660. 00:00:21.771 : uset g_truck_analysis_fold "0"
  1661. 00:00:21.771 : uset g_desktop_rnd "1"
  1662. 00:00:21.771 : uset g_desktop_bcg "config.night_city"
  1663. 00:00:21.771 : uset g_save_idx "1"
  1664. 00:00:21.771 : uset g_ui_map_align "1"
  1665. 00:00:21.771 : uset g_gps_routing_mode "1"
  1666. 00:00:21.771 : uset g_gps_navigation "3"
  1667. 00:00:21.771 : uset g_heavy_cargo_popup "1"
  1668. 00:00:21.771 : uset g_mirrors "0"
  1669. 00:00:21.772 : uset g_adviser_eta "1"
  1670. 00:00:21.772 : uset g_adviser_running_message "1"
  1671. 00:00:21.772 : uset g_adviser_auto_parking "1"
  1672. 00:00:21.772 : uset g_adviser_keep_hidden "0"
  1673. 00:00:21.772 : uset g_adviser "1"
  1674. 00:00:21.772 : uset g_desktop_tutorial "0"
  1675. 00:00:21.772 : uset g_tutorial "0"
  1676. 00:00:21.772 : uset g_fatigue "0"
  1677. 00:00:21.772 : uset g_time_zones "0"
  1678. 00:00:21.772 : uset g_police "0"
  1679. 00:00:21.772 : uset g_subtitles "0"
  1680. 00:00:21.772 : uset g_clock_24 "1"
  1681. 00:00:21.775 : uset s_voiceover_mute "0"
  1682. 00:00:21.775 : uset s_intro_music_mute "0"
  1683. 00:00:21.775 : uset s_ui_music_mute "0"
  1684. 00:00:21.775 : uset s_ui_mute "0"
  1685. 00:00:21.775 : uset s_navigation_mute "0"
  1686. 00:00:21.775 : uset s_music_mute "0"
  1687. 00:00:21.775 : uset s_radio_mute "0"
  1688. 00:00:21.775 : uset s_interior_mute "0"
  1689. 00:00:21.775 : uset s_ambient_mute "0"
  1690. 00:00:21.775 : uset s_world_mute "0"
  1691. 00:00:21.775 : uset s_traffic_mute "0"
  1692. 00:00:21.775 : uset s_trailer_mute "0"
  1693. 00:00:21.775 : uset s_truck_noise_mute "0"
  1694. 00:00:21.775 : uset s_truck_effects_mute "0"
  1695. 00:00:21.775 : uset s_truck_turbo_mute "0"
  1696. 00:00:21.775 : uset s_truck_exhaust_mute "0"
  1697. 00:00:21.775 : uset s_truck_engine_mute "0"
  1698. 00:00:21.775 : uset s_master_mute "0"
  1699. 00:00:21.775 : uset s_voiceover_volume "0.5"
  1700. 00:00:21.776 : uset s_intro_music_volume "0.5"
  1701. 00:00:21.776 : uset s_ui_music_volume "0.5"
  1702. 00:00:21.776 : uset s_ui_volume "0.5"
  1703. 00:00:21.776 : uset s_navigation_volume "0.5"
  1704. 00:00:21.776 : uset s_music_volume "0.5"
  1705. 00:00:21.776 : uset s_radio_volume "0.5"
  1706. 00:00:21.776 : uset s_interior_volume "0.5"
  1707. 00:00:21.776 : uset s_ambient_volume "0.5"
  1708. 00:00:21.776 : uset s_world_volume "0.5"
  1709. 00:00:21.776 : uset s_traffic_volume "0.5"
  1710. 00:00:21.776 : uset s_trailer_volume "0.5"
  1711. 00:00:21.776 : uset s_truck_noise_volume "0.5"
  1712. 00:00:21.776 : uset s_truck_effects_volume "0.5"
  1713. 00:00:21.776 : uset s_truck_turbo_volume "0.5"
  1714. 00:00:21.776 : uset s_truck_exhaust_volume "0.5"
  1715. 00:00:21.776 : uset s_truck_engine_volume "0.5"
  1716. 00:00:21.776 : uset s_master_volume "0.75"
  1717. 00:00:21.776 : uset i_oculus_eye_protrusion "0.09"
  1718. 00:00:21.776 : uset i_oculus_eye_height "0.15"
  1719. 00:00:21.776 : uset i_hmd_max_prediction "0.1"
  1720. 00:00:21.776 : uset i_hmd_min_prediction "0.0"
  1721. 00:00:21.776 : uset r_interior "1"
  1722. 00:00:21.776 : uset r_steering_wheel "1"
  1723. 00:00:21.776 : uset g_eye_preset_5 ""
  1724. 00:00:21.776 : uset g_eye_preset_4 ""
  1725. 00:00:21.776 : uset g_eye_preset_3 ""
  1726. 00:00:21.776 : uset g_eye_preset_2 ""
  1727. 00:00:21.776 : uset g_eye_preset_1 ""
  1728. 00:00:21.776 : uset g_eye_enable "0"
  1729. 00:00:21.776 : uset g_cam_window_block "0.0"
  1730. 00:00:21.776 : uset g_toy_physics "1"
  1731. 00:00:21.777 : uset g_cam_steering_reverse "1.0"
  1732. 00:00:21.777 : uset g_cam_steering_value "1.0"
  1733. 00:00:21.777 : uset g_cam_steering "0"
  1734. 00:00:21.777 : uset g_pedal_clutch_range "1.0"
  1735. 00:00:21.777 : uset g_brake_intensity "1.0"
  1736. 00:00:21.777 : uset g_steer_autocenter "1"
  1737. 00:00:21.777 : uset g_clutch_brake "0"
  1738. 00:00:21.777 : uset g_hshifter_synchronized "1"
  1739. 00:00:21.777 : uset g_hshifter_split "3"
  1740. 00:00:21.777 : uset g_hshifter_layout_shifting "1"
  1741. 00:00:21.777 : uset g_hshifter_layout "splitter"
  1742. 00:00:21.777 : uset g_trans "3"
  1743. 00:00:21.777 : uset g_baked_vehicle "1"
  1744. 00:00:21.777 : uset g_force_economy_reset "0"
  1745. 00:00:21.777 : uset g_input_configured "1"
  1746. 00:00:21.779 : uset s_reverb_world "1"
  1747. 00:00:21.779 : uset s_reverb_cabin "1"
  1748. 00:00:21.779 : uset s_noise_aero "1"
  1749. 00:00:21.779 : uset s_noise_windows "1"
  1750. 00:00:21.779 : uset s_rumble_enabled "1"
  1751. 00:00:21.779 : uset s_reverse_enabled "1"
  1752. 00:00:21.779 : uset g_disable_beacons "0"
  1753. 00:00:21.779 : uset g_show_game_elements "1"
  1754. 00:00:21.779 : uset g_hmd_no_3d_background "0"
  1755. 00:00:21.779 : uset g_hmd_no_special_menu "0"
  1756. 00:00:21.779 : uset g_hmd_reduced_cabin_movement "1"
  1757. 00:00:21.779 : uset g_hmd_no_artifical_movement "0"
  1758. 00:00:21.779 : uset g_eye_pause_gaze "3000"
  1759. 00:00:21.779 : uset g_eye_pause "0"
  1760. 00:00:21.779 : uset g_cam_blinker "0"
  1761. 00:00:21.779 : uset g_cam_physics_value "1.0"
  1762. 00:00:21.779 : uset g_cam_physics "1"
  1763. 00:00:21.779 : uset g_blinker_auto_off "1"
  1764. 00:00:21.779 : uset g_cruise_control_smart "5.0"
  1765. 00:00:21.779 : uset g_cruise_control_grid "5.0"
  1766. 00:00:21.779 : uset g_adaptive_shift "0.0"
  1767. 00:00:21.779 : uset g_fuel_simulation "0"
  1768. 00:00:21.779 : uset g_hardcore_simulation "1"
  1769. 00:00:21.779 : uset g_reg_setting ""
  1770. 00:00:21.779 : uset g_brake_light_all "0"
  1771. 00:00:21.779 : uset g_use_speed_limiter "0"
  1772. 00:00:21.780 : uset g_hud_speed_warning "0"
  1773. 00:00:21.780 : uset g_hud_speed_limit "1"
  1774. 00:00:21.780 : uset g_axle_drop_auto "1"
  1775. 00:00:21.780 : uset g_engine_start_auto "1"
  1776. 00:00:21.780 : uset g_motor_brake_auto "0"
  1777. 00:00:21.780 : uset g_retarder_auto "0"
  1778. 00:00:21.780 : uset g_cabin_suspension_stiffness "1.0"
  1779. 00:00:21.780 : uset g_suspension_stiffness "1.0"
  1780. 00:00:21.780 : uset g_trailer_stability "0.5"
  1781. 00:00:21.780 : uset g_truck_stability "0.5"
  1782. 00:00:21.780 : uset g_mpg "0"
  1783. 00:00:21.780 : uset g_gallon "0"
  1784. 00:00:21.780 : uset g_fahrenheit "0"
  1785. 00:00:21.780 : uset g_pounds "kg"
  1786. 00:00:21.780 : uset g_mph "0"
  1787. 00:00:21.780 : uset g_road_events "1.0"
  1788. 00:00:21.780 : uset g_detours "1.2544"
  1789. 00:00:21.780 : uset g_name_localization_secondary "0"
  1790. 00:00:21.780 : uset g_name_localization "1"
  1791. 00:00:21.780 : uset g_lang_set "1"
  1792. 00:00:21.780 : uset g_lang "pl_pl"
  1793. 00:00:21.780 : uset g_cutscenes "1"
  1794. 00:00:21.780 : uset g_phys_mirrors "0"
  1795. 00:00:21.780 : uset g_world_map_zoom "6"
  1796. 00:00:21.780 : uset g_cargo_load_require_park_brake "0"
  1797. 00:00:21.780 : uset g_cargo_load_require_engine_off "1"
  1798. 00:00:21.780 : uset g_show_always_wotr_event "0"
  1799. 00:00:21.780 : uset g_last_wotr_event_start "0"
  1800. 00:00:21.780 : uset g_force_load_selector "-1"
  1801. 00:00:21.781 : uset g_autoload_ignore_autosave "0"
  1802. 00:00:21.781 : uset g_start_in_truck "0"
  1803. 00:00:21.781 : uset g_park_brake_init "0"
  1804. 00:00:21.781 : uset g_trailer_advanced_coupling "0"
  1805. 00:00:21.781 : uset g_parking_difficulty "0"
  1806. 00:00:21.781 : uset g_simple_parking_doubles "1"
  1807. 00:00:21.781 : uset g_speed_warning "0"
  1808. 00:00:21.781 : uset g_voice_navigation_pack ""
  1809. 00:00:21.781 : uset g_voice_navigation "0"
  1810. 00:00:21.781 : uset g_job_distance "1.0"
  1811. 00:00:21.781 : uset g_job_distance_limit "-1.0"
  1812. 00:00:21.781 : uset g_income_factor "1.0"
  1813. 00:00:21.781 : uset g_currency "4"
  1814. 00:00:21.781 : uset g_bad_weather_factor "0.01"
  1815. 00:00:21.781 : uset g_truck_analysis_fold "0"
  1816. 00:00:21.781 : uset g_desktop_rnd "1"
  1817. 00:00:21.781 : uset g_desktop_bcg "config.night_city"
  1818. 00:00:21.781 : uset g_save_idx "1"
  1819. 00:00:21.781 : uset g_ui_map_align "1"
  1820. 00:00:21.781 : uset g_gps_routing_mode "1"
  1821. 00:00:21.781 : uset g_gps_navigation "3"
  1822. 00:00:21.781 : uset g_heavy_cargo_popup "1"
  1823. 00:00:21.781 : uset g_mirrors "0"
  1824. 00:00:21.781 : uset g_adviser_eta "1"
  1825. 00:00:21.781 : uset g_adviser_running_message "1"
  1826. 00:00:21.781 : uset g_adviser_auto_parking "1"
  1827. 00:00:21.781 : uset g_adviser_keep_hidden "0"
  1828. 00:00:21.781 : uset g_adviser "1"
  1829. 00:00:21.782 : uset g_desktop_tutorial "0"
  1830. 00:00:21.782 : uset g_tutorial "0"
  1831. 00:00:21.782 : uset g_fatigue "0"
  1832. 00:00:21.782 : uset g_time_zones "0"
  1833. 00:00:21.782 : uset g_police "0"
  1834. 00:00:21.782 : uset g_subtitles "0"
  1835. 00:00:21.782 : uset g_clock_24 "1"
  1836. 00:00:21.810 : New profile selected: ':steam/Kamil 'Kunia' Kunick'
  1837. 00:00:26.154 : [hashfs] 144L_460_1.39.scs: Created, 778 entries
  1838. 00:00:26.154 : <WARNING> [mods] No valid categories defined for 144L_460_1.39. Setting defaults.
  1839. 00:00:26.154 : <ERROR> [mods] Cannot find '/mod_description.txt' description file for mod '144L_460_1.39'.
  1840. 00:00:26.156 : [zipfs] 2_kontur.scs: Created, 8 entries
  1841. 00:00:26.158 : [zipfs] 4k_8k_scania_s_griffin_transport_multicolor_combo_skin_by_A.Mikhaylov.scs: Created, 68 entries
  1842. 00:00:26.161 : [zipfs] 50k_DAF_XF_1.39.scs: Created, 395 entries
  1843. 00:00:26.167 : [zipfs] A5C_-_ACTROS_5_2019_-_BASE.scs: Created, 2371 entries
  1844. 00:00:26.168 : <ERROR> [zipfs] Unsupported compression method used: 99 for record #6 - def/vehicle/trailer_owned/krone.coolliner/paint_job/accessory/costa.sii from 'C:/Users/olmen/Documents/Euro Truck Simulator 2/mod/Adar_CoolLiner.scs'.
  1845. 00:00:26.168 : <ERROR> [zipfs] Unsupported compression method used: 99 for record #7 - def/vehicle/trailer_owned/krone.coolliner/paint_job/costa.sii from 'C:/Users/olmen/Documents/Euro Truck Simulator 2/mod/Adar_CoolLiner.scs'.
  1846. 00:00:26.169 : <ERROR> [zipfs] Unsupported compression method used: 99 for record #8 - def/vehicle/trailer_owned/krone.coolliner/paint_job/costa_shared.sui from 'C:/Users/olmen/Documents/Euro Truck Simulator 2/mod/Adar_CoolLiner.scs'.
  1847. 00:00:26.169 : <ERROR> [zipfs] Unsupported compression method used: 99 for record #12 - material/ui/accessory/costa.dds from 'C:/Users/olmen/Documents/Euro Truck Simulator 2/mod/Adar_CoolLiner.scs'.
  1848. 00:00:26.169 : <ERROR> [zipfs] Unsupported compression method used: 99 for record #13 - material/ui/accessory/costa.mat from 'C:/Users/olmen/Documents/Euro Truck Simulator 2/mod/Adar_CoolLiner.scs'.
  1849. 00:00:26.169 : <ERROR> [zipfs] Unsupported compression method used: 99 for record #14 - material/ui/accessory/costa.tobj from 'C:/Users/olmen/Documents/Euro Truck Simulator 2/mod/Adar_CoolLiner.scs'.
  1850. 00:00:26.169 : <ERROR> [zipfs] Unsupported compression method used: 99 for record #22 - vehicle/trailer_owned/upgrade/paintjob/krone.coolliner/costa/accessories/acc_0.dds from 'C:/Users/olmen/Documents/Euro Truck Simulator 2/mod/Adar_CoolLiner.scs'.
  1851. 00:00:26.169 : <ERROR> [zipfs] Unsupported compression method used: 99 for record #23 - vehicle/trailer_owned/upgrade/paintjob/krone.coolliner/costa/accessories/acc_0.tobj from 'C:/Users/olmen/Documents/Euro Truck Simulator 2/mod/Adar_CoolLiner.scs'.
  1852. 00:00:26.169 : <ERROR> [zipfs] Unsupported compression method used: 99 for record #24 - vehicle/trailer_owned/upgrade/paintjob/krone.coolliner/costa/costa_shared.dds from 'C:/Users/olmen/Documents/Euro Truck Simulator 2/mod/Adar_CoolLiner.scs'.
  1853. 00:00:26.169 : <ERROR> [zipfs] Unsupported compression method used: 99 for record #25 - vehicle/trailer_owned/upgrade/paintjob/krone.coolliner/costa/costa_shared.tobj from 'C:/Users/olmen/Documents/Euro Truck Simulator 2/mod/Adar_CoolLiner.scs'.
  1854. 00:00:26.169 : <ERROR> [zipfs] Unsupported compression method used: 99 for record #26 - manifest.sii from 'C:/Users/olmen/Documents/Euro Truck Simulator 2/mod/Adar_CoolLiner.scs'.
  1855. 00:00:26.170 : <ERROR> [zipfs] Unsupported compression method used: 99 for record #27 - mod_description.txt from 'C:/Users/olmen/Documents/Euro Truck Simulator 2/mod/Adar_CoolLiner.scs'.
  1856. 00:00:26.170 : <ERROR> [zipfs] Unsupported compression method used: 99 for record #28 - mod_icon.jpg from 'C:/Users/olmen/Documents/Euro Truck Simulator 2/mod/Adar_CoolLiner.scs'.
  1857. 00:00:26.170 : [zipfs] Adar_CoolLiner.scs: Created, 29 entries
  1858. 00:00:26.170 : <WARNING> [mod] Mod package 'Adar_CoolLiner' does not contain a manifest file 'manifest.sii', creating default information set.
  1859. 00:00:26.172 : [zipfs] Adar_garage.scs: Created, 360 entries
  1860. 00:00:26.173 : <WARNING> [mods] Unknown category 'others' defined for Adar_garage. Ignoring.
  1861. 00:00:26.173 : <WARNING> [mods] No valid categories defined for Adar_garage. Setting defaults.
  1862. 00:00:26.174 : <ERROR> [zipfs] Unsupported compression method used: 99 for record #6 - def/vehicle/trailer_owned/krone.profiliner/paint_job/accessory/costa.sii from 'C:/Users/olmen/Documents/Euro Truck Simulator 2/mod/Adar_ProfiLiner.scs'.
  1863. 00:00:26.174 : <ERROR> [zipfs] Unsupported compression method used: 99 for record #7 - def/vehicle/trailer_owned/krone.profiliner/paint_job/costa.sii from 'C:/Users/olmen/Documents/Euro Truck Simulator 2/mod/Adar_ProfiLiner.scs'.
  1864. 00:00:26.174 : <ERROR> [zipfs] Unsupported compression method used: 99 for record #8 - def/vehicle/trailer_owned/krone.profiliner/paint_job/costa_shared.sui from 'C:/Users/olmen/Documents/Euro Truck Simulator 2/mod/Adar_ProfiLiner.scs'.
  1865. 00:00:26.174 : <ERROR> [zipfs] Unsupported compression method used: 99 for record #12 - material/ui/accessory/costa.dds from 'C:/Users/olmen/Documents/Euro Truck Simulator 2/mod/Adar_ProfiLiner.scs'.
  1866. 00:00:26.174 : <ERROR> [zipfs] Unsupported compression method used: 99 for record #13 - material/ui/accessory/costa.mat from 'C:/Users/olmen/Documents/Euro Truck Simulator 2/mod/Adar_ProfiLiner.scs'.
  1867. 00:00:26.174 : <ERROR> [zipfs] Unsupported compression method used: 99 for record #14 - material/ui/accessory/costa.tobj from 'C:/Users/olmen/Documents/Euro Truck Simulator 2/mod/Adar_ProfiLiner.scs'.
  1868. 00:00:26.174 : <ERROR> [zipfs] Unsupported compression method used: 99 for record #22 - vehicle/trailer_owned/upgrade/paintjob/krone.profiliner/costa/accessories/acc_0.dds from 'C:/Users/olmen/Documents/Euro Truck Simulator 2/mod/Adar_ProfiLiner.scs'.
  1869. 00:00:26.174 : <ERROR> [zipfs] Unsupported compression method used: 99 for record #23 - vehicle/trailer_owned/upgrade/paintjob/krone.profiliner/costa/accessories/acc_0.tobj from 'C:/Users/olmen/Documents/Euro Truck Simulator 2/mod/Adar_ProfiLiner.scs'.
  1870. 00:00:26.175 : <ERROR> [zipfs] Unsupported compression method used: 99 for record #24 - vehicle/trailer_owned/upgrade/paintjob/krone.profiliner/costa/costa_shared.dds from 'C:/Users/olmen/Documents/Euro Truck Simulator 2/mod/Adar_ProfiLiner.scs'.
  1871. 00:00:26.175 : <ERROR> [zipfs] Unsupported compression method used: 99 for record #25 - vehicle/trailer_owned/upgrade/paintjob/krone.profiliner/costa/costa_shared.tobj from 'C:/Users/olmen/Documents/Euro Truck Simulator 2/mod/Adar_ProfiLiner.scs'.
  1872. 00:00:26.175 : <ERROR> [zipfs] Unsupported compression method used: 99 for record #26 - manifest.sii from 'C:/Users/olmen/Documents/Euro Truck Simulator 2/mod/Adar_ProfiLiner.scs'.
  1873. 00:00:26.175 : <ERROR> [zipfs] Unsupported compression method used: 99 for record #27 - mod_description.txt from 'C:/Users/olmen/Documents/Euro Truck Simulator 2/mod/Adar_ProfiLiner.scs'.
  1874. 00:00:26.175 : <ERROR> [zipfs] Unsupported compression method used: 99 for record #28 - mod_icon.jpg from 'C:/Users/olmen/Documents/Euro Truck Simulator 2/mod/Adar_ProfiLiner.scs'.
  1875. 00:00:26.175 : [zipfs] Adar_ProfiLiner.scs: Created, 29 entries
  1876. 00:00:26.175 : <WARNING> [mod] Mod package 'Adar_ProfiLiner' does not contain a manifest file 'manifest.sii', creating default information set.
  1877. 00:00:26.176 : [zipfs] Adar_Standard.scs: Created, 29 entries
  1878. 00:00:26.177 : [zipfs] Addon - Less visibility in windows.scs: Created, 6 entries
  1879. 00:00:26.181 : [zipfs] AI_ETS2_TRUCK_Real_Traf_6.3_1.38_RCKPS.scs: Created, 4068 entries
  1880. 00:00:26.188 : [zipfs] All propiska.scs: Created, 5534 entries
  1881. 00:00:26.189 : [zipfs] BigPack_Tuning_Scania_NG_1_6.scs: Created, 670 entries
  1882. 00:00:26.189 : <WARNING> [mods] Incompatible mod - BigPack_Tuning_Scania_NG_1_6
  1883. 00:00:26.191 : [zipfs] Brick Trailer Pack.scs: Created, 1198 entries
  1884. 00:00:26.191 : <WARNING> [mods] Unknown category 'Trailer' defined for Brick Trailer Pack. Ignoring.
  1885. 00:00:26.191 : <WARNING> [mods] No valid categories defined for Brick Trailer Pack. Setting defaults.
  1886. 00:00:26.192 : [zipfs] Cold Rain v0.2 for 1.40.scs: Created, 52 entries
  1887. 00:00:26.195 : [zipfs] Daf Xf 106 District New 414.scs: Created, 2215 entries
  1888. 00:00:26.198 : [zipfs] DAF XF Euro6.scs: Created, 2043 entries
  1889. 00:00:26.201 : [zipfs] daf_95_ati.scs: Created, 3042 entries
  1890. 00:00:26.203 : [zipfs] daf_95_ati_bdf_trailer.scs: Created, 350 entries
  1891. 00:00:26.204 : [zipfs] daf_95_ati_cabin_accessories.scs: Created, 48 entries
  1892. 00:00:26.205 : [zipfs] daf_95_ati_tuning.scs: Created, 30 entries
  1893. 00:00:26.205 : [zipfs] Daf_Xf_105_Open_Pipe_sound_Reworked_Fix.scs: Created, 27 entries
  1894. 00:00:26.206 : [zipfs] Dark_interior_daf_xf_105_3.01.scs: Created, 53 entries
  1895. 00:00:26.207 : [zipfs] dark_skies.scs: Created, 32 entries
  1896. 00:00:26.215 : [zipfs] dd_tandem_truck_pack.scs: Created, 8763 entries
  1897. 00:00:26.216 : [zipfs] Def File 1.39.X(AryanEdit).scs: Created, 243 entries
  1898. 00:00:26.216 : <WARNING> [mods] Incompatible mod - Def File 1.39.X(AryanEdit)
  1899. 00:00:26.217 : [zipfs] dimmed_headlights.scs: Created, 76 entries
  1900. 00:00:26.218 : [zipfs] ETS2_Interior_Driver_1.00_for_1.39.scs: Created, 714 entries
  1901. 00:00:26.219 : [hashfs] ETS2_Realistic_Lights_Effect_V2_0.scs: Created, 76 entries
  1902. 00:00:26.257 : [zipfs] FikcyjnaPolska v1.39.scs: Created, 48662 entries
  1903. 00:00:26.258 : [zipfs] FIX_daf_95_ati_for_ETS2-1.39.scs: Created, 74 entries
  1904. 00:00:26.259 : [zipfs] FrontBadgeScaniaNg.scs: Created, 229 entries
  1905. 00:00:26.259 : <WARNING> [mods] Incompatible mod - FrontBadgeScaniaNg
  1906. 00:00:26.266 : [zipfs] frosty_8.scs: Created, 8525 entries
  1907. 00:00:26.267 : [zipfs] frosty_heavy_winter_8.scs: Created, 717 entries
  1908. 00:00:26.268 : [zipfs] frosty_no_fog_8.scs: Created, 39 entries
  1909. 00:00:26.269 : [zipfs] frosty_physics_8_02.scs: Created, 6 entries
  1910. 00:00:26.270 : [zipfs] frosty_wheels.scs: Created, 344 entries
  1911. 00:00:26.270 : [zipfs] Godzilla Racing Trailer.scs: Created, 15 entries
  1912. 00:00:26.273 : [zipfs] Interior Back Lights v6.7-1.40.scs: Created, 2905 entries
  1913. 00:00:26.274 : [zipfs] interior_cabin_lights_3_0.scs: Created, 216 entries
  1914. 00:00:26.276 : [zipfs] International.scs: Created, 1303 entries
  1915. 00:00:26.276 : <WARNING> [mod] Mod package 'International' does not contain a manifest file 'manifest.sii', creating default information set.
  1916. 00:00:26.278 : [zipfs] Iveco Hi-Way.scs: Created, 2122 entries
  1917. 00:00:26.282 : [zipfs] Krone New District 26.scs: Created, 3633 entries
  1918. 00:00:26.282 : [hashfs] MAN F2000 Commander.scs: Created, 2786 entries
  1919. 00:00:26.282 : <WARNING> [mods] Incompatible mod - MAN F2000 Commander
  1920. 00:00:26.283 : [zipfs] MAN F2000 custom number.scs: Created, 9 entries
  1921. 00:00:26.284 : [zipfs] Man Godzilla Racing.scs: Created, 21 entries
  1922. 00:00:26.284 : [zipfs] man_euro6_v1.scs: Created, 53 entries
  1923. 00:00:26.284 : <WARNING> [mods] Unknown category 'sounds' defined for man_euro6_v1. Ignoring.
  1924. 00:00:26.285 : <WARNING> [mods] No valid categories defined for man_euro6_v1. Setting defaults.
  1925. 00:00:26.285 : <WARNING> [mods] Incompatible mod - man_euro6_v1
  1926. 00:00:26.286 : [zipfs] man_tga_byMADster_v1.6_1.39_fix.scs: Created, 1436 entries
  1927. 00:00:26.288 : [zipfs] MAN_TGX_2020_1.39.scs: Created, 1221 entries
  1928. 00:00:26.291 : [zipfs] MAN_TGX_E6_2015_by_Gloover_v.1.0.scs: Created, 2759 entries
  1929. 00:00:26.291 : <WARNING> [mods] No valid categories defined for MAN_TGX_E6_2015_by_Gloover_v.1.0. Setting defaults.
  1930. 00:00:26.292 : [zipfs] MB_1933_V2.scs: Created, 1308 entries
  1931. 00:00:26.293 : [zipfs] C:/Users/olmen/Documents/Euro Truck Simulator 2/mod/Mega_mod_Magnum_1.40_l.scs: AEM¨ľ¸ŃŔŁĽŇ˛ŐPK
  1932. 00:00:26.293 : [zipfs] Mega_mod_Magnum_1.40_l.scs: Created, 458 entries
  1933. 00:00:26.296 : [zipfs] Mercedes Actros MP4.scs: Created, 1849 entries
  1934. 00:00:26.296 : [hashfs] MERCEDES BENZ SK 1838.scs: Created, 509 entries
  1935. 00:00:26.297 : [hashfs] Mercedes-Benz Actros MP5 2019.scs: Created, 1335 entries
  1936. 00:00:26.299 : [zipfs] Mercedes_Actros_MP1_[1.39].scs: Created, 2039 entries
  1937. 00:00:26.299 : <WARNING> [mods] Incompatible mod - Mercedes_Actros_MP1_[1.39]
  1938. 00:00:26.302 : [zipfs] mercedes_sk.scs: Created, 3093 entries
  1939. 00:00:26.303 : [zipfs] mercedes_sk_8x4.scs: Created, 306 entries
  1940. 00:00:26.304 : [zipfs] Mercedes_Sprinter_2019_BETA03.scs: Created, 845 entries
  1941. 00:00:26.304 : <WARNING> [mods] Too many categories defined for Mercedes_Sprinter_2019_BETA03 - limit 2. Using first 2.
  1942. 00:00:26.304 : <WARNING> [mods] Incompatible mod - Mercedes_Sprinter_2019_BETA03
  1943. 00:00:26.305 : [zipfs] Mercedes_Sprinter_2019_license_plate_template.scs: Created, 15 entries
  1944. 00:00:26.305 : <WARNING> [mod] Mod package 'Mercedes_Sprinter_2019_license_plate_template' does not contain a manifest file 'manifest.sii', creating default information set.
  1945. 00:00:26.305 : [zipfs] Mercedes_Sprinter_2019_template.scs: Created, 17 entries
  1946. 00:00:26.306 : [zipfs] orange_pack.scs: Created, 503 entries
  1947. 00:00:26.307 : [zipfs] Pennant DAF.scs: Created, 224 entries
  1948. 00:00:26.308 : [zipfs] Pennant Gaz.scs: Created, 222 entries
  1949. 00:00:26.309 : [zipfs] Pennant Iveco.scs: Created, 224 entries
  1950. 00:00:26.310 : [zipfs] Pennant Kamaz.scs: Created, 224 entries
  1951. 00:00:26.311 : [zipfs] Pennant MAN.scs: Created, 224 entries
  1952. 00:00:26.312 : [zipfs] Pennant Maz.scs: Created, 222 entries
  1953. 00:00:26.313 : [zipfs] Pennant Mercedes-Benz.scs: Created, 224 entries
  1954. 00:00:26.314 : [zipfs] Pennant RENO.scs: Created, 224 entries
  1955. 00:00:26.315 : [zipfs] Pennant SCANIA.scs: Created, 224 entries
  1956. 00:00:26.316 : [zipfs] Pennant VOLVO.scs: Created, 224 entries
  1957. 00:00:26.317 : [zipfs] PM246_RM2.1.1_PR2.4.2_roadconnection (1).scs: Created, 253 entries
  1958. 00:00:26.318 : [zipfs] PM246_RM2.1.1_PR2.4.2_roadconnection.scs: Created, 253 entries
  1959. 00:00:26.319 : [zipfs] PM251_RM2.3.1_PR2.4.4_roadconnection.scs: Created, 314 entries
  1960. 00:00:26.320 : [zipfs] PM255_RM2.4.1_PR2.5_roadconnectionV2.scs: Created, 322 entries
  1961. 00:00:26.332 : [zipfs] Poland Detail-Adding Mod 2.0 Open Beta.scs: Created, 19190 entries
  1962. 00:00:26.333 : [zipfs] C:/Users/olmen/Documents/Euro Truck Simulator 2/mod/privolzhe_group_dirt.scs: Created with ETS2 Studio v.0.6.1.8
  1963.  
  1964. 00:00:26.333 : [zipfs] C:/Users/olmen/Documents/Euro Truck Simulator 2/mod/privolzhe_group_dirt.scs: www.ets2studio.com
  1965. 00:00:26.333 : [zipfs] privolzhe_group_dirt.scs: Created, 18 entries
  1966. 00:00:26.333 : <WARNING> [mod] Mod package 'privolzhe_group_dirt' does not contain a manifest file 'manifest.sii', creating default information set.
  1967. 00:00:26.334 : [hashfs] promods-assets-v251.scs: Created, 44346 entries
  1968. 00:00:26.334 : <WARNING> [mods] Incompatible mod - promods-assets-v251
  1969. 00:00:26.335 : [hashfs] promods-assets-v255.scs: Created, 36239 entries
  1970. 00:00:26.338 : [zipfs] promods-def-st-v251.scs: Created, 2435 entries
  1971. 00:00:26.338 : <WARNING> [mods] Incompatible mod - promods-def-st-v251
  1972. 00:00:26.340 : [zipfs] promods-def-st-v255.scs: Created, 2412 entries
  1973. 00:00:26.366 : [zipfs] promods-map-v251.scs: Created, 33801 entries
  1974. 00:00:26.366 : <WARNING> [mods] Incompatible mod - promods-map-v251
  1975. 00:00:26.394 : [zipfs] promods-map-v255.scs: Created, 36422 entries
  1976. 00:00:26.395 : [hashfs] promods-me-assets-v251.scs: Created, 3649 entries
  1977. 00:00:26.395 : <WARNING> [mods] Incompatible mod - promods-me-assets-v251
  1978. 00:00:26.395 : [hashfs] promods-me-assets-v255a.scs: Created, 3777 entries
  1979. 00:00:26.397 : [zipfs] promods-me-defmap-v251.scs: Created, 1088 entries
  1980. 00:00:26.397 : <WARNING> [mods] Incompatible mod - promods-me-defmap-v251
  1981. 00:00:26.399 : [zipfs] promods-me-defmap-v255a.scs: Created, 1290 entries
  1982. 00:00:26.399 : [hashfs] promods-media-v251.scs: Created, 11 entries
  1983. 00:00:26.399 : <WARNING> [mods] Incompatible mod - promods-media-v251
  1984. 00:00:26.400 : [hashfs] promods-media-v255.scs: Created, 11 entries
  1985. 00:00:26.400 : [hashfs] promods-model1-v251.scs: Created, 15862 entries
  1986. 00:00:26.400 : <WARNING> [mods] Incompatible mod - promods-model1-v251
  1987. 00:00:26.401 : [hashfs] promods-model1-v255.scs: Created, 15792 entries
  1988. 00:00:26.402 : [hashfs] promods-model2-v251.scs: Created, 22038 entries
  1989. 00:00:26.402 : <WARNING> [mods] Incompatible mod - promods-model2-v251
  1990. 00:00:26.402 : [hashfs] promods-model2-v255.scs: Created, 22202 entries
  1991. 00:00:26.403 : [hashfs] promods-model3-v251.scs: Created, 7462 entries
  1992. 00:00:26.403 : <WARNING> [mods] Incompatible mod - promods-model3-v251
  1993. 00:00:26.404 : [hashfs] promods-model3-v255.scs: Created, 7424 entries
  1994. 00:00:26.406 : [zipfs] PROMZONA 7_1.37_ROS_RM_PITER.scs: Created, 2840 entries
  1995. 00:00:26.413 : [zipfs] PROMZONA 7_1.37_ROS_RM_PR.scs: Created, 8938 entries
  1996. 00:00:26.415 : [zipfs] R_O_S_heavy_cargo39.scs: Created, 1099 entries
  1997. 00:00:26.416 : [zipfs] Realistic Brutal Weather Unforgiving By Kass.scs: Created, 849 entries
  1998. 00:00:26.419 : [zipfs] Renault Premium.scs: Created, 2095 entries
  1999. 00:00:26.421 : [zipfs] Renault12Toros_V1R40_ETS2_ATS_1_38_X_emirbardakci_com.scs: Created, 1951 entries
  2000. 00:00:26.421 : <WARNING> [mods] Unknown category 'Car' defined for Renault12Toros_V1R40_ETS2_ATS_1_38_X_emirbardakci_com. Ignoring.
  2001. 00:00:26.421 : <WARNING> [mods] No valid categories defined for Renault12Toros_V1R40_ETS2_ATS_1_38_X_emirbardakci_com. Setting defaults.
  2002. 00:00:26.421 : <WARNING> [mods] Incompatible mod - Renault12Toros_V1R40_ETS2_ATS_1_38_X_emirbardakci_com
  2003. 00:00:26.422 : [zipfs] Renault_MAGNUM_DXI_Open_Pipe.scs: Created, 58 entries
  2004. 00:00:26.424 : [zipfs] Renault_Major_1.39x.scs: Created, 2348 entries
  2005. 00:00:26.425 : [hashfs] ROEXallPM251RUS231PR244RCfullv4.scs: Created, 710 entries
  2006. 00:00:26.425 : <WARNING> [unit] Ignored unknown attribute compatible_version[] =
  2007. 00:00:26.427 : [zipfs] Roman_Diesel_byMADster_v1.3.1.scs: Created, 1243 entries
  2008. 00:00:26.427 : [zipfs] Ronco Direto.scs: Created, 49 entries
  2009. 00:00:26.427 : <WARNING> [mod] Mod package 'Ronco Direto' does not contain a manifest file 'manifest.sii', creating default information set.
  2010. 00:00:26.428 : [hashfs] RusMap-def_v2.3.1.scs: Created, 7503 entries
  2011. 00:00:26.428 : [hashfs] RusMap-map_v2.3.1.scs: Created, 814 entries
  2012. 00:00:26.429 : [hashfs] RusMap-model2_v2.3.1.scs: Created, 7397 entries
  2013. 00:00:26.442 : [zipfs] RusMap-model_v2.3.1.scs: Created, 20008 entries
  2014. 00:00:26.451 : [zipfs] Russian_open_spaces_39.scs: Created, 11208 entries
  2015. 00:00:26.457 : [zipfs] Russian_open_spaces_39map.scs: Created, 8420 entries
  2016. 00:00:26.463 : [zipfs] Russian_open_spaces_model_39.scs: Created, 6950 entries
  2017. 00:00:26.467 : [zipfs] Russian_open_spaces_vehicle_39.scs: Created, 4599 entries
  2018. 00:00:26.470 : [zipfs] Russian_open_spaces_vehicle_truck_39.scs: Created, 2572 entries
  2019. 00:00:26.477 : [zipfs] Scania 111.scs: Created, 8416 entries
  2020. 00:00:26.477 : <ERROR> [mods] Cannot find '/mod_description.txt' description file for mod 'Scania 111'.
  2021. 00:00:26.479 : [zipfs] Scania 124G Frontal.scs: Created, 1952 entries
  2022. 00:00:26.479 : <WARNING> [mod] Mod package 'Scania 124G Frontal' does not contain a manifest file 'manifest.sii', creating default information set.
  2023. 00:00:26.482 : [zipfs] Scania 143m edit by Ekualizer and Mango - [1.39].scs: Created, 2410 entries
  2024. 00:00:26.484 : [zipfs] Scania R620 Fleurs denmark team modifications.scs: Created, 1063 entries
  2025. 00:00:26.486 : [zipfs] Scania_lk.scs: Created, 2128 entries
  2026. 00:00:26.486 : <ERROR> [mods] Cannot find '/mod_description.txt' description file for mod 'Scania_lk'.
  2027. 00:00:26.487 : [zipfs] Scania_R700_HS_Schoch_DLC_Support_V1.1.scs: Created, 117 entries
  2028. 00:00:26.488 : [zipfs] Scania_R700_Mighty_Griffin_DLC_Support_V1.1.scs: Created, 512 entries
  2029. 00:00:26.494 : [zipfs] Scania_R700_Reworked_v3.1.scs: Created, 6873 entries
  2030. 00:00:26.495 : [zipfs] Scania_R700_SiSL_Mega_Pack_Support.scs: Created, 175 entries
  2031. 00:00:26.496 : [zipfs] Scania_R700_V8_Open_Pipe_V14_Support.scs: Created, 24 entries
  2032. 00:00:26.499 : [zipfs] Scania_S730T_Vlaustin_Ed.scs: Created, 2516 entries
  2033. 00:00:26.500 : [zipfs] scania_v8_v13.scs: Created, 200 entries
  2034. 00:00:26.500 : [zipfs] schulman.scs: Created, 13 entries
  2035. 00:00:26.510 : [zipfs] Shipping_Container_Cargo_Pack_v2.2_by_Satyanwesi_ETS2_1.38.scs: Created, 11576 entries
  2036. 00:00:26.513 : [zipfs] sisu_m.scs: Created, 3367 entries
  2037. 00:00:26.514 : [zipfs] sisu_m_cabin_accessories.scs: Created, 41 entries
  2038. 00:00:26.515 : <ERROR> [zipfs] Cannot find the zip_central_dir_end signature in 'C:/Users/olmen/Documents/Euro Truck Simulator 2/mod/SKINS_RenaultTrucks_Alpine_byGrafBoinenn.scs'.
  2039. 00:00:26.515 : <WARNING> [mod] Mod package 'SKINS_RenaultTrucks_Alpine_byGrafBoinenn' does not contain a manifest file 'manifest.sii', creating default information set.
  2040. 00:00:26.515 : [zipfs] Snow_terrain_fix_promods_russian_open_spaces_v1.2.scs: Created, 18 entries
  2041. 00:00:26.516 : <WARNING> [mods] Unknown category 'terrain' defined for Snow_terrain_fix_promods_russian_open_spaces_v1.2. Ignoring.
  2042. 00:00:26.516 : [zipfs] Som_MB_1933.scs: Created, 39 entries
  2043. 00:00:26.518 : [zipfs] spring_v4_1.scs: Created, 1346 entries
  2044. 00:00:26.520 : [zipfs] SuperGreatV.scs: Created, 1585 entries
  2045. 00:00:26.521 : [zipfs] the speed of the snow.scs: Created, 52 entries
  2046. 00:00:26.522 : [zipfs] Trailer_double_ROS_39.scs: Created, 980 entries
  2047. 00:00:26.523 : [zipfs] URAL-6464_ets2_ats_v26.02.21_1.39_1.40.scs: Created, 1134 entries
  2048. 00:00:26.524 : [zipfs] Viking_sticker_addon.scs: Created, 9 entries
  2049. 00:00:26.526 : [zipfs] VOLVO FH.scs: Created, 1194 entries
  2050. 00:00:26.527 : [zipfs] Volvo Fh12(AryanEdit).scs: Created, 579 entries
  2051. 00:00:26.528 : [zipfs] VOLVO NL12 EDC.scs: Created, 1031 entries
  2052. 00:00:26.531 : [zipfs] Volvo460FHMegaTruck.scs: Created, 2375 entries
  2053. 00:00:26.531 : <WARNING> [unit] Ignored unknown attribute compatible_version[] = 1.39.*
  2054. 00:00:26.531 : <ERROR> [mods] Cannot find '/mod_description.txt' description file for mod 'Volvo460FHMegaTruck'.
  2055. 00:00:26.531 : [hashfs] vw_constellation.scs: Created, 2181 entries
  2056. 00:00:26.531 : <WARNING> [mods] Unknown category 'TRUCK' defined for vw_constellation. Ignoring.
  2057. 00:00:26.531 : <WARNING> [mods] No valid categories defined for vw_constellation. Setting defaults.
  2058. 00:00:26.531 : <ERROR> [mods] Cannot find '/description.txt' description file for mod 'vw_constellation'.
  2059. 00:00:26.532 : [zipfs] WF_metallic_stripe_NG_R.scs: Created, 37 entries
  2060. 00:00:26.532 : <WARNING> [mods] No valid categories defined for WF_metallic_stripe_NG_R. Setting defaults.
  2061. 00:00:26.532 : <WARNING> [mods] No display_name defined in WF_metallic_stripe_NG_R. Using package name instead.
  2062. 00:00:26.533 : [zipfs] Your_trailer_ROS_39.scs: Created, 198 entries
  2063. 00:00:26.534 : [zipfs] Yusuf Arda Scania R500 Edit.scs: Created, 976 entries
  2064. 00:00:26.534 : <WARNING> [mod] Mod package 'Yusuf Arda Scania R500 Edit' does not contain a manifest file 'manifest.sii', creating default information set.
  2065. 00:00:26.539 : [zipfs] z1_PL_Rebuilding_2.5_def.scs: Created, 4619 entries
  2066. 00:00:26.539 : [hashfs] z2_PL_Rebuilding_2.5_map.scs: Created, 320 entries
  2067. 00:00:26.540 : [hashfs] z3_PL_Rebuilding_2.5_models.scs: Created, 16734 entries
  2068. 00:00:26.540 : [hashfs] z4_PL_Rebuilding_2.5_assets.scs: Created, 6175 entries
  2069. 00:00:26.541 : [zipfs] zz_PL_Rebuilding_2.5_ST.scs: Created, 17 entries
  2070. 00:00:26.542 : [fs] device D:/Steam/steamapps/workshop/content/227300/1911063424/universal mounted.
  2071. 00:00:26.548 : [zipfs] universal.zip: Created, 255 entries
  2072. 00:00:26.548 : [fs] device D:/Steam/steamapps/workshop/content/227300/695558935/universal.zip mounted.
  2073. 00:00:26.548 : [zipfs] universal.zip: Unmounted
  2074. 00:00:26.548 : [fs] device D:/Steam/steamapps/workshop/content/227300/1086441214/universal mounted.
  2075. 00:00:26.709 : [zipfs] 4k_8k_scania_s_le_130_years_skinpack.zip: Created, 122 entries
  2076. 00:00:26.709 : [fs] device D:/Steam/steamapps/workshop/content/227300/2490299318/4k_8k_scania_s_le_130_years_skinpack.zip mounted.
  2077. 00:00:26.710 : [zipfs] 4k_8k_scania_s_le_130_years_skinpack.zip: Unmounted
  2078. 00:00:26.710 : [fs] device D:/Steam/steamapps/workshop/content/227300/1517604028/universal mounted.
  2079. 00:00:26.711 : [fs] device D:/Steam/steamapps/workshop/content/227300/1541812438/universal mounted.
  2080. 00:00:26.780 : [zipfs] accessories_by_michaleczeq_v5_0.zip: Created, 684 entries
  2081. 00:00:26.780 : [fs] device D:/Steam/steamapps/workshop/content/227300/651417619/accessories_by_michaleczeq_v5_0.zip mounted.
  2082. 00:00:26.780 : [zipfs] accessories_by_michaleczeq_v5_0.zip: Unmounted
  2083. 00:00:26.783 : [zipfs] universal.zip: Created, 18 entries
  2084. 00:00:26.783 : [fs] device D:/Steam/steamapps/workshop/content/227300/2330331389/universal.zip mounted.
  2085. 00:00:26.783 : [zipfs] universal.zip: Unmounted
  2086. 00:00:26.783 : [fs] device D:/Steam/steamapps/workshop/content/227300/1061306287/neu mounted.
  2087. 00:00:26.784 : [fs] device D:/Steam/steamapps/workshop/content/227300/2181133035/addonrr_info mounted.
  2088. 00:00:26.785 : [fs] device D:/Steam/steamapps/workshop/content/227300/811342223/aam_randleman mounted.
  2089. 00:00:26.786 : [fs] device D:/Steam/steamapps/workshop/content/227300/1242589995/universal mounted.
  2090. 00:00:26.787 : [fs] device D:/Steam/steamapps/workshop/content/227300/1582135407/universal mounted.
  2091. 00:00:26.788 : [fs] device D:/Steam/steamapps/workshop/content/227300/1895710100/universal mounted.
  2092. 00:00:27.992 : [zipfs] D:/Steam/steamapps/workshop/content/227300/682436626/all_special_cars_in_traffic_v_1_8_8_1s_skleroza.zip: www.skleroza.ge
  2093.  
  2094. 00:00:27.992 : [zipfs] D:/Steam/steamapps/workshop/content/227300/682436626/all_special_cars_in_traffic_v_1_8_8_1s_skleroza.zip: skleroza@skleroza.ge
  2095.  
  2096. 00:00:27.993 : [zipfs] D:/Steam/steamapps/workshop/content/227300/682436626/all_special_cars_in_traffic_v_1_8_8_1s_skleroza.zip: all rights reserved
  2097.  
  2098. 00:00:27.993 : [zipfs] D:/Steam/steamapps/workshop/content/227300/682436626/all_special_cars_in_traffic_v_1_8_8_1s_skleroza.zip: © skleroza 2016-2019
  2099. 00:00:27.993 : [zipfs] all_special_cars_in_traffic_v_1_8_8_1s_skleroza.zip: Created, 1089 entries
  2100. 00:00:27.993 : [fs] device D:/Steam/steamapps/workshop/content/227300/682436626/all_special_cars_in_traffic_v_1_8_8_1s_skleroza.zip mounted.
  2101. 00:00:27.993 : [zipfs] all_special_cars_in_traffic_v_1_8_8_1s_skleroza.zip: Unmounted
  2102. 00:00:28.022 : [zipfs] alpinef1tdp.zip: Created, 67 entries
  2103. 00:00:28.022 : [fs] device D:/Steam/steamapps/workshop/content/227300/2361732641/alpinef1tdp.zip mounted.
  2104. 00:00:28.023 : [zipfs] alpinef1tdp.zip: Unmounted
  2105. 00:00:28.024 : [zipfs] symbole.zip: Created, 16 entries
  2106. 00:00:28.024 : [fs] device D:/Steam/steamapps/workshop/content/227300/1077562289/symbole.zip mounted.
  2107. 00:00:28.025 : [zipfs] symbole.zip: Unmounted
  2108. 00:00:28.103 : [zipfs] universal.zip: Created, 1085 entries
  2109. 00:00:28.103 : [fs] device D:/Steam/steamapps/workshop/content/227300/2428032098/universal.zip mounted.
  2110. 00:00:28.103 : [zipfs] universal.zip: Unmounted
  2111. 00:00:28.104 : [fs] device D:/Steam/steamapps/workshop/content/227300/950255772/universal mounted.
  2112. 00:00:28.105 : [fs] device D:/Steam/steamapps/workshop/content/227300/1130241678/aqteam_daf mounted.
  2113. 00:00:28.149 : [zipfs] 140.zip: Created, 198 entries
  2114. 00:00:28.149 : [fs] device D:/Steam/steamapps/workshop/content/227300/1203474845/140.zip mounted.
  2115. 00:00:28.149 : [zipfs] 140.zip: Unmounted
  2116. 00:00:28.186 : [zipfs] universal.zip: Created, 116 entries
  2117. 00:00:28.186 : [fs] device D:/Steam/steamapps/workshop/content/227300/1447634089/universal.zip mounted.
  2118. 00:00:28.186 : [zipfs] universal.zip: Unmounted
  2119. 00:00:28.188 : [zipfs] universal.zip: Created, 35 entries
  2120. 00:00:28.188 : [fs] device D:/Steam/steamapps/workshop/content/227300/1448685199/universal.zip mounted.
  2121. 00:00:28.188 : [zipfs] universal.zip: Unmounted
  2122. 00:00:31.496 : [zipfs] bsm16_3.zip: Created, 3313 entries
  2123. 00:00:31.496 : [fs] device D:/Steam/steamapps/workshop/content/227300/669953823/bsm16_3.zip mounted.
  2124. 00:00:31.496 : [zipfs] bsm16_3.zip: Unmounted
  2125. 00:00:31.685 : [zipfs] D:/Steam/steamapps/workshop/content/227300/645588605/bigbus_traffic_pack_v_1_6_4_skleroza.zip: www.skleroza.ge
  2126.  
  2127. 00:00:31.685 : [zipfs] D:/Steam/steamapps/workshop/content/227300/645588605/bigbus_traffic_pack_v_1_6_4_skleroza.zip: skleroza@skleroza.ge
  2128.  
  2129. 00:00:31.685 : [zipfs] D:/Steam/steamapps/workshop/content/227300/645588605/bigbus_traffic_pack_v_1_6_4_skleroza.zip: all rights reserved
  2130.  
  2131. 00:00:31.685 : [zipfs] D:/Steam/steamapps/workshop/content/227300/645588605/bigbus_traffic_pack_v_1_6_4_skleroza.zip: © skleroza 2016-2019
  2132. 00:00:31.686 : [zipfs] bigbus_traffic_pack_v_1_6_4_skleroza.zip: Created, 276 entries
  2133. 00:00:31.686 : [fs] device D:/Steam/steamapps/workshop/content/227300/645588605/bigbus_traffic_pack_v_1_6_4_skleroza.zip mounted.
  2134. 00:00:31.686 : [zipfs] bigbus_traffic_pack_v_1_6_4_skleroza.zip: Unmounted
  2135. 00:00:31.687 : [fs] device D:/Steam/steamapps/workshop/content/227300/2116275818/universal mounted.
  2136. 00:00:31.688 : [fs] device D:/Steam/steamapps/workshop/content/227300/1163681826/maika mounted.
  2137. 00:00:31.743 : [zipfs] obel_bore_led_v18.zip: Created, 245 entries
  2138. 00:00:31.743 : [fs] device D:/Steam/steamapps/workshop/content/227300/1307792187/obel_bore_led_v18.zip mounted.
  2139. 00:00:31.743 : [zipfs] obel_bore_led_v18.zip: Unmounted
  2140. 00:00:31.744 : [fs] device D:/Steam/steamapps/workshop/content/227300/722556390/universal mounted.
  2141. 00:00:31.745 : [fs] device D:/Steam/steamapps/workshop/content/227300/703424203/ultimate mounted.
  2142. 00:00:31.747 : [zipfs] info_content.zip: Created, 3 entries
  2143. 00:00:31.747 : [fs] device D:/Steam/steamapps/workshop/content/227300/812055139/info_content.zip mounted.
  2144. 00:00:31.747 : [zipfs] info_content.zip: Unmounted
  2145. 00:00:31.747 : [fs] device D:/Steam/steamapps/workshop/content/227300/2118463356/universal mounted.
  2146. 00:00:31.748 : [fs] device D:/Steam/steamapps/workshop/content/227300/1264470896/universal mounted.
  2147. 00:00:31.749 : [fs] device D:/Steam/steamapps/workshop/content/227300/1116441136/universal mounted.
  2148. 00:00:31.750 : [fs] device D:/Steam/steamapps/workshop/content/227300/1398224880/universal mounted.
  2149. 00:00:31.751 : [fs] device D:/Steam/steamapps/workshop/content/227300/1588303211/universal mounted.
  2150. 00:00:31.752 : [fs] device D:/Steam/steamapps/workshop/content/227300/1366662994/dafvoeg mounted.
  2151. 00:00:31.753 : [fs] device D:/Steam/steamapps/workshop/content/227300/1374997866/universal mounted.
  2152. 00:00:31.754 : [fs] device D:/Steam/steamapps/workshop/content/227300/1117624709/daf mounted.
  2153. 00:00:31.755 : [fs] device D:/Steam/steamapps/workshop/content/227300/955832924/universal mounted.
  2154. 00:00:31.756 : [fs] device D:/Steam/steamapps/workshop/content/227300/1987056612/universal mounted.
  2155. 00:00:31.765 : [zipfs] dbus_shared_assets_40_s.zip: Created, 216 entries
  2156. 00:00:31.765 : [fs] device D:/Steam/steamapps/workshop/content/227300/2059298298/dbus_shared_assets_40_s.zip mounted.
  2157. 00:00:31.765 : [zipfs] dbus_shared_assets_40_s.zip: Unmounted
  2158. 00:00:31.766 : [fs] device D:/Steam/steamapps/workshop/content/227300/620895569/universal mounted.
  2159. 00:00:31.767 : [fs] device D:/Steam/steamapps/workshop/content/227300/620915774/universal mounted.
  2160. 00:00:31.836 : [zipfs] universal.zip: Created, 143 entries
  2161. 00:00:31.836 : [fs] device D:/Steam/steamapps/workshop/content/227300/1550090553/universal.zip mounted.
  2162. 00:00:31.837 : [zipfs] universal.zip: Unmounted
  2163. 00:00:31.837 : [fs] device D:/Steam/steamapps/workshop/content/227300/2466501192/universal mounted.
  2164. 00:00:31.838 : [fs] device D:/Steam/steamapps/workshop/content/227300/959120055/universal mounted.
  2165. 00:00:31.839 : [fs] device D:/Steam/steamapps/workshop/content/227300/2182624925/universal mounted.
  2166. 00:00:31.848 : [zipfs] universal.zip: Created, 26 entries
  2167. 00:00:31.848 : [fs] device D:/Steam/steamapps/workshop/content/227300/1593914090/universal.zip mounted.
  2168. 00:00:31.848 : [zipfs] universal.zip: Unmounted
  2169. 00:00:31.849 : [fs] device D:/Steam/steamapps/workshop/content/227300/1331799328/universal mounted.
  2170. 00:00:31.850 : [fs] device D:/Steam/steamapps/workshop/content/227300/1249596467/latest mounted.
  2171. 00:00:31.851 : [fs] device D:/Steam/steamapps/workshop/content/227300/897109701/universal mounted.
  2172. 00:00:31.852 : [fs] device D:/Steam/steamapps/workshop/content/227300/909619388/universal mounted.
  2173. 00:00:31.853 : [fs] device D:/Steam/steamapps/workshop/content/227300/926118980/universal mounted.
  2174. 00:00:31.854 : [fs] device D:/Steam/steamapps/workshop/content/227300/755252536/universal mounted.
  2175. 00:00:31.855 : [fs] device D:/Steam/steamapps/workshop/content/227300/1352150188/universal mounted.
  2176. 00:00:31.856 : [fs] device D:/Steam/steamapps/workshop/content/227300/1575645365/universal mounted.
  2177. 00:00:31.857 : [fs] device D:/Steam/steamapps/workshop/content/227300/941456635/universal mounted.
  2178. 00:00:31.863 : [zipfs] fmaxtoys_140.zip: Created, 92 entries
  2179. 00:00:31.863 : [fs] device D:/Steam/steamapps/workshop/content/227300/1915327839/fmaxtoys_140.zip mounted.
  2180. 00:00:31.863 : [zipfs] fmaxtoys_140.zip: Unmounted
  2181. 00:00:31.865 : [zipfs] default.zip: Created, 20 entries
  2182. 00:00:31.865 : [fs] device D:/Steam/steamapps/workshop/content/227300/1915324242/default.zip mounted.
  2183. 00:00:31.865 : [zipfs] default.zip: Unmounted
  2184. 00:00:32.668 : [zipfs] base140.zip: Created, 1943 entries
  2185. 00:00:32.668 : [fs] device D:/Steam/steamapps/workshop/content/227300/1915802227/base140.zip mounted.
  2186. 00:00:32.668 : [zipfs] base140.zip: Unmounted
  2187. 00:00:32.668 : [fs] device D:/Steam/steamapps/workshop/content/227300/946578182/universal mounted.
  2188. 00:00:32.670 : [zipfs] googlemapsnavigation.zip: Created, 34 entries
  2189. 00:00:32.670 : [fs] device D:/Steam/steamapps/workshop/content/227300/1138314374/googlemapsnavigation.zip mounted.
  2190. 00:00:32.670 : [zipfs] googlemapsnavigation.zip: Unmounted
  2191. 00:00:32.671 : [zipfs] googlemapsnavigationnight.zip: Created, 34 entries
  2192. 00:00:32.671 : [fs] device D:/Steam/steamapps/workshop/content/227300/1147614012/googlemapsnavigationnight.zip mounted.
  2193. 00:00:32.671 : [zipfs] googlemapsnavigationnight.zip: Unmounted
  2194. 00:00:32.671 : [fs] device D:/Steam/steamapps/workshop/content/227300/2115873179/universal mounted.
  2195. 00:00:32.672 : [fs] device D:/Steam/steamapps/workshop/content/227300/959125028/universal mounted.
  2196. 00:00:32.673 : [zipfs] universal.zip: Created, 30 entries
  2197. 00:00:32.673 : [fs] device D:/Steam/steamapps/workshop/content/227300/784560065/universal.zip mounted.
  2198. 00:00:32.673 : [zipfs] universal.zip: Unmounted
  2199. 00:00:32.674 : [zipfs] husevke.zip: Created, 111 entries
  2200. 00:00:32.675 : [fs] device D:/Steam/steamapps/workshop/content/227300/1179852675/husevke.zip mounted.
  2201. 00:00:32.675 : [zipfs] husevke.zip: Unmounted
  2202. 00:00:32.676 : [zipfs] hemilsra138.zip: Created, 35 entries
  2203. 00:00:32.676 : [fs] device D:/Steam/steamapps/workshop/content/227300/670285471/hemilsra138.zip mounted.
  2204. 00:00:32.676 : [zipfs] hemilsra138.zip: Unmounted
  2205. 00:00:32.676 : [fs] device D:/Steam/steamapps/workshop/content/227300/1116774921/universal mounted.
  2206. 00:00:32.871 : [zipfs] ijsairfresh2.zip: Created, 1586 entries
  2207. 00:00:32.872 : [fs] device D:/Steam/steamapps/workshop/content/227300/1623845592/ijsairfresh2.zip mounted.
  2208. 00:00:32.872 : [zipfs] ijsairfresh2.zip: Unmounted
  2209. 00:00:32.873 : [fs] device D:/Steam/steamapps/workshop/content/227300/655605735/universal mounted.
  2210. 00:00:32.874 : [fs] device D:/Steam/steamapps/workshop/content/227300/1671337283/universal mounted.
  2211. 00:00:32.875 : [fs] device D:/Steam/steamapps/workshop/content/227300/2150504051/universal mounted.
  2212. 00:00:32.876 : [fs] device D:/Steam/steamapps/workshop/content/227300/2000874661/universal mounted.
  2213. 00:00:36.638 : [zipfs] latest.zip: Created, 32984 entries
  2214. 00:00:36.638 : [fs] device D:/Steam/steamapps/workshop/content/227300/956083331/latest.zip mounted.
  2215. 00:00:36.638 : [zipfs] latest.zip: Unmounted
  2216. 00:00:36.689 : [zipfs] base140.zip: Created, 233 entries
  2217. 00:00:36.689 : [fs] device D:/Steam/steamapps/workshop/content/227300/2435008284/base140.zip mounted.
  2218. 00:00:36.689 : [zipfs] base140.zip: Unmounted
  2219. 00:00:36.690 : [fs] device D:/Steam/steamapps/workshop/content/227300/649396234/universal mounted.
  2220. 00:00:36.691 : [fs] device D:/Steam/steamapps/workshop/content/227300/1257484219/universal mounted.
  2221. 00:00:36.692 : [fs] device D:/Steam/steamapps/workshop/content/227300/2490299559/universal mounted.
  2222. 00:00:37.238 : [zipfs] iveco_evadys_40_s.zip: Created, 917 entries
  2223. 00:00:37.239 : [fs] device D:/Steam/steamapps/workshop/content/227300/1986485167/iveco_evadys_40_s.zip mounted.
  2224. 00:00:37.239 : [zipfs] iveco_evadys_40_s.zip: Unmounted
  2225. 00:00:37.240 : [fs] device D:/Steam/steamapps/workshop/content/227300/1599373074/139_content mounted.
  2226. 00:00:37.295 : [zipfs] universal.zip: Created, 135 entries
  2227. 00:00:37.295 : [fs] device D:/Steam/steamapps/workshop/content/227300/1645834122/universal.zip mounted.
  2228. 00:00:37.295 : [zipfs] universal.zip: Unmounted
  2229. 00:00:39.458 : [zipfs] karosa_95x_pack_40_s.zip: Created, 2674 entries
  2230. 00:00:39.459 : [fs] device D:/Steam/steamapps/workshop/content/227300/2059274297/karosa_95x_pack_40_s.zip mounted.
  2231. 00:00:39.459 : [zipfs] karosa_95x_pack_40_s.zip: Unmounted
  2232. 00:00:39.464 : [zipfs] universal.zip: Created, 70 entries
  2233. 00:00:39.464 : [fs] device D:/Steam/steamapps/workshop/content/227300/2499194144/universal.zip mounted.
  2234. 00:00:39.464 : [zipfs] universal.zip: Unmounted
  2235. 00:00:39.465 : [fs] device D:/Steam/steamapps/workshop/content/227300/647441686/universal mounted.
  2236. 00:00:39.466 : [fs] device D:/Steam/steamapps/workshop/content/227300/648967076/universal mounted.
  2237. 00:00:39.467 : [fs] device D:/Steam/steamapps/workshop/content/227300/2497843439/name mounted.
  2238. 00:00:40.052 : [zipfs] universal.zip: Created, 2748 entries
  2239. 00:00:40.052 : [fs] device D:/Steam/steamapps/workshop/content/227300/1709544505/universal.zip mounted.
  2240. 00:00:40.052 : [zipfs] universal.zip: Unmounted
  2241. 00:00:40.054 : [fs] device D:/Steam/steamapps/workshop/content/227300/1120139657/universal mounted.
  2242. 00:00:40.055 : [fs] device D:/Steam/steamapps/workshop/content/227300/2427784797/universal mounted.
  2243. 00:00:40.094 : [zipfs] universal.zip: Created, 89 entries
  2244. 00:00:40.094 : [fs] device D:/Steam/steamapps/workshop/content/227300/1332699760/universal.zip mounted.
  2245. 00:00:40.094 : [zipfs] universal.zip: Unmounted
  2246. 00:00:41.130 : [zipfs] 140.zip: Created, 1681 entries
  2247. 00:00:41.130 : [fs] device D:/Steam/steamapps/workshop/content/227300/1465115042/140.zip mounted.
  2248. 00:00:41.130 : [zipfs] 140.zip: Unmounted
  2249. 00:00:41.131 : [fs] device D:/Steam/steamapps/workshop/content/227300/1962012800/latest mounted.
  2250. 00:00:41.132 : [fs] device D:/Steam/steamapps/workshop/content/227300/950162255/universal mounted.
  2251. 00:00:41.133 : [fs] device D:/Steam/steamapps/workshop/content/227300/1747752772/universal mounted.
  2252. 00:00:41.294 : [zipfs] universal.zip: Created, 270 entries
  2253. 00:00:41.295 : [fs] device D:/Steam/steamapps/workshop/content/227300/787902847/universal.zip mounted.
  2254. 00:00:41.295 : [zipfs] universal.zip: Unmounted
  2255. 00:00:41.296 : [fs] device D:/Steam/steamapps/workshop/content/227300/2202588952/man_dbcolor mounted.
  2256. 00:00:41.445 : [zipfs] 140_content.zip: Created, 991 entries
  2257. 00:00:41.445 : [fs] device D:/Steam/steamapps/workshop/content/227300/2091516269/140_content.zip mounted.
  2258. 00:00:41.445 : [zipfs] 140_content.zip: Unmounted
  2259. 00:00:41.446 : [fs] device D:/Steam/steamapps/workshop/content/227300/1908238520/universal mounted.
  2260. 00:00:41.446 : [fs] device D:/Steam/steamapps/workshop/content/227300/2046817809/universal mounted.
  2261. 00:00:41.447 : [fs] device D:/Steam/steamapps/workshop/content/227300/678484098/universal mounted.
  2262. 00:00:41.447 : [fs] device D:/Steam/steamapps/workshop/content/227300/672928640/universal mounted.
  2263. 00:00:41.448 : [fs] device D:/Steam/steamapps/workshop/content/227300/2333621047/actros_mp2 mounted.
  2264. 00:00:41.448 : [fs] device D:/Steam/steamapps/workshop/content/227300/1362625920/140_content mounted.
  2265. 00:00:41.451 : [zipfs] universal.zip: Created, 101 entries
  2266. 00:00:41.451 : [fs] device D:/Steam/steamapps/workshop/content/227300/1930759849/universal.zip mounted.
  2267. 00:00:41.451 : [zipfs] universal.zip: Unmounted
  2268. 00:00:41.451 : [fs] device D:/Steam/steamapps/workshop/content/227300/2379059804/universal mounted.
  2269. 00:00:41.475 : [zipfs] universal.zip: Created, 91 entries
  2270. 00:00:41.475 : [fs] device D:/Steam/steamapps/workshop/content/227300/1739416768/universal.zip mounted.
  2271. 00:00:41.475 : [zipfs] universal.zip: Unmounted
  2272. 00:00:41.475 : [fs] device D:/Steam/steamapps/workshop/content/227300/1764268887/nextgenscaniarework mounted.
  2273. 00:00:41.476 : [fs] device D:/Steam/steamapps/workshop/content/227300/666368716/universal mounted.
  2274. 00:00:41.477 : [zipfs] universal.zip: Created, 21 entries
  2275. 00:00:41.477 : [fs] device D:/Steam/steamapps/workshop/content/227300/862618103/universal.zip mounted.
  2276. 00:00:41.477 : [zipfs] universal.zip: Unmounted
  2277. 00:00:41.558 : [zipfs] universal.zip: Created, 47 entries
  2278. 00:00:41.558 : [fs] device D:/Steam/steamapps/workshop/content/227300/2502241635/universal.zip mounted.
  2279. 00:00:41.558 : [zipfs] universal.zip: Unmounted
  2280. 00:00:41.559 : [fs] device D:/Steam/steamapps/workshop/content/227300/756610656/universal mounted.
  2281. 00:00:41.561 : [zipfs] universal.zip: Created, 21 entries
  2282. 00:00:41.561 : [fs] device D:/Steam/steamapps/workshop/content/227300/1253586439/universal.zip mounted.
  2283. 00:00:41.561 : [zipfs] universal.zip: Unmounted
  2284. 00:00:41.561 : [fs] device D:/Steam/steamapps/workshop/content/227300/1539946896/universal mounted.
  2285. 00:00:41.562 : [fs] device D:/Steam/steamapps/workshop/content/227300/937224479/universal mounted.
  2286. 00:00:41.562 : [fs] device D:/Steam/steamapps/workshop/content/227300/2213234241/140version mounted.
  2287. 00:00:41.600 : [zipfs] penguaero.zip: Created, 31 entries
  2288. 00:00:41.600 : [fs] device D:/Steam/steamapps/workshop/content/227300/2095666094/penguaero.zip mounted.
  2289. 00:00:41.600 : [zipfs] penguaero.zip: Unmounted
  2290. 00:00:41.637 : [zipfs] universal.zip: Created, 96 entries
  2291. 00:00:41.637 : [fs] device D:/Steam/steamapps/workshop/content/227300/1739900997/universal.zip mounted.
  2292. 00:00:41.637 : [zipfs] universal.zip: Unmounted
  2293. 00:00:41.637 : [fs] device D:/Steam/steamapps/workshop/content/227300/759506509/universal mounted.
  2294. 00:00:42.105 : [zipfs] pjmsk.zip: Created, 649 entries
  2295. 00:00:42.105 : [fs] device D:/Steam/steamapps/workshop/content/227300/959440594/pjmsk.zip mounted.
  2296. 00:00:42.105 : [zipfs] pjmsk.zip: Unmounted
  2297. 00:00:42.106 : [fs] device D:/Steam/steamapps/workshop/content/227300/2177418424/universal mounted.
  2298. 00:00:42.539 : [zipfs] realadvertisements.zip: Created, 150 entries
  2299. 00:00:42.539 : [fs] device D:/Steam/steamapps/workshop/content/227300/1248913107/realadvertisements.zip mounted.
  2300. 00:00:42.540 : [zipfs] realadvertisements.zip: Unmounted
  2301. 00:00:42.540 : [fs] device D:/Steam/steamapps/workshop/content/227300/2151383225/trailers mounted.
  2302. 00:00:42.860 : [zipfs] realeurcomp.zip: Created, 1055 entries
  2303. 00:00:42.860 : [fs] device D:/Steam/steamapps/workshop/content/227300/715807842/realeurcomp.zip mounted.
  2304. 00:00:42.861 : [zipfs] realeurcomp.zip: Unmounted
  2305. 00:00:43.007 : [zipfs] latest.zip: Created, 116 entries
  2306. 00:00:43.007 : [fs] device D:/Steam/steamapps/workshop/content/227300/673130767/latest.zip mounted.
  2307. 00:00:43.007 : [zipfs] latest.zip: Unmounted
  2308. 00:00:43.154 : [zipfs] universal.zip: Created, 188 entries
  2309. 00:00:43.154 : [fs] device D:/Steam/steamapps/workshop/content/227300/1122486287/universal.zip mounted.
  2310. 00:00:43.154 : [zipfs] universal.zip: Unmounted
  2311. 00:00:43.156 : [zipfs] universal.zip: Created, 37 entries
  2312. 00:00:43.156 : [fs] device D:/Steam/steamapps/workshop/content/227300/883350847/universal.zip mounted.
  2313. 00:00:43.156 : [zipfs] universal.zip: Unmounted
  2314. 00:00:44.400 : [zipfs] real_tyres_mod_63.zip: Created, 832 entries
  2315. 00:00:44.401 : [fs] device D:/Steam/steamapps/workshop/content/227300/645501409/real_tyres_mod_63.zip mounted.
  2316. 00:00:44.401 : [zipfs] real_tyres_mod_63.zip: Unmounted
  2317. 00:00:46.059 : [zipfs] building.zip: Created, 793 entries
  2318. 00:00:46.059 : [fs] device D:/Steam/steamapps/workshop/content/227300/851156561/building.zip mounted.
  2319. 00:00:46.059 : [zipfs] building.zip: Unmounted
  2320. 00:00:46.060 : [fs] device D:/Steam/steamapps/workshop/content/227300/699670870/universal mounted.
  2321. 00:00:46.092 : [zipfs] latest.zip: Created, 59 entries
  2322. 00:00:46.092 : [fs] device D:/Steam/steamapps/workshop/content/227300/716956561/latest.zip mounted.
  2323. 00:00:46.092 : [zipfs] latest.zip: Unmounted
  2324. 00:00:46.093 : [fs] device D:/Steam/steamapps/workshop/content/227300/2112187479/universal mounted.
  2325. 00:00:46.094 : [fs] device D:/Steam/steamapps/workshop/content/227300/1787041596/140_content mounted.
  2326. 00:00:46.095 : [fs] device D:/Steam/steamapps/workshop/content/227300/713338424/universal mounted.
  2327. 00:00:46.772 : [zipfs] universal.zip: Created, 983 entries
  2328. 00:00:46.773 : [fs] device D:/Steam/steamapps/workshop/content/227300/1896775675/universal.zip mounted.
  2329. 00:00:46.773 : [zipfs] universal.zip: Unmounted
  2330. 00:00:46.774 : [fs] device D:/Steam/steamapps/workshop/content/227300/1877823584/universal mounted.
  2331. 00:00:46.774 : [fs] device D:/Steam/steamapps/workshop/content/227300/1872419240/140_content mounted.
  2332. 00:00:46.775 : [fs] device D:/Steam/steamapps/workshop/content/227300/1301321626/voegle mounted.
  2333. 00:00:46.912 : [zipfs] universal.zip: Created, 966 entries
  2334. 00:00:46.912 : [fs] device D:/Steam/steamapps/workshop/content/227300/647637188/universal.zip mounted.
  2335. 00:00:46.912 : [zipfs] universal.zip: Unmounted
  2336. 00:00:46.923 : [zipfs] universal.zip: Created, 21 entries
  2337. 00:00:46.923 : [fs] device D:/Steam/steamapps/workshop/content/227300/1448653386/universal.zip mounted.
  2338. 00:00:46.923 : [zipfs] universal.zip: Unmounted
  2339. 00:00:46.930 : [zipfs] universal.zip: Created, 21 entries
  2340. 00:00:46.931 : [fs] device D:/Steam/steamapps/workshop/content/227300/1448674449/universal.zip mounted.
  2341. 00:00:46.931 : [zipfs] universal.zip: Unmounted
  2342. 00:00:46.936 : [zipfs] universal.zip: Created, 98 entries
  2343. 00:00:46.936 : [fs] device D:/Steam/steamapps/workshop/content/227300/2335493495/universal.zip mounted.
  2344. 00:00:46.936 : [zipfs] universal.zip: Unmounted
  2345. 00:00:46.938 : [zipfs] universal.zip: Created, 14 entries
  2346. 00:00:46.938 : [fs] device D:/Steam/steamapps/workshop/content/227300/2173243684/universal.zip mounted.
  2347. 00:00:46.938 : [zipfs] universal.zip: Unmounted
  2348. 00:00:46.939 : [fs] device D:/Steam/steamapps/workshop/content/227300/1431991803/universal mounted.
  2349. 00:00:46.940 : [fs] device D:/Steam/steamapps/workshop/content/227300/1727946290/universal mounted.
  2350. 00:00:46.940 : [fs] device D:/Steam/steamapps/workshop/content/227300/1590741864/universal mounted.
  2351. 00:00:46.967 : [zipfs] universal.zip: Created, 58 entries
  2352. 00:00:46.967 : [fs] device D:/Steam/steamapps/workshop/content/227300/1828854262/universal.zip mounted.
  2353. 00:00:46.967 : [zipfs] universal.zip: Unmounted
  2354. 00:00:46.968 : [fs] device D:/Steam/steamapps/workshop/content/227300/1126628797/universal mounted.
  2355. 00:00:46.969 : [fs] device D:/Steam/steamapps/workshop/content/227300/2339554404/universal mounted.
  2356. 00:00:46.972 : [zipfs] universal.zip: Created, 9 entries
  2357. 00:00:46.972 : [fs] device D:/Steam/steamapps/workshop/content/227300/1316867132/universal.zip mounted.
  2358. 00:00:46.972 : [zipfs] universal.zip: Unmounted
  2359. 00:00:46.973 : [fs] device D:/Steam/steamapps/workshop/content/227300/2332689853/universal mounted.
  2360. 00:00:46.974 : [fs] device D:/Steam/steamapps/workshop/content/227300/2041433517/universal mounted.
  2361. 00:00:46.975 : [fs] device D:/Steam/steamapps/workshop/content/227300/2495846750/name mounted.
  2362. 00:00:46.976 : [fs] device D:/Steam/steamapps/workshop/content/227300/2050727507/universal mounted.
  2363. 00:00:46.977 : [fs] device D:/Steam/steamapps/workshop/content/227300/2350453819/universal mounted.
  2364. 00:00:46.995 : [zipfs] flowerliner_1.zip: Created, 44 entries
  2365. 00:00:46.995 : [fs] device D:/Steam/steamapps/workshop/content/227300/1634044392/flowerliner_1.zip mounted.
  2366. 00:00:46.996 : [zipfs] flowerliner_1.zip: Unmounted
  2367. 00:00:46.996 : [fs] device D:/Steam/steamapps/workshop/content/227300/1264900523/universal mounted.
  2368. 00:00:46.997 : [fs] device D:/Steam/steamapps/workshop/content/227300/873943180/teleco mounted.
  2369. 00:00:46.998 : [fs] device D:/Steam/steamapps/workshop/content/227300/2005459749/universal mounted.
  2370. 00:00:47.000 : [fs] device D:/Steam/steamapps/workshop/content/227300/1206001048/universal mounted.
  2371. 00:00:47.001 : [fs] device D:/Steam/steamapps/workshop/content/227300/1535364197/universal mounted.
  2372. 00:00:47.001 : [fs] device D:/Steam/steamapps/workshop/content/227300/1088624917/universal mounted.
  2373. 00:00:47.002 : [fs] device D:/Steam/steamapps/workshop/content/227300/1568885110/universal mounted.
  2374. 00:00:47.003 : [fs] device D:/Steam/steamapps/workshop/content/227300/900768659/universal mounted.
  2375. 00:00:47.005 : [zipfs] universal.zip: Created, 3 entries
  2376. 00:00:47.005 : [fs] device D:/Steam/steamapps/workshop/content/227300/1659765007/universal.zip mounted.
  2377. 00:00:47.005 : [zipfs] universal.zip: Unmounted
  2378. 00:00:47.057 : [zipfs] aistock3.zip: Created, 211 entries
  2379. 00:00:47.058 : [fs] device D:/Steam/steamapps/workshop/content/227300/627000094/aistock3.zip mounted.
  2380. 00:00:47.058 : [zipfs] aistock3.zip: Unmounted
  2381. 00:00:47.058 : [fs] device D:/Steam/steamapps/workshop/content/227300/1765159059/universal mounted.
  2382. 00:00:47.088 : [zipfs] universal.zip: Created, 33 entries
  2383. 00:00:47.088 : [fs] device D:/Steam/steamapps/workshop/content/227300/1735620558/universal.zip mounted.
  2384. 00:00:47.088 : [zipfs] universal.zip: Unmounted
  2385. 00:00:47.089 : [fs] device D:/Steam/steamapps/workshop/content/227300/665408402/universal mounted.
  2386. 00:00:47.782 : [zipfs] ets2_signs_on_your_trailer.zip: Created, 3825 entries
  2387. 00:00:47.782 : [fs] device D:/Steam/steamapps/workshop/content/227300/1552985188/ets2_signs_on_your_trailer.zip mounted.
  2388. 00:00:47.782 : [zipfs] ets2_signs_on_your_trailer.zip: Unmounted
  2389. 00:00:48.948 : [zipfs] ets2_signs_on_your_truck.zip: Created, 5153 entries
  2390. 00:00:48.948 : [fs] device D:/Steam/steamapps/workshop/content/227300/688277995/ets2_signs_on_your_truck.zip mounted.
  2391. 00:00:48.949 : [zipfs] ets2_signs_on_your_truck.zip: Unmounted
  2392. 00:00:48.951 : [fs] device D:/Steam/steamapps/workshop/content/227300/1803532577/universal mounted.
  2393. 00:00:48.959 : [zipfs] markypeacb.zip: Created, 238 entries
  2394. 00:00:48.959 : [fs] device D:/Steam/steamapps/workshop/content/227300/1649102310/markypeacb.zip mounted.
  2395. 00:00:48.960 : [zipfs] markypeacb.zip: Unmounted
  2396. 00:00:49.035 : [zipfs] sisl_dafint132.zip: Created, 235 entries
  2397. 00:00:49.035 : [fs] device D:/Steam/steamapps/workshop/content/227300/775158899/sisl_dafint132.zip mounted.
  2398. 00:00:49.035 : [zipfs] sisl_dafint132.zip: Unmounted
  2399. 00:00:49.036 : [hashfs] flatui138.zip: Created, 610 entries
  2400. 00:00:49.036 : [fs] device D:/Steam/steamapps/workshop/content/227300/690213540/flatui138.zip mounted.
  2401. 00:00:49.036 : [hashfs] flatui138.zip: Unmounted.
  2402. 00:00:53.587 : [zipfs] smp3_3_140.zip: Created, 37129 entries
  2403. 00:00:53.588 : [fs] device D:/Steam/steamapps/workshop/content/227300/645553604/smp3_3_140.zip mounted.
  2404. 00:00:53.588 : [zipfs] smp3_3_140.zip: Unmounted
  2405. 00:00:53.595 : [zipfs] smp2_4swtraffic.zip: Created, 143 entries
  2406. 00:00:53.595 : [fs] device D:/Steam/steamapps/workshop/content/227300/646198883/smp2_4swtraffic.zip mounted.
  2407. 00:00:53.596 : [zipfs] smp2_4swtraffic.zip: Unmounted
  2408. 00:00:53.598 : [zipfs] smp2_4traffic.zip: Created, 138 entries
  2409. 00:00:53.598 : [fs] device D:/Steam/steamapps/workshop/content/227300/646192570/smp2_4traffic.zip mounted.
  2410. 00:00:53.598 : [zipfs] smp2_4traffic.zip: Unmounted
  2411. 00:00:59.043 : [zipfs] sisltrlmain140.zip: Created, 6550 entries
  2412. 00:00:59.043 : [fs] device D:/Steam/steamapps/workshop/content/227300/842257514/sisltrlmain140.zip mounted.
  2413. 00:00:59.043 : [zipfs] sisltrlmain140.zip: Unmounted
  2414. 00:00:59.044 : [fs] device D:/Steam/steamapps/workshop/content/227300/1121164704/universal mounted.
  2415. 00:00:59.405 : [zipfs] solaris_urbino_bvg_40_s.zip: Created, 762 entries
  2416. 00:00:59.405 : [fs] device D:/Steam/steamapps/workshop/content/227300/1893063436/solaris_urbino_bvg_40_s.zip mounted.
  2417. 00:00:59.405 : [zipfs] solaris_urbino_bvg_40_s.zip: Unmounted
  2418. 00:00:59.616 : [zipfs] universal.zip: Created, 148 entries
  2419. 00:00:59.616 : [fs] device D:/Steam/steamapps/workshop/content/227300/648591060/universal.zip mounted.
  2420. 00:00:59.617 : [zipfs] universal.zip: Unmounted
  2421. 00:00:59.622 : [zipfs] spli.zip: Created, 168 entries
  2422. 00:00:59.623 : [fs] device D:/Steam/steamapps/workshop/content/227300/1758709073/spli.zip mounted.
  2423. 00:00:59.623 : [zipfs] spli.zip: Unmounted
  2424. 00:00:59.623 : [fs] device D:/Steam/steamapps/workshop/content/227300/1127167266/latest mounted.
  2425. 00:00:59.661 : [zipfs] 128_130.zip: Created, 107 entries
  2426. 00:00:59.661 : [fs] device D:/Steam/steamapps/workshop/content/227300/959668503/128_130.zip mounted.
  2427. 00:00:59.662 : [zipfs] 128_130.zip: Unmounted
  2428. 00:00:59.663 : [fs] device D:/Steam/steamapps/workshop/content/227300/924432050/139_content mounted.
  2429. 00:00:59.665 : [zipfs] universal.zip: Created, 21 entries
  2430. 00:00:59.666 : [fs] device D:/Steam/steamapps/workshop/content/227300/1138493646/universal.zip mounted.
  2431. 00:00:59.666 : [zipfs] universal.zip: Unmounted
  2432. 00:00:59.679 : [zipfs] universal.zip: Created, 21 entries
  2433. 00:00:59.679 : [fs] device D:/Steam/steamapps/workshop/content/227300/1395037881/universal.zip mounted.
  2434. 00:00:59.679 : [zipfs] universal.zip: Unmounted
  2435. 00:00:59.680 : [fs] device D:/Steam/steamapps/workshop/content/227300/1767139383/universal mounted.
  2436. 00:00:59.683 : [zipfs] universal.zip: Created, 54 entries
  2437. 00:00:59.683 : [fs] device D:/Steam/steamapps/workshop/content/227300/1659094659/universal.zip mounted.
  2438. 00:00:59.684 : [zipfs] universal.zip: Unmounted
  2439. 00:00:59.685 : [zipfs] universal.zip: Created, 7 entries
  2440. 00:00:59.685 : [fs] device D:/Steam/steamapps/workshop/content/227300/1663522856/universal.zip mounted.
  2441. 00:00:59.685 : [zipfs] universal.zip: Unmounted
  2442. 00:00:59.686 : [fs] device D:/Steam/steamapps/workshop/content/227300/2359679286/universal mounted.
  2443. 00:00:59.686 : [fs] device D:/Steam/steamapps/workshop/content/227300/780670180/latest mounted.
  2444. 00:00:59.687 : [fs] device D:/Steam/steamapps/workshop/content/227300/839978173/universal mounted.
  2445. 00:00:59.762 : [zipfs] latest.zip: Created, 196 entries
  2446. 00:00:59.763 : [fs] device D:/Steam/steamapps/workshop/content/227300/1521874444/latest.zip mounted.
  2447. 00:00:59.763 : [zipfs] latest.zip: Unmounted
  2448. 00:00:59.787 : [zipfs] trailer_sl.zip: Created, 230 entries
  2449. 00:00:59.787 : [fs] device D:/Steam/steamapps/workshop/content/227300/1680992369/trailer_sl.zip mounted.
  2450. 00:00:59.787 : [zipfs] trailer_sl.zip: Unmounted
  2451. 00:00:59.788 : [fs] device D:/Steam/steamapps/workshop/content/227300/1937505222/universal mounted.
  2452. 00:00:59.789 : [fs] device D:/Steam/steamapps/workshop/content/227300/1262538797/universal mounted.
  2453. 00:00:59.790 : [fs] device D:/Steam/steamapps/workshop/content/227300/2228860868/universal mounted.
  2454. 00:00:59.790 : [fs] device D:/Steam/steamapps/workshop/content/227300/1131313782/universal mounted.
  2455. 00:00:59.791 : [fs] device D:/Steam/steamapps/workshop/content/227300/1561468963/mod mounted.
  2456. 00:00:59.794 : [zipfs] universal.zip: Created, 21 entries
  2457. 00:00:59.794 : [fs] device D:/Steam/steamapps/workshop/content/227300/1447645714/universal.zip mounted.
  2458. 00:00:59.794 : [zipfs] universal.zip: Unmounted
  2459. 00:00:59.796 : [zipfs] universal.zip: Created, 3 entries
  2460. 00:00:59.796 : [fs] device D:/Steam/steamapps/workshop/content/227300/1112786497/universal.zip mounted.
  2461. 00:00:59.796 : [zipfs] universal.zip: Unmounted
  2462. 00:00:59.797 : [fs] device D:/Steam/steamapps/workshop/content/227300/842154810/ohahadb mounted.
  2463. 00:00:59.797 : [fs] device D:/Steam/steamapps/workshop/content/227300/1131584022/138 mounted.
  2464. 00:00:59.799 : [zipfs] universal.zip: Created, 10 entries
  2465. 00:00:59.799 : [fs] device D:/Steam/steamapps/workshop/content/227300/1115343195/universal.zip mounted.
  2466. 00:00:59.800 : [zipfs] universal.zip: Unmounted
  2467. 00:00:59.801 : [zipfs] universal.zip: Created, 9 entries
  2468. 00:00:59.801 : [fs] device D:/Steam/steamapps/workshop/content/227300/1110953238/universal.zip mounted.
  2469. 00:00:59.801 : [zipfs] universal.zip: Unmounted
  2470. 00:00:59.803 : [zipfs] universal.zip: Created, 9 entries
  2471. 00:00:59.803 : [fs] device D:/Steam/steamapps/workshop/content/227300/1111879140/universal.zip mounted.
  2472. 00:00:59.803 : [zipfs] universal.zip: Unmounted
  2473. 00:00:59.804 : [zipfs] universal.zip: Created, 21 entries
  2474. 00:00:59.804 : [fs] device D:/Steam/steamapps/workshop/content/227300/1208790679/universal.zip mounted.
  2475. 00:00:59.805 : [zipfs] universal.zip: Unmounted
  2476. 00:00:59.805 : [fs] device D:/Steam/steamapps/workshop/content/227300/2191820194/universal mounted.
  2477. 00:00:59.806 : [fs] device D:/Steam/steamapps/workshop/content/227300/2018643435/universal mounted.
  2478. 00:00:59.808 : [zipfs] universal.zip: Created, 21 entries
  2479. 00:00:59.808 : [fs] device D:/Steam/steamapps/workshop/content/227300/1130726912/universal.zip mounted.
  2480. 00:00:59.808 : [zipfs] universal.zip: Unmounted
  2481. 00:01:01.232 : [zipfs] vnlets2.zip: Created, 4362 entries
  2482. 00:01:01.232 : [fs] device D:/Steam/steamapps/workshop/content/227300/664322535/vnlets2.zip mounted.
  2483. 00:01:01.232 : [zipfs] vnlets2.zip: Unmounted
  2484. 00:01:01.313 : [zipfs] universal.zip: Created, 194 entries
  2485. 00:01:01.314 : [fs] device D:/Steam/steamapps/workshop/content/227300/1640895251/universal.zip mounted.
  2486. 00:01:01.314 : [zipfs] universal.zip: Unmounted
  2487. 00:01:01.314 : [fs] device D:/Steam/steamapps/workshop/content/227300/1087755352/universal mounted.
  2488. 00:01:01.315 : [fs] device D:/Steam/steamapps/workshop/content/227300/2495094183/universal mounted.
  2489. 00:01:01.316 : [fs] device D:/Steam/steamapps/workshop/content/227300/1395894155/universal mounted.
  2490. 00:01:01.352 : [zipfs] universal.zip: Created, 143 entries
  2491. 00:01:01.352 : [fs] device D:/Steam/steamapps/workshop/content/227300/2001036902/universal.zip mounted.
  2492. 00:01:01.352 : [zipfs] universal.zip: Unmounted
  2493. 00:01:01.353 : [fs] device D:/Steam/steamapps/workshop/content/227300/682472036/xantrios_signspack mounted.
  2494. 00:01:01.353 : [fs] device D:/Steam/steamapps/workshop/content/227300/2043171222/universal mounted.
  2495. 00:01:01.355 : [zipfs] ets2yandexnavi.zip: Created, 34 entries
  2496. 00:01:01.355 : [fs] device D:/Steam/steamapps/workshop/content/227300/1777704877/ets2yandexnavi.zip mounted.
  2497. 00:01:01.355 : [zipfs] ets2yandexnavi.zip: Unmounted
  2498. 00:01:01.356 : [zipfs] ets2yandexnavinight.zip: Created, 34 entries
  2499. 00:01:01.356 : [fs] device D:/Steam/steamapps/workshop/content/227300/1777713125/ets2yandexnavinight.zip mounted.
  2500. 00:01:01.356 : [zipfs] ets2yandexnavinight.zip: Unmounted
  2501. 00:01:01.356 : [fs] device D:/Steam/steamapps/workshop/content/227300/2065023559/universal mounted.
  2502. 00:01:01.356 : [fs] device D:/Steam/steamapps/workshop/content/227300/1879369205/truck mounted.
  2503. 00:01:01.357 : [fs] device D:/Steam/steamapps/workshop/content/227300/1875104122/truck mounted.
  2504. 00:01:01.357 : [fs] device D:/Steam/steamapps/workshop/content/227300/1732507701/universal mounted.
  2505. 00:01:01.358 : [fs] device D:/Steam/steamapps/workshop/content/227300/971534386/3333333 mounted.
  2506. 00:01:01.358 : [zipfs] informational.zip: Created, 3 entries
  2507. 00:01:01.358 : [fs] device D:/Steam/steamapps/workshop/content/227300/1233343065/informational.zip mounted.
  2508. 00:01:01.358 : [zipfs] informational.zip: Unmounted
  2509. 00:01:01.359 : [fs] device D:/Steam/steamapps/workshop/content/227300/1087185039/blowyourmind mounted.
  2510. 00:01:01.359 : [fs] device D:/Steam/steamapps/workshop/content/227300/1082358654/noreg mounted.
  2511. 00:01:01.359 : [fs] device D:/Steam/steamapps/workshop/content/227300/956468886/universal mounted.
  2512. 00:01:01.360 : [fs] device D:/Steam/steamapps/workshop/content/227300/1095334071/blackwido mounted.
  2513. 00:01:01.360 : [fs] device D:/Steam/steamapps/workshop/content/227300/1109608874/globetrotter mounted.
  2514. 00:01:01.436 : [fs] device D:/Steam/steamapps/workshop/content/227300/666368716/universal mounted.
  2515. 00:01:01.436 : [mod_package_manager] Mod "No bloom" has been mounted. (package_name: mod_workshop_package.0000000027B7FACC, version: 1.20, source: Steam Workshop)
  2516. 00:01:01.437 : [fs] device C:/Users/olmen/Documents/Euro Truck Simulator 2/mod/Adar_Standard.scs mounted.
  2517. 00:01:01.437 : [mod_package_manager] Mod "Adar standard trailer skin" has been mounted. (package_name: Adar_Standard, version: 1.0, source: User mods)
  2518. 00:01:01.437 : [fs] device C:/Users/olmen/Documents/Euro Truck Simulator 2/mod/Pennant DAF.scs mounted.
  2519. 00:01:01.437 : [mod_package_manager] Mod "Pennant DAF" has been mounted. (package_name: Pennant DAF, version: 1.0, source: User mods)
  2520. 00:01:01.438 : <WARNING> [mods] Unknown category 'others' defined for Adar_garage. Ignoring.
  2521. 00:01:01.438 : <WARNING> [mods] No valid categories defined for Adar_garage. Setting defaults.
  2522. 00:01:01.438 : [fs] device C:/Users/olmen/Documents/Euro Truck Simulator 2/mod/Adar_garage.scs mounted.
  2523. 00:01:01.438 : [mod_package_manager] Mod "Adar big garage" has been mounted. (package_name: Adar_garage, version: 1.0, source: User mods)
  2524. 00:01:01.438 : [fs] device C:/Users/olmen/Documents/Euro Truck Simulator 2/mod/Interior Back Lights v6.7-1.40.scs mounted.
  2525. 00:01:01.438 : [mod_package_manager] Mod "Interior Back Lights v6.7" has been mounted. (package_name: Interior Back Lights v6.7-1.40, version: , source: User mods)
  2526. 00:01:01.439 : [fs] device C:/Users/olmen/Documents/Euro Truck Simulator 2/mod/Pennant Iveco.scs mounted.
  2527. 00:01:01.439 : [mod_package_manager] Mod "Pennant Iveco" has been mounted. (package_name: Pennant Iveco, version: 1.0, source: User mods)
  2528. 00:01:01.439 : [fs] device C:/Users/olmen/Documents/Euro Truck Simulator 2/mod/Krone New District 26.scs mounted.
  2529. 00:01:01.439 : [mod_package_manager] Mod "Krone Profiliner District" has been mounted. (package_name: Krone New District 26, version: , source: User mods)
  2530. 00:01:01.439 : [fs] device C:/Users/olmen/Documents/Euro Truck Simulator 2/mod/Pennant Kamaz.scs mounted.
  2531. 00:01:01.439 : [mod_package_manager] Mod "Pennant Kamaz" has been mounted. (package_name: Pennant Kamaz, version: 1.0, source: User mods)
  2532. 00:01:01.439 : [fs] device C:/Users/olmen/Documents/Euro Truck Simulator 2/mod/4k_8k_scania_s_griffin_transport_multicolor_combo_skin_by_A.Mikhaylov.scs mounted.
  2533. 00:01:01.439 : [mod_package_manager] Mod "4K 8K SCANIA S GRIFFIN TRANSPORT MULTICOLOR Combo-Skin" has been mounted. (package_name: 4k_8k_scania_s_griffin_transport_multicolor_combo_skin_by_A.Mikhaylov, version: 1.0, source: User mods)
  2534. 00:01:01.440 : [fs] device C:/Users/olmen/Documents/Euro Truck Simulator 2/mod/ETS2_Realistic_Lights_Effect_V2_0.scs mounted.
  2535. 00:01:01.440 : [mod_package_manager] Mod "[ETS2] Realistic Lights Effect V2" has been mounted. (package_name: ETS2_Realistic_Lights_Effect_V2_0, version: 2.0, source: User mods)
  2536. 00:01:01.601 : <ERROR> [fs] Failed to open file '/material/ui/mod_manager/star_Inne.mat' in the read_only mode.
  2537. 00:01:01.601 : <ERROR> [material] Can not open '/material/ui/mod_manager/star_Inne.mat'
  2538. 00:01:01.613 : <ERROR> [fs] Failed to open file '/material/ui/mod_manager/button_info_00FFFFFF.mat' in the read_only mode.
  2539. 00:01:01.613 : <ERROR> [material] Can not open '/material/ui/mod_manager/button_info_00FFFFFF.mat'
  2540. 00:01:01.613 : <ERROR> [fs] fs_device_open() called with invalid path 'n' (expected absolute path, starting with slash).
  2541. 00:01:01.613 : <ERROR> [ld] Failed to open 'n'.
  2542. 00:01:01.613 : <ERROR> [fs] Failed to open file '/material/ui/button/mod_manager_FFD7D7D7.mat' in the read_only mode.
  2543. 00:01:01.613 : <ERROR> [material] Can not open '/material/ui/button/mod_manager_FFD7D7D7.mat'
  2544. 00:01:01.699 : <WARNING> [di8] Input buffer overflow for device 'mouse' (error code: 0x1).
  2545. 00:01:01.699 : [hashfs] ETS2_Realistic_Lights_Effect_V2_0.scs: Unmounted.
  2546. 00:01:01.699 : [zipfs] 4k_8k_scania_s_griffin_transport_multicolor_combo_skin_by_A.Mikhaylov.scs: Unmounted
  2547. 00:01:01.700 : [zipfs] Pennant Kamaz.scs: Unmounted
  2548. 00:01:01.700 : [zipfs] Krone New District 26.scs: Unmounted
  2549. 00:01:01.700 : [zipfs] Pennant Iveco.scs: Unmounted
  2550. 00:01:01.700 : [zipfs] Interior Back Lights v6.7-1.40.scs: Unmounted
  2551. 00:01:01.700 : [zipfs] Adar_garage.scs: Unmounted
  2552. 00:01:01.700 : [zipfs] Pennant DAF.scs: Unmounted
  2553. 00:01:01.700 : [zipfs] Adar_Standard.scs: Unmounted
  2554. 00:01:01.916 : [zipfs] latest.zip: Created, 59 entries
  2555. 00:01:01.916 : [fs] device D:/Steam/steamapps/workshop/content/227300/716956561/latest.zip mounted.
  2556. 00:01:01.916 : [mod_package_manager] Mod "Realistic Headlighting" has been mounted. (package_name: mod_workshop_package.000000002ABBE391, version: 2.2, source: Steam Workshop)
  2557. 00:01:01.917 : [fs] device D:/Steam/steamapps/workshop/content/227300/2181133035/addonrr_info mounted.
  2558. 00:01:01.917 : [mod_package_manager] Mod "Add-on Realistic Rain with RGM" has been mounted. (package_name: mod_workshop_package.00000000820172EB, version: v1.1, source: Steam Workshop)
  2559. 00:01:01.918 : [fs] device C:/Users/olmen/Documents/Euro Truck Simulator 2/mod/Viking_sticker_addon.scs mounted.
  2560. 00:01:01.918 : [mod_package_manager] Mod "Viking Sticker for Schullis Skin Sticker" has been mounted. (package_name: Viking_sticker_addon, version: 1.0, source: User mods)
  2561. 00:01:01.919 : [fs] device C:/Users/olmen/Documents/Euro Truck Simulator 2/mod/Pennant Maz.scs mounted.
  2562. 00:01:01.919 : [mod_package_manager] Mod "Pennant Maz" has been mounted. (package_name: Pennant Maz, version: 1.0, source: User mods)
  2563. 00:01:01.919 : [fs] device C:/Users/olmen/Documents/Euro Truck Simulator 2/mod/Pennant Mercedes-Benz.scs mounted.
  2564. 00:01:01.919 : [mod_package_manager] Mod "Pennant Mercedes-Benz" has been mounted. (package_name: Pennant Mercedes-Benz, version: 1.0, source: User mods)
  2565. 00:01:01.920 : [fs] device C:/Users/olmen/Documents/Euro Truck Simulator 2/mod/Pennant VOLVO.scs mounted.
  2566. 00:01:01.920 : [mod_package_manager] Mod "Pennant VOLVO" has been mounted. (package_name: Pennant VOLVO, version: 1.0, source: User mods)
  2567. 00:01:01.920 : [fs] device C:/Users/olmen/Documents/Euro Truck Simulator 2/mod/Pennant SCANIA.scs mounted.
  2568. 00:01:01.921 : [mod_package_manager] Mod "Pennant SCANIA" has been mounted. (package_name: Pennant SCANIA, version: 1.0, source: User mods)
  2569. 00:01:01.921 : [fs] device C:/Users/olmen/Documents/Euro Truck Simulator 2/mod/Pennant MAN.scs mounted.
  2570. 00:01:01.921 : [mod_package_manager] Mod "Pennant MAN" has been mounted. (package_name: Pennant MAN, version: 1.0, source: User mods)
  2571. 00:01:01.921 : <WARNING> [mods] Too many categories defined for Mercedes_Sprinter_2019_BETA03 - limit 2. Using first 2.
  2572. 00:01:01.922 : <WARNING> [mods] Incompatible mod - Mercedes_Sprinter_2019_BETA03
  2573. 00:01:01.922 : [fs] device C:/Users/olmen/Documents/Euro Truck Simulator 2/mod/Mercedes_Sprinter_2019_BETA03.scs mounted.
  2574. 00:01:01.922 : [mod_package_manager] Mod "Mercedes Sprinter 2019" has been mounted. (package_name: Mercedes_Sprinter_2019_BETA03, version: BETA 0.3, source: User mods)
  2575. 00:01:01.955 : [zipfs] Mercedes_Sprinter_2019_BETA03.scs: Unmounted
  2576. 00:01:01.956 : [zipfs] Pennant MAN.scs: Unmounted
  2577. 00:01:01.956 : [zipfs] Pennant SCANIA.scs: Unmounted
  2578. 00:01:01.957 : [zipfs] Pennant VOLVO.scs: Unmounted
  2579. 00:01:01.957 : [zipfs] Pennant Mercedes-Benz.scs: Unmounted
  2580. 00:01:01.957 : [zipfs] Pennant Maz.scs: Unmounted
  2581. 00:01:01.958 : [zipfs] Viking_sticker_addon.scs: Unmounted
  2582. 00:01:01.985 : [zipfs] latest.zip: Unmounted
  2583. 00:01:49.608 : [fs] device C:/Users/olmen/Documents/Euro Truck Simulator 2/mod/Daf Xf 106 District New 414.scs mounted.
  2584. 00:01:49.609 : [mod_package_manager] Mod "DAF XF 106 District" has been mounted. (package_name: Daf Xf 106 District New 414, version: 1.0, source: User mods)
  2585. 00:01:49.610 : [fs] device D:/Steam/steamapps/workshop/content/227300/2427784797/universal mounted.
  2586. 00:01:49.610 : [mod_package_manager] Mod "krizzy090 cabin accessories" has been mounted. (package_name: mod_workshop_package.0000000090B50E5D, version: 1.0, source: Steam Workshop)
  2587. 00:01:49.612 : [zipfs] base140.zip: Created, 233 entries
  2588. 00:01:49.613 : [fs] device D:/Steam/steamapps/workshop/content/227300/2435008284/base140.zip mounted.
  2589. 00:01:49.613 : [mod_package_manager] Mod "iPad Air (2020) GPS" has been mounted. (package_name: mod_workshop_package.000000009123471C, version: 1.4, source: Steam Workshop)
  2590. 00:01:49.613 : [fs] device D:/Steam/steamapps/workshop/content/227300/2490299559/universal mounted.
  2591. 00:01:49.613 : [mod_package_manager] Mod "Islay Crab Exports skin pack V2.0" has been mounted. (package_name: mod_workshop_package.00000000946EF4A7, version: 2.0, source: Steam Workshop)
  2592. 00:01:49.614 : [fs] device D:/Steam/steamapps/workshop/content/227300/2466501192/universal mounted.
  2593. 00:01:49.614 : [mod_package_manager] Mod "Draavo Logistics Trailer" has been mounted. (package_name: mod_workshop_package.000000009303D248, version: v1.2.2-workshop, source: Steam Workshop)
  2594. 00:01:49.624 : [zipfs] Daf Xf 106 District New 414.scs: Unmounted
  2595. 00:01:49.680 : [zipfs] base140.zip: Unmounted
  2596. 00:01:53.539 : [fs] device C:/Users/olmen/Documents/Euro Truck Simulator 2/mod/Pennant RENO.scs mounted.
  2597. 00:01:53.539 : [mod_package_manager] Mod "Pennant RENO" has been mounted. (package_name: Pennant RENO, version: 1.0, source: User mods)
  2598. 00:01:53.539 : [fs] device C:/Users/olmen/Documents/Euro Truck Simulator 2/mod/Mercedes_Sprinter_2019_template.scs mounted.
  2599. 00:01:53.539 : [mod_package_manager] Mod "Mercedes Sprinter 2019 Template" has been mounted. (package_name: Mercedes_Sprinter_2019_template, version: 1.0, source: User mods)
  2600. 00:01:53.553 : [zipfs] Pennant RENO.scs: Unmounted
  2601. 00:01:53.553 : [zipfs] Mercedes_Sprinter_2019_template.scs: Unmounted
  2602. 00:01:56.990 : [hashfs] 144L_460_1.39.scs: Unmounted.
  2603. 00:01:56.990 : [zipfs] Som_MB_1933.scs: Unmounted
  2604. 00:01:56.990 : [zipfs] Snow_terrain_fix_promods_russian_open_spaces_v1.2.scs: Unmounted
  2605. 00:01:56.990 : [zipfs] SKINS_RenaultTrucks_Alpine_byGrafBoinenn.scs: Unmounted
  2606. 00:01:56.990 : [zipfs] sisu_m_cabin_accessories.scs: Unmounted
  2607. 00:01:56.990 : [zipfs] sisu_m.scs: Unmounted
  2608. 00:01:56.990 : [zipfs] Shipping_Container_Cargo_Pack_v2.2_by_Satyanwesi_ETS2_1.38.scs: Unmounted
  2609. 00:01:56.991 : [zipfs] schulman.scs: Unmounted
  2610. 00:01:56.991 : [zipfs] scania_v8_v13.scs: Unmounted
  2611. 00:01:56.991 : [zipfs] Scania_S730T_Vlaustin_Ed.scs: Unmounted
  2612. 00:01:56.991 : [zipfs] Scania_R700_V8_Open_Pipe_V14_Support.scs: Unmounted
  2613. 00:01:56.991 : [zipfs] Scania_R700_SiSL_Mega_Pack_Support.scs: Unmounted
  2614. 00:01:56.991 : [zipfs] Scania_R700_Reworked_v3.1.scs: Unmounted
  2615. 00:01:56.992 : [zipfs] Scania_R700_Mighty_Griffin_DLC_Support_V1.1.scs: Unmounted
  2616. 00:01:56.992 : [zipfs] Scania_R700_HS_Schoch_DLC_Support_V1.1.scs: Unmounted
  2617. 00:01:56.992 : [zipfs] Scania_lk.scs: Unmounted
  2618. 00:01:56.992 : [zipfs] Scania R620 Fleurs denmark team modifications.scs: Unmounted
  2619. 00:01:56.992 : [zipfs] Scania 143m edit by Ekualizer and Mango - [1.39].scs: Unmounted
  2620. 00:01:56.992 : [zipfs] Scania 124G Frontal.scs: Unmounted
  2621. 00:01:56.992 : [zipfs] Scania 111.scs: Unmounted
  2622. 00:01:56.992 : [zipfs] Russian_open_spaces_vehicle_truck_39.scs: Unmounted
  2623. 00:01:56.993 : [zipfs] Russian_open_spaces_vehicle_39.scs: Unmounted
  2624. 00:01:56.993 : [zipfs] Russian_open_spaces_model_39.scs: Unmounted
  2625. 00:01:56.993 : [zipfs] Russian_open_spaces_39map.scs: Unmounted
  2626. 00:01:56.993 : [zipfs] Russian_open_spaces_39.scs: Unmounted
  2627. 00:01:56.993 : [zipfs] RusMap-model_v2.3.1.scs: Unmounted
  2628. 00:01:56.993 : [hashfs] RusMap-model2_v2.3.1.scs: Unmounted.
  2629. 00:01:56.993 : [hashfs] RusMap-map_v2.3.1.scs: Unmounted.
  2630. 00:01:56.993 : [hashfs] RusMap-def_v2.3.1.scs: Unmounted.
  2631. 00:01:56.993 : [zipfs] Ronco Direto.scs: Unmounted
  2632. 00:01:56.993 : [zipfs] Roman_Diesel_byMADster_v1.3.1.scs: Unmounted
  2633. 00:01:56.993 : [hashfs] ROEXallPM251RUS231PR244RCfullv4.scs: Unmounted.
  2634. 00:01:56.993 : [zipfs] Renault_Major_1.39x.scs: Unmounted
  2635. 00:01:56.993 : [zipfs] Renault_MAGNUM_DXI_Open_Pipe.scs: Unmounted
  2636. 00:01:56.993 : [zipfs] Renault12Toros_V1R40_ETS2_ATS_1_38_X_emirbardakci_com.scs: Unmounted
  2637. 00:01:56.993 : [zipfs] Renault Premium.scs: Unmounted
  2638. 00:01:56.994 : [zipfs] Realistic Brutal Weather Unforgiving By Kass.scs: Unmounted
  2639. 00:01:56.994 : [zipfs] R_O_S_heavy_cargo39.scs: Unmounted
  2640. 00:01:56.994 : [zipfs] PROMZONA 7_1.37_ROS_RM_PR.scs: Unmounted
  2641. 00:01:56.994 : [zipfs] PROMZONA 7_1.37_ROS_RM_PITER.scs: Unmounted
  2642. 00:01:56.994 : [hashfs] promods-model3-v255.scs: Unmounted.
  2643. 00:01:56.994 : [hashfs] promods-model3-v251.scs: Unmounted.
  2644. 00:01:56.994 : [hashfs] promods-model2-v255.scs: Unmounted.
  2645. 00:01:56.994 : [hashfs] promods-model2-v251.scs: Unmounted.
  2646. 00:01:56.994 : [hashfs] promods-model1-v255.scs: Unmounted.
  2647. 00:01:56.994 : [hashfs] promods-model1-v251.scs: Unmounted.
  2648. 00:01:56.994 : [hashfs] promods-media-v255.scs: Unmounted.
  2649. 00:01:56.994 : [hashfs] promods-media-v251.scs: Unmounted.
  2650. 00:01:56.994 : [zipfs] promods-me-defmap-v255a.scs: Unmounted
  2651. 00:01:56.994 : [zipfs] promods-me-defmap-v251.scs: Unmounted
  2652. 00:01:56.994 : [hashfs] promods-me-assets-v255a.scs: Unmounted.
  2653. 00:01:56.994 : [hashfs] promods-me-assets-v251.scs: Unmounted.
  2654. 00:01:56.994 : [zipfs] promods-map-v255.scs: Unmounted
  2655. 00:01:56.994 : [zipfs] promods-map-v251.scs: Unmounted
  2656. 00:01:56.995 : [zipfs] promods-def-st-v255.scs: Unmounted
  2657. 00:01:56.995 : [zipfs] promods-def-st-v251.scs: Unmounted
  2658. 00:01:56.995 : [hashfs] promods-assets-v255.scs: Unmounted.
  2659. 00:01:56.995 : [hashfs] promods-assets-v251.scs: Unmounted.
  2660. 00:01:56.995 : [zipfs] privolzhe_group_dirt.scs: Unmounted
  2661. 00:01:56.995 : [zipfs] Poland Detail-Adding Mod 2.0 Open Beta.scs: Unmounted
  2662. 00:01:56.995 : [zipfs] PM255_RM2.4.1_PR2.5_roadconnectionV2.scs: Unmounted
  2663. 00:01:56.995 : [zipfs] PM251_RM2.3.1_PR2.4.4_roadconnection.scs: Unmounted
  2664. 00:01:56.995 : [zipfs] PM246_RM2.1.1_PR2.4.2_roadconnection.scs: Unmounted
  2665. 00:01:56.995 : [zipfs] PM246_RM2.1.1_PR2.4.2_roadconnection (1).scs: Unmounted
  2666. 00:01:56.995 : [zipfs] Volvo Fh12(AryanEdit).scs: Unmounted
  2667. 00:01:56.996 : [zipfs] VOLVO NL12 EDC.scs: Unmounted
  2668. 00:01:56.996 : [zipfs] SuperGreatV.scs: Unmounted
  2669. 00:01:56.996 : [zipfs] VOLVO FH.scs: Unmounted
  2670. 00:01:56.996 : [zipfs] URAL-6464_ets2_ats_v26.02.21_1.39_1.40.scs: Unmounted
  2671. 00:01:56.996 : [zipfs] Volvo460FHMegaTruck.scs: Unmounted
  2672. 00:01:56.996 : [hashfs] z3_PL_Rebuilding_2.5_models.scs: Unmounted.
  2673. 00:01:56.996 : [zipfs] z1_PL_Rebuilding_2.5_def.scs: Unmounted
  2674. 00:01:56.996 : [zipfs] Pennant Gaz.scs: Unmounted
  2675. 00:01:56.996 : [zipfs] WF_metallic_stripe_NG_R.scs: Unmounted
  2676. 00:01:56.996 : [zipfs] orange_pack.scs: Unmounted
  2677. 00:01:56.996 : [zipfs] spring_v4_1.scs: Unmounted
  2678. 00:01:56.996 : [zipfs] Mercedes_Sprinter_2019_license_plate_template.scs: Unmounted
  2679. 00:01:56.996 : [zipfs] Trailer_double_ROS_39.scs: Unmounted
  2680. 00:01:56.996 : [zipfs] mercedes_sk_8x4.scs: Unmounted
  2681. 00:01:56.997 : [zipfs] mercedes_sk.scs: Unmounted
  2682. 00:01:56.997 : [zipfs] Mercedes_Actros_MP1_[1.39].scs: Unmounted
  2683. 00:01:56.997 : [hashfs] Mercedes-Benz Actros MP5 2019.scs: Unmounted.
  2684. 00:01:56.997 : [hashfs] MERCEDES BENZ SK 1838.scs: Unmounted.
  2685. 00:01:56.997 : [zipfs] Mercedes Actros MP4.scs: Unmounted
  2686. 00:01:56.997 : [zipfs] Mega_mod_Magnum_1.40_l.scs: Unmounted
  2687. 00:01:56.998 : [zipfs] MB_1933_V2.scs: Unmounted
  2688. 00:01:56.998 : [zipfs] MAN_TGX_E6_2015_by_Gloover_v.1.0.scs: Unmounted
  2689. 00:01:56.998 : [zipfs] MAN_TGX_2020_1.39.scs: Unmounted
  2690. 00:01:56.998 : [zipfs] man_tga_byMADster_v1.6_1.39_fix.scs: Unmounted
  2691. 00:01:56.998 : [zipfs] man_euro6_v1.scs: Unmounted
  2692. 00:01:56.998 : [zipfs] Man Godzilla Racing.scs: Unmounted
  2693. 00:01:56.998 : [zipfs] MAN F2000 custom number.scs: Unmounted
  2694. 00:01:56.998 : [hashfs] MAN F2000 Commander.scs: Unmounted.
  2695. 00:01:56.998 : [hashfs] z2_PL_Rebuilding_2.5_map.scs: Unmounted.
  2696. 00:01:56.998 : [zipfs] Iveco Hi-Way.scs: Unmounted
  2697. 00:01:56.998 : [zipfs] International.scs: Unmounted
  2698. 00:01:56.998 : [zipfs] interior_cabin_lights_3_0.scs: Unmounted
  2699. 00:01:56.998 : [zipfs] Yusuf Arda Scania R500 Edit.scs: Unmounted
  2700. 00:01:56.998 : [zipfs] Godzilla Racing Trailer.scs: Unmounted
  2701. 00:01:56.998 : [zipfs] frosty_wheels.scs: Unmounted
  2702. 00:01:56.998 : [zipfs] frosty_physics_8_02.scs: Unmounted
  2703. 00:01:56.999 : [zipfs] frosty_no_fog_8.scs: Unmounted
  2704. 00:01:56.999 : [zipfs] frosty_heavy_winter_8.scs: Unmounted
  2705. 00:01:56.999 : [zipfs] frosty_8.scs: Unmounted
  2706. 00:01:56.999 : [zipfs] FrontBadgeScaniaNg.scs: Unmounted
  2707. 00:01:56.999 : [zipfs] FIX_daf_95_ati_for_ETS2-1.39.scs: Unmounted
  2708. 00:01:56.999 : [zipfs] FikcyjnaPolska v1.39.scs: Unmounted
  2709. 00:01:56.999 : [zipfs] zz_PL_Rebuilding_2.5_ST.scs: Unmounted
  2710. 00:01:56.999 : [zipfs] ETS2_Interior_Driver_1.00_for_1.39.scs: Unmounted
  2711. 00:01:56.999 : [zipfs] dimmed_headlights.scs: Unmounted
  2712. 00:01:56.999 : [zipfs] Def File 1.39.X(AryanEdit).scs: Unmounted
  2713. 00:01:56.999 : [zipfs] dd_tandem_truck_pack.scs: Unmounted
  2714. 00:01:56.999 : [zipfs] dark_skies.scs: Unmounted
  2715. 00:01:56.999 : [zipfs] Dark_interior_daf_xf_105_3.01.scs: Unmounted
  2716. 00:01:56.999 : [zipfs] Daf_Xf_105_Open_Pipe_sound_Reworked_Fix.scs: Unmounted
  2717. 00:01:56.999 : [zipfs] daf_95_ati_tuning.scs: Unmounted
  2718. 00:01:57.000 : [zipfs] daf_95_ati_cabin_accessories.scs: Unmounted
  2719. 00:01:57.000 : [zipfs] daf_95_ati_bdf_trailer.scs: Unmounted
  2720. 00:01:57.000 : [zipfs] daf_95_ati.scs: Unmounted
  2721. 00:01:57.000 : [zipfs] DAF XF Euro6.scs: Unmounted
  2722. 00:01:57.000 : [zipfs] the speed of the snow.scs: Unmounted
  2723. 00:01:57.000 : [zipfs] Cold Rain v0.2 for 1.40.scs: Unmounted
  2724. 00:01:57.000 : [zipfs] Brick Trailer Pack.scs: Unmounted
  2725. 00:01:57.000 : [zipfs] BigPack_Tuning_Scania_NG_1_6.scs: Unmounted
  2726. 00:01:57.000 : [zipfs] All propiska.scs: Unmounted
  2727. 00:01:57.000 : [zipfs] AI_ETS2_TRUCK_Real_Traf_6.3_1.38_RCKPS.scs: Unmounted
  2728. 00:01:57.000 : [zipfs] Addon - Less visibility in windows.scs: Unmounted
  2729. 00:01:57.000 : [hashfs] vw_constellation.scs: Unmounted.
  2730. 00:01:57.001 : [zipfs] Adar_ProfiLiner.scs: Unmounted
  2731. 00:01:57.001 : [zipfs] Your_trailer_ROS_39.scs: Unmounted
  2732. 00:01:57.001 : [zipfs] Adar_CoolLiner.scs: Unmounted
  2733. 00:01:57.001 : [zipfs] A5C_-_ACTROS_5_2019_-_BASE.scs: Unmounted
  2734. 00:01:57.001 : [zipfs] 50k_DAF_XF_1.39.scs: Unmounted
  2735. 00:01:57.001 : [hashfs] z4_PL_Rebuilding_2.5_assets.scs: Unmounted.
  2736. 00:01:57.001 : [zipfs] 2_kontur.scs: Unmounted
  2737. 00:01:57.423 : mm_flush_repeatedly
  2738. 00:01:57.479 : uset s_voiceover_mute "0"
  2739. 00:01:57.479 : uset s_intro_music_mute "0"
  2740. 00:01:57.479 : uset s_ui_music_mute "0"
  2741. 00:01:57.479 : uset s_ui_mute "0"
  2742. 00:01:57.479 : uset s_navigation_mute "0"
  2743. 00:01:57.479 : uset s_music_mute "0"
  2744. 00:01:57.479 : uset s_radio_mute "0"
  2745. 00:01:57.479 : uset s_interior_mute "0"
  2746. 00:01:57.479 : uset s_ambient_mute "0"
  2747. 00:01:57.479 : uset s_world_mute "0"
  2748. 00:01:57.479 : uset s_traffic_mute "0"
  2749. 00:01:57.479 : uset s_trailer_mute "0"
  2750. 00:01:57.479 : uset s_truck_noise_mute "0"
  2751. 00:01:57.479 : uset s_truck_effects_mute "0"
  2752. 00:01:57.479 : uset s_truck_turbo_mute "0"
  2753. 00:01:57.479 : uset s_truck_exhaust_mute "0"
  2754. 00:01:57.480 : uset s_truck_engine_mute "0"
  2755. 00:01:57.480 : uset s_master_mute "0"
  2756. 00:01:57.480 : uset s_voiceover_volume "0.5"
  2757. 00:01:57.480 : uset s_intro_music_volume "0.5"
  2758. 00:01:57.480 : uset s_ui_music_volume "0.5"
  2759. 00:01:57.480 : uset s_ui_volume "0.5"
  2760. 00:01:57.480 : uset s_navigation_volume "0.5"
  2761. 00:01:57.480 : uset s_music_volume "0.5"
  2762. 00:01:57.480 : uset s_radio_volume "0.5"
  2763. 00:01:57.480 : uset s_interior_volume "0.5"
  2764. 00:01:57.480 : uset s_ambient_volume "0.5"
  2765. 00:01:57.480 : uset s_world_volume "0.5"
  2766. 00:01:57.480 : uset s_traffic_volume "0.5"
  2767. 00:01:57.480 : uset s_trailer_volume "0.5"
  2768. 00:01:57.480 : uset s_truck_noise_volume "0.5"
  2769. 00:01:57.480 : uset s_truck_effects_volume "0.5"
  2770. 00:01:57.480 : uset s_truck_turbo_volume "0.5"
  2771. 00:01:57.480 : uset s_truck_exhaust_volume "0.5"
  2772. 00:01:57.480 : uset s_truck_engine_volume "0.5"
  2773. 00:01:57.480 : uset s_master_volume "0.75"
  2774. 00:01:57.480 : uset i_oculus_eye_protrusion "0.09"
  2775. 00:01:57.480 : uset i_oculus_eye_height "0.15"
  2776. 00:01:57.480 : uset i_hmd_max_prediction "0.1"
  2777. 00:01:57.480 : uset i_hmd_min_prediction "0.0"
  2778. 00:01:57.480 : uset r_interior "1"
  2779. 00:01:57.480 : uset r_steering_wheel "1"
  2780. 00:01:57.480 : uset g_eye_preset_5 ""
  2781. 00:01:57.480 : uset g_eye_preset_4 ""
  2782. 00:01:57.481 : uset g_eye_preset_3 ""
  2783. 00:01:57.481 : uset g_eye_preset_2 ""
  2784. 00:01:57.481 : uset g_eye_preset_1 ""
  2785. 00:01:57.481 : uset g_eye_enable "0"
  2786. 00:01:57.481 : uset g_cam_window_block "0.0"
  2787. 00:01:57.481 : uset g_toy_physics "1"
  2788. 00:01:57.481 : uset g_cam_steering_reverse "1.0"
  2789. 00:01:57.481 : uset g_cam_steering_value "1.0"
  2790. 00:01:57.481 : uset g_cam_steering "0"
  2791. 00:01:57.481 : uset g_pedal_clutch_range "1.0"
  2792. 00:01:57.481 : uset g_brake_intensity "1.0"
  2793. 00:01:57.481 : uset g_steer_autocenter "1"
  2794. 00:01:57.481 : uset g_clutch_brake "0"
  2795. 00:01:57.481 : uset g_hshifter_synchronized "1"
  2796. 00:01:57.481 : uset g_hshifter_split "3"
  2797. 00:01:57.481 : uset g_hshifter_layout_shifting "1"
  2798. 00:01:57.481 : uset g_hshifter_layout "splitter"
  2799. 00:01:57.481 : uset g_trans "3"
  2800. 00:01:57.481 : uset g_baked_vehicle "1"
  2801. 00:01:57.481 : uset g_force_economy_reset "0"
  2802. 00:01:57.481 : uset g_input_configured "1"
  2803. 00:01:57.483 : uset s_reverb_world "1"
  2804. 00:01:57.483 : uset s_reverb_cabin "1"
  2805. 00:01:57.483 : uset s_noise_aero "1"
  2806. 00:01:57.483 : uset s_noise_windows "1"
  2807. 00:01:57.483 : uset s_rumble_enabled "1"
  2808. 00:01:57.483 : uset s_reverse_enabled "1"
  2809. 00:01:57.483 : uset g_disable_beacons "0"
  2810. 00:01:57.483 : uset g_show_game_elements "1"
  2811. 00:01:57.483 : uset g_hmd_no_3d_background "0"
  2812. 00:01:57.483 : uset g_hmd_no_special_menu "0"
  2813. 00:01:57.483 : uset g_hmd_reduced_cabin_movement "1"
  2814. 00:01:57.483 : uset g_hmd_no_artifical_movement "0"
  2815. 00:01:57.483 : uset g_eye_pause_gaze "3000"
  2816. 00:01:57.483 : uset g_eye_pause "0"
  2817. 00:01:57.483 : uset g_cam_blinker "0"
  2818. 00:01:57.483 : uset g_cam_physics_value "1.0"
  2819. 00:01:57.483 : uset g_cam_physics "1"
  2820. 00:01:57.483 : uset g_blinker_auto_off "1"
  2821. 00:01:57.483 : uset g_cruise_control_smart "5.0"
  2822. 00:01:57.483 : uset g_cruise_control_grid "5.0"
  2823. 00:01:57.483 : uset g_adaptive_shift "0.0"
  2824. 00:01:57.483 : uset g_fuel_simulation "0"
  2825. 00:01:57.483 : uset g_hardcore_simulation "1"
  2826. 00:01:57.483 : uset g_reg_setting ""
  2827. 00:01:57.483 : uset g_brake_light_all "0"
  2828. 00:01:57.483 : uset g_use_speed_limiter "0"
  2829. 00:01:57.483 : uset g_hud_speed_warning "0"
  2830. 00:01:57.484 : uset g_hud_speed_limit "1"
  2831. 00:01:57.484 : uset g_axle_drop_auto "1"
  2832. 00:01:57.484 : uset g_engine_start_auto "1"
  2833. 00:01:57.484 : uset g_motor_brake_auto "0"
  2834. 00:01:57.484 : uset g_retarder_auto "0"
  2835. 00:01:57.484 : uset g_cabin_suspension_stiffness "1.0"
  2836. 00:01:57.484 : uset g_suspension_stiffness "1.0"
  2837. 00:01:57.484 : uset g_trailer_stability "0.5"
  2838. 00:01:57.484 : uset g_truck_stability "0.5"
  2839. 00:01:57.484 : uset g_mpg "0"
  2840. 00:01:57.484 : uset g_gallon "0"
  2841. 00:01:57.484 : uset g_fahrenheit "0"
  2842. 00:01:57.484 : uset g_pounds "kg"
  2843. 00:01:57.484 : uset g_mph "0"
  2844. 00:01:57.484 : uset g_road_events "1.0"
  2845. 00:01:57.484 : uset g_detours "1.2544"
  2846. 00:01:57.484 : uset g_name_localization_secondary "0"
  2847. 00:01:57.484 : uset g_name_localization "1"
  2848. 00:01:57.484 : uset g_lang_set "1"
  2849. 00:01:57.484 : uset g_lang "pl_pl"
  2850. 00:01:57.484 : uset g_cutscenes "1"
  2851. 00:01:57.484 : uset g_phys_mirrors "0"
  2852. 00:01:57.484 : uset g_world_map_zoom "6"
  2853. 00:01:57.484 : uset g_cargo_load_require_park_brake "0"
  2854. 00:01:57.484 : uset g_cargo_load_require_engine_off "1"
  2855. 00:01:57.485 : uset g_show_always_wotr_event "0"
  2856. 00:01:57.485 : uset g_last_wotr_event_start "0"
  2857. 00:01:57.485 : uset g_force_load_selector "-1"
  2858. 00:01:57.485 : uset g_autoload_ignore_autosave "0"
  2859. 00:01:57.485 : uset g_start_in_truck "0"
  2860. 00:01:57.485 : uset g_park_brake_init "0"
  2861. 00:01:57.485 : uset g_trailer_advanced_coupling "0"
  2862. 00:01:57.485 : uset g_parking_difficulty "0"
  2863. 00:01:57.485 : uset g_simple_parking_doubles "1"
  2864. 00:01:57.485 : uset g_speed_warning "0"
  2865. 00:01:57.485 : uset g_voice_navigation_pack ""
  2866. 00:01:57.485 : uset g_voice_navigation "0"
  2867. 00:01:57.485 : uset g_job_distance "1.0"
  2868. 00:01:57.485 : uset g_job_distance_limit "-1.0"
  2869. 00:01:57.485 : uset g_income_factor "1.0"
  2870. 00:01:57.485 : uset g_currency "4"
  2871. 00:01:57.485 : uset g_bad_weather_factor "0.01"
  2872. 00:01:57.485 : uset g_truck_analysis_fold "0"
  2873. 00:01:57.485 : uset g_desktop_rnd "1"
  2874. 00:01:57.485 : uset g_desktop_bcg "config.night_city"
  2875. 00:01:57.485 : uset g_save_idx "1"
  2876. 00:01:57.485 : uset g_ui_map_align "1"
  2877. 00:01:57.485 : uset g_gps_routing_mode "1"
  2878. 00:01:57.485 : uset g_gps_navigation "3"
  2879. 00:01:57.485 : uset g_heavy_cargo_popup "1"
  2880. 00:01:57.485 : uset g_mirrors "0"
  2881. 00:01:57.485 : uset g_adviser_eta "1"
  2882. 00:01:57.486 : uset g_adviser_running_message "1"
  2883. 00:01:57.486 : uset g_adviser_auto_parking "1"
  2884. 00:01:57.486 : uset g_adviser_keep_hidden "0"
  2885. 00:01:57.486 : uset g_adviser "1"
  2886. 00:01:57.486 : uset g_desktop_tutorial "0"
  2887. 00:01:57.486 : uset g_tutorial "0"
  2888. 00:01:57.486 : uset g_fatigue "0"
  2889. 00:01:57.486 : uset g_time_zones "0"
  2890. 00:01:57.486 : uset g_police "0"
  2891. 00:01:57.486 : uset g_subtitles "0"
  2892. 00:01:57.486 : uset g_clock_24 "1"
  2893. 00:01:57.515 : New profile selected: ':steam/Kamil 'Kunia' Kunick'
  2894. 00:01:59.272 : [mods] Active 106 mods (local: 55, workshop: 51)
  2895. 00:01:59.272 : [mods] Active local mod promods-assets-v255 (name: ProMods Assets Package, version: 2.55, author: ProMods Team)
  2896. 00:01:59.272 : [mods] Active local mod promods-model1-v255 (name: ProMods Models Package 1, version: 2.55, author: ProMods Team)
  2897. 00:01:59.272 : [mods] Active local mod promods-model2-v255 (name: ProMods Models Package 2, version: 2.55, author: ProMods Team)
  2898. 00:01:59.272 : [mods] Active local mod promods-model3-v255 (name: ProMods Models Package 3, version: 2.55, author: ProMods Team)
  2899. 00:01:59.272 : [mods] Active local mod promods-media-v255 (name: ProMods Media Package, version: 2.55, author: ProMods Team)
  2900. 00:01:59.273 : [mods] Active local mod promods-map-v255 (name: ProMods Map Package, version: 2.55, author: ProMods Team)
  2901. 00:01:59.273 : [mods] Active local mod RusMap-model2_v2.3.1 (name: RusMap Model 2 Package, version: 2.3.1, author: aldim@tor)
  2902. 00:01:59.273 : [mods] Active local mod RusMap-model_v2.3.1 (name: RusMap Model Package, version: 2.3.1, author: aldim@tor)
  2903. 00:01:59.273 : [mods] Active local mod RusMap-map_v2.3.1 (name: RusMap Map Package, version: 2.3.1, author: aldim@tor)
  2904. 00:01:59.273 : [mods] Active local mod RusMap-def_v2.3.1 (name: RusMap Def Package, version: 2.3.1, author: aldim@tor)
  2905. 00:01:59.273 : [mods] Active local mod promods-def-st-v255 (name: ProMods Definition Package, version: 2.55, author: ProMods Team)
  2906. 00:01:59.273 : [mods] Active local mod z4_PL_Rebuilding_2.5_assets (name: Poland Rebuidling - Assets, version: 2.5 (dev. 9649), author: PR Team)
  2907. 00:01:59.273 : [mods] Active local mod z3_PL_Rebuilding_2.5_models (name: Poland Rebuidling - Models, version: 2.5 (dev. 9649), author: PR Team)
  2908. 00:01:59.273 : [mods] Active local mod z2_PL_Rebuilding_2.5_map (name: Poland Rebuidling - Map, version: 2.5 (dev. 9649), author: PR Team)
  2909. 00:01:59.273 : [mods] Active local mod z1_PL_Rebuilding_2.5_def (name: Poland Rebuidling - Def, version: 2.5 (dev. 9649), author: PR Team)
  2910. 00:01:59.273 : [mods] Active local mod zz_PL_Rebuilding_2.5_ST (name: Poland Rebuidling - Special Transport, version: 2.5 (dev. 9649), author: PR Team)
  2911. 00:01:59.273 : [mods] Active local mod PM255_RM2.4.1_PR2.5_roadconnectionV2 (name: ProMods 2.55_RusMap 2.4.1_PL_Rebuilding_2.5 Road Connection, version: ETS2 1.40, author: aldimator, Sergey061, Vladzz-G, Dawid2849)
  2912. 00:01:59.273 : [mods] Active local mod SuperGreatV (name: SUPER GREAT V, version: 1.40, author: Koutsu)
  2913. 00:01:59.273 : [mods] Active local mod International (name: International, version: , author: )
  2914. 00:01:59.273 : [mods] Active local mod A5C_-_ACTROS_5_2019_-_BASE (name: Mercedes Actros 5 [BASE], version: 1.6, author: Actros 5 Crew)
  2915. 00:01:59.273 : [mods] Active local mod MAN_TGX_E6_2015_by_Gloover_v.1.0 (name: MAN TGX E6 2015 by Gloover, version: 1.0, author: Gloover)
  2916. 00:01:59.273 : [mods] Active local mod mercedes_sk (name: Mercedes SK, version: 1.0, author: XBS)
  2917. 00:01:59.273 : [mods] Active local mod Renault_MAGNUM_DXI_Open_Pipe (name: Renault MAGNUM DXI Open Pipe, version: 1.0, author: Ibanbelushi,Kriechbaum,SCS)
  2918. 00:01:59.273 : [mods] Active local mod Scania_lk (name: Scania LK , version: 1.0, author: SouzaSG-DenimarDG)
  2919. 00:01:59.273 : [mods] Active local mod Roman_Diesel_byMADster_v1.3.1 (name: ROMAN Diesel V.1.3.1, version: 1.3.1, author: MADster)
  2920. 00:01:59.273 : [mods] Active local mod Renault Premium (name: Renault Premium, version: 5.2, author: SCS, Schumi, Oscar, kuba141, piva, abalazs)
  2921. 00:01:59.273 : [mods] Active local mod MB_1933_V2 (name: Mercedes-Benz 1933, version: 2.0, author: South Gamer)
  2922. 00:01:59.273 : [mods] Active local mod ETS2_Interior_Driver_1.00_for_1.39 (name: Interior Driver for 1.39, version: 1.0, author: Gonçalo Silva aka shibi-graphics)
  2923. 00:01:59.273 : [mods] Active local mod Scania_R700_V8_Open_Pipe_V14_Support (name: R700 V8 Open Pipe V14 Support, version: 1, author: Kasuy)
  2924. 00:01:59.273 : [mods] Active local mod 50k_DAF_XF_1.39 (name: DAF XF 105 by 50k, version: 4.2, author: 50keda)
  2925. 00:01:59.273 : [mods] Active local mod daf_95_ati_bdf_trailer (name: DAF 95ATi BDF Trailer, version: 1.3, author: XBS)
  2926. 00:01:59.274 : [mods] Active local mod daf_95_ati (name: DAF 95ATi, version: 1.3, author: XBS)
  2927. 00:01:59.274 : [mods] Active local mod daf_95_ati_tuning (name: DAF 95ATi DLC tuning pack, version: 1.0, author: XBS)
  2928. 00:01:59.274 : [mods] Active local mod daf_95_ati_cabin_accessories (name: DAF 95ATi Cabin Accessories, version: 1.0, author: SCS)
  2929. 00:01:59.274 : [mods] Active local mod man_tga_byMADster_v1.6_1.39_fix (name: MAN TGA 1.39 fix, version: 1.6 1.39 fix, author: MADster & CobraBlue6)
  2930. 00:01:59.274 : [mods] Active local mod Scania_S730T_Vlaustin_Ed (name: SCANIA S NEW GEN TCAB, version: 3.0, author: Azorax Modding)
  2931. 00:01:59.274 : [mods] Active local mod Daf_Xf_105_Open_Pipe_sound_Reworked_Fix (name: Daf Open Pipe Sound Reworked Fix, version: 10.6, author: Oxygen, SCS)
  2932. 00:01:59.274 : [mods] Active workshop mod ID 1915324242 (name: Ford F-Max Addon: DLC Goodyear, version: 1.5, author: SimĂĽlasyonTĂśRK)
  2933. 00:01:59.274 : [mods] Active local mod DAF XF Euro6 (name: DAF XF Euro6, version: 3.7, author: SCS, Schumi, Sogard3, Oscar, abalazs, piva, rookie_one)
  2934. 00:01:59.274 : [mods] Active workshop mod ID 2335493495 (name: ROML Cargo Volvo FH3 and Krone Coolliner Deluxe Edition Skinpack, version: 1.0, author: VictorSE)
  2935. 00:01:59.274 : [mods] Active workshop mod ID 2213234241 (name: Pardubak's Longer Yellow for ETS2 1.40, version: 1.40, author: Pardubak)
  2936. 00:01:59.274 : [mods] Active workshop mod ID 1087755352 (name: Wedzikowski Malowanie, version: v1.1, author: PolishBandit)
  2937. 00:01:59.274 : [mods] Active workshop mod ID 1879369205 (name: [1.40] Kriistof Edition Kelsa, version: V1, author: Kriistof;SCS)
  2938. 00:01:59.274 : [mods] Active workshop mod ID 1875104122 (name: [1.40] Kriistof Edition Thomann General Lee V 2.0, version: V2, author: Kriistof;SCS)
  2939. 00:01:59.274 : [mods] Active workshop mod ID 1131584022 (name: Volvo F Series Truck 2.2, version: 2.1, author: Mahyar Ghasemi, Lucasi)
  2940. 00:01:59.274 : [mods] Active workshop mod ID 1208790679 (name: Volvo F12/16 of James Lynch (Volvo F Series), version: 1.0, author: finbar367davyrabbit)
  2941. 00:01:59.274 : [mods] Active workshop mod ID 842154810 (name: Volvo 2013 DB Schenker Heavy Duty For Ohaha, version: 1, author: RCPHiL)
  2942. 00:01:59.274 : [mods] Active workshop mod ID 1663522856 (name: TjZ's Physics // ETS2 - (1.39.X), version: 1.4, author: TjZ aka TheJoayZ)
  2943. 00:01:59.274 : [mods] Active workshop mod ID 1659094659 (name: The Polish Squadron 303 for Scania RJL, version: 1.0, author: sagittariusjr)
  2944. 00:01:59.274 : [mods] Active workshop mod ID 842257514 (name: SiSL's Trailer Pack, version: 2.2, author: SiSL)
  2945. 00:01:59.274 : [mods] Active workshop mod ID 690213540 (name: SiSL's FlatUI, version: 1.0, author: SiSL)
  2946. 00:01:59.274 : [mods] Active workshop mod ID 645553604 (name: SiSL's Mega Pack, version: 3.3, author: SiSL)
  2947. 00:01:59.274 : [mods] Active workshop mod ID 1803532577 (name: Silver Griffin skin for Scania Next Gen (SCS), version: 1.0, author: DaStig)
  2948. 00:01:59.274 : [mods] Active workshop mod ID 873943180 (name: Scania RLJ Telecom Skin + Trailer, version: 1, author: RCPHiL)
  2949. 00:01:59.274 : [mods] Active workshop mod ID 900768659 (name: ScaniaRJL Super, version: 1.0, author: Floppy)
  2950. 00:01:59.274 : [mods] Active workshop mod ID 1264900523 (name: Scania RJL Scania Vabis - Floppy Logistics Combo, version: , author: FloppySRB)
  2951. 00:01:59.274 : [mods] Active workshop mod ID 1877823584 (name: Renault Range T White Edition Skin, version: 1.0, author: DoBro Edet)
  2952. 00:01:59.274 : [mods] Active workshop mod ID 1301321626 (name: RJL Scania R & Streamline + Trailer Skin, version: 1.0, author: AmericanTrucker, RommiTZ)
  2953. 00:01:59.275 : [mods] Active workshop mod ID 1896775675 (name: Renault Range T and Evolution Accessories v2.0 + Skin's (Please Read Description for Template's), version: 1.0, author: SirBlackyAlot)
  2954. 00:01:59.275 : [mods] Active workshop mod ID 1248913107 (name: Real Advertisements, version: 1.9, author: Sinagrit Baba)
  2955. 00:01:59.275 : [mods] Active workshop mod ID 2151383225 (name: Real Brand AI Trailers, version: 2.0, author: GA071MA)
  2956. 00:01:59.275 : [mods] Active workshop mod ID 1122486287 (name: Real European Gas Stations Reloaded, version: 1.40, author: ExiaRS)
  2957. 00:01:59.275 : [mods] Active workshop mod ID 715807842 (name: Real European Companies (by Tamiel18), version: 1.52, author: Tamiel18)
  2958. 00:01:59.275 : [mods] Active workshop mod ID 2046817809 (name: Mercedes Actros MP5 Edition 1 skin, version: , author: sagittariusjr)
  2959. 00:01:59.275 : [mods] Active workshop mod ID 2091516269 (name: MB AeroDynamic Trailer by AM, version: 1.2.3, author: Amir Mahdavi (AM))
  2960. 00:01:59.275 : [mods] Active workshop mod ID 1962012800 (name: Magneto-Inductive logo VTK "DreamOn", version: 1.0, author: Ivanov Dmitrii)
  2961. 00:01:59.275 : [mods] Active workshop mod ID 1747752772 (name: MAN Evo Lion (MAN TGX Euro6 by MADster), version: v1.0, author: Pommes Gaming)
  2962. 00:01:59.275 : [mods] Active workshop mod ID 1257484219 (name: iPhone X, version: 1.30.0.0, author: Juan Domingo Martin)
  2963. 00:01:59.275 : [mods] Active workshop mod ID 670285471 (name: Hemil's Route Advisor (SiSL Edit), version: 4.76, author: Hemil)
  2964. 00:01:59.275 : [mods] Active workshop mod ID 1179852675 (name: Heads-Up DISPLAY GPS, version: 1.0, author: Furkan Ĺževke (furkansevke))
  2965. 00:01:59.275 : [mods] Active workshop mod ID 2115873179 (name: Google Maps Polski GĹ‚os, version: 1.5, author: RudzikTV)
  2966. 00:01:59.275 : [mods] Active workshop mod ID 1915802227 (name: Ford Trucks F-MAX, version: 2.0, author: SimĂĽlasyonTĂśRK)
  2967. 00:01:59.275 : [mods] Active workshop mod ID 1915327839 (name: Ford F-Max Addon: DLC Cabin Accessories, version: 1.6, author: SimĂĽlasyonTĂśRK)
  2968. 00:01:59.275 : [mods] Active workshop mod ID 926118980 (name: ETS2 [Tool] Construction Roof Grill + Led Bar, version: 1.0, author: SASq)
  2969. 00:01:59.275 : [mods] Active workshop mod ID 755252536 (name: ETS2 [Tool] Hella + Truck Brands Fog Lights, version: 1.0, author: SASq)
  2970. 00:01:59.275 : [mods] Active workshop mod ID 2182624925 (name: Dutch Container Transport sisl customs skin, version: 1, author: geert225)
  2971. 00:01:59.276 : [mods] Active workshop mod ID 1550090553 (name: Diamond Skin Pack, version: 1.0, author: VictorSE)
  2972. 00:01:59.276 : [mods] Active workshop mod ID 1541812438 (name: 50k addons Light Box Sign SchwarzmĂĽller Style Skin, version: 1.0 Release 1, author: Christopher Barbas)
  2973. 00:01:59.276 : [mods] Active workshop mod ID 2435008284 (name: iPad Air (2020) GPS, version: 1.4, author: Amenomaru)
  2974. 00:01:59.276 : [mods] Active workshop mod ID 2490299559 (name: Islay Crab Exports skin pack V2.0, version: 2.0, author: sagittariusjr)
  2975. 00:01:59.276 : [mods] Active workshop mod ID 2427784797 (name: krizzy090 cabin accessories, version: 1.0, author: )
  2976. 00:01:59.276 : [mods] Active workshop mod ID 2466501192 (name: Draavo Logistics Trailer, version: v1.2.2-workshop, author: Draavo Logistics)
  2977. 00:01:59.276 : [mods] Active workshop mod ID 2495846750 (name: SCANIA 4 RSJ TRANSPORTES, version: 1.0, author: inhar3)
  2978. 00:01:59.276 : [mods] Active workshop mod ID 2495094183 (name: Weyland-Yutani Corp. Skin, version: 1.0, author: iBlackSG)
  2979. 00:01:59.276 : [mods] Active workshop mod ID 2499194144 (name: Kaufland - Malowanie Naczepy [PL], version: 1.0, author: 2ndOFtheWWY)
  2980. 00:01:59.276 : [mods] Active workshop mod ID 2490299318 (name: 4K 8K SCANIA S "Limited Edition 130 Years" SkinPack, version: 1.1, author: A.Mikhaylov)
  2981. 00:01:59.276 : [mods] Active workshop mod ID 2428032098 (name: Ambulance Cargo, version: 1.0, author: Bosuball)
  2982. 00:01:59.276 : [mods] Active workshop mod ID 1764268887 (name: Next Generation Scania P G R S Pack, version: 2.3.2, author: Eugene)
  2983. 00:01:59.276 : [mods] Active local mod mercedes_sk_8x4 (name: Mercedes SK 8x4 Add-on, version: 1.0, author: XBS&Aryan)
  2984. 00:01:59.276 : [mods] Active local mod Viking_sticker_addon (name: Viking Sticker for Schullis Skin Sticker, version: 1.0, author: sagittariusjr)
  2985. 00:01:59.276 : [mods] Active local mod privolzhe_group_dirt (name: privolzhe_group_dirt, version: , author: )
  2986. 00:01:59.276 : [mods] Active local mod Pennant VOLVO (name: Pennant VOLVO, version: 1.0, author: Alik)
  2987. 00:01:59.276 : [mods] Active local mod Pennant Mercedes-Benz (name: Pennant Mercedes-Benz, version: 1.0, author: Alik)
  2988. 00:01:59.276 : [mods] Active local mod Pennant RENO (name: Pennant RENO, version: 1.0, author: Alik)
  2989. 00:01:59.276 : [mods] Active local mod Pennant SCANIA (name: Pennant SCANIA, version: 1.0, author: Alik)
  2990. 00:01:59.276 : [mods] Active local mod Pennant Maz (name: Pennant Maz, version: 1.0, author: Alik)
  2991. 00:01:59.276 : [mods] Active local mod Pennant MAN (name: Pennant MAN, version: 1.0, author: Alik)
  2992. 00:01:59.276 : [mods] Active local mod ETS2_Realistic_Lights_Effect_V2_0 (name: [ETS2] Realistic Lights Effect V2, version: 2.0, author: TheTiger)
  2993. 00:01:59.276 : [mods] Active local mod 4k_8k_scania_s_griffin_transport_multicolor_combo_skin_by_A.Mikhaylov (name: 4K 8K SCANIA S GRIFFIN TRANSPORT MULTICOLOR Combo-Skin, version: 1.0, author: A.Mikhaylov)
  2994. 00:01:59.276 : [mods] Active local mod Pennant Kamaz (name: Pennant Kamaz, version: 1.0, author: Alik)
  2995. 00:01:59.276 : [mods] Active local mod Krone New District 26 (name: Krone Profiliner District, version: , author: John)
  2996. 00:01:59.276 : [mods] Active local mod Pennant Iveco (name: Pennant Iveco, version: 1.0, author: Alik)
  2997. 00:01:59.276 : [mods] Active local mod Interior Back Lights v6.7-1.40 (name: Interior Back Lights v6.7, version: , author: Scs,Blade1974)
  2998. 00:01:59.276 : [mods] Active local mod Pennant DAF (name: Pennant DAF, version: 1.0, author: Alik)
  2999. 00:01:59.276 : [mods] Active local mod Adar_Standard (name: Adar standard trailer skin, version: 1.0, author: Norvk)
  3000. 00:01:59.276 : [mods] Active workshop mod ID 666368716 (name: No bloom, version: 1.20, author: Vyacheslav_A)
  3001. 00:01:59.278 : [hashfs] promods-assets-v255.scs: Created, 36239 entries
  3002. 00:01:59.278 : [fs] device C:/Users/olmen/Documents/Euro Truck Simulator 2/mod/promods-assets-v255.scs mounted.
  3003. 00:01:59.278 : [mod_package_manager] Mod "ProMods Assets Package" has been mounted. (package_name: promods-assets-v255, version: 2.55, source: User mods)
  3004. 00:01:59.278 : [hashfs] promods-model1-v255.scs: Created, 15792 entries
  3005. 00:01:59.279 : [fs] device C:/Users/olmen/Documents/Euro Truck Simulator 2/mod/promods-model1-v255.scs mounted.
  3006. 00:01:59.279 : [mod_package_manager] Mod "ProMods Models Package 1" has been mounted. (package_name: promods-model1-v255, version: 2.55, source: User mods)
  3007. 00:01:59.279 : [hashfs] promods-model2-v255.scs: Created, 22202 entries
  3008. 00:01:59.279 : [fs] device C:/Users/olmen/Documents/Euro Truck Simulator 2/mod/promods-model2-v255.scs mounted.
  3009. 00:01:59.279 : [mod_package_manager] Mod "ProMods Models Package 2" has been mounted. (package_name: promods-model2-v255, version: 2.55, source: User mods)
  3010. 00:01:59.280 : [hashfs] promods-model3-v255.scs: Created, 7424 entries
  3011. 00:01:59.280 : [fs] device C:/Users/olmen/Documents/Euro Truck Simulator 2/mod/promods-model3-v255.scs mounted.
  3012. 00:01:59.280 : [mod_package_manager] Mod "ProMods Models Package 3" has been mounted. (package_name: promods-model3-v255, version: 2.55, source: User mods)
  3013. 00:01:59.280 : [hashfs] promods-media-v255.scs: Created, 11 entries
  3014. 00:01:59.281 : [fs] device C:/Users/olmen/Documents/Euro Truck Simulator 2/mod/promods-media-v255.scs mounted.
  3015. 00:01:59.281 : [mod_package_manager] Mod "ProMods Media Package" has been mounted. (package_name: promods-media-v255, version: 2.55, source: User mods)
  3016. 00:02:02.738 : [zipfs] promods-map-v255.scs: Created, 36422 entries
  3017. 00:02:02.738 : [fs] device C:/Users/olmen/Documents/Euro Truck Simulator 2/mod/promods-map-v255.scs mounted.
  3018. 00:02:02.738 : [mod_package_manager] Mod "ProMods Map Package" has been mounted. (package_name: promods-map-v255, version: 2.55, source: User mods)
  3019. 00:02:02.739 : [hashfs] RusMap-model2_v2.3.1.scs: Created, 7397 entries
  3020. 00:02:02.739 : [fs] device C:/Users/olmen/Documents/Euro Truck Simulator 2/mod/RusMap-model2_v2.3.1.scs mounted.
  3021. 00:02:02.739 : [mod_package_manager] Mod "RusMap Model 2 Package" has been mounted. (package_name: RusMap-model2_v2.3.1, version: 2.3.1, source: User mods)
  3022. 00:02:04.881 : [zipfs] RusMap-model_v2.3.1.scs: Created, 20008 entries
  3023. 00:02:04.882 : [fs] device C:/Users/olmen/Documents/Euro Truck Simulator 2/mod/RusMap-model_v2.3.1.scs mounted.
  3024. 00:02:04.882 : [mod_package_manager] Mod "RusMap Model Package" has been mounted. (package_name: RusMap-model_v2.3.1, version: 2.3.1, source: User mods)
  3025. 00:02:04.882 : [hashfs] RusMap-map_v2.3.1.scs: Created, 814 entries
  3026. 00:02:04.882 : [fs] device C:/Users/olmen/Documents/Euro Truck Simulator 2/mod/RusMap-map_v2.3.1.scs mounted.
  3027. 00:02:04.882 : [mod_package_manager] Mod "RusMap Map Package" has been mounted. (package_name: RusMap-map_v2.3.1, version: 2.3.1, source: User mods)
  3028. 00:02:04.883 : [hashfs] RusMap-def_v2.3.1.scs: Created, 7503 entries
  3029. 00:02:04.883 : [fs] device C:/Users/olmen/Documents/Euro Truck Simulator 2/mod/RusMap-def_v2.3.1.scs mounted.
  3030. 00:02:04.883 : [mod_package_manager] Mod "RusMap Def Package" has been mounted. (package_name: RusMap-def_v2.3.1, version: 2.3.1, source: User mods)
  3031. 00:02:04.967 : [zipfs] promods-def-st-v255.scs: Created, 2412 entries
  3032. 00:02:04.967 : [fs] device C:/Users/olmen/Documents/Euro Truck Simulator 2/mod/promods-def-st-v255.scs mounted.
  3033. 00:02:04.967 : [mod_package_manager] Mod "ProMods Definition Package" has been mounted. (package_name: promods-def-st-v255, version: 2.55, source: User mods)
  3034. 00:02:04.968 : [hashfs] z4_PL_Rebuilding_2.5_assets.scs: Created, 6175 entries
  3035. 00:02:04.968 : [fs] device C:/Users/olmen/Documents/Euro Truck Simulator 2/mod/z4_PL_Rebuilding_2.5_assets.scs mounted.
  3036. 00:02:04.968 : [mod_package_manager] Mod "Poland Rebuidling - Assets" has been mounted. (package_name: z4_PL_Rebuilding_2.5_assets, version: 2.5 (dev. 9649), source: User mods)
  3037. 00:02:04.969 : [hashfs] z3_PL_Rebuilding_2.5_models.scs: Created, 16734 entries
  3038. 00:02:04.969 : [fs] device C:/Users/olmen/Documents/Euro Truck Simulator 2/mod/z3_PL_Rebuilding_2.5_models.scs mounted.
  3039. 00:02:04.969 : [mod_package_manager] Mod "Poland Rebuidling - Models" has been mounted. (package_name: z3_PL_Rebuilding_2.5_models, version: 2.5 (dev. 9649), source: User mods)
  3040. 00:02:04.969 : [hashfs] z2_PL_Rebuilding_2.5_map.scs: Created, 320 entries
  3041. 00:02:04.969 : [fs] device C:/Users/olmen/Documents/Euro Truck Simulator 2/mod/z2_PL_Rebuilding_2.5_map.scs mounted.
  3042. 00:02:04.969 : [mod_package_manager] Mod "Poland Rebuidling - Map" has been mounted. (package_name: z2_PL_Rebuilding_2.5_map, version: 2.5 (dev. 9649), source: User mods)
  3043. 00:02:05.088 : [zipfs] z1_PL_Rebuilding_2.5_def.scs: Created, 4619 entries
  3044. 00:02:05.088 : [fs] device C:/Users/olmen/Documents/Euro Truck Simulator 2/mod/z1_PL_Rebuilding_2.5_def.scs mounted.
  3045. 00:02:05.088 : [mod_package_manager] Mod "Poland Rebuidling - Def" has been mounted. (package_name: z1_PL_Rebuilding_2.5_def, version: 2.5 (dev. 9649), source: User mods)
  3046. 00:02:05.089 : [zipfs] zz_PL_Rebuilding_2.5_ST.scs: Created, 17 entries
  3047. 00:02:05.089 : [fs] device C:/Users/olmen/Documents/Euro Truck Simulator 2/mod/zz_PL_Rebuilding_2.5_ST.scs mounted.
  3048. 00:02:05.089 : [mod_package_manager] Mod "Poland Rebuidling - Special Transport" has been mounted. (package_name: zz_PL_Rebuilding_2.5_ST, version: 2.5 (dev. 9649), source: User mods)
  3049. 00:02:05.133 : [zipfs] PM255_RM2.4.1_PR2.5_roadconnectionV2.scs: Created, 322 entries
  3050. 00:02:05.133 : [fs] device C:/Users/olmen/Documents/Euro Truck Simulator 2/mod/PM255_RM2.4.1_PR2.5_roadconnectionV2.scs mounted.
  3051. 00:02:05.133 : [mod_package_manager] Mod "ProMods 2.55_RusMap 2.4.1_PL_Rebuilding_2.5 Road Connection" has been mounted. (package_name: PM255_RM2.4.1_PR2.5_roadconnectionV2, version: ETS2 1.40, source: User mods)
  3052. 00:02:05.236 : [zipfs] SuperGreatV.scs: Created, 1585 entries
  3053. 00:02:05.236 : [fs] device C:/Users/olmen/Documents/Euro Truck Simulator 2/mod/SuperGreatV.scs mounted.
  3054. 00:02:05.236 : [mod_package_manager] Mod "SUPER GREAT V" has been mounted. (package_name: SuperGreatV, version: 1.40, source: User mods)
  3055. 00:02:05.322 : [zipfs] International.scs: Created, 1303 entries
  3056. 00:02:05.322 : <WARNING> [mod] Mod package 'International' does not contain a manifest file 'manifest.sii', creating default information set.
  3057. 00:02:05.322 : [fs] device C:/Users/olmen/Documents/Euro Truck Simulator 2/mod/International.scs mounted.
  3058. 00:02:05.322 : [mod_package_manager] Mod "International" has been mounted. (package_name: International, version: , source: User mods)
  3059. 00:02:05.519 : [zipfs] A5C_-_ACTROS_5_2019_-_BASE.scs: Created, 2371 entries
  3060. 00:02:05.520 : [fs] device C:/Users/olmen/Documents/Euro Truck Simulator 2/mod/A5C_-_ACTROS_5_2019_-_BASE.scs mounted.
  3061. 00:02:05.520 : [mod_package_manager] Mod "Mercedes Actros 5 [BASE]" has been mounted. (package_name: A5C_-_ACTROS_5_2019_-_BASE, version: 1.6, source: User mods)
  3062. 00:02:05.703 : [zipfs] MAN_TGX_E6_2015_by_Gloover_v.1.0.scs: Created, 2759 entries
  3063. 00:02:05.703 : <WARNING> [mods] No valid categories defined for MAN_TGX_E6_2015_by_Gloover_v.1.0. Setting defaults.
  3064. 00:02:05.703 : [fs] device C:/Users/olmen/Documents/Euro Truck Simulator 2/mod/MAN_TGX_E6_2015_by_Gloover_v.1.0.scs mounted.
  3065. 00:02:05.703 : [mod_package_manager] Mod "MAN TGX E6 2015 by Gloover" has been mounted. (package_name: MAN_TGX_E6_2015_by_Gloover_v.1.0, version: 1.0, source: User mods)
  3066. 00:02:05.824 : [zipfs] mercedes_sk.scs: Created, 3093 entries
  3067. 00:02:05.824 : [fs] device C:/Users/olmen/Documents/Euro Truck Simulator 2/mod/mercedes_sk.scs mounted.
  3068. 00:02:05.824 : [mod_package_manager] Mod "Mercedes SK" has been mounted. (package_name: mercedes_sk, version: 1.0, source: User mods)
  3069. 00:02:05.828 : [zipfs] Renault_MAGNUM_DXI_Open_Pipe.scs: Created, 58 entries
  3070. 00:02:05.828 : [fs] device C:/Users/olmen/Documents/Euro Truck Simulator 2/mod/Renault_MAGNUM_DXI_Open_Pipe.scs mounted.
  3071. 00:02:05.828 : [mod_package_manager] Mod "Renault MAGNUM DXI Open Pipe" has been mounted. (package_name: Renault_MAGNUM_DXI_Open_Pipe, version: 1.0, source: User mods)
  3072. 00:02:05.976 : [zipfs] Scania_lk.scs: Created, 2128 entries
  3073. 00:02:05.976 : <ERROR> [mods] Cannot find '/mod_description.txt' description file for mod 'Scania_lk'.
  3074. 00:02:05.976 : [fs] device C:/Users/olmen/Documents/Euro Truck Simulator 2/mod/Scania_lk.scs mounted.
  3075. 00:02:05.976 : [mod_package_manager] Mod "Scania LK " has been mounted. (package_name: Scania_lk, version: 1.0, source: User mods)
  3076. 00:02:06.073 : [zipfs] Roman_Diesel_byMADster_v1.3.1.scs: Created, 1243 entries
  3077. 00:02:06.073 : [fs] device C:/Users/olmen/Documents/Euro Truck Simulator 2/mod/Roman_Diesel_byMADster_v1.3.1.scs mounted.
  3078. 00:02:06.073 : [mod_package_manager] Mod "ROMAN Diesel V.1.3.1" has been mounted. (package_name: Roman_Diesel_byMADster_v1.3.1, version: 1.3.1, source: User mods)
  3079. 00:02:06.248 : [zipfs] Renault Premium.scs: Created, 2095 entries
  3080. 00:02:06.248 : [fs] device C:/Users/olmen/Documents/Euro Truck Simulator 2/mod/Renault Premium.scs mounted.
  3081. 00:02:06.248 : [mod_package_manager] Mod "Renault Premium" has been mounted. (package_name: Renault Premium, version: 5.2, source: User mods)
  3082. 00:02:06.340 : [zipfs] MB_1933_V2.scs: Created, 1308 entries
  3083. 00:02:06.341 : [fs] device C:/Users/olmen/Documents/Euro Truck Simulator 2/mod/MB_1933_V2.scs mounted.
  3084. 00:02:06.341 : [mod_package_manager] Mod "Mercedes-Benz 1933" has been mounted. (package_name: MB_1933_V2, version: 2.0, source: User mods)
  3085. 00:02:06.376 : [zipfs] ETS2_Interior_Driver_1.00_for_1.39.scs: Created, 714 entries
  3086. 00:02:06.377 : [fs] device C:/Users/olmen/Documents/Euro Truck Simulator 2/mod/ETS2_Interior_Driver_1.00_for_1.39.scs mounted.
  3087. 00:02:06.377 : [mod_package_manager] Mod "Interior Driver for 1.39" has been mounted. (package_name: ETS2_Interior_Driver_1.00_for_1.39, version: 1.0, source: User mods)
  3088. 00:02:06.378 : [zipfs] Scania_R700_V8_Open_Pipe_V14_Support.scs: Created, 24 entries
  3089. 00:02:06.378 : [fs] device C:/Users/olmen/Documents/Euro Truck Simulator 2/mod/Scania_R700_V8_Open_Pipe_V14_Support.scs mounted.
  3090. 00:02:06.378 : [mod_package_manager] Mod "R700 V8 Open Pipe V14 Support" has been mounted. (package_name: Scania_R700_V8_Open_Pipe_V14_Support, version: 1, source: User mods)
  3091. 00:02:06.400 : [zipfs] 50k_DAF_XF_1.39.scs: Created, 395 entries
  3092. 00:02:06.400 : [fs] device C:/Users/olmen/Documents/Euro Truck Simulator 2/mod/50k_DAF_XF_1.39.scs mounted.
  3093. 00:02:06.400 : [mod_package_manager] Mod "DAF XF 105 by 50k" has been mounted. (package_name: 50k_DAF_XF_1.39, version: 4.2, source: User mods)
  3094. 00:02:06.419 : [zipfs] daf_95_ati_bdf_trailer.scs: Created, 350 entries
  3095. 00:02:06.420 : [fs] device C:/Users/olmen/Documents/Euro Truck Simulator 2/mod/daf_95_ati_bdf_trailer.scs mounted.
  3096. 00:02:06.420 : [mod_package_manager] Mod "DAF 95ATi BDF Trailer" has been mounted. (package_name: daf_95_ati_bdf_trailer, version: 1.3, source: User mods)
  3097. 00:02:06.557 : [zipfs] daf_95_ati.scs: Created, 3042 entries
  3098. 00:02:06.558 : [fs] device C:/Users/olmen/Documents/Euro Truck Simulator 2/mod/daf_95_ati.scs mounted.
  3099. 00:02:06.558 : [mod_package_manager] Mod "DAF 95ATi" has been mounted. (package_name: daf_95_ati, version: 1.3, source: User mods)
  3100. 00:02:06.559 : [zipfs] daf_95_ati_tuning.scs: Created, 30 entries
  3101. 00:02:06.559 : [fs] device C:/Users/olmen/Documents/Euro Truck Simulator 2/mod/daf_95_ati_tuning.scs mounted.
  3102. 00:02:06.559 : [mod_package_manager] Mod "DAF 95ATi DLC tuning pack" has been mounted. (package_name: daf_95_ati_tuning, version: 1.0, source: User mods)
  3103. 00:02:06.560 : [zipfs] daf_95_ati_cabin_accessories.scs: Created, 48 entries
  3104. 00:02:06.561 : [fs] device C:/Users/olmen/Documents/Euro Truck Simulator 2/mod/daf_95_ati_cabin_accessories.scs mounted.
  3105. 00:02:06.561 : [mod_package_manager] Mod "DAF 95ATi Cabin Accessories" has been mounted. (package_name: daf_95_ati_cabin_accessories, version: 1.0, source: User mods)
  3106. 00:02:06.644 : [zipfs] man_tga_byMADster_v1.6_1.39_fix.scs: Created, 1436 entries
  3107. 00:02:06.644 : [fs] device C:/Users/olmen/Documents/Euro Truck Simulator 2/mod/man_tga_byMADster_v1.6_1.39_fix.scs mounted.
  3108. 00:02:06.644 : [mod_package_manager] Mod "MAN TGA 1.39 fix" has been mounted. (package_name: man_tga_byMADster_v1.6_1.39_fix, version: 1.6 1.39 fix, source: User mods)
  3109. 00:02:06.824 : [zipfs] Scania_S730T_Vlaustin_Ed.scs: Created, 2516 entries
  3110. 00:02:06.824 : [fs] device C:/Users/olmen/Documents/Euro Truck Simulator 2/mod/Scania_S730T_Vlaustin_Ed.scs mounted.
  3111. 00:02:06.824 : [mod_package_manager] Mod "SCANIA S NEW GEN TCAB" has been mounted. (package_name: Scania_S730T_Vlaustin_Ed, version: 3.0, source: User mods)
  3112. 00:02:06.825 : [zipfs] Daf_Xf_105_Open_Pipe_sound_Reworked_Fix.scs: Created, 27 entries
  3113. 00:02:06.825 : [fs] device C:/Users/olmen/Documents/Euro Truck Simulator 2/mod/Daf_Xf_105_Open_Pipe_sound_Reworked_Fix.scs mounted.
  3114. 00:02:06.825 : [mod_package_manager] Mod "Daf Open Pipe Sound Reworked Fix" has been mounted. (package_name: Daf_Xf_105_Open_Pipe_sound_Reworked_Fix, version: 10.6, source: User mods)
  3115. 00:02:06.826 : [zipfs] default.zip: Created, 20 entries
  3116. 00:02:06.826 : [fs] device D:/Steam/steamapps/workshop/content/227300/1915324242/default.zip mounted.
  3117. 00:02:06.826 : [mod_package_manager] Mod "Ford F-Max Addon: DLC Goodyear" has been mounted. (package_name: mod_workshop_package.0000000072298752, version: 1.5, source: Steam Workshop)
  3118. 00:02:06.981 : [zipfs] DAF XF Euro6.scs: Created, 2043 entries
  3119. 00:02:06.981 : [fs] device C:/Users/olmen/Documents/Euro Truck Simulator 2/mod/DAF XF Euro6.scs mounted.
  3120. 00:02:06.981 : [mod_package_manager] Mod "DAF XF Euro6" has been mounted. (package_name: DAF XF Euro6, version: 3.7, source: User mods)
  3121. 00:02:06.983 : [zipfs] universal.zip: Created, 98 entries
  3122. 00:02:06.983 : [fs] device D:/Steam/steamapps/workshop/content/227300/2335493495/universal.zip mounted.
  3123. 00:02:06.984 : [mod_package_manager] Mod "ROML Cargo Volvo FH3 and Krone Coolliner Deluxe Edition Skinpack" has been mounted. (package_name: mod_workshop_package.000000008B34CD77, version: 1.0, source: Steam Workshop)
  3124. 00:02:06.984 : [fs] device D:/Steam/steamapps/workshop/content/227300/2213234241/140version mounted.
  3125. 00:02:06.984 : [mod_package_manager] Mod "Pardubak's Longer Yellow for ETS2 1.40" has been mounted. (package_name: mod_workshop_package.0000000083EB4641, version: 1.40, source: Steam Workshop)
  3126. 00:02:06.984 : [fs] device D:/Steam/steamapps/workshop/content/227300/1087755352/universal mounted.
  3127. 00:02:06.984 : [mod_package_manager] Mod "Wedzikowski Malowanie" has been mounted. (package_name: mod_workshop_package.0000000040D5D458, version: v1.1, source: Steam Workshop)
  3128. 00:02:06.985 : [fs] device D:/Steam/steamapps/workshop/content/227300/1879369205/truck mounted.
  3129. 00:02:06.985 : [mod_package_manager] Mod "[1.40] Kriistof Edition Kelsa" has been mounted. (package_name: mod_workshop_package.000000007004E5F5, version: V1, source: Steam Workshop)
  3130. 00:02:06.985 : [fs] device D:/Steam/steamapps/workshop/content/227300/1875104122/truck mounted.
  3131. 00:02:06.985 : [mod_package_manager] Mod "[1.40] Kriistof Edition Thomann General Lee V 2.0" has been mounted. (package_name: mod_workshop_package.000000006FC3D17A, version: V2, source: Steam Workshop)
  3132. 00:02:06.985 : [fs] device D:/Steam/steamapps/workshop/content/227300/1131584022/138 mounted.
  3133. 00:02:06.985 : [mod_package_manager] Mod "Volvo F Series Truck 2.2" has been mounted. (package_name: mod_workshop_package.0000000043729A16, version: 2.1, source: Steam Workshop)
  3134. 00:02:06.986 : [zipfs] universal.zip: Created, 21 entries
  3135. 00:02:06.986 : [fs] device D:/Steam/steamapps/workshop/content/227300/1208790679/universal.zip mounted.
  3136. 00:02:06.986 : [mod_package_manager] Mod "Volvo F12/16 of James Lynch (Volvo F Series)" has been mounted. (package_name: mod_workshop_package.00000000480CAE97, version: 1.0, source: Steam Workshop)
  3137. 00:02:06.986 : [fs] device D:/Steam/steamapps/workshop/content/227300/842154810/ohahadb mounted.
  3138. 00:02:06.986 : [mod_package_manager] Mod "Volvo 2013 DB Schenker Heavy Duty For Ohaha" has been mounted. (package_name: mod_workshop_package.000000003232433A, version: 1, source: Steam Workshop)
  3139. 00:02:06.987 : [zipfs] universal.zip: Created, 7 entries
  3140. 00:02:06.987 : [fs] device D:/Steam/steamapps/workshop/content/227300/1663522856/universal.zip mounted.
  3141. 00:02:06.987 : [mod_package_manager] Mod "TjZ's Physics // ETS2 - (1.39.X)" has been mounted. (package_name: mod_workshop_package.0000000063275828, version: 1.4, source: Steam Workshop)
  3142. 00:02:06.988 : [zipfs] universal.zip: Created, 54 entries
  3143. 00:02:06.989 : [fs] device D:/Steam/steamapps/workshop/content/227300/1659094659/universal.zip mounted.
  3144. 00:02:06.989 : [mod_package_manager] Mod "The Polish Squadron 303 for Scania RJL" has been mounted. (package_name: mod_workshop_package.0000000062E3C683, version: 1.0, source: Steam Workshop)
  3145. 00:02:07.141 : [zipfs] sisltrlmain140.zip: Created, 6550 entries
  3146. 00:02:07.141 : [fs] device D:/Steam/steamapps/workshop/content/227300/842257514/sisltrlmain140.zip mounted.
  3147. 00:02:07.141 : [mod_package_manager] Mod "SiSL's Trailer Pack" has been mounted. (package_name: mod_workshop_package.000000003233D46A, version: 2.2, source: Steam Workshop)
  3148. 00:02:07.142 : [hashfs] flatui138.zip: Created, 610 entries
  3149. 00:02:07.142 : [fs] device D:/Steam/steamapps/workshop/content/227300/690213540/flatui138.zip mounted.
  3150. 00:02:07.142 : [mod_package_manager] Mod "SiSL's FlatUI" has been mounted. (package_name: mod_workshop_package.000000002923D2A4, version: 1.0, source: Steam Workshop)
  3151. 00:02:07.951 : [zipfs] smp3_3_140.zip: Created, 37129 entries
  3152. 00:02:07.951 : [fs] device D:/Steam/steamapps/workshop/content/227300/645553604/smp3_3_140.zip mounted.
  3153. 00:02:07.951 : [mod_package_manager] Mod "SiSL's Mega Pack" has been mounted. (package_name: mod_workshop_package.00000000267A5DC4, version: 3.3, source: Steam Workshop)
  3154. 00:02:07.952 : [fs] device D:/Steam/steamapps/workshop/content/227300/1803532577/universal mounted.
  3155. 00:02:07.952 : [mod_package_manager] Mod "Silver Griffin skin for Scania Next Gen (SCS)" has been mounted. (package_name: mod_workshop_package.000000006B7FB921, version: 1.0, source: Steam Workshop)
  3156. 00:02:07.952 : [fs] device D:/Steam/steamapps/workshop/content/227300/873943180/teleco mounted.
  3157. 00:02:07.952 : [mod_package_manager] Mod "Scania RLJ Telecom Skin + Trailer" has been mounted. (package_name: mod_workshop_package.000000003417508C, version: 1, source: Steam Workshop)
  3158. 00:02:07.952 : [fs] device D:/Steam/steamapps/workshop/content/227300/900768659/universal mounted.
  3159. 00:02:07.952 : [mod_package_manager] Mod "ScaniaRJL Super" has been mounted. (package_name: mod_workshop_package.0000000035B0A393, version: 1.0, source: Steam Workshop)
  3160. 00:02:07.953 : [fs] device D:/Steam/steamapps/workshop/content/227300/1264900523/universal mounted.
  3161. 00:02:07.953 : [mod_package_manager] Mod "Scania RJL Scania Vabis - Floppy Logistics Combo" has been mounted. (package_name: mod_workshop_package.000000004B64D9AB, version: , source: Steam Workshop)
  3162. 00:02:07.953 : [fs] device D:/Steam/steamapps/workshop/content/227300/1877823584/universal mounted.
  3163. 00:02:07.953 : [mod_package_manager] Mod "Renault Range T White Edition Skin" has been mounted. (package_name: mod_workshop_package.000000006FED5060, version: 1.0, source: Steam Workshop)
  3164. 00:02:07.953 : [fs] device D:/Steam/steamapps/workshop/content/227300/1301321626/voegle mounted.
  3165. 00:02:07.953 : [mod_package_manager] Mod "RJL Scania R & Streamline + Trailer Skin" has been mounted. (package_name: mod_workshop_package.000000004D90979A, version: 1.0, source: Steam Workshop)
  3166. 00:02:07.973 : [zipfs] universal.zip: Created, 983 entries
  3167. 00:02:07.973 : [fs] device D:/Steam/steamapps/workshop/content/227300/1896775675/universal.zip mounted.
  3168. 00:02:07.973 : [mod_package_manager] Mod "Renault Range T and Evolution Accessories v2.0 + Skin's (Please Read Description for Template's)" has been mounted. (package_name: mod_workshop_package.00000000710E7FFB, version: 1.0, source: Steam Workshop)
  3169. 00:02:07.977 : [zipfs] realadvertisements.zip: Created, 150 entries
  3170. 00:02:07.978 : [fs] device D:/Steam/steamapps/workshop/content/227300/1248913107/realadvertisements.zip mounted.
  3171. 00:02:07.978 : [mod_package_manager] Mod "Real Advertisements" has been mounted. (package_name: mod_workshop_package.000000004A70E6D3, version: 1.9, source: Steam Workshop)
  3172. 00:02:07.978 : [fs] device D:/Steam/steamapps/workshop/content/227300/2151383225/trailers mounted.
  3173. 00:02:07.978 : [mod_package_manager] Mod "Real Brand AI Trailers" has been mounted. (package_name: mod_workshop_package.00000000803B80B9, version: 2.0, source: Steam Workshop)
  3174. 00:02:07.982 : [zipfs] universal.zip: Created, 188 entries
  3175. 00:02:07.982 : [fs] device D:/Steam/steamapps/workshop/content/227300/1122486287/universal.zip mounted.
  3176. 00:02:07.982 : [mod_package_manager] Mod "Real European Gas Stations Reloaded" has been mounted. (package_name: mod_workshop_package.0000000042E7C80F, version: 1.40, source: Steam Workshop)
  3177. 00:02:08.002 : [zipfs] realeurcomp.zip: Created, 1055 entries
  3178. 00:02:08.002 : [fs] device D:/Steam/steamapps/workshop/content/227300/715807842/realeurcomp.zip mounted.
  3179. 00:02:08.002 : [mod_package_manager] Mod "Real European Companies (by Tamiel18)" has been mounted. (package_name: mod_workshop_package.000000002AAA5C62, version: 1.52, source: Steam Workshop)
  3180. 00:02:08.003 : [fs] device D:/Steam/steamapps/workshop/content/227300/2046817809/universal mounted.
  3181. 00:02:08.003 : [mod_package_manager] Mod "Mercedes Actros MP5 Edition 1 skin" has been mounted. (package_name: mod_workshop_package.0000000079FFF611, version: , source: Steam Workshop)
  3182. 00:02:08.023 : [zipfs] 140_content.zip: Created, 991 entries
  3183. 00:02:08.023 : [fs] device D:/Steam/steamapps/workshop/content/227300/2091516269/140_content.zip mounted.
  3184. 00:02:08.023 : [mod_package_manager] Mod "MB AeroDynamic Trailer by AM" has been mounted. (package_name: mod_workshop_package.000000007CAA016D, version: 1.2.3, source: Steam Workshop)
  3185. 00:02:08.023 : [fs] device D:/Steam/steamapps/workshop/content/227300/1962012800/latest mounted.
  3186. 00:02:08.023 : [mod_package_manager] Mod "Magneto-Inductive logo VTK "DreamOn"" has been mounted. (package_name: mod_workshop_package.0000000074F1F080, version: 1.0, source: Steam Workshop)
  3187. 00:02:08.023 : [fs] device D:/Steam/steamapps/workshop/content/227300/1747752772/universal mounted.
  3188. 00:02:08.023 : [mod_package_manager] Mod "MAN Evo Lion (MAN TGX Euro6 by MADster)" has been mounted. (package_name: mod_workshop_package.00000000682C9744, version: v1.0, source: Steam Workshop)
  3189. 00:02:08.023 : [fs] device D:/Steam/steamapps/workshop/content/227300/1257484219/universal mounted.
  3190. 00:02:08.023 : [mod_package_manager] Mod "iPhone X" has been mounted. (package_name: mod_workshop_package.000000004AF3AFBB, version: 1.30.0.0, source: Steam Workshop)
  3191. 00:02:08.025 : [zipfs] hemilsra138.zip: Created, 35 entries
  3192. 00:02:08.025 : [fs] device D:/Steam/steamapps/workshop/content/227300/670285471/hemilsra138.zip mounted.
  3193. 00:02:08.025 : [mod_package_manager] Mod "Hemil's Route Advisor (SiSL Edit)" has been mounted. (package_name: mod_workshop_package.0000000027F3BE9F, version: 4.76, source: Steam Workshop)
  3194. 00:02:08.026 : [zipfs] husevke.zip: Created, 111 entries
  3195. 00:02:08.026 : [fs] device D:/Steam/steamapps/workshop/content/227300/1179852675/husevke.zip mounted.
  3196. 00:02:08.026 : [mod_package_manager] Mod "Heads-Up DISPLAY GPS" has been mounted. (package_name: mod_workshop_package.0000000046531F83, version: 1.0, source: Steam Workshop)
  3197. 00:02:08.027 : [fs] device D:/Steam/steamapps/workshop/content/227300/2115873179/universal mounted.
  3198. 00:02:08.027 : [mod_package_manager] Mod "Google Maps Polski GĹ‚os" has been mounted. (package_name: mod_workshop_package.000000007E1DA99B, version: 1.5, source: Steam Workshop)
  3199. 00:02:08.064 : [zipfs] base140.zip: Created, 1943 entries
  3200. 00:02:08.064 : [fs] device D:/Steam/steamapps/workshop/content/227300/1915802227/base140.zip mounted.
  3201. 00:02:08.064 : [mod_package_manager] Mod "Ford Trucks F-MAX" has been mounted. (package_name: mod_workshop_package.000000007230D273, version: 2.0, source: Steam Workshop)
  3202. 00:02:08.066 : [zipfs] fmaxtoys_140.zip: Created, 92 entries
  3203. 00:02:08.066 : [fs] device D:/Steam/steamapps/workshop/content/227300/1915327839/fmaxtoys_140.zip mounted.
  3204. 00:02:08.066 : [mod_package_manager] Mod "Ford F-Max Addon: DLC Cabin Accessories" has been mounted. (package_name: mod_workshop_package.000000007229955F, version: 1.6, source: Steam Workshop)
  3205. 00:02:08.066 : [fs] device D:/Steam/steamapps/workshop/content/227300/926118980/universal mounted.
  3206. 00:02:08.066 : [mod_package_manager] Mod "ETS2 [Tool] Construction Roof Grill + Led Bar" has been mounted. (package_name: mod_workshop_package.0000000037337444, version: 1.0, source: Steam Workshop)
  3207. 00:02:08.067 : [fs] device D:/Steam/steamapps/workshop/content/227300/755252536/universal mounted.
  3208. 00:02:08.067 : [mod_package_manager] Mod "ETS2 [Tool] Hella + Truck Brands Fog Lights" has been mounted. (package_name: mod_workshop_package.000000002D043D38, version: 1.0, source: Steam Workshop)
  3209. 00:02:08.067 : [fs] device D:/Steam/steamapps/workshop/content/227300/2182624925/universal mounted.
  3210. 00:02:08.067 : [mod_package_manager] Mod "Dutch Container Transport sisl customs skin" has been mounted. (package_name: mod_workshop_package.000000008218369D, version: 1, source: Steam Workshop)
  3211. 00:02:08.070 : [zipfs] universal.zip: Created, 143 entries
  3212. 00:02:08.070 : [fs] device D:/Steam/steamapps/workshop/content/227300/1550090553/universal.zip mounted.
  3213. 00:02:08.070 : [mod_package_manager] Mod "Diamond Skin Pack" has been mounted. (package_name: mod_workshop_package.000000005C648139, version: 1.0, source: Steam Workshop)
  3214. 00:02:08.070 : [fs] device D:/Steam/steamapps/workshop/content/227300/1541812438/universal mounted.
  3215. 00:02:08.070 : [mod_package_manager] Mod "50k addons Light Box Sign SchwarzmĂĽller Style Skin" has been mounted. (package_name: mod_workshop_package.000000005BE630D6, version: 1.0 Release 1, source: Steam Workshop)
  3216. 00:02:08.075 : [zipfs] base140.zip: Created, 233 entries
  3217. 00:02:08.075 : [fs] device D:/Steam/steamapps/workshop/content/227300/2435008284/base140.zip mounted.
  3218. 00:02:08.075 : [mod_package_manager] Mod "iPad Air (2020) GPS" has been mounted. (package_name: mod_workshop_package.000000009123471C, version: 1.4, source: Steam Workshop)
  3219. 00:02:08.075 : [fs] device D:/Steam/steamapps/workshop/content/227300/2490299559/universal mounted.
  3220. 00:02:08.075 : [mod_package_manager] Mod "Islay Crab Exports skin pack V2.0" has been mounted. (package_name: mod_workshop_package.00000000946EF4A7, version: 2.0, source: Steam Workshop)
  3221. 00:02:08.076 : [fs] device D:/Steam/steamapps/workshop/content/227300/2427784797/universal mounted.
  3222. 00:02:08.076 : [mod_package_manager] Mod "krizzy090 cabin accessories" has been mounted. (package_name: mod_workshop_package.0000000090B50E5D, version: 1.0, source: Steam Workshop)
  3223. 00:02:08.076 : [fs] device D:/Steam/steamapps/workshop/content/227300/2466501192/universal mounted.
  3224. 00:02:08.076 : [mod_package_manager] Mod "Draavo Logistics Trailer" has been mounted. (package_name: mod_workshop_package.000000009303D248, version: v1.2.2-workshop, source: Steam Workshop)
  3225. 00:02:08.076 : [fs] device D:/Steam/steamapps/workshop/content/227300/2495846750/name mounted.
  3226. 00:02:08.076 : [mod_package_manager] Mod "SCANIA 4 RSJ TRANSPORTES" has been mounted. (package_name: mod_workshop_package.0000000094C3995E, version: 1.0, source: Steam Workshop)
  3227. 00:02:08.076 : [fs] device D:/Steam/steamapps/workshop/content/227300/2495094183/universal mounted.
  3228. 00:02:08.076 : [mod_package_manager] Mod "Weyland-Yutani Corp. Skin" has been mounted. (package_name: mod_workshop_package.0000000094B81DA7, version: 1.0, source: Steam Workshop)
  3229. 00:02:08.078 : [zipfs] universal.zip: Created, 70 entries
  3230. 00:02:08.078 : [fs] device D:/Steam/steamapps/workshop/content/227300/2499194144/universal.zip mounted.
  3231. 00:02:08.078 : [mod_package_manager] Mod "Kaufland - Malowanie Naczepy [PL]" has been mounted. (package_name: mod_workshop_package.0000000094F6AD20, version: 1.0, source: Steam Workshop)
  3232. 00:02:08.081 : [zipfs] 4k_8k_scania_s_le_130_years_skinpack.zip: Created, 122 entries
  3233. 00:02:08.081 : [fs] device D:/Steam/steamapps/workshop/content/227300/2490299318/4k_8k_scania_s_le_130_years_skinpack.zip mounted.
  3234. 00:02:08.081 : [mod_package_manager] Mod "4K 8K SCANIA S "Limited Edition 130 Years" SkinPack" has been mounted. (package_name: mod_workshop_package.00000000946EF3B6, version: 1.1, source: Steam Workshop)
  3235. 00:02:08.099 : [zipfs] universal.zip: Created, 1085 entries
  3236. 00:02:08.099 : [fs] device D:/Steam/steamapps/workshop/content/227300/2428032098/universal.zip mounted.
  3237. 00:02:08.099 : [mod_package_manager] Mod "Ambulance Cargo" has been mounted. (package_name: mod_workshop_package.0000000090B8D462, version: 1.0, source: Steam Workshop)
  3238. 00:02:08.100 : [fs] device D:/Steam/steamapps/workshop/content/227300/1764268887/nextgenscaniarework mounted.
  3239. 00:02:08.100 : [mod_package_manager] Mod "Next Generation Scania P G R S Pack" has been mounted. (package_name: mod_workshop_package.0000000069289B57, version: 2.3.2, source: Steam Workshop)
  3240. 00:02:08.115 : [zipfs] mercedes_sk_8x4.scs: Created, 306 entries
  3241. 00:02:08.115 : [fs] device C:/Users/olmen/Documents/Euro Truck Simulator 2/mod/mercedes_sk_8x4.scs mounted.
  3242. 00:02:08.115 : [mod_package_manager] Mod "Mercedes SK 8x4 Add-on" has been mounted. (package_name: mercedes_sk_8x4, version: 1.0, source: User mods)
  3243. 00:02:08.116 : [zipfs] Viking_sticker_addon.scs: Created, 9 entries
  3244. 00:02:08.116 : [fs] device C:/Users/olmen/Documents/Euro Truck Simulator 2/mod/Viking_sticker_addon.scs mounted.
  3245. 00:02:08.116 : [mod_package_manager] Mod "Viking Sticker for Schullis Skin Sticker" has been mounted. (package_name: Viking_sticker_addon, version: 1.0, source: User mods)
  3246. 00:02:08.117 : [zipfs] C:/Users/olmen/Documents/Euro Truck Simulator 2/mod/privolzhe_group_dirt.scs: Created with ETS2 Studio v.0.6.1.8
  3247.  
  3248. 00:02:08.117 : [zipfs] C:/Users/olmen/Documents/Euro Truck Simulator 2/mod/privolzhe_group_dirt.scs: www.ets2studio.com
  3249. 00:02:08.117 : [zipfs] privolzhe_group_dirt.scs: Created, 18 entries
  3250. 00:02:08.117 : <WARNING> [mod] Mod package 'privolzhe_group_dirt' does not contain a manifest file 'manifest.sii', creating default information set.
  3251. 00:02:08.117 : [fs] device C:/Users/olmen/Documents/Euro Truck Simulator 2/mod/privolzhe_group_dirt.scs mounted.
  3252. 00:02:08.117 : [mod_package_manager] Mod "privolzhe_group_dirt" has been mounted. (package_name: privolzhe_group_dirt, version: , source: User mods)
  3253. 00:02:08.129 : [zipfs] Pennant VOLVO.scs: Created, 224 entries
  3254. 00:02:08.129 : [fs] device C:/Users/olmen/Documents/Euro Truck Simulator 2/mod/Pennant VOLVO.scs mounted.
  3255. 00:02:08.129 : [mod_package_manager] Mod "Pennant VOLVO" has been mounted. (package_name: Pennant VOLVO, version: 1.0, source: User mods)
  3256. 00:02:08.140 : [zipfs] Pennant Mercedes-Benz.scs: Created, 224 entries
  3257. 00:02:08.141 : [fs] device C:/Users/olmen/Documents/Euro Truck Simulator 2/mod/Pennant Mercedes-Benz.scs mounted.
  3258. 00:02:08.141 : [mod_package_manager] Mod "Pennant Mercedes-Benz" has been mounted. (package_name: Pennant Mercedes-Benz, version: 1.0, source: User mods)
  3259. 00:02:08.152 : [zipfs] Pennant RENO.scs: Created, 224 entries
  3260. 00:02:08.152 : [fs] device C:/Users/olmen/Documents/Euro Truck Simulator 2/mod/Pennant RENO.scs mounted.
  3261. 00:02:08.152 : [mod_package_manager] Mod "Pennant RENO" has been mounted. (package_name: Pennant RENO, version: 1.0, source: User mods)
  3262. 00:02:08.164 : [zipfs] Pennant SCANIA.scs: Created, 224 entries
  3263. 00:02:08.164 : [fs] device C:/Users/olmen/Documents/Euro Truck Simulator 2/mod/Pennant SCANIA.scs mounted.
  3264. 00:02:08.164 : [mod_package_manager] Mod "Pennant SCANIA" has been mounted. (package_name: Pennant SCANIA, version: 1.0, source: User mods)
  3265. 00:02:08.173 : [zipfs] Pennant Maz.scs: Created, 222 entries
  3266. 00:02:08.173 : [fs] device C:/Users/olmen/Documents/Euro Truck Simulator 2/mod/Pennant Maz.scs mounted.
  3267. 00:02:08.173 : [mod_package_manager] Mod "Pennant Maz" has been mounted. (package_name: Pennant Maz, version: 1.0, source: User mods)
  3268. 00:02:08.184 : [zipfs] Pennant MAN.scs: Created, 224 entries
  3269. 00:02:08.184 : [fs] device C:/Users/olmen/Documents/Euro Truck Simulator 2/mod/Pennant MAN.scs mounted.
  3270. 00:02:08.184 : [mod_package_manager] Mod "Pennant MAN" has been mounted. (package_name: Pennant MAN, version: 1.0, source: User mods)
  3271. 00:02:08.184 : [hashfs] ETS2_Realistic_Lights_Effect_V2_0.scs: Created, 76 entries
  3272. 00:02:08.185 : [fs] device C:/Users/olmen/Documents/Euro Truck Simulator 2/mod/ETS2_Realistic_Lights_Effect_V2_0.scs mounted.
  3273. 00:02:08.185 : [mod_package_manager] Mod "[ETS2] Realistic Lights Effect V2" has been mounted. (package_name: ETS2_Realistic_Lights_Effect_V2_0, version: 2.0, source: User mods)
  3274. 00:02:08.190 : [zipfs] 4k_8k_scania_s_griffin_transport_multicolor_combo_skin_by_A.Mikhaylov.scs: Created, 68 entries
  3275. 00:02:08.190 : [fs] device C:/Users/olmen/Documents/Euro Truck Simulator 2/mod/4k_8k_scania_s_griffin_transport_multicolor_combo_skin_by_A.Mikhaylov.scs mounted.
  3276. 00:02:08.190 : [mod_package_manager] Mod "4K 8K SCANIA S GRIFFIN TRANSPORT MULTICOLOR Combo-Skin" has been mounted. (package_name: 4k_8k_scania_s_griffin_transport_multicolor_combo_skin_by_A.Mikhaylov, version: 1.0, source: User mods)
  3277. 00:02:08.202 : [zipfs] Pennant Kamaz.scs: Created, 224 entries
  3278. 00:02:08.202 : [fs] device C:/Users/olmen/Documents/Euro Truck Simulator 2/mod/Pennant Kamaz.scs mounted.
  3279. 00:02:08.202 : [mod_package_manager] Mod "Pennant Kamaz" has been mounted. (package_name: Pennant Kamaz, version: 1.0, source: User mods)
  3280. 00:02:08.462 : [zipfs] Krone New District 26.scs: Created, 3633 entries
  3281. 00:02:08.463 : [fs] device C:/Users/olmen/Documents/Euro Truck Simulator 2/mod/Krone New District 26.scs mounted.
  3282. 00:02:08.463 : [mod_package_manager] Mod "Krone Profiliner District" has been mounted. (package_name: Krone New District 26, version: , source: User mods)
  3283. 00:02:08.475 : [zipfs] Pennant Iveco.scs: Created, 224 entries
  3284. 00:02:08.475 : [fs] device C:/Users/olmen/Documents/Euro Truck Simulator 2/mod/Pennant Iveco.scs mounted.
  3285. 00:02:08.475 : [mod_package_manager] Mod "Pennant Iveco" has been mounted. (package_name: Pennant Iveco, version: 1.0, source: User mods)
  3286. 00:02:08.616 : [zipfs] Interior Back Lights v6.7-1.40.scs: Created, 2905 entries
  3287. 00:02:08.616 : [fs] device C:/Users/olmen/Documents/Euro Truck Simulator 2/mod/Interior Back Lights v6.7-1.40.scs mounted.
  3288. 00:02:08.616 : [mod_package_manager] Mod "Interior Back Lights v6.7" has been mounted. (package_name: Interior Back Lights v6.7-1.40, version: , source: User mods)
  3289. 00:02:08.628 : [zipfs] Pennant DAF.scs: Created, 224 entries
  3290. 00:02:08.628 : [fs] device C:/Users/olmen/Documents/Euro Truck Simulator 2/mod/Pennant DAF.scs mounted.
  3291. 00:02:08.629 : [mod_package_manager] Mod "Pennant DAF" has been mounted. (package_name: Pennant DAF, version: 1.0, source: User mods)
  3292. 00:02:08.629 : [zipfs] Adar_Standard.scs: Created, 29 entries
  3293. 00:02:08.630 : [fs] device C:/Users/olmen/Documents/Euro Truck Simulator 2/mod/Adar_Standard.scs mounted.
  3294. 00:02:08.630 : [mod_package_manager] Mod "Adar standard trailer skin" has been mounted. (package_name: Adar_Standard, version: 1.0, source: User mods)
  3295. 00:02:08.630 : [fs] device D:/Steam/steamapps/workshop/content/227300/666368716/universal mounted.
  3296. 00:02:08.630 : [mod_package_manager] Mod "No bloom" has been mounted. (package_name: mod_workshop_package.0000000027B7FACC, version: 1.20, source: Steam Workshop)
  3297. 00:02:08.647 : [app_lcl] Localization module '/locale/pl_pl/local_module.scania_ng.sii' has been applied.
  3298. 00:02:08.649 : [app_lcl] Localization module '/locale/pl_pl/local_module.fmax.sii' has been applied.
  3299. 00:02:08.650 : [app_lcl] Localization module '/locale/pl_pl/local_module.am_mbad.sii' has been applied.
  3300. 00:02:08.653 : [app_lcl] Localization module '/locale/pl_pl/local_module.polreb.sii' has been applied.
  3301. 00:02:08.656 : [app_lcl] Localization module '/locale/pl_pl/local_module.rusmap_cities.sii' has been applied.
  3302. 00:02:08.658 : [app_lcl] Localization module '/locale/pl_pl/local_module.pm_cargo.sii' has been applied.
  3303. 00:02:08.669 : [app_lcl] Localization module '/locale/pl_pl/local_module.pm_cities.sii' has been applied.
  3304. 00:02:08.671 : [app_lcl] Localization module '/locale/pl_pl/local_module.pm_ferry.sii' has been applied.
  3305. 00:02:08.674 : [app_lcl] Localization module '/locale/pl_pl/local_module.pm_fuel.sii' has been applied.
  3306. 00:02:08.676 : [app_lcl] Localization module '/locale/pl_pl/local_module.pm_legend.sii' has been applied.
  3307. 00:02:08.681 : [app_lcl] Localization module '/locale/pl_pl/local_module.pm_states.sii' has been applied.
  3308. 00:02:08.684 : [app_lcl] Localization module '/locale/pl_pl/local_module.pm_ui_msg.sii' has been applied.
  3309. 00:02:12.594 : game /steam/profiles/4B616D696C20274B756E696127204B756E69636B/save/autosave
  3310. 00:02:13.610 : <ERROR> [unit] File '<C:/Users/olmen/Documents/Euro Truck Simulator 2/mod/Scania_S730T_Vlaustin_Ed.scs | >/unit/hookup/vehicle_brakel_noflr.sii', line 3:
  3311. 00:02:13.610 : <ERROR> [unit] The unit name 'flare.vehicle.brakel_noflr' is already taken by an existing unit (of type 'flare_vehicle').
  3312. 00:02:13.610 : <ERROR> Failed to deserialise units from file '<C:/Users/olmen/Documents/Euro Truck Simulator 2/mod/Scania_S730T_Vlaustin_Ed.scs | >/unit/hookup/vehicle_brakel_noflr.sii'.
  3313. 00:02:13.616 : <ERROR> [unit] File '<C:/Users/olmen/Documents/Euro Truck Simulator 2/mod/Scania_lk.scs | >/unit/hookup/vehicle_foguin.sii', line 3:
  3314. 00:02:13.616 : <ERROR> [unit] The unit name 'flare.vehicle.orangel' is already taken by an existing unit (of type 'flare_vehicle').
  3315. 00:02:13.616 : <ERROR> Failed to deserialise units from file '<C:/Users/olmen/Documents/Euro Truck Simulator 2/mod/Scania_lk.scs | >/unit/hookup/vehicle_foguin.sii'.
  3316. 00:02:13.653 : <ERROR> [unit] File '<C:/Users/olmen/Documents/Euro Truck Simulator 2/mod/A5C_-_ACTROS_5_2019_-_BASE.scs | >/unit/hookup/mb_lblinkerl.sii', line 25:
  3317. 00:02:13.653 : <ERROR> Expecting end of file, found 'f'
  3318. 00:02:13.710 : <ERROR> [unit] File '<C:/Users/olmen/Documents/Euro Truck Simulator 2/mod/A5C_-_ACTROS_5_2019_-_BASE.scs | >/unit/hookup/vehicle_brake_ledl.sii', line 3:
  3319. 00:02:13.710 : <ERROR> [unit] The unit name 'flare.vehicle.brake_ledl' is already taken by an existing unit (of type 'flare_vehicle').
  3320. 00:02:13.710 : <ERROR> Failed to deserialise units from file '<C:/Users/olmen/Documents/Euro Truck Simulator 2/mod/A5C_-_ACTROS_5_2019_-_BASE.scs | >/unit/hookup/vehicle_brake_ledl.sii'.
  3321. 00:02:13.717 : <ERROR> [unit] File '<C:/Users/olmen/Documents/Euro Truck Simulator 2/mod/A5C_-_ACTROS_5_2019_-_BASE.scs | >/unit/hookup/vehicle_lblinker_ledl.sii', line 3:
  3322. 00:02:13.717 : <ERROR> [unit] The unit name 'flare.vehicle.lblinkr_ledl' is already taken by an existing unit (of type 'flare_vehicle').
  3323. 00:02:13.717 : <ERROR> Failed to deserialise units from file '<C:/Users/olmen/Documents/Euro Truck Simulator 2/mod/A5C_-_ACTROS_5_2019_-_BASE.scs | >/unit/hookup/vehicle_lblinker_ledl.sii'.
  3324. 00:02:13.719 : <ERROR> [unit] File '<C:/Users/olmen/Documents/Euro Truck Simulator 2/mod/A5C_-_ACTROS_5_2019_-_BASE.scs | >/unit/hookup/vehicle_lblinker_nolgh.sii', line 3:
  3325. 00:02:13.719 : <ERROR> [unit] The unit name 'flare.vehicle.lblink_nolgh' is already taken by an existing unit (of type 'flare_vehicle').
  3326. 00:02:13.719 : <ERROR> Failed to deserialise units from file '<C:/Users/olmen/Documents/Euro Truck Simulator 2/mod/A5C_-_ACTROS_5_2019_-_BASE.scs | >/unit/hookup/vehicle_lblinker_nolgh.sii'.
  3327. 00:02:13.721 : <ERROR> [unit] File '<C:/Users/olmen/Documents/Euro Truck Simulator 2/mod/A5C_-_ACTROS_5_2019_-_BASE.scs | >/unit/hookup/vehicle_orangel.sii', line 3:
  3328. 00:02:13.721 : <ERROR> [unit] The unit name 'flare.vehicle.orangel' is already taken by an existing unit (of type 'flare_vehicle').
  3329. 00:02:13.721 : <ERROR> Failed to deserialise units from file '<C:/Users/olmen/Documents/Euro Truck Simulator 2/mod/A5C_-_ACTROS_5_2019_-_BASE.scs | >/unit/hookup/vehicle_orangel.sii'.
  3330. 00:02:13.723 : <ERROR> [unit] File '<C:/Users/olmen/Documents/Euro Truck Simulator 2/mod/A5C_-_ACTROS_5_2019_-_BASE.scs | >/unit/hookup/vehicle_orangel_nolgh.sii', line 3:
  3331. 00:02:13.723 : <ERROR> [unit] The unit name 'flare.vehicle.orangl_nolgh' is already taken by an existing unit (of type 'flare_vehicle').
  3332. 00:02:13.723 : <ERROR> Failed to deserialise units from file '<C:/Users/olmen/Documents/Euro Truck Simulator 2/mod/A5C_-_ACTROS_5_2019_-_BASE.scs | >/unit/hookup/vehicle_orangel_nolgh.sii'.
  3333. 00:02:13.724 : <ERROR> [unit] File '<C:/Users/olmen/Documents/Euro Truck Simulator 2/mod/A5C_-_ACTROS_5_2019_-_BASE.scs | >/unit/hookup/vehicle_orange_led_l.sii', line 3:
  3334. 00:02:13.724 : <ERROR> [unit] The unit name 'flare.vehicle.orangeledl' is already taken by an existing unit (of type 'flare_vehicle').
  3335. 00:02:13.724 : <ERROR> Failed to deserialise units from file '<C:/Users/olmen/Documents/Euro Truck Simulator 2/mod/A5C_-_ACTROS_5_2019_-_BASE.scs | >/unit/hookup/vehicle_orange_led_l.sii'.
  3336. 00:02:13.731 : <ERROR> [unit] File '<C:/Users/olmen/Documents/Euro Truck Simulator 2/mod/A5C_-_ACTROS_5_2019_-_BASE.scs | >/unit/hookup/vehicle_rblinkerl_ledl.sii', line 3:
  3337. 00:02:13.731 : <ERROR> [unit] The unit name 'flare.vehicle.rblinkr_ledl' is already taken by an existing unit (of type 'flare_vehicle').
  3338. 00:02:13.731 : <ERROR> Failed to deserialise units from file '<C:/Users/olmen/Documents/Euro Truck Simulator 2/mod/A5C_-_ACTROS_5_2019_-_BASE.scs | >/unit/hookup/vehicle_rblinkerl_ledl.sii'.
  3339. 00:02:14.114 : <ERROR> [unit] File '<C:/Users/olmen/Documents/Euro Truck Simulator 2/mod/promods-assets-v255.scs | >/unit/hookup/sign_area_pm_legacy.sii', line 1828:
  3340. 00:02:14.114 : <ERROR> [unit] The unit name 'sign.area.545x484' is already taken by an existing unit (of type 'sign_editable_area').
  3341. 00:02:14.114 : <ERROR> Failed to deserialise units from file '<C:/Users/olmen/Documents/Euro Truck Simulator 2/mod/promods-assets-v255.scs | >/unit/hookup/sign_area_pm_legacy.sii'.
  3342. 00:02:14.574 : <WARNING> Ignoring obsolete attribute 'cabin_pitch_force_scaling_factor' of unit '.phdata' (of type 'physics_data').
  3343. 00:02:14.574 : <WARNING> Ignoring obsolete attribute 'cabin_pitch_damping_factor' of unit '.phdata' (of type 'physics_data').
  3344. 00:02:14.574 : <WARNING> Ignoring obsolete attribute 'cabin_roll_force_scaling_factor' of unit '.phdata' (of type 'physics_data').
  3345. 00:02:14.574 : <WARNING> Ignoring obsolete attribute 'cabin_roll_damping_factor' of unit '.phdata' (of type 'physics_data').
  3346. 00:02:14.576 : [bullet] Starting physics server: Bullet
  3347. 00:02:16.800 : Loaded trailers: 153
  3348. 00:02:17.037 : Loaded traffic trailers of type 'truck_semi': 1137
  3349. 00:02:17.055 : Loaded traffic trailers of type 'truck_long': 1
  3350. 00:02:17.064 : Loaded traffic trailers of type 'train_cargo': 6
  3351. 00:02:17.074 : Loaded traffic trailers of type 'car': 2
  3352. 00:02:17.082 : Loaded traffic trailers of type 'bus': 1
  3353. 00:02:17.087 : Loaded traffic trailers of type 'truck': 0
  3354. 00:02:17.127 : Loaded traffic trailers of type 'tram': 27
  3355. 00:02:17.176 : Loaded traffic trailers of type 'train': 61
  3356. 00:02:17.223 : Loaded traffic trailers of type 'custom': 23
  3357. 00:02:17.230 : Loaded traffic trailers of type 'semi_trailer': 1
  3358. 00:02:17.507 : Loaded traffic vehicles of type 'car': 80
  3359. 00:02:17.518 : Loaded traffic vehicles of type 'car_city': 1
  3360. 00:02:17.569 : Loaded traffic vehicles of type 'car_custom': 30
  3361. 00:02:17.793 : Loaded traffic vehicles of type 'truck': 65
  3362. 00:02:17.855 : Loaded traffic vehicles of type 'truck_light': 12
  3363. 00:02:17.900 : Loaded traffic vehicles of type 'truck_medium': 3
  3364. 00:02:17.923 : Loaded traffic vehicles of type 'truck_long': 5
  3365. 00:02:17.944 : Loaded traffic vehicles of type 'truck_city': 4
  3366. 00:02:17.961 : Loaded traffic vehicles of type 'truck_custom': 3
  3367. 00:02:18.009 : Loaded traffic vehicles of type 'bus': 7
  3368. 00:02:18.014 : Loaded traffic vehicles of type 'bus_city': 0
  3369. 00:02:18.023 : Loaded traffic vehicles of type 'bus_custom': 1
  3370. 00:02:18.068 : Loaded traffic vehicles of type 'tram': 19
  3371. 00:02:18.111 : Loaded traffic vehicles of type 'train': 18
  3372. 00:02:18.167 : Loaded traffic vehicles of type 'train_wire': 34
  3373. 00:02:18.441 : Loaded traffic vehicles of type 'police': 73
  3374. 00:02:18.492 : Loaded traffic vehicles of type 'fire': 22
  3375. 00:02:18.534 : Loaded traffic vehicles of type 'medical': 17
  3376. 00:02:18.546 : Loaded traffic vehicles of type 'escort_front': 1
  3377. 00:02:18.560 : Loaded traffic vehicles of type 'escort_back': 1
  3378. 00:02:18.582 : Loaded traffic vehicles of type 'custom': 8
  3379. 00:02:18.669 : <ERROR> [unit] File '<C:/Users/olmen/Documents/Euro Truck Simulator 2/mod/Scania_S730T_Vlaustin_Ed.scs | >/def/vehicle/addon_hookups/horn.sii', line 2:
  3380. 00:02:18.669 : <ERROR> Included at '<C:/Users/olmen/Documents/Euro Truck Simulator 2/mod/Scania_S730T_Vlaustin_Ed.scs | >/def/vehicle/addon_hookup_storage.s730t.sii', line 2:
  3381. 00:02:18.669 : <ERROR> [unit] The unit name 'horn1.addon_hookup' is already taken by an existing unit (of type 'accessory_horn_hookup_data').
  3382. 00:02:18.669 : <ERROR> load_filtered_unit_array() - Failed to load units from file (/def/vehicle/addon_hookup_storage.s730t.sii)
  3383. 00:02:18.734 : Loaded addon hookups: 820
  3384. 00:02:18.751 : Loading resource server data ....
  3385. 00:02:18.751 : Loading vegetation data ....
  3386. 00:02:18.812 : Loading traffic rule data ....
  3387. 00:02:18.830 : Loading traffic semaphore data ....
  3388. 00:02:18.911 : Loading road data ....
  3389. 00:02:19.045 : Loading terrain data ....
  3390. 00:02:19.287 : Loading railing data ....
  3391. 00:02:19.322 : Loading building data ....
  3392. 00:02:19.468 : Loading model data ....
  3393. 00:02:19.614 : Loading animated models ....
  3394. 00:02:19.725 : Loading prefab data ....
  3395. 00:02:34.741 : [prefab desc] Converting prefab descriptor '/prefab/hw_bm/2x3_oneway_1a_bm.ppd' version 22 to current version (23)
  3396. 00:02:34.812 : [prefab desc] Converting prefab descriptor '/prefab/hw_bm/2x3_oneway_1a_bm_mirror.ppd' version 22 to current version (23)
  3397. 00:02:34.885 : [prefab desc] Converting prefab descriptor '/prefab/hw_bm/2x3_oneway_1b_bm.ppd' version 22 to current version (23)
  3398. 00:02:34.948 : [prefab desc] Converting prefab descriptor '/prefab/hw_bm/2x3_oneway_1b_bm_mirror.ppd' version 22 to current version (23)
  3399. 00:02:35.097 : [prefab desc] Converting prefab descriptor '/prefab/hw_bm/2x3_oneway_1a_bm2_mirror.ppd' version 22 to current version (23)
  3400. 00:02:35.498 : [prefab desc] Converting prefab descriptor '/prefab/land_2/2x1_1a_mirror.ppd' version 22 to current version (23)
  3401. 00:02:45.226 : Loading sign data ....
  3402. 00:02:45.570 : <ERROR> [unit] File '<C:/Users/olmen/Documents/Euro Truck Simulator 2/mod/RusMap-def_v2.3.1.scs | >/def/world/sign.rus.sii':
  3403. 00:02:45.570 : <ERROR> [unit] The unit 'sign.5001' of type 'sign_model' has dangling pointer (to 'traffic_rule.motorway') in the attribute named 'traffic_rule'.
  3404. 00:02:45.570 : <ERROR> [unit] File '<C:/Users/olmen/Documents/Euro Truck Simulator 2/mod/RusMap-def_v2.3.1.scs | >/def/world/sign.rus.sii':
  3405. 00:02:45.570 : <WARNING> [unit] The pointer to 'traffic_rule.motorway' looks like dangling pointer.
  3406. 00:02:45.571 : <ERROR> load_filtered_unit_array() - Failed to load units from file (/def/world/sign.rus.sii)
  3407. 00:02:45.592 : <ERROR> Data error. (/def/world/sign.sii)
  3408. 00:02:45.623 : Loading sign template data ....
  3409. 00:02:45.913 : Loading city data ....
  3410. 00:02:49.480 : Loading country data ....
  3411. 00:02:50.761 : <ERROR> [unit] File '<C:/Users/olmen/Documents/Euro Truck Simulator 2/mod/PM255_RM2.4.1_PR2.5_roadconnectionV2.scs | >/def/country/belarus/traffic.sii':
  3412. 00:02:50.761 : <ERROR> [unit] The unit '_nameless.1a9.87e8.b610' of type 'country_traffic_info' has dangling pointer (to 'traffic.octavia_iii.police') in the attribute named 'object'.
  3413. 00:02:50.761 : <ERROR> [unit] File '<C:/Users/olmen/Documents/Euro Truck Simulator 2/mod/PM255_RM2.4.1_PR2.5_roadconnectionV2.scs | >/def/country/belarus/traffic.sii':
  3414. 00:02:50.761 : <WARNING> [unit] The pointer to 'traffic.octavia_iii.police' looks like dangling pointer.
  3415. 00:02:50.781 : Linking cities with countries ....
  3416. 00:02:50.783 : Loading stamp data ....
  3417. 00:02:50.971 : Loading sound item reverbs ....
  3418. 00:02:50.976 : Loading sound item data ....
  3419. 00:02:50.987 : Loading sound ambient ....
  3420. 00:02:50.992 : Loading live stream data ....
  3421. 00:02:50.994 : Loading movers data ....
  3422. 00:02:57.509 : Loading ferry data ....
  3423. 00:02:57.981 : Loading hinges data ....
  3424. 00:02:57.992 : Loading trigger action data ....
  3425. 00:02:58.022 : Loading cutscene data ....
  3426. 00:02:58.043 : Loading routes data ....
  3427. 00:02:58.053 : Loading overrides ....
  3428. 00:02:58.058 : Loading cargo data ....
  3429. 00:02:58.627 : <WARNING> Ignoring obsolete attribute 'price_coef' of unit 'cargo.schmitz_mull.car_lights' (of type 'cargo_data').
  3430. 00:02:58.628 : <WARNING> Ignoring obsolete attribute 'price_coef' of unit 'cargo.schmitz_mull.teile_auto' (of type 'cargo_data').
  3431. 00:02:58.630 : <WARNING> Ignoring obsolete attribute 'price_coef' of unit 'cargo.schmitz_mull.pcs' (of type 'cargo_data').
  3432. 00:02:58.631 : <WARNING> Ignoring obsolete attribute 'price_coef' of unit 'cargo.schmitz_mull.graphic_card' (of type 'cargo_data').
  3433. 00:02:58.632 : <WARNING> Ignoring obsolete attribute 'price_coef' of unit 'cargo.schmitz_mull.waterbottles' (of type 'cargo_data').
  3434. 00:02:58.634 : <WARNING> Ignoring obsolete attribute 'price_coef' of unit 'cargo.schmitz_mull.luftpost' (of type 'cargo_data').
  3435. 00:02:58.635 : <WARNING> Ignoring obsolete attribute 'price_coef' of unit 'cargo.schmitz_mull.lamps' (of type 'cargo_data').
  3436. 00:02:58.636 : <WARNING> Ignoring obsolete attribute 'price_coef' of unit 'cargo.schmitz_mull.teile_lkw' (of type 'cargo_data').
  3437. 00:02:58.637 : <WARNING> Ignoring obsolete attribute 'price_coef' of unit 'cargo.schmitz_mull.tiere' (of type 'cargo_data').
  3438. 00:02:58.657 : <WARNING> Ignoring obsolete attribute 'price_coef' of unit 'cargo.floppysrb.car_parts' (of type 'cargo_data').
  3439. 00:02:59.620 : <WARNING> Ignoring obsolete attribute 'mass' of unit '.schmitz_mull' (of type 'trailer_def').
  3440. 00:02:59.620 : <WARNING> Ignoring obsolete attribute 'cog_height_offset' of unit '.schmitz_mull' (of type 'trailer_def').
  3441. 00:02:59.620 : <ERROR> Skipping trailer - definition must not be nameless! File: /def/cargo/car_lights/schmitz_mull.sii
  3442. 00:02:59.620 : <WARNING> Cargo 'car_lights' is not compatible with any trailer and will be ignored. (name: Autolampen)
  3443. 00:02:59.623 : <WARNING> Ignoring obsolete attribute 'mass' of unit '.schmitz_mull' (of type 'trailer_def').
  3444. 00:02:59.623 : <WARNING> Ignoring obsolete attribute 'cog_height_offset' of unit '.schmitz_mull' (of type 'trailer_def').
  3445. 00:02:59.623 : <ERROR> Skipping trailer - definition must not be nameless! File: /def/cargo/teile_auto/schmitz_mull.sii
  3446. 00:02:59.623 : <WARNING> Cargo 'teile_auto' is not compatible with any trailer and will be ignored. (name: Autoteile)
  3447. 00:02:59.626 : <WARNING> Ignoring obsolete attribute 'mass' of unit '.schmitz_mull' (of type 'trailer_def').
  3448. 00:02:59.626 : <WARNING> Ignoring obsolete attribute 'cog_height_offset' of unit '.schmitz_mull' (of type 'trailer_def').
  3449. 00:02:59.626 : <ERROR> Skipping trailer - definition must not be nameless! File: /def/cargo/pcs/schmitz_mull.sii
  3450. 00:02:59.626 : <WARNING> Cargo 'pcs' is not compatible with any trailer and will be ignored. (name: Computer)
  3451. 00:02:59.629 : <WARNING> Ignoring obsolete attribute 'mass' of unit '.schmitz_mull' (of type 'trailer_def').
  3452. 00:02:59.629 : <WARNING> Ignoring obsolete attribute 'cog_height_offset' of unit '.schmitz_mull' (of type 'trailer_def').
  3453. 00:02:59.629 : <ERROR> Skipping trailer - definition must not be nameless! File: /def/cargo/graphic_card/schmitz_mull.sii
  3454. 00:02:59.629 : <WARNING> Cargo 'graphic_card' is not compatible with any trailer and will be ignored. (name: Grafikkarten)
  3455. 00:02:59.632 : <WARNING> Ignoring obsolete attribute 'mass' of unit '.schmitz_mull' (of type 'trailer_def').
  3456. 00:02:59.632 : <WARNING> Ignoring obsolete attribute 'cog_height_offset' of unit '.schmitz_mull' (of type 'trailer_def').
  3457. 00:02:59.632 : <ERROR> Skipping trailer - definition must not be nameless! File: /def/cargo/waterbottles/schmitz_mull.sii
  3458. 00:02:59.632 : <WARNING> Cargo 'waterbottles' is not compatible with any trailer and will be ignored. (name: Wasserflaschen)
  3459. 00:02:59.634 : <WARNING> Ignoring obsolete attribute 'mass' of unit '.schmitz_mull' (of type 'trailer_def').
  3460. 00:02:59.634 : <WARNING> Ignoring obsolete attribute 'cog_height_offset' of unit '.schmitz_mull' (of type 'trailer_def').
  3461. 00:02:59.634 : <ERROR> Skipping trailer - definition must not be nameless! File: /def/cargo/luftpost/schmitz_mull.sii
  3462. 00:02:59.634 : <WARNING> Cargo 'luftpost' is not compatible with any trailer and will be ignored. (name: Luftpost)
  3463. 00:02:59.637 : <WARNING> Ignoring obsolete attribute 'mass' of unit '.schmitz_mull' (of type 'trailer_def').
  3464. 00:02:59.637 : <WARNING> Ignoring obsolete attribute 'cog_height_offset' of unit '.schmitz_mull' (of type 'trailer_def').
  3465. 00:02:59.637 : <ERROR> Skipping trailer - definition must not be nameless! File: /def/cargo/lamps/schmitz_mull.sii
  3466. 00:02:59.637 : <WARNING> Cargo 'lamps' is not compatible with any trailer and will be ignored. (name: Lampen)
  3467. 00:02:59.640 : <WARNING> Ignoring obsolete attribute 'mass' of unit '.schmitz_mull' (of type 'trailer_def').
  3468. 00:02:59.640 : <WARNING> Ignoring obsolete attribute 'cog_height_offset' of unit '.schmitz_mull' (of type 'trailer_def').
  3469. 00:02:59.640 : <ERROR> Skipping trailer - definition must not be nameless! File: /def/cargo/teile_lkw/schmitz_mull.sii
  3470. 00:02:59.640 : <WARNING> Cargo 'teile_lkw' is not compatible with any trailer and will be ignored. (name: LKW-Teile)
  3471. 00:02:59.643 : <WARNING> Ignoring obsolete attribute 'mass' of unit '.schmitz_mull' (of type 'trailer_def').
  3472. 00:02:59.643 : <WARNING> Ignoring obsolete attribute 'cog_height_offset' of unit '.schmitz_mull' (of type 'trailer_def').
  3473. 00:02:59.643 : <ERROR> Skipping trailer - definition must not be nameless! File: /def/cargo/tiere/schmitz_mull.sii
  3474. 00:02:59.643 : <WARNING> Cargo 'tiere' is not compatible with any trailer and will be ignored. (name: Kuscheltiere)
  3475. 00:02:59.646 : <WARNING> Ignoring obsolete attribute 'mass' of unit '.floppysrb' (of type 'trailer_def').
  3476. 00:02:59.646 : <WARNING> Ignoring obsolete attribute 'cog_height_offset' of unit '.floppysrb' (of type 'trailer_def').
  3477. 00:02:59.646 : <ERROR> Skipping trailer - definition must not be nameless! File: /def/cargo/car_parts/floppysrb.sii
  3478. 00:02:59.646 : <WARNING> Cargo 'car_parts' is not compatible with any trailer and will be ignored. (name: delovi za automobile )
  3479. 00:02:59.968 : Loading company cargo data ....
  3480. 00:04:10.108 : Loading unlock data ....
  3481. 00:04:10.128 : Loading oversize offer data ....
  3482. 00:04:11.846 : Map '/map/europe.mbd' loading started ....
  3483. 00:04:15.794 : <ERROR> Unable to find 'Sign' '5128' for 0x1F3B5880950EB67
  3484. 00:04:15.794 : <ERROR> Unable to find 'Sign' '5111' for 0x1F3B5881A60EB83
  3485. 00:04:15.794 : <ERROR> Unable to find 'Sign' '5111' for 0x1F3B58821D0E97B
  3486. 00:04:15.794 : <ERROR> Unable to find 'Sign' '5110' for 0x1F3B5882ED0EAA9
  3487. 00:04:15.794 : <ERROR> Unable to find 'Sign' '5107' for 0x1F3B5883E00EA9B
  3488. 00:04:15.794 : <ERROR> Unable to find 'Sign' '5023' for 0x1F3B58843A0EB81
  3489. 00:04:15.794 : <ERROR> Unable to find 'Sign' '5111' for 0x1F3B58847D0E99D
  3490. 00:04:15.795 : <ERROR> Unable to find 'Sign' '5023' for 0x1F3B5888230EB5B
  3491. 00:04:15.795 : <ERROR> Unable to find 'Sign' '5114' for 0x1F3B58882B0E987
  3492. 00:04:15.795 : <ERROR> Unable to find 'Sign' '5110' for 0x1F3B5889B00EB65
  3493. 00:04:15.795 : <ERROR> Unable to find 'Sign' '5110' for 0x1F3B588A3C0E999
  3494. 00:04:15.795 : <ERROR> Unable to find 'Sign' '5127' for 0x1F3B588A3E0EB41
  3495. 00:04:15.795 : <ERROR> Unable to find 'Sign' '5154' for 0x1F3B588B040EA7B
  3496. 00:04:15.795 : <ERROR> Unable to find 'Sign' '5127' for 0x1F3B588B450EB85
  3497. 00:04:15.795 : <ERROR> Unable to find 'Sign' '5107' for 0x1F3B588B8B0EB7D
  3498. 00:04:15.795 : <ERROR> Unable to find 'Sign' '5158' for 0x1F3B588BB10E7B3
  3499. 00:04:15.795 : <ERROR> Unable to find 'Sign' '5107' for 0x1F3B588BE40E9E1
  3500. 00:04:15.795 : <ERROR> Unable to find 'Sign' '5110' for 0x1F3B588BFA0EAC5
  3501. 00:04:15.795 : <ERROR> Unable to find 'Sign' '5107' for 0x1F3B588C9A0E989
  3502. 00:04:15.795 : <ERROR> Unable to find 'Sign' '5023' for 0x1F3B588E1A0EB8B
  3503. 00:04:15.795 : <ERROR> Unable to find 'Sign' '5165' for 0x1F3B588E760EB23
  3504. 00:04:15.795 : <ERROR> Unable to find 'Sign' '5107' for 0x1F3B588ED90EA7F
  3505. 00:04:15.795 : <ERROR> Unable to find 'Sign' '5111' for 0x1F3B588FC20EB13
  3506. 00:04:15.795 : <ERROR> Unable to find 'Sign' '5165' for 0x23EEFDF30000C92
  3507. 00:04:15.796 : <ERROR> Unable to find 'Sign' '5166' for 0x23EEFF12D700C93
  3508. 00:04:15.796 : <ERROR> Unable to find 'Sign' '5023' for 0x23F172032B00E1E
  3509. 00:04:15.796 : <ERROR> Unable to find 'Sign' '5023' for 0x23F177EB0C00E27
  3510. 00:04:15.796 : <ERROR> Unable to find 'Sign' '5165' for 0x354815ED3100000
  3511. 00:04:15.796 : <ERROR> Unable to find 'Sign' '5166' for 0x354816722A00000
  3512. 00:04:15.796 : <ERROR> Unable to find 'Sign' '5165' for 0x354817E68200001
  3513. 00:04:15.796 : <ERROR> Unable to find 'Sign' '5166' for 0x354817EF5C00000
  3514. 00:04:15.796 : <ERROR> Unable to find 'Sign' '5165' for 0x354822665300001
  3515. 00:04:15.796 : <ERROR> Unable to find 'Sign' '5166' for 0x3548226CB200000
  3516. 00:04:15.796 : <ERROR> Unable to find 'Sign' '5083' for 0x432514E01F00000
  3517. 00:04:15.796 : <ERROR> Unable to find 'Sign' '5155' for 0x43252BE38B00046
  3518. 00:04:15.796 : <ERROR> Unable to find 'Sign' '5155' for 0x43252BEA1A00048
  3519. 00:04:15.796 : <ERROR> Unable to find 'Sign' '5110' for 0x51CDDF774600001
  3520. 00:04:15.796 : <ERROR> Unable to find 'Sign' '5111' for 0x51CDDFF0B200001
  3521. 00:04:15.796 : <ERROR> Unable to find 'Sign' '5107' for 0x51CDE0908700001
  3522. 00:04:15.796 : <ERROR> Unable to find 'Sign' '5107' for 0x32241BDC2AC00002
  3523. 00:04:15.796 : <ERROR> Unable to find 'Sign' '5111' for 0x32241BDC38000000
  3524. 00:04:15.796 : <ERROR> Unable to find 'Sign' '5110' for 0x32241BDCDCC00001
  3525. 00:04:15.809 : <ERROR> Unable to find 'Sign' '5110' for 0x315161E47C800001
  3526. 00:04:15.810 : <ERROR> Unable to find 'Sign' '5111' for 0x316B4F78A0C00001
  3527. 00:04:15.810 : <ERROR> Unable to find 'Sign' '5110' for 0x316B4FF869400001
  3528. 00:04:15.810 : <ERROR> Unable to find 'Sign' '5107' for 0x316B50B87A400001
  3529. 00:04:15.811 : <ERROR> Unable to find 'Sign' '5002' for 0x31E0BBD4A7C00001
  3530. 00:04:15.811 : <ERROR> Unable to find 'Sign' '5111' for 0x31EB1B18E0400001
  3531. 00:04:15.811 : <ERROR> Unable to find 'Sign' '5107' for 0x31EB1C3821800001
  3532. 00:04:15.846 : <ERROR> Unable to find 'Sign' '5023' for 0x23EE850A6C00C33
  3533. 00:04:15.846 : <ERROR> Unable to find 'Sign' '5111' for 0x23F15EAD1000E05
  3534. 00:04:15.846 : <ERROR> Unable to find 'Sign' '5110' for 0x23F15F927C00E07
  3535. 00:04:15.847 : <ERROR> Unable to find 'Sign' '5023' for 0x23F16389F000E0D
  3536. 00:04:15.847 : <ERROR> Unable to find 'Sign' '5128' for 0x23F16CE05800E1A
  3537. 00:04:15.847 : <ERROR> Unable to find 'Sign' '5023' for 0x23F1CAF69000E60
  3538. 00:04:15.847 : <ERROR> Unable to find 'Sign' '5023' for 0x23F1D8380300E72
  3539. 00:04:15.847 : <ERROR> Unable to find 'Sign' '5127' for 0x432456716600001
  3540. 00:04:15.847 : <ERROR> Unable to find 'Sign' '5128' for 0x432462C40300001
  3541. 00:04:15.847 : <ERROR> Unable to find 'Sign' '5001' for 0x432505906600001
  3542. 00:04:15.847 : <ERROR> Unable to find 'Sign' '5472rus' for 0x4328426B8900001
  3543. 00:04:15.847 : <ERROR> Unable to find 'Sign' '5471rus' for 0x4328459E0D00001
  3544. 00:04:15.847 : <ERROR> Unable to find 'Sign' '5471rus' for 0x432846E4BF00000
  3545. 00:04:15.847 : <ERROR> Unable to find 'Sign' '5472rus' for 0x43284766CF00000
  3546. 00:04:15.951 : <ERROR> Unable to find 'Sign' '5032' for 0x34B3493C800000E3
  3547. 00:04:15.951 : <ERROR> Unable to find 'Sign' '5032' for 0x34B3A5E886400038
  3548. 00:04:15.952 : <ERROR> Unable to find 'Sign' '5028' for 0x3608E7348D800001
  3549. 00:04:15.955 : <ERROR> Unable to find 'Sign' '5121' for 0x30A18270C84000A7
  3550. 00:04:15.955 : <ERROR> Unable to find 'Sign' '5121' for 0x30A18270EE8000AE
  3551. 00:04:15.955 : <ERROR> Unable to find 'Sign' '5023' for 0x30A18270EF4000B3
  3552. 00:04:15.956 : <ERROR> Unable to find 'Sign' '5002' for 0x35C04AD059000114
  3553. 00:04:15.956 : <ERROR> Unable to find 'Sign' '5633rus' for 0x35C04AD0CB800117
  3554. 00:04:15.960 : <ERROR> Unable to find 'Sign' '5392rus' for 0x2CD5C4A87EC00067
  3555. 00:04:15.960 : <ERROR> Unable to find 'Sign' '5391rus' for 0x2CD5C4A87EC0006B
  3556. 00:04:15.960 : <ERROR> Unable to find 'Sign' '5392rus' for 0x2CD5C4A88A800043
  3557. 00:04:15.960 : <ERROR> Unable to find 'Sign' '5391rus' for 0x2CD5C4A8F2800047
  3558. 00:04:15.961 : <ERROR> Unable to find 'Sign' '5339rus' for 0x2CE364003900019A
  3559. 00:04:15.961 : <ERROR> Unable to find 'Sign' '5336rus' for 0x2CE364005000015C
  3560. 00:04:15.961 : <ERROR> Unable to find 'Sign' '5339rus' for 0x2CE3640068C0010E
  3561. 00:04:15.961 : <ERROR> Unable to find 'Sign' '5338rus' for 0x2CE3640087400150
  3562. 00:04:15.961 : <ERROR> Unable to find 'Sign' '5338rus' for 0x2CE364009A400195
  3563. 00:04:15.961 : <ERROR> Unable to find 'Sign' '5023' for 0x2CE36400B2C0018F
  3564. 00:04:15.961 : <ERROR> Unable to find 'Sign' '5337rus' for 0x2CE36400CC800185
  3565. 00:04:15.968 : <ERROR> Unable to find 'Sign' '5002' for 0x260A79F856400001
  3566. 00:04:15.968 : <ERROR> Unable to find 'Sign' '5633rus' for 0x260A7AD00A800001
  3567. 00:04:15.968 : <ERROR> Unable to find 'Sign' '5002' for 0x260A7EF01C400001
  3568. 00:04:15.969 : <ERROR> Unable to find 'Sign' '5633rus' for 0x260A84649EC00001
  3569. 00:04:15.971 : <ERROR> Unable to find 'Sign' '5700rus' for 0x241A96E023800001
  3570. 00:04:15.971 : <ERROR> Unable to find 'Sign' '5701rus' for 0x241A9748D1400001
  3571. 00:04:15.971 : <ERROR> Unable to find 'Sign' '5700rus' for 0x241A97BC61C00001
  3572. 00:04:15.971 : <ERROR> Unable to find 'Sign' '5701rus' for 0x241A98283B800001
  3573. 00:04:15.979 : <ERROR> Unable to find 'Sign' '5107' for 0x3E47C25142002F3
  3574. 00:04:15.979 : <ERROR> Unable to find 'Sign' '5110' for 0x3E47C2519A000E9
  3575. 00:04:15.979 : <ERROR> Unable to find 'Sign' '5023' for 0x3E47C251FF00306
  3576. 00:04:15.979 : <ERROR> Unable to find 'Sign' '5023' for 0x3E47C252D800212
  3577. 00:04:15.979 : <ERROR> Unable to find 'Sign' '5207' for 0x3E47C253A000372
  3578. 00:04:15.979 : <ERROR> Unable to find 'Sign' '5110' for 0x3E47C2551800119
  3579. 00:04:15.979 : <ERROR> Unable to find 'Sign' '5107' for 0x3E47C25797000C6
  3580. 00:04:15.979 : <ERROR> Unable to find 'Sign' '5023' for 0x3E47C258C7003A1
  3581. 00:04:15.979 : <ERROR> Unable to find 'Sign' '5001' for 0x3E47C2594300367
  3582. 00:04:15.979 : <ERROR> Unable to find 'Sign' '5207' for 0x3E47C259C50011A
  3583. 00:04:15.979 : <ERROR> Unable to find 'Sign' '5208' for 0x3E47C25B3400192
  3584. 00:04:15.979 : <ERROR> Unable to find 'Sign' '5208' for 0x3E47C25B6A00304
  3585. 00:04:15.979 : <ERROR> Unable to find 'Sign' '5207' for 0x3E47C25DA4000BC
  3586. 00:04:15.979 : <ERROR> Unable to find 'Sign' '5207' for 0x3E47C25DAF00216
  3587. 00:04:15.979 : <ERROR> Unable to find 'Sign' '5111' for 0x3E47C25DB60008C
  3588. 00:04:15.980 : <ERROR> Unable to find 'Sign' '5023' for 0x3E47C25E910012A
  3589. 00:04:15.980 : <ERROR> Unable to find 'Sign' '5208' for 0x3E47C25EA7001EB
  3590. 00:04:15.980 : <ERROR> Unable to find 'Sign' '5023' for 0x3E504BBC520030B
  3591. 00:04:15.980 : <ERROR> Unable to find 'Sign' '5002' for 0x33199A9C70400001
  3592. 00:04:15.980 : <ERROR> Unable to find 'Sign' '5002' for 0x331F7BFCA6C00001
  3593. 00:04:15.980 : <ERROR> Unable to find 'Sign' '5002' for 0x331F8FFC17800000
  3594. 00:04:15.980 : <ERROR> Unable to find 'Sign' '5673rus' for 0x331FE9344C000001
  3595. 00:04:15.980 : <ERROR> Unable to find 'Sign' '5673rus' for 0x331FEF78C2C00001
  3596. 00:04:15.980 : <ERROR> Unable to find 'Sign' '5673rus' for 0x331FF4789B400001
  3597. 00:04:15.981 : <ERROR> Unable to find 'Sign' '5673rus' for 0x350C141C05400001
  3598. 00:04:15.981 : <ERROR> Unable to find 'Sign' '5633rus' for 0x3542192891000001
  3599. 00:04:15.981 : <ERROR> Unable to find 'Sign' '5028' for 0x3608E28CE3C00001
  3600. 00:04:15.984 : <ERROR> Unable to find 'Sign' '5023' for 0x3E47C2503D0002E
  3601. 00:04:15.984 : <ERROR> Unable to find 'Sign' '5023' for 0x3E47C258F200025
  3602. 00:04:15.984 : <ERROR> Unable to find 'Sign' '5208' for 0x3E47C2599A00009
  3603. 00:04:15.984 : <ERROR> Unable to find 'Sign' '5107' for 0x3E47C259E400004
  3604. 00:04:15.984 : <ERROR> Unable to find 'Sign' '5111' for 0x3E47C25B9C00033
  3605. 00:04:15.984 : <ERROR> Unable to find 'Sign' '5023' for 0x3E504BB17B001DD
  3606. 00:04:15.984 : <ERROR> Unable to find 'Sign' '5330rus' for 0x3E504BB594001CF
  3607. 00:04:15.984 : <ERROR> Unable to find 'Sign' '5329rus' for 0x3E504BB69700082
  3608. 00:04:15.985 : <ERROR> Unable to find 'Sign' '5023' for 0x3E504BB69A0021C
  3609. 00:04:15.985 : <ERROR> Unable to find 'Sign' '5119' for 0x3E504BB74B0024D
  3610. 00:04:15.985 : <ERROR> Unable to find 'Sign' '5329rus' for 0x3E504BB750001DB
  3611. 00:04:15.985 : <ERROR> Unable to find 'Sign' '5127' for 0x3E504BB78300202
  3612. 00:04:15.985 : <ERROR> Unable to find 'Sign' '5023' for 0x3E504BB7D5001C5
  3613. 00:04:15.985 : <ERROR> Unable to find 'Sign' '5023' for 0x3E504BB8C500050
  3614. 00:04:15.985 : <ERROR> Unable to find 'Sign' '5023' for 0x3E504BB96F00219
  3615. 00:04:15.985 : <ERROR> Unable to find 'Sign' '5330rus' for 0x3E504BBB89000EE
  3616. 00:04:15.985 : <ERROR> Unable to find 'Sign' '5023' for 0x3E504BBC2600261
  3617. 00:04:15.985 : <ERROR> Unable to find 'Sign' '5023' for 0x3E504BBC93001AB
  3618. 00:04:15.985 : <ERROR> Unable to find 'Sign' '5023' for 0x3E504BBDFA001D3
  3619. 00:04:15.985 : <ERROR> Unable to find 'Sign' '5023' for 0x3E504BBF40001FA
  3620. 00:04:15.985 : <ERROR> Unable to find 'Sign' '5118' for 0x3E504BBF8E0025F
  3621. 00:04:15.985 : <ERROR> Unable to find 'Sign' '5076' for 0x30B0880083C00001
  3622. 00:04:16.254 : <ERROR> Unable to find 'Sign' '5023' for 0x3E060C101F00020
  3623. 00:04:16.255 : <ERROR> Unable to find 'Sign' '5110' for 0x3E060C118E00246
  3624. 00:04:16.255 : <ERROR> Unable to find 'Sign' '5110' for 0x3E060C11CF00171
  3625. 00:04:16.255 : <ERROR> Unable to find 'Sign' '5107' for 0x3E060C1307000C2
  3626. 00:04:16.255 : <ERROR> Unable to find 'Sign' '5111' for 0x3E060C137E00247
  3627. 00:04:16.255 : <ERROR> Unable to find 'Sign' '5023' for 0x3E060C140800186
  3628. 00:04:16.255 : <ERROR> Unable to find 'Sign' '5110' for 0x3E060C142600006
  3629. 00:04:16.255 : <ERROR> Unable to find 'Sign' '5258rus' for 0x3E060C14F900023
  3630. 00:04:16.255 : <ERROR> Unable to find 'Sign' '5107' for 0x3E060C14FC00037
  3631. 00:04:16.255 : <ERROR> Unable to find 'Sign' '5023' for 0x3E060C160900011
  3632. 00:04:16.255 : <ERROR> Unable to find 'Sign' '5111' for 0x3E060C16F30016F
  3633. 00:04:16.255 : <ERROR> Unable to find 'Sign' '5124' for 0x3E060C17BA00019
  3634. 00:04:16.255 : <ERROR> Unable to find 'Sign' '5124' for 0x3E060C18A800005
  3635. 00:04:16.255 : <ERROR> Unable to find 'Sign' '5107' for 0x3E060C1909001D4
  3636. 00:04:16.255 : <ERROR> Unable to find 'Sign' '5259rus' for 0x3E060C1A6D00039
  3637. 00:04:16.255 : <ERROR> Unable to find 'Sign' '5111' for 0x3E060C1AA700170
  3638. 00:04:16.255 : <ERROR> Unable to find 'Sign' '5111' for 0x3E060C1B6900047
  3639. 00:04:16.256 : <ERROR> Unable to find 'Sign' '5107' for 0x3E060C1B760016D
  3640. 00:04:16.256 : <ERROR> Unable to find 'Sign' '5110' for 0x3E060C1C3D00036
  3641. 00:04:16.256 : <ERROR> Unable to find 'Sign' '5110' for 0x3E060C1E4A0016E
  3642. 00:04:16.256 : <ERROR> Unable to find 'Sign' '5107' for 0x3E060C1FFE00172
  3643. 00:04:16.256 : <ERROR> Unable to find 'Sign' '5128' for 0x3E0A21FBC70004D
  3644. 00:04:16.256 : <ERROR> Unable to find 'Sign' '5128' for 0x3E10AC025A00001
  3645. 00:04:16.256 : <ERROR> Unable to find 'Sign' '5023' for 0x3E10B16E6F00001
  3646. 00:04:16.256 : <ERROR> Unable to find 'Sign' '5127' for 0x3E10B3330A00001
  3647. 00:04:16.258 : <ERROR> Unable to find 'Sign' '5465rus' for 0x41FAFDCEF400001
  3648. 00:04:16.258 : <ERROR> Unable to find 'Sign' '5466rus' for 0x41FAFE032700001
  3649. 00:04:16.258 : <ERROR> Unable to find 'Sign' '5001' for 0x430F5ECCBA00001
  3650. 00:04:16.258 : <ERROR> Unable to find 'Sign' '5001' for 0x430F5F1A1600001
  3651. 00:04:16.258 : <ERROR> Unable to find 'Sign' '5023' for 0x4328FCCF820019F
  3652. 00:04:16.261 : <ERROR> Unable to find 'Sign' '5110' for 0x41EA4B479600001
  3653. 00:04:16.261 : <ERROR> Unable to find 'Sign' '5111' for 0x41EA4C0C7400001
  3654. 00:04:16.261 : <ERROR> Unable to find 'Sign' '5107' for 0x41EA4C560300001
  3655. 00:04:16.261 : <ERROR> Unable to find 'Sign' '5465rus' for 0x41FA6B94F200001
  3656. 00:04:16.261 : <ERROR> Unable to find 'Sign' '5466rus' for 0x41FA6BEB5800001
  3657. 00:04:16.261 : <ERROR> Unable to find 'Sign' '5466rus' for 0x41FA6CE26F00001
  3658. 00:04:16.261 : <ERROR> Unable to find 'Sign' '5465rus' for 0x41FA6E3F3400001
  3659. 00:04:16.261 : <ERROR> Unable to find 'Sign' '5465rus' for 0x41FA6FEC2000001
  3660. 00:04:16.261 : <ERROR> Unable to find 'Sign' '5466rus' for 0x41FA7033DD00001
  3661. 00:04:16.261 : <ERROR> Unable to find 'Sign' '5467rus' for 0x41FB2558E900001
  3662. 00:04:16.261 : <ERROR> Unable to find 'Sign' '5468rus' for 0x41FB2662E900001
  3663. 00:04:16.261 : <ERROR> Unable to find 'Sign' '5468rus' for 0x41FB2708D700001
  3664. 00:04:16.261 : <ERROR> Unable to find 'Sign' '5467rus' for 0x41FB278FBB00000
  3665. 00:04:16.261 : <ERROR> Unable to find 'Sign' '5110' for 0x41FC71BD2100001
  3666. 00:04:16.261 : <ERROR> Unable to find 'Sign' '5110' for 0x41FC73FB2F00000
  3667. 00:04:16.262 : <ERROR> Unable to find 'Sign' '5111' for 0x41FC74C2DA00001
  3668. 00:04:16.262 : <ERROR> Unable to find 'Sign' '5107' for 0x41FC75FEA800001
  3669. 00:04:16.262 : <ERROR> Unable to find 'Sign' '5110' for 0x41FC7698F300001
  3670. 00:04:16.262 : <ERROR> Unable to find 'Sign' '5111' for 0x41FC7740A500001
  3671. 00:04:16.262 : <ERROR> Unable to find 'Sign' '5110' for 0x41FC7AA72400000
  3672. 00:04:16.262 : <ERROR> Unable to find 'Sign' '5111' for 0x41FC7B374500000
  3673. 00:04:16.262 : <ERROR> Unable to find 'Sign' '5107' for 0x41FC8A749A00000
  3674. 00:04:16.262 : <ERROR> Unable to find 'Sign' '5110' for 0x41FC8B408300000
  3675. 00:04:16.262 : <ERROR> Unable to find 'Sign' '5001' for 0x41FCB5A79B00001
  3676. 00:04:16.265 : <ERROR> Unable to find 'Sign' '5638rus' for 0x2F11D15006800001
  3677. 00:04:16.265 : <ERROR> Unable to find 'Sign' '5006' for 0x2F11D510ACC00001
  3678. 00:04:16.265 : <ERROR> Unable to find 'Sign' '5006' for 0x2F11D53469000001
  3679. 00:04:16.276 : <ERROR> Unable to find 'Sign' '5525rus' for 0x2CEDB6B00440001F
  3680. 00:04:16.276 : <ERROR> Unable to find 'Sign' '5524rus' for 0x2CEDB6B05C800095
  3681. 00:04:16.276 : <ERROR> Unable to find 'Sign' '5526rus' for 0x2CEDB6B08200011C
  3682. 00:04:16.276 : <ERROR> Unable to find 'Sign' '5527rus' for 0x2CEDB6B089C00127
  3683. 00:04:16.276 : <ERROR> Unable to find 'Sign' '5524rus' for 0x2CEDB6B0A7000026
  3684. 00:04:16.276 : <ERROR> Unable to find 'Sign' '5525rus' for 0x2CEDB6B0CB400094
  3685. 00:04:16.277 : <ERROR> Unable to find 'Sign' '5523rus' for 0x2CEE757C13000119
  3686. 00:04:16.277 : <ERROR> Unable to find 'Sign' '5523rus' for 0x2CEE757CA240005B
  3687. 00:04:16.277 : <ERROR> Unable to find 'Sign' '5521rus' for 0x2CEE757CD4000057
  3688. 00:04:16.277 : <ERROR> Unable to find 'Sign' '5521rus' for 0x2CEE757CD9000117
  3689. 00:04:16.281 : <ERROR> Unable to find 'Sign' '5519rus' for 0x2CEECD2CE0C00009
  3690. 00:04:16.281 : <ERROR> Unable to find 'Sign' '5111' for 0x2CF2D6905F8001CE
  3691. 00:04:16.281 : <ERROR> Unable to find 'Sign' '5107' for 0x2CF2D690C64001BD
  3692. 00:04:16.281 : <ERROR> Unable to find 'Sign' '5110' for 0x2CF2D690F68001E3
  3693. 00:04:16.282 : <ERROR> Unable to find 'Sign' '5520rus' for 0x2CF48134D9400001
  3694. 00:04:16.282 : <ERROR> Unable to find 'Sign' '5110' for 0x2CF4C3043F000044
  3695. 00:04:16.282 : <ERROR> Unable to find 'Sign' '5107' for 0x2CF4C304BA40003E
  3696. 00:04:16.282 : <ERROR> Unable to find 'Sign' '5111' for 0x2CF4C304F3400005
  3697. 00:04:16.282 : <ERROR> Unable to find 'Sign' '5107' for 0x2CF73F0001C0007F
  3698. 00:04:16.282 : <ERROR> Unable to find 'Sign' '5519rus' for 0x2CF73F0011000002
  3699. 00:04:16.282 : <ERROR> Unable to find 'Sign' '5111' for 0x2CF73F009F80001C
  3700. 00:04:16.282 : <ERROR> Unable to find 'Sign' '5110' for 0x2CF73F00A9400017
  3701. 00:04:16.282 : <ERROR> Unable to find 'Sign' '5520rus' for 0x2CF73F00D8400003
  3702. 00:04:16.285 : <ERROR> Unable to find 'Sign' '5023' for 0x3E060C1768002FC
  3703. 00:04:16.285 : <ERROR> Unable to find 'Sign' '5023' for 0x3E060C1DD900293
  3704. 00:04:16.285 : <ERROR> Unable to find 'Sign' '5023' for 0x3E060C1FF100275
  3705. 00:04:16.285 : <ERROR> Unable to find 'Sign' '5110' for 0x3E06534342000A5
  3706. 00:04:16.285 : <ERROR> Unable to find 'Sign' '5127' for 0x3E07ACDB3600082
  3707. 00:04:16.285 : <ERROR> Unable to find 'Sign' '5023' for 0x3E07C2F9C600049
  3708. 00:04:16.285 : <ERROR> Unable to find 'Sign' '5127' for 0x3E08E4246800001
  3709. 00:04:16.285 : <ERROR> Unable to find 'Sign' '5023' for 0x3E08E5888900001
  3710. 00:04:16.285 : <ERROR> Unable to find 'Sign' '5023' for 0x3E08FB9AD800001
  3711. 00:04:16.285 : <ERROR> Unable to find 'Sign' '5128' for 0x3E08FE117900001
  3712. 00:04:16.286 : <ERROR> Unable to find 'Sign' '5127' for 0x3E08FE82D900001
  3713. 00:04:16.286 : <ERROR> Unable to find 'Sign' '5128' for 0x3E0904294100001
  3714. 00:04:16.288 : <ERROR> Unable to find 'Sign' '5495rus' for 0x455D9155ED00017
  3715. 00:04:16.288 : <ERROR> Unable to find 'Sign' '5495rus' for 0x460B2881ED00001
  3716. 00:04:16.288 : <ERROR> Unable to find 'Sign' '5494rus' for 0x460B29327800001
  3717. 00:04:16.288 : <ERROR> Unable to find 'Sign' '5494rus' for 0x460B2BC18900001
  3718. 00:04:16.288 : <ERROR> Unable to find 'Sign' '5493rus' for 0x460B2E942000001
  3719. 00:04:16.288 : <ERROR> Unable to find 'Sign' '5492rus' for 0x460B2EE58800001
  3720. 00:04:16.288 : <ERROR> Unable to find 'Sign' '5492rus' for 0x460B30062300001
  3721. 00:04:16.288 : <ERROR> Unable to find 'Sign' '5493rus' for 0x460B307C5700001
  3722. 00:04:16.290 : <ERROR> Unable to find 'Sign' '5107' for 0x41AC61A0EB001C0
  3723. 00:04:16.290 : <ERROR> Unable to find 'Sign' '5111' for 0x41AC61A1E800251
  3724. 00:04:16.290 : <ERROR> Unable to find 'Sign' '5107' for 0x41AC61A201000F6
  3725. 00:04:16.290 : <ERROR> Unable to find 'Sign' '5110' for 0x41AC61A29500385
  3726. 00:04:16.290 : <ERROR> Unable to find 'Sign' '5111' for 0x41AC61A3B500369
  3727. 00:04:16.290 : <ERROR> Unable to find 'Sign' '5111' for 0x41AC61A59800179
  3728. 00:04:16.291 : <ERROR> Unable to find 'Sign' '5110' for 0x41AC61A654002DA
  3729. 00:04:16.291 : <ERROR> Unable to find 'Sign' '5107' for 0x41AC61A7B8002A7
  3730. 00:04:16.291 : <ERROR> Unable to find 'Sign' '5110' for 0x41AC61A97A0013E
  3731. 00:04:16.291 : <ERROR> Unable to find 'Sign' '5023' for 0x41AC61AA6400100
  3732. 00:04:16.291 : <ERROR> Unable to find 'Sign' '5023' for 0x41AC61AE0C000F0
  3733. 00:04:16.291 : <ERROR> Unable to find 'Sign' '5107' for 0x41AC61AF4B00271
  3734. 00:04:16.291 : <ERROR> Unable to find 'Sign' '5023' for 0x41AC6B22180013B
  3735. 00:04:16.291 : <ERROR> Unable to find 'Sign' '5128' for 0x41AC6B2751001EE
  3736. 00:04:16.291 : <ERROR> Unable to find 'Sign' '5155' for 0x41ACCE51A000046
  3737. 00:04:16.291 : <ERROR> Unable to find 'Sign' '5023' for 0x43366366F80001E
  3738. 00:04:16.291 : <ERROR> Unable to find 'Sign' '5023' for 0x433812B20C00001
  3739. 00:04:16.291 : <ERROR> Unable to find 'Sign' '5473rus' for 0x433C394C7900001
  3740. 00:04:16.291 : <ERROR> Unable to find 'Sign' '5474rus' for 0x433C39702200001
  3741. 00:04:16.291 : <ERROR> Unable to find 'Sign' '5474rus' for 0x433C3AF30600001
  3742. 00:04:16.291 : <ERROR> Unable to find 'Sign' '5473rus' for 0x433C3BAB4E00001
  3743. 00:04:16.291 : <ERROR> Unable to find 'Sign' '5475rus' for 0x433C417B0500001
  3744. 00:04:16.291 : <ERROR> Unable to find 'Sign' '5476rus' for 0x433C4226E200001
  3745. 00:04:16.291 : <ERROR> Unable to find 'Sign' '5110' for 0x44F4C3EDC700001
  3746. 00:04:16.291 : <ERROR> Unable to find 'Sign' '5111' for 0x44F4C55B1600001
  3747. 00:04:16.292 : <ERROR> Unable to find 'Sign' '5107' for 0x44F4C7C33400001
  3748. 00:04:16.292 : <ERROR> Unable to find 'Sign' '5128' for 0x44F4CD089500001
  3749. 00:04:16.292 : <ERROR> Unable to find 'Sign' '5023' for 0x44F4D172AF00001
  3750. 00:04:16.292 : <ERROR> Unable to find 'Sign' '5463rus' for 0x44FC22CA3100001
  3751. 00:04:16.292 : <ERROR> Unable to find 'Sign' '5464rus' for 0x44FC2344A100001
  3752. 00:04:16.292 : <ERROR> Unable to find 'Sign' '5464rus' for 0x44FC24196300001
  3753. 00:04:16.292 : <ERROR> Unable to find 'Sign' '5463rus' for 0x44FC248A6200001
  3754. 00:04:16.292 : <ERROR> Unable to find 'Sign' '5107' for 0x4F2F0878EF00001
  3755. 00:04:16.294 : <ERROR> Unable to find 'Sign' '5001' for 0x41971400320002F
  3756. 00:04:16.294 : <ERROR> Unable to find 'Sign' '5023' for 0x41971400E400ADE
  3757. 00:04:16.294 : <ERROR> Unable to find 'Sign' '5001' for 0x419714016D00BEF
  3758. 00:04:16.295 : <ERROR> Unable to find 'Sign' '5111' for 0x419714019E0094D
  3759. 00:04:16.295 : <ERROR> Unable to find 'Sign' '5023' for 0x41971401B800838
  3760. 00:04:16.295 : <ERROR> Unable to find 'Sign' '5111' for 0x41971402950037F
  3761. 00:04:16.295 : <ERROR> Unable to find 'Sign' '5023' for 0x419714032C00988
  3762. 00:04:16.295 : <ERROR> Unable to find 'Sign' '5023' for 0x419714040400D8B
  3763. 00:04:16.295 : <ERROR> Unable to find 'Sign' '5023' for 0x4197140427005B6
  3764. 00:04:16.295 : <ERROR> Unable to find 'Sign' '5107' for 0x419714047000C93
  3765. 00:04:16.295 : <ERROR> Unable to find 'Sign' '5023' for 0x41971405040079D
  3766. 00:04:16.295 : <ERROR> Unable to find 'Sign' '5001' for 0x4197140547003BC
  3767. 00:04:16.295 : <ERROR> Unable to find 'Sign' '5023' for 0x4197140675003DC
  3768. 00:04:16.295 : <ERROR> Unable to find 'Sign' '5023' for 0x41971406A2005E2
  3769. 00:04:16.296 : <ERROR> Unable to find 'Sign' '5001' for 0x41971406FC010A9
  3770. 00:04:16.296 : <ERROR> Unable to find 'Sign' '5023' for 0x419714071900363
  3771. 00:04:16.296 : <ERROR> Unable to find 'Sign' '5448rus' for 0x41971408BA00D26
  3772. 00:04:16.296 : <ERROR> Unable to find 'Sign' '5023' for 0x419714090C00A84
  3773. 00:04:16.296 : <ERROR> Unable to find 'Sign' '5001' for 0x41971409BA003CF
  3774. 00:04:16.296 : <ERROR> Unable to find 'Sign' '5107' for 0x41971409C0001AA
  3775. 00:04:16.296 : <ERROR> Unable to find 'Sign' '5111' for 0x4197140B2800C57
  3776. 00:04:16.296 : <ERROR> Unable to find 'Sign' '5023' for 0x4197140B8500099
  3777. 00:04:16.297 : <ERROR> Unable to find 'Sign' '5110' for 0x4197140BC200842
  3778. 00:04:16.297 : <ERROR> Unable to find 'Sign' '5110' for 0x4197140BCE004F6
  3779. 00:04:16.297 : <ERROR> Unable to find 'Sign' '5023' for 0x4197140BD500C9E
  3780. 00:04:16.297 : <ERROR> Unable to find 'Sign' '5023' for 0x4197140C8B00EE8
  3781. 00:04:16.297 : <ERROR> Unable to find 'Sign' '5447rus' for 0x4197140CF000D28
  3782. 00:04:16.297 : <ERROR> Unable to find 'Sign' '5023' for 0x4197140D61001F2
  3783. 00:04:16.297 : <ERROR> Unable to find 'Sign' '5447rus' for 0x4197140FFC01007
  3784. 00:04:16.297 : <ERROR> Unable to find 'Sign' '5155' for 0x41ACCE509F00048
  3785. 00:04:16.298 : <ERROR> Unable to find 'Sign' '5476rus' for 0x433C42DD6700001
  3786. 00:04:16.298 : <ERROR> Unable to find 'Sign' '5475rus' for 0x433C4336BE00001
  3787. 00:04:16.298 : <ERROR> Unable to find 'Sign' '5023' for 0x44FD7D16B900001
  3788. 00:04:16.298 : <ERROR> Unable to find 'Sign' '5023' for 0x4548BBD0EB00001
  3789. 00:04:16.298 : <ERROR> Unable to find 'Sign' '5107' for 0x4630D0277100001
  3790. 00:04:16.298 : <ERROR> Unable to find 'Sign' '5110' for 0x4630D1F3C200001
  3791. 00:04:16.298 : <ERROR> Unable to find 'Sign' '5111' for 0x4630D6B1C100001
  3792. 00:04:16.298 : <ERROR> Unable to find 'Sign' '5107' for 0x4630D878F400000
  3793. 00:04:16.298 : <ERROR> Unable to find 'Sign' '5107' for 0x4630DBD01200000
  3794. 00:04:16.298 : <ERROR> Unable to find 'Sign' '5107' for 0x4630DC415500000
  3795. 00:04:16.298 : <ERROR> Unable to find 'Sign' '5110' for 0x4630DFAF2100001
  3796. 00:04:16.298 : <ERROR> Unable to find 'Sign' '5111' for 0x4630E01A0D00001
  3797. 00:04:16.298 : <ERROR> Unable to find 'Sign' '5448rus' for 0x259E0A8459800000
  3798. 00:04:16.305 : <ERROR> Unable to find 'Sign' '5702rus' for 0x24E89A901D400001
  3799. 00:04:16.306 : <ERROR> Unable to find 'Sign' '5703rus' for 0x24E89AD057C00001
  3800. 00:04:16.306 : <ERROR> Unable to find 'Sign' '5703rus' for 0x24E89B6C66C00001
  3801. 00:04:16.306 : <ERROR> Unable to find 'Sign' '5702rus' for 0x24E89B9C36C00001
  3802. 00:04:16.306 : <ERROR> Unable to find 'Sign' '5002' for 0x24E935CC60C00001
  3803. 00:04:16.306 : <ERROR> Unable to find 'Sign' '5002' for 0x24E9D8F442400001
  3804. 00:04:16.306 : <ERROR> Unable to find 'Sign' '5704rus' for 0x24EE1FD0B2C00001
  3805. 00:04:16.306 : <ERROR> Unable to find 'Sign' '5705rus' for 0x24EE20248FC00001
  3806. 00:04:16.306 : <ERROR> Unable to find 'Sign' '5705rus' for 0x250D265C9E000000
  3807. 00:04:16.306 : <ERROR> Unable to find 'Sign' '5704rus' for 0x250D2680F2000000
  3808. 00:04:16.306 : <ERROR> Unable to find 'Sign' '5706rus' for 0x25284888FF000001
  3809. 00:04:16.307 : <ERROR> Unable to find 'Sign' '5707rus' for 0x252848D00E800001
  3810. 00:04:16.307 : <ERROR> Unable to find 'Sign' '5706rus' for 0x252CCFC865000000
  3811. 00:04:16.307 : <ERROR> Unable to find 'Sign' '5707rus' for 0x252CCFE068C00000
  3812. 00:04:16.307 : <ERROR> Unable to find 'Sign' '5006' for 0x32C5F41C6EC00001
  3813. 00:04:16.307 : <ERROR> Unable to find 'Sign' '5705rus' for 0x32CA8F2C5C800000
  3814. 00:04:16.307 : <ERROR> Unable to find 'Sign' '5704rus' for 0x32CA8F94FE400000
  3815. 00:04:16.310 : <ERROR> Unable to find 'Sign' '5028' for 0x25BBDA3432800007
  3816. 00:04:16.310 : <ERROR> Unable to find 'Sign' '5028' for 0x25BC745805C00000
  3817. 00:04:16.310 : <ERROR> Unable to find 'Sign' '5111' for 0x25CB745855400001
  3818. 00:04:16.310 : <ERROR> Unable to find 'Sign' '5111' for 0x25D1FD307C800001
  3819. 00:04:16.310 : <ERROR> Unable to find 'Sign' '5110' for 0x25D1FD5C26800001
  3820. 00:04:16.310 : <ERROR> Unable to find 'Sign' '5028' for 0x25DAA4B876400005
  3821. 00:04:16.310 : <ERROR> Unable to find 'Sign' '5028' for 0x25DAA5D065000000
  3822. 00:04:16.310 : <ERROR> Unable to find 'Sign' '5709rus' for 0x25DC1F1482C00001
  3823. 00:04:16.310 : <ERROR> Unable to find 'Sign' '5708rus' for 0x25DC1F44FBC00001
  3824. 00:04:16.310 : <ERROR> Unable to find 'Sign' '5708rus' for 0x25E033E4BC000000
  3825. 00:04:16.310 : <ERROR> Unable to find 'Sign' '5709rus' for 0x25E0343494800000
  3826. 00:04:16.311 : <ERROR> Unable to find 'Sign' '5002' for 0x25F04E082A800001
  3827. 00:04:16.311 : <ERROR> Unable to find 'Sign' '5028' for 0x25FA402C6680000F
  3828. 00:04:16.311 : <ERROR> Unable to find 'Sign' '5028' for 0x25FA402CA880000A
  3829. 00:04:16.311 : <ERROR> Unable to find 'Sign' '5028' for 0x25FA443831800000
  3830. 00:04:16.311 : <ERROR> Unable to find 'Sign' '5710rus' for 0x25FC2A8CCE400001
  3831. 00:04:16.311 : <ERROR> Unable to find 'Sign' '5711rus' for 0x25FC2AE0D6800001
  3832. 00:04:16.311 : <ERROR> Unable to find 'Sign' '5711rus' for 0x25FC2B2056C00001
  3833. 00:04:16.311 : <ERROR> Unable to find 'Sign' '5710rus' for 0x25FC2B5456C00001
  3834. 00:04:16.311 : <ERROR> Unable to find 'Sign' '5002' for 0x25FFC2BCC8C00001
  3835. 00:04:16.317 : <ERROR> Unable to find 'Sign' '5023' for 0x3E06534BA6000D7
  3836. 00:04:16.317 : <ERROR> Unable to find 'Sign' '5127' for 0x3E06D8615100010
  3837. 00:04:16.317 : <ERROR> Unable to find 'Sign' '5023' for 0x3E06D86699000DB
  3838. 00:04:16.317 : <ERROR> Unable to find 'Sign' '5023' for 0x3E06D86AC2000DC
  3839. 00:04:16.317 : <ERROR> Unable to find 'Sign' '5023' for 0x3E06D86B3E0007D
  3840. 00:04:16.319 : <ERROR> Unable to find 'Sign' '5128' for 0x3E06D86067000EC
  3841. 00:04:16.319 : <ERROR> Unable to find 'Sign' '5107' for 0x3E06D863050012D
  3842. 00:04:16.320 : <ERROR> Unable to find 'Sign' '5111' for 0x3E06D8651D00128
  3843. 00:04:16.320 : <ERROR> Unable to find 'Sign' '5110' for 0x3E06D868A700138
  3844. 00:04:16.320 : <ERROR> Unable to find 'Sign' '5023' for 0x3E06D86B1B000ED
  3845. 00:04:16.320 : <ERROR> Unable to find 'Sign' '5128' for 0x3E071E0D6200001
  3846. 00:04:16.320 : <ERROR> Unable to find 'Sign' '5127' for 0x3E071EA1A200001
  3847. 00:04:16.322 : <ERROR> Unable to find 'Sign' '5128' for 0x41AC61A26500105
  3848. 00:04:16.322 : <ERROR> Unable to find 'Sign' '5478rus' for 0x44CB1A62BF00001
  3849. 00:04:16.322 : <ERROR> Unable to find 'Sign' '5477rus' for 0x44CB1AC2DF00001
  3850. 00:04:16.322 : <ERROR> Unable to find 'Sign' '5121' for 0x44CE2A9F4700001
  3851. 00:04:16.322 : <ERROR> Unable to find 'Sign' '5121' for 0x44CE2ACB4700001
  3852. 00:04:16.323 : <ERROR> Unable to find 'Sign' '5128' for 0x44F3B90DB700001
  3853. 00:04:16.323 : <ERROR> Unable to find 'Sign' '5023' for 0x44F4E27B7F00001
  3854. 00:04:16.323 : <ERROR> Unable to find 'Sign' '5023' for 0x44F7A0D3A90000E
  3855. 00:04:16.323 : <ERROR> Unable to find 'Sign' '5023' for 0x44F7A0D44900108
  3856. 00:04:16.323 : <ERROR> Unable to find 'Sign' '5023' for 0x44F7A0D7A6000A3
  3857. 00:04:16.323 : <ERROR> Unable to find 'Sign' '5128' for 0x44F7A0D90100075
  3858. 00:04:16.323 : <ERROR> Unable to find 'Sign' '5486rus' for 0x44F7A95D2300001
  3859. 00:04:16.323 : <ERROR> Unable to find 'Sign' '5487rus' for 0x44F7A9909400001
  3860. 00:04:16.323 : <ERROR> Unable to find 'Sign' '5486rus' for 0x44F7D9932F00001
  3861. 00:04:16.323 : <ERROR> Unable to find 'Sign' '5487rus' for 0x44F7D9E02F00001
  3862. 00:04:16.326 : <ERROR> Unable to find 'Sign' '5488rus' for 0x453421BE1D00001
  3863. 00:04:16.326 : <ERROR> Unable to find 'Sign' '5489rus' for 0x453422C09F00001
  3864. 00:04:16.326 : <ERROR> Unable to find 'Sign' '5488rus' for 0x45342334D100001
  3865. 00:04:16.326 : <ERROR> Unable to find 'Sign' '5489rus' for 0x45342419AB00001
  3866. 00:04:16.326 : <ERROR> Unable to find 'Sign' '5110' for 0x45487F7BAB00001
  3867. 00:04:16.337 : <ERROR> Unable to find 'Sign' '5121' for 0x3E7A243079003F2
  3868. 00:04:16.337 : <ERROR> Unable to find 'Sign' '5121' for 0x3E7A2431B50040C
  3869. 00:04:16.338 : <ERROR> Unable to find 'Sign' '5127' for 0x3E7A24355F00299
  3870. 00:04:16.338 : <ERROR> Unable to find 'Sign' '5023' for 0x3E7A243CCE003DA
  3871. 00:04:16.338 : <ERROR> Unable to find 'Sign' '5023' for 0x3E7A9FB50000001
  3872. 00:04:16.338 : <ERROR> Unable to find 'Sign' '5128' for 0x3E86EDE0CF00114
  3873. 00:04:16.338 : <ERROR> Unable to find 'Sign' '5127' for 0x3E86EDE1F0001F7
  3874. 00:04:16.338 : <ERROR> Unable to find 'Sign' '5127' for 0x3E86EDE57600125
  3875. 00:04:16.338 : <ERROR> Unable to find 'Sign' '5023' for 0x3E86EDEB1A00202
  3876. 00:04:16.338 : <ERROR> Unable to find 'Sign' '5023' for 0x3E86EDED1D00231
  3877. 00:04:16.338 : <ERROR> Unable to find 'Sign' '5023' for 0x3E8719D06E008BF
  3878. 00:04:16.338 : <ERROR> Unable to find 'Sign' '5431rus' for 0x3E8719D7AB0092B
  3879. 00:04:16.338 : <ERROR> Unable to find 'Sign' '5431rus' for 0x3E8719E7E700029
  3880. 00:04:16.338 : <ERROR> Unable to find 'Sign' '5430rus' for 0x3E8719EE670002A
  3881. 00:04:16.338 : <ERROR> Unable to find 'Sign' '5023' for 0x3E8719EEB600024
  3882. 00:04:16.341 : <ERROR> Unable to find 'Sign' '5389rus' for 0x2CE3F8D4018002A5
  3883. 00:04:16.341 : <ERROR> Unable to find 'Sign' '5386rus' for 0x2CE3F8D41FC000F8
  3884. 00:04:16.341 : <ERROR> Unable to find 'Sign' '5388rus' for 0x2CE3F8D41FC0046B
  3885. 00:04:16.341 : <ERROR> Unable to find 'Sign' '5111' for 0x2CE3F8D4224001C6
  3886. 00:04:16.341 : <ERROR> Unable to find 'Sign' '5111' for 0x2CE3F8D4368001BA
  3887. 00:04:16.341 : <ERROR> Unable to find 'Sign' '5128' for 0x2CE3F8D445C000F0
  3888. 00:04:16.341 : <ERROR> Unable to find 'Sign' '5110' for 0x2CE3F8D44CC0039C
  3889. 00:04:16.341 : <ERROR> Unable to find 'Sign' '5111' for 0x2CE3F8D45A800158
  3890. 00:04:16.341 : <ERROR> Unable to find 'Sign' '5388rus' for 0x2CE3F8D45C000387
  3891. 00:04:16.341 : <ERROR> Unable to find 'Sign' '5107' for 0x2CE3F8D45D400194
  3892. 00:04:16.341 : <ERROR> Unable to find 'Sign' '5107' for 0x2CE3F8D45DC001B9
  3893. 00:04:16.341 : <ERROR> Unable to find 'Sign' '5023' for 0x2CE3F8D45EC000B1
  3894. 00:04:16.341 : <ERROR> Unable to find 'Sign' '5107' for 0x2CE3F8D4798001C0
  3895. 00:04:16.341 : <ERROR> Unable to find 'Sign' '5385rus' for 0x2CE3F8D47A800149
  3896. 00:04:16.341 : <ERROR> Unable to find 'Sign' '5107' for 0x2CE3F8D4800000BC
  3897. 00:04:16.341 : <ERROR> Unable to find 'Sign' '5023' for 0x2CE3F8D4848002A1
  3898. 00:04:16.341 : <ERROR> Unable to find 'Sign' '5110' for 0x2CE3F8D4950001BD
  3899. 00:04:16.341 : <ERROR> Unable to find 'Sign' '5023' for 0x2CE3F8D49D00026D
  3900. 00:04:16.341 : <ERROR> Unable to find 'Sign' '5110' for 0x2CE3F8D4A24001EF
  3901. 00:04:16.341 : <ERROR> Unable to find 'Sign' '5387rus' for 0x2CE3F8D4A3000481
  3902. 00:04:16.342 : <ERROR> Unable to find 'Sign' '5387rus' for 0x2CE3F8D4A8800382
  3903. 00:04:16.342 : <ERROR> Unable to find 'Sign' '5107' for 0x2CE3F8D4AA0000F2
  3904. 00:04:16.342 : <ERROR> Unable to find 'Sign' '5110' for 0x2CE3F8D4AC400192
  3905. 00:04:16.342 : <ERROR> Unable to find 'Sign' '5023' for 0x2CE3F8D4BEC00004
  3906. 00:04:16.342 : <ERROR> Unable to find 'Sign' '5023' for 0x2CE3F8D4D280002D
  3907. 00:04:16.342 : <ERROR> Unable to find 'Sign' '5389rus' for 0x2CE3F8D4D50002D7
  3908. 00:04:16.342 : <ERROR> Unable to find 'Sign' '5390rus' for 0x2CE3F8D4D60002BE
  3909. 00:04:16.342 : <ERROR> Unable to find 'Sign' '5111' for 0x2CE3F8D4DD40039A
  3910. 00:04:16.342 : <ERROR> Unable to find 'Sign' '5390rus' for 0x2CE3F8D4E5C00297
  3911. 00:04:16.342 : <ERROR> Unable to find 'Sign' '5127' for 0x2CE3F8D4ED4000F4
  3912. 00:04:16.342 : <ERROR> Unable to find 'Sign' '5023' for 0x2CE3F8D4EE00049B
  3913. 00:04:16.345 : <ERROR> Unable to find 'Sign' '5399rus' for 0x2CE3F8D40880069A
  3914. 00:04:16.345 : <ERROR> Unable to find 'Sign' '5368rus' for 0x2CE3F8D41D80066B
  3915. 00:04:16.345 : <ERROR> Unable to find 'Sign' '5023' for 0x2CE3F8D4240006BC
  3916. 00:04:16.345 : <ERROR> Unable to find 'Sign' '5367rus' for 0x2CE3F8D433800672
  3917. 00:04:16.346 : <ERROR> Unable to find 'Sign' '5368rus' for 0x2CE3F8D47080060E
  3918. 00:04:16.346 : <ERROR> Unable to find 'Sign' '5023' for 0x2CE3F8D471C006C1
  3919. 00:04:16.346 : <ERROR> Unable to find 'Sign' '5400rus' for 0x2CE3F8D47C8006C4
  3920. 00:04:16.346 : <ERROR> Unable to find 'Sign' '5107' for 0x2CE3F8D4850005E8
  3921. 00:04:16.346 : <ERROR> Unable to find 'Sign' '5400rus' for 0x2CE3F8D48FC005BC
  3922. 00:04:16.346 : <ERROR> Unable to find 'Sign' '5367rus' for 0x2CE3F8D4B7C00605
  3923. 00:04:16.346 : <ERROR> Unable to find 'Sign' '5023' for 0x2CE3F8D4CF8005E6
  3924. 00:04:16.346 : <ERROR> Unable to find 'Sign' '5127' for 0x2CE3F8D4E60005FD
  3925. 00:04:16.346 : <ERROR> Unable to find 'Sign' '5399rus' for 0x2CE3F8D4FCC005C9
  3926. 00:04:16.346 : <ERROR> Unable to find 'Sign' '5128' for 0x2CE41A0C6340002A
  3927. 00:04:16.346 : <ERROR> Unable to find 'Sign' '5127' for 0x2CE41A0CC540006B
  3928. 00:04:16.346 : <ERROR> Unable to find 'Sign' '5401rus' for 0x2CE41CF83540010B
  3929. 00:04:16.346 : <ERROR> Unable to find 'Sign' '5402rus' for 0x2CE41CF86C000039
  3930. 00:04:16.346 : <ERROR> Unable to find 'Sign' '5402rus' for 0x2CE41CF87EC0010E
  3931. 00:04:16.346 : <ERROR> Unable to find 'Sign' '5023' for 0x2CE41CF8888000A8
  3932. 00:04:16.346 : <ERROR> Unable to find 'Sign' '5128' for 0x2CE41CF88A800089
  3933. 00:04:16.346 : <ERROR> Unable to find 'Sign' '5023' for 0x2CE41CF8C7000100
  3934. 00:04:16.346 : <ERROR> Unable to find 'Sign' '5023' for 0x2CE41CF8D6400068
  3935. 00:04:16.346 : <ERROR> Unable to find 'Sign' '5401rus' for 0x2CE41CF8E9C00036
  3936. 00:04:16.350 : <ERROR> Unable to find 'Sign' '5671rus' for 0x324D3624C0C00001
  3937. 00:04:16.350 : <ERROR> Unable to find 'Sign' '5006' for 0x32B65A74F9000001
  3938. 00:04:16.350 : <ERROR> Unable to find 'Sign' '5638rus' for 0x32B65ABC34C00001
  3939. 00:04:16.350 : <ERROR> Unable to find 'Sign' '5032' for 0x32B65D38E7000001
  3940. 00:04:16.351 : <ERROR> Unable to find 'Sign' '5032' for 0x32B65D5443400001
  3941. 00:04:16.351 : <ERROR> Unable to find 'Sign' '5674rus' for 0x32B6E17C25800001
  3942. 00:04:16.351 : <ERROR> Unable to find 'Sign' '5674rus' for 0x32B6E604A4800001
  3943. 00:04:16.356 : <ERROR> Unable to find 'Sign' '5559rus' for 0x2C23D58406C000C0
  3944. 00:04:16.356 : <ERROR> Unable to find 'Sign' '5558rus' for 0x2C23D5845F8001E5
  3945. 00:04:16.356 : <ERROR> Unable to find 'Sign' '5002' for 0x2C820FF849400001
  3946. 00:04:16.356 : <ERROR> Unable to find 'Sign' '5002' for 0x2C8212C4EB800001
  3947. 00:04:16.356 : <ERROR> Unable to find 'Sign' '5002' for 0x2C8212E8A3800001
  3948. 00:04:16.356 : <ERROR> Unable to find 'Sign' '5002' for 0x2C82153850800001
  3949. 00:04:16.361 : <ERROR> Unable to find 'Sign' '5002' for 0x2614C11057000001
  3950. 00:04:16.361 : <ERROR> Unable to find 'Sign' '5002' for 0x262048D4F8400001
  3951. 00:04:16.361 : <ERROR> Unable to find 'Sign' '5002' for 0x26207A5042400001
  3952. 00:04:16.362 : <ERROR> Unable to find 'Sign' '5716rus' for 0x269DBD28A8000000
  3953. 00:04:16.362 : <ERROR> Unable to find 'Sign' '5717rus' for 0x269DBD9C5D000000
  3954. 00:04:16.362 : <ERROR> Unable to find 'Sign' '5714rus' for 0x269DC14077000001
  3955. 00:04:16.362 : <ERROR> Unable to find 'Sign' '5715rus' for 0x269DC1A87A000000
  3956. 00:04:16.362 : <ERROR> Unable to find 'Sign' '5714rus' for 0x269DC270C8C00000
  3957. 00:04:16.362 : <ERROR> Unable to find 'Sign' '5715rus' for 0x269DC30814400000
  3958. 00:04:16.362 : <ERROR> Unable to find 'Sign' '5718rus' for 0x269DC45028000001
  3959. 00:04:16.362 : <ERROR> Unable to find 'Sign' '5719rus' for 0x269DC4E4BEC00000
  3960. 00:04:16.362 : <ERROR> Unable to find 'Sign' '5718rus' for 0x269DC554BD400000
  3961. 00:04:16.362 : <ERROR> Unable to find 'Sign' '5719rus' for 0x269DC630C0800000
  3962. 00:04:16.362 : <ERROR> Unable to find 'Sign' '5002' for 0x26A4B708A6000001
  3963. 00:04:16.362 : <ERROR> Unable to find 'Sign' '5002' for 0x26A82AFC88000001
  3964. 00:04:16.365 : <ERROR> Unable to find 'Sign' '5727rus' for 0x26D7C8F846000001
  3965. 00:04:16.365 : <ERROR> Unable to find 'Sign' '5728rus' for 0x26D7C934ADC00001
  3966. 00:04:16.365 : <ERROR> Unable to find 'Sign' '5724rus' for 0x26D7CA04D5C00001
  3967. 00:04:16.365 : <ERROR> Unable to find 'Sign' '5723rus' for 0x26D7CA6452800001
  3968. 00:04:16.365 : <ERROR> Unable to find 'Sign' '5723rus' for 0x26D7CB3846800001
  3969. 00:04:16.365 : <ERROR> Unable to find 'Sign' '5724rus' for 0x26D7CB8082C00001
  3970. 00:04:16.365 : <ERROR> Unable to find 'Sign' '5728rus' for 0x2779E97C7B400000
  3971. 00:04:16.365 : <ERROR> Unable to find 'Sign' '5727rus' for 0x2779E9B8EA000000
  3972. 00:04:16.365 : <ERROR> Unable to find 'Sign' '5002' for 0x279641C4D7400001
  3973. 00:04:16.365 : <ERROR> Unable to find 'Sign' '5002' for 0x279641F4C8C00001
  3974. 00:04:16.365 : <ERROR> Unable to find 'Sign' '5633rus' for 0x2796428825800001
  3975. 00:04:16.365 : <ERROR> Unable to find 'Sign' '5633rus' for 0x279642A8C6C00000
  3976. 00:04:16.368 : <ERROR> Unable to find 'Sign' '5725rus' for 0x2796CAC88D000001
  3977. 00:04:16.368 : <ERROR> Unable to find 'Sign' '5726rus' for 0x2796CB2C80000001
  3978. 00:04:16.368 : <ERROR> Unable to find 'Sign' '5725rus' for 0x279AD0CCED400000
  3979. 00:04:16.368 : <ERROR> Unable to find 'Sign' '5726rus' for 0x279AD1207AC00000
  3980. 00:04:16.379 : <ERROR> Unable to find 'Sign' '5107' for 0x3DF923700100145
  3981. 00:04:16.379 : <ERROR> Unable to find 'Sign' '5023' for 0x3DF923708D0003A
  3982. 00:04:16.379 : <ERROR> Unable to find 'Sign' '5110' for 0x3DF9237151001E9
  3983. 00:04:16.379 : <ERROR> Unable to find 'Sign' '5110' for 0x3DF92371E1001ED
  3984. 00:04:16.379 : <ERROR> Unable to find 'Sign' '5249' for 0x3DF923722C001F1
  3985. 00:04:16.380 : <ERROR> Unable to find 'Sign' '5111' for 0x3DF9237266001EA
  3986. 00:04:16.380 : <ERROR> Unable to find 'Sign' '5107' for 0x3DF92373EE00154
  3987. 00:04:16.380 : <ERROR> Unable to find 'Sign' '5110' for 0x3DF923744F00143
  3988. 00:04:16.380 : <ERROR> Unable to find 'Sign' '5110' for 0x3DF923745100151
  3989. 00:04:16.380 : <ERROR> Unable to find 'Sign' '5110' for 0x3DF92374CD00148
  3990. 00:04:16.380 : <ERROR> Unable to find 'Sign' '5250' for 0x3DF92378170020D
  3991. 00:04:16.380 : <ERROR> Unable to find 'Sign' '5111' for 0x3DF92378C800149
  3992. 00:04:16.380 : <ERROR> Unable to find 'Sign' '5111' for 0x3DF92378DE00144
  3993. 00:04:16.380 : <ERROR> Unable to find 'Sign' '5107' for 0x3DF9237C2400152
  3994. 00:04:16.380 : <ERROR> Unable to find 'Sign' '5107' for 0x3DF9237C5C001E8
  3995. 00:04:16.380 : <ERROR> Unable to find 'Sign' '5023' for 0x3DF9237D16001E6
  3996. 00:04:16.380 : <ERROR> Unable to find 'Sign' '5107' for 0x3DF9237E3100147
  3997. 00:04:16.380 : <ERROR> Unable to find 'Sign' '5111' for 0x3DF9237EE400150
  3998. 00:04:16.380 : <ERROR> Unable to find 'Sign' '5111' for 0x3DF9237F26001EC
  3999. 00:04:16.380 : <ERROR> Unable to find 'Sign' '5121' for 0x3DF936D02600057
  4000. 00:04:16.380 : <ERROR> Unable to find 'Sign' '5128' for 0x3DF936D3A100081
  4001. 00:04:16.380 : <ERROR> Unable to find 'Sign' '5023' for 0x3DF936D9A30005E
  4002. 00:04:16.381 : <ERROR> Unable to find 'Sign' '5127' for 0x3DF936D9CF001B9
  4003. 00:04:16.381 : <ERROR> Unable to find 'Sign' '5127' for 0x3DF936DA3300080
  4004. 00:04:16.381 : <ERROR> Unable to find 'Sign' '5023' for 0x3DF936DC7000169
  4005. 00:04:16.381 : <ERROR> Unable to find 'Sign' '5023' for 0x3E06AE69640008F
  4006. 00:04:16.381 : <ERROR> Unable to find 'Sign' '5128' for 0x3E06AE699000109
  4007. 00:04:16.381 : <ERROR> Unable to find 'Sign' '5128' for 0x3E06C3F79400001
  4008. 00:04:16.381 : <ERROR> Unable to find 'Sign' '5127' for 0x3E06C546E800001
  4009. 00:04:16.381 : <ERROR> Unable to find 'Sign' '5127' for 0x3E07220D3C00001
  4010. 00:04:16.383 : <ERROR> Unable to find 'Sign' '5107' for 0x44A0D2D1A300001
  4011. 00:04:16.383 : <ERROR> Unable to find 'Sign' '5111' for 0x44A0D34F7C00001
  4012. 00:04:16.384 : <ERROR> Unable to find 'Sign' '5110' for 0x44A0D3A35800001
  4013. 00:04:16.384 : <ERROR> Unable to find 'Sign' '5023' for 0x44B7A503D200001
  4014. 00:04:16.384 : <ERROR> Unable to find 'Sign' '5023' for 0x44B7EADBF500001
  4015. 00:04:16.384 : <ERROR> Unable to find 'Sign' '5023' for 0x44B7EF2EB900001
  4016. 00:04:16.384 : <ERROR> Unable to find 'Sign' '5479rus' for 0x44CB0D63CB00001
  4017. 00:04:16.384 : <ERROR> Unable to find 'Sign' '5480rus' for 0x44CB0DBF6300001
  4018. 00:04:16.384 : <ERROR> Unable to find 'Sign' '5480rus' for 0x44CB0F77B000001
  4019. 00:04:16.384 : <ERROR> Unable to find 'Sign' '5479rus' for 0x44CB104B5900001
  4020. 00:04:16.384 : <ERROR> Unable to find 'Sign' '5481rus' for 0x44CB12C5B900001
  4021. 00:04:16.384 : <ERROR> Unable to find 'Sign' '5482rus' for 0x44CB136ADD00001
  4022. 00:04:16.384 : <ERROR> Unable to find 'Sign' '5481rus' for 0x44CB150BAF00001
  4023. 00:04:16.384 : <ERROR> Unable to find 'Sign' '5482rus' for 0x44CB1564AC00001
  4024. 00:04:16.384 : <ERROR> Unable to find 'Sign' '5477rus' for 0x44CB16AB7B00001
  4025. 00:04:16.384 : <ERROR> Unable to find 'Sign' '5478rus' for 0x44CB186C6D00001
  4026. 00:04:16.384 : <ERROR> Unable to find 'Sign' '5477rus' for 0x44CB1BE98A00001
  4027. 00:04:16.384 : <ERROR> Unable to find 'Sign' '5478rus' for 0x44CB1D9D2700001
  4028. 00:04:16.384 : <ERROR> Unable to find 'Sign' '5023' for 0x44CC548DA900001
  4029. 00:04:16.384 : <ERROR> Unable to find 'Sign' '5023' for 0x44CC54EF6800001
  4030. 00:04:16.384 : <ERROR> Unable to find 'Sign' '5023' for 0x44CC66E4E900001
  4031. 00:04:16.384 : <ERROR> Unable to find 'Sign' '5023' for 0x44CC6DB57C00001
  4032. 00:04:16.384 : <ERROR> Unable to find 'Sign' '5023' for 0x44CC7151DB00001
  4033. 00:04:16.384 : <ERROR> Unable to find 'Sign' '5023' for 0x44CC9370EC00001
  4034. 00:04:16.384 : <ERROR> Unable to find 'Sign' '5023' for 0x44CC99F3A600001
  4035. 00:04:16.385 : <ERROR> Unable to find 'Sign' '5107' for 0x44CE3DF3D500001
  4036. 00:04:16.385 : <ERROR> Unable to find 'Sign' '5107' for 0x44CE51604D00000
  4037. 00:04:16.385 : <ERROR> Unable to find 'Sign' '5111' for 0x44CE53189000001
  4038. 00:04:16.385 : <ERROR> Unable to find 'Sign' '5110' for 0x44CE538B2C00001
  4039. 00:04:16.385 : <ERROR> Unable to find 'Sign' '5107' for 0x44CE53EE4300001
  4040. 00:04:16.385 : <ERROR> Unable to find 'Sign' '5107' for 0x44CE553FD600000
  4041. 00:04:16.385 : <ERROR> Unable to find 'Sign' '5110' for 0x44CE55C88100000
  4042. 00:04:16.385 : <ERROR> Unable to find 'Sign' '5111' for 0x44CE56C51500000
  4043. 00:04:16.385 : <ERROR> Unable to find 'Sign' '5023' for 0x44CE5D51BE00001
  4044. 00:04:16.385 : <ERROR> Unable to find 'Sign' '5023' for 0x44CE61FB2F00001
  4045. 00:04:16.385 : <ERROR> Unable to find 'Sign' '5479rus' for 0x44CFDC734400000
  4046. 00:04:16.385 : <ERROR> Unable to find 'Sign' '5480rus' for 0x44CFDCFB2300000
  4047. 00:04:16.385 : <ERROR> Unable to find 'Sign' '5484rus' for 0x44E7DE770900001
  4048. 00:04:16.385 : <ERROR> Unable to find 'Sign' '5483rus' for 0x44E7DEFE2100001
  4049. 00:04:16.388 : <ERROR> Unable to find 'Sign' '5001' for 0x3DDCEFE01500543
  4050. 00:04:16.388 : <ERROR> Unable to find 'Sign' '5227' for 0x3DDCEFE03B00198
  4051. 00:04:16.388 : <ERROR> Unable to find 'Sign' '5124' for 0x3DDCEFE04B002BD
  4052. 00:04:16.388 : <ERROR> Unable to find 'Sign' '5226' for 0x3DDCEFE0A900322
  4053. 00:04:16.388 : <ERROR> Unable to find 'Sign' '5107' for 0x3DDCEFE143002BF
  4054. 00:04:16.388 : <ERROR> Unable to find 'Sign' '5226' for 0x3DDCEFE14C005DD
  4055. 00:04:16.388 : <ERROR> Unable to find 'Sign' '5111' for 0x3DDCEFE1D200249
  4056. 00:04:16.388 : <ERROR> Unable to find 'Sign' '5110' for 0x3DDCEFE27E00315
  4057. 00:04:16.388 : <ERROR> Unable to find 'Sign' '5227' for 0x3DDCEFE2AE002CD
  4058. 00:04:16.388 : <ERROR> Unable to find 'Sign' '5107' for 0x3DDCEFE2F80024B
  4059. 00:04:16.388 : <ERROR> Unable to find 'Sign' '5124' for 0x3DDCEFE30E002BE
  4060. 00:04:16.388 : <ERROR> Unable to find 'Sign' '5023' for 0x3DDCEFE331005DA
  4061. 00:04:16.388 : <ERROR> Unable to find 'Sign' '5023' for 0x3DDCEFE3D0002B9
  4062. 00:04:16.388 : <ERROR> Unable to find 'Sign' '5116' for 0x3DDCEFE45400549
  4063. 00:04:16.388 : <ERROR> Unable to find 'Sign' '5111' for 0x3DDCEFE4A20040F
  4064. 00:04:16.388 : <ERROR> Unable to find 'Sign' '5107' for 0x3DDCEFE55400410
  4065. 00:04:16.388 : <ERROR> Unable to find 'Sign' '5023' for 0x3DDCEFE59600611
  4066. 00:04:16.388 : <ERROR> Unable to find 'Sign' '5110' for 0x3DDCEFE6FB00246
  4067. 00:04:16.388 : <ERROR> Unable to find 'Sign' '5001' for 0x3DDCEFE70500243
  4068. 00:04:16.388 : <ERROR> Unable to find 'Sign' '5227' for 0x3DDCEFE7A4005DE
  4069. 00:04:16.388 : <ERROR> Unable to find 'Sign' '5110' for 0x3DDCEFE8260031A
  4070. 00:04:16.388 : <ERROR> Unable to find 'Sign' '5023' for 0x3DDCEFE85300192
  4071. 00:04:16.389 : <ERROR> Unable to find 'Sign' '5124' for 0x3DDCEFEA6E005EC
  4072. 00:04:16.389 : <ERROR> Unable to find 'Sign' '5226' for 0x3DDCEFEA8E002CB
  4073. 00:04:16.389 : <ERROR> Unable to find 'Sign' '5116' for 0x3DDCEFEA8E0054A
  4074. 00:04:16.389 : <ERROR> Unable to find 'Sign' '5110' for 0x3DDCEFEB19005EA
  4075. 00:04:16.389 : <ERROR> Unable to find 'Sign' '5023' for 0x3DDCEFECDA00317
  4076. 00:04:16.389 : <ERROR> Unable to find 'Sign' '5001' for 0x3DDCEFED4800610
  4077. 00:04:16.389 : <ERROR> Unable to find 'Sign' '5226' for 0x3DDCEFED5300197
  4078. 00:04:16.389 : <ERROR> Unable to find 'Sign' '5227' for 0x3DDCEFEE65002CC
  4079. 00:04:16.389 : <ERROR> Unable to find 'Sign' '5116' for 0x3DDCEFEEED0054B
  4080. 00:04:16.389 : <ERROR> Unable to find 'Sign' '5023' for 0x3DE0C2F46D00094
  4081. 00:04:16.389 : <ERROR> Unable to find 'Sign' '5023' for 0x3DE0C2FA2500088
  4082. 00:04:16.389 : <ERROR> Unable to find 'Sign' '5023' for 0x3DE146AA0500001
  4083. 00:04:16.389 : <ERROR> Unable to find 'Sign' '5490rus' for 0x45342643D300001
  4084. 00:04:16.389 : <ERROR> Unable to find 'Sign' '5490rus' for 0x453426E54800001
  4085. 00:04:16.389 : <ERROR> Unable to find 'Sign' '5490rus' for 0x453427570C00001
  4086. 00:04:16.389 : <ERROR> Unable to find 'Sign' '5491rus' for 0x453427B86E00001
  4087. 00:04:16.389 : <ERROR> Unable to find 'Sign' '5491rus' for 0x45342918F100001
  4088. 00:04:16.389 : <ERROR> Unable to find 'Sign' '5491rus' for 0x453429669600001
  4089. 00:04:16.389 : <ERROR> Unable to find 'Sign' '5023' for 0x454858586100001
  4090. 00:04:16.392 : <ERROR> Unable to find 'Sign' '5210' for 0x3DDCEFE3620005E
  4091. 00:04:16.392 : <ERROR> Unable to find 'Sign' '5209' for 0x3DDCEFE4BE0005D
  4092. 00:04:16.392 : <ERROR> Unable to find 'Sign' '5128' for 0x3DDCEFE58A000FF
  4093. 00:04:16.392 : <ERROR> Unable to find 'Sign' '5210' for 0x3DDCEFEAF2000CF
  4094. 00:04:16.392 : <ERROR> Unable to find 'Sign' '5127' for 0x3DDCEFEB60000CE
  4095. 00:04:16.392 : <ERROR> Unable to find 'Sign' '5209' for 0x3DDCEFEE500010A
  4096. 00:04:16.392 : <ERROR> Unable to find 'Sign' '5124' for 0x3DE28E13E000001
  4097. 00:04:16.392 : <ERROR> Unable to find 'Sign' '5124' for 0x3DE293B8DC00000
  4098. 00:04:16.392 : <ERROR> Unable to find 'Sign' '5110' for 0x3DE2952EC000001
  4099. 00:04:16.392 : <ERROR> Unable to find 'Sign' '5116' for 0x3DE49BD09E0022F
  4100. 00:04:16.392 : <ERROR> Unable to find 'Sign' '5111' for 0x3DE49BD1E50046A
  4101. 00:04:16.392 : <ERROR> Unable to find 'Sign' '5225' for 0x3DE49BD20F001D8
  4102. 00:04:16.392 : <ERROR> Unable to find 'Sign' '5224' for 0x3DE49BD4C800632
  4103. 00:04:16.392 : <ERROR> Unable to find 'Sign' '5116' for 0x3DE49BD6C4002D1
  4104. 00:04:16.392 : <ERROR> Unable to find 'Sign' '5116' for 0x3DE49BD6DF0037E
  4105. 00:04:16.392 : <ERROR> Unable to find 'Sign' '5110' for 0x3DE49BD78B004AE
  4106. 00:04:16.393 : <ERROR> Unable to find 'Sign' '5107' for 0x3DE49BD99300451
  4107. 00:04:16.393 : <ERROR> Unable to find 'Sign' '5128' for 0x3DE49BDD5100185
  4108. 00:04:16.393 : <ERROR> Unable to find 'Sign' '5224' for 0x3DE49BDFD1002DD
  4109. 00:04:16.393 : <ERROR> Unable to find 'Sign' '5107' for 0x3DE5ED6A5B00059
  4110. 00:04:16.393 : <ERROR> Unable to find 'Sign' '5110' for 0x3DE5ED6E820004B
  4111. 00:04:16.393 : <ERROR> Unable to find 'Sign' '5111' for 0x3DE5ED6FC000016
  4112. 00:04:16.393 : <ERROR> Unable to find 'Sign' '5023' for 0x3DF5ECC4D200001
  4113. 00:04:16.393 : <ERROR> Unable to find 'Sign' '5127' for 0x3DF5EEB1C600001
  4114. 00:04:16.393 : <ERROR> Unable to find 'Sign' '5128' for 0x3DF5EF48B900001
  4115. 00:04:16.393 : <ERROR> Unable to find 'Sign' '5110' for 0x3DF5FB249100001
  4116. 00:04:16.393 : <ERROR> Unable to find 'Sign' '5110' for 0x3DF5FBFA7800001
  4117. 00:04:16.393 : <ERROR> Unable to find 'Sign' '5461rus' for 0x41FA7BAB3A00001
  4118. 00:04:16.393 : <ERROR> Unable to find 'Sign' '5462rus' for 0x41FA7C60AE00001
  4119. 00:04:16.394 : <ERROR> Unable to find 'Sign' '5462rus' for 0x41FA7D5FF000001
  4120. 00:04:16.394 : <ERROR> Unable to find 'Sign' '5461rus' for 0x41FA7D807B00001
  4121. 00:04:16.394 : <ERROR> Unable to find 'Sign' '5023' for 0x4547B142A700001
  4122. 00:04:16.396 : <ERROR> Unable to find 'Sign' '5107' for 0x3DDE4963CB00D02
  4123. 00:04:16.396 : <ERROR> Unable to find 'Sign' '5128' for 0x3DDE49641C00D7C
  4124. 00:04:16.396 : <ERROR> Unable to find 'Sign' '5128' for 0x3DDE49661800C5B
  4125. 00:04:16.396 : <ERROR> Unable to find 'Sign' '5127' for 0x3DDE496C7300CFF
  4126. 00:04:16.396 : <ERROR> Unable to find 'Sign' '5128' for 0x3DDE496FB000D35
  4127. 00:04:16.396 : <ERROR> Unable to find 'Sign' '5023' for 0x36D7E6C4008000D5
  4128. 00:04:16.396 : <ERROR> Unable to find 'Sign' '5023' for 0x36D7E6C457C000BD
  4129. 00:04:16.400 : <ERROR> Unable to find 'Sign' '5023' for 0x3DDE496426009DE
  4130. 00:04:16.400 : <ERROR> Unable to find 'Sign' '5023' for 0x3DDE49663A0094E
  4131. 00:04:16.400 : <ERROR> Unable to find 'Sign' '5023' for 0x3DDE496E2E00945
  4132. 00:04:16.400 : <ERROR> Unable to find 'Sign' '5023' for 0x3E47C259EF00049
  4133. 00:04:16.400 : <ERROR> Unable to find 'Sign' '5107' for 0x3E47C25C26001F0
  4134. 00:04:16.400 : <ERROR> Unable to find 'Sign' '5111' for 0x3E47C25C40001C9
  4135. 00:04:16.400 : <ERROR> Unable to find 'Sign' '5023' for 0x3E4979246900049
  4136. 00:04:16.400 : <ERROR> Unable to find 'Sign' '5023' for 0x3E49792A1C00064
  4137. 00:04:16.400 : <ERROR> Unable to find 'Sign' '5023' for 0x3E4B2BF88D000B9
  4138. 00:04:16.400 : <ERROR> Unable to find 'Sign' '5128' for 0x3E4E08FDFC00001
  4139. 00:04:16.400 : <ERROR> Unable to find 'Sign' '5023' for 0x3E4E0DF4BE00001
  4140. 00:04:16.400 : <ERROR> Unable to find 'Sign' '5127' for 0x3E7AB0AF8B00001
  4141. 00:04:16.408 : <ERROR> Unable to find 'Sign' '5128' for 0x3E47C2596800178
  4142. 00:04:16.408 : <ERROR> Unable to find 'Sign' '5107' for 0x3E4DA3208300334
  4143. 00:04:16.408 : <ERROR> Unable to find 'Sign' '5121' for 0x3E4DA3215600032
  4144. 00:04:16.408 : <ERROR> Unable to find 'Sign' '5110' for 0x3E4DA3216800329
  4145. 00:04:16.408 : <ERROR> Unable to find 'Sign' '5404rus' for 0x3E4DA3231200408
  4146. 00:04:16.408 : <ERROR> Unable to find 'Sign' '5403rus' for 0x3E4DA3233200181
  4147. 00:04:16.408 : <ERROR> Unable to find 'Sign' '5121' for 0x3E4DA324860013B
  4148. 00:04:16.408 : <ERROR> Unable to find 'Sign' '5121' for 0x3E4DA324FD0016C
  4149. 00:04:16.408 : <ERROR> Unable to find 'Sign' '5107' for 0x3E4DA325200032B
  4150. 00:04:16.408 : <ERROR> Unable to find 'Sign' '5121' for 0x3E4DA325C40013A
  4151. 00:04:16.408 : <ERROR> Unable to find 'Sign' '5107' for 0x3E4DA3264C0006A
  4152. 00:04:16.408 : <ERROR> Unable to find 'Sign' '5111' for 0x3E4DA326B70032A
  4153. 00:04:16.409 : <ERROR> Unable to find 'Sign' '5111' for 0x3E4DA3272000328
  4154. 00:04:16.409 : <ERROR> Unable to find 'Sign' '5001' for 0x3E4DA3274900425
  4155. 00:04:16.409 : <ERROR> Unable to find 'Sign' '5107' for 0x3E4DA3276B0032F
  4156. 00:04:16.409 : <ERROR> Unable to find 'Sign' '5107' for 0x3E4DA327D000390
  4157. 00:04:16.409 : <ERROR> Unable to find 'Sign' '5023' for 0x3E4DA327DB00457
  4158. 00:04:16.409 : <ERROR> Unable to find 'Sign' '5111' for 0x3E4DA32A1E00335
  4159. 00:04:16.409 : <ERROR> Unable to find 'Sign' '5023' for 0x3E4DA32AC600033
  4160. 00:04:16.409 : <ERROR> Unable to find 'Sign' '5023' for 0x3E4DA32B9F0013C
  4161. 00:04:16.409 : <ERROR> Unable to find 'Sign' '5121' for 0x3E4DA32C320002F
  4162. 00:04:16.409 : <ERROR> Unable to find 'Sign' '5128' for 0x3E4DA32CBB00036
  4163. 00:04:16.409 : <ERROR> Unable to find 'Sign' '5121' for 0x3E4DA32EF20016B
  4164. 00:04:16.409 : <ERROR> Unable to find 'Sign' '5110' for 0x3E4DA32F580038F
  4165. 00:04:16.409 : <ERROR> Unable to find 'Sign' '5110' for 0x3E4DA32FE10027B
  4166. 00:04:16.409 : <ERROR> Unable to find 'Sign' '5001' for 0x3E4DA32FF100445
  4167. 00:04:16.409 : <ERROR> Unable to find 'Sign' '5145' for 0x3E4DE3940300018
  4168. 00:04:16.409 : <ERROR> Unable to find 'Sign' '5127' for 0x3E879FC9F400001
  4169. 00:04:16.412 : <ERROR> Unable to find 'Sign' '5429rus' for 0x3E8719D0C9003F3
  4170. 00:04:16.412 : <ERROR> Unable to find 'Sign' '5110' for 0x3E8719D1A000779
  4171. 00:04:16.412 : <ERROR> Unable to find 'Sign' '5128' for 0x3E8719D1CE00831
  4172. 00:04:16.412 : <ERROR> Unable to find 'Sign' '5431rus' for 0x3E8719D1F300872
  4173. 00:04:16.412 : <ERROR> Unable to find 'Sign' '5381rus' for 0x3E8719D2B0007EF
  4174. 00:04:16.412 : <ERROR> Unable to find 'Sign' '5023' for 0x3E8719D2B30086B
  4175. 00:04:16.412 : <ERROR> Unable to find 'Sign' '5107' for 0x3E8719D32F0077B
  4176. 00:04:16.412 : <ERROR> Unable to find 'Sign' '5111' for 0x3E8719D5900077A
  4177. 00:04:16.412 : <ERROR> Unable to find 'Sign' '5428rus' for 0x3E8719D5CD007D2
  4178. 00:04:16.412 : <ERROR> Unable to find 'Sign' '5382rus' for 0x3E8719D8AB007F0
  4179. 00:04:16.412 : <ERROR> Unable to find 'Sign' '5429rus' for 0x3E8719DA57007D1
  4180. 00:04:16.412 : <ERROR> Unable to find 'Sign' '5127' for 0x3E8719DA880084E
  4181. 00:04:16.412 : <ERROR> Unable to find 'Sign' '5127' for 0x3E8719DAF70083E
  4182. 00:04:16.413 : <ERROR> Unable to find 'Sign' '5428rus' for 0x3E8719DB0C003F2
  4183. 00:04:16.413 : <ERROR> Unable to find 'Sign' '5430rus' for 0x3E8719DD8A00871
  4184. 00:04:16.413 : <ERROR> Unable to find 'Sign' '5023' for 0x3E8719DD9000838
  4185. 00:04:16.413 : <ERROR> Unable to find 'Sign' '5429rus' for 0x3EA4CBF0A200000
  4186. 00:04:16.413 : <ERROR> Unable to find 'Sign' '5428rus' for 0x3EA4CC5A9200000
  4187. 00:04:16.413 : <ERROR> Unable to find 'Sign' '5127' for 0x3EA4CE0DA700001
  4188. 00:04:16.413 : <ERROR> Unable to find 'Sign' '5111' for 0x3EA4D6A23900001
  4189. 00:04:16.413 : <ERROR> Unable to find 'Sign' '5110' for 0x3EA4D7139E00001
  4190. 00:04:16.415 : <ERROR> Unable to find 'Sign' '5023' for 0x3E8C9AB14600488
  4191. 00:04:16.415 : <ERROR> Unable to find 'Sign' '5023' for 0x3E8C9AB83E004AB
  4192. 00:04:16.415 : <ERROR> Unable to find 'Sign' '5023' for 0x3E8C9AB94B00458
  4193. 00:04:16.415 : <ERROR> Unable to find 'Sign' '5420rus' for 0x3E8C9ABCC5004DE
  4194. 00:04:16.415 : <ERROR> Unable to find 'Sign' '5420rus' for 0x3E8C9ABCFB00588
  4195. 00:04:16.415 : <ERROR> Unable to find 'Sign' '5419rus' for 0x3E8C9ABD4B00589
  4196. 00:04:16.415 : <ERROR> Unable to find 'Sign' '5419rus' for 0x3E8C9ABDA4004DD
  4197. 00:04:16.415 : <ERROR> Unable to find 'Sign' '5128' for 0x3EA0589B7300001
  4198. 00:04:16.415 : <ERROR> Unable to find 'Sign' '5023' for 0x3EA4388AFB00035
  4199. 00:04:16.415 : <ERROR> Unable to find 'Sign' '5023' for 0x3EA4EFA96200001
  4200. 00:04:16.418 : <ERROR> Unable to find 'Sign' '5110' for 0x3E66CCF0D40068D
  4201. 00:04:16.418 : <ERROR> Unable to find 'Sign' '5107' for 0x3E66CCF1300068B
  4202. 00:04:16.418 : <ERROR> Unable to find 'Sign' '5128' for 0x3E66CCF2120052B
  4203. 00:04:16.418 : <ERROR> Unable to find 'Sign' '5023' for 0x3E66CCF21F0035B
  4204. 00:04:16.418 : <ERROR> Unable to find 'Sign' '5023' for 0x3E66CCF2E8004DF
  4205. 00:04:16.418 : <ERROR> Unable to find 'Sign' '5110' for 0x3E66CCF32B009D2
  4206. 00:04:16.418 : <ERROR> Unable to find 'Sign' '5124' for 0x3E66CCF3310021E
  4207. 00:04:16.418 : <ERROR> Unable to find 'Sign' '5023' for 0x3E66CCF47900223
  4208. 00:04:16.418 : <ERROR> Unable to find 'Sign' '5360rus' for 0x3E66CCF625006F2
  4209. 00:04:16.418 : <ERROR> Unable to find 'Sign' '5360rus' for 0x3E66CCF649005A7
  4210. 00:04:16.418 : <ERROR> Unable to find 'Sign' '5111' for 0x3E66CCF67F0068C
  4211. 00:04:16.418 : <ERROR> Unable to find 'Sign' '5358rus' for 0x3E66CCF6D200296
  4212. 00:04:16.418 : <ERROR> Unable to find 'Sign' '5124' for 0x3E66CCF6FB0021D
  4213. 00:04:16.418 : <ERROR> Unable to find 'Sign' '5111' for 0x3E66CCF77C00924
  4214. 00:04:16.418 : <ERROR> Unable to find 'Sign' '5359rus' for 0x3E66CCF7AD0069C
  4215. 00:04:16.418 : <ERROR> Unable to find 'Sign' '5107' for 0x3E66CCF833009D3
  4216. 00:04:16.418 : <ERROR> Unable to find 'Sign' '5111' for 0x3E66CCF859009D4
  4217. 00:04:16.418 : <ERROR> Unable to find 'Sign' '5359rus' for 0x3E66CCF871009E9
  4218. 00:04:16.418 : <ERROR> Unable to find 'Sign' '5023' for 0x3E66CCF892005A2
  4219. 00:04:16.418 : <ERROR> Unable to find 'Sign' '5107' for 0x3E66CCF8B90016A
  4220. 00:04:16.419 : <ERROR> Unable to find 'Sign' '5110' for 0x3E66CCF93900371
  4221. 00:04:16.419 : <ERROR> Unable to find 'Sign' '5110' for 0x3E66CCF98700919
  4222. 00:04:16.419 : <ERROR> Unable to find 'Sign' '5357rus' for 0x3E66CCF9D500298
  4223. 00:04:16.419 : <ERROR> Unable to find 'Sign' '5127' for 0x3E66CCFA2A0052A
  4224. 00:04:16.419 : <ERROR> Unable to find 'Sign' '5107' for 0x3E66CCFA8C007FC
  4225. 00:04:16.419 : <ERROR> Unable to find 'Sign' '5358rus' for 0x3E66CCFA9B00297
  4226. 00:04:16.419 : <ERROR> Unable to find 'Sign' '5110' for 0x3E66CCFAAD00923
  4227. 00:04:16.419 : <ERROR> Unable to find 'Sign' '5359rus' for 0x3E66CCFB9000615
  4228. 00:04:16.419 : <ERROR> Unable to find 'Sign' '5124' for 0x3E66CCFBDA0036F
  4229. 00:04:16.419 : <ERROR> Unable to find 'Sign' '5360rus' for 0x3E66CCFD12009EA
  4230. 00:04:16.419 : <ERROR> Unable to find 'Sign' '5111' for 0x3E66CCFD3A00918
  4231. 00:04:16.419 : <ERROR> Unable to find 'Sign' '5107' for 0x3E66CCFDD700925
  4232. 00:04:16.419 : <ERROR> Unable to find 'Sign' '5357rus' for 0x3E66CCFDE700295
  4233. 00:04:16.419 : <ERROR> Unable to find 'Sign' '5124' for 0x3E66CCFE290036E
  4234. 00:04:16.419 : <ERROR> Unable to find 'Sign' '5128' for 0x3E66CCFE8B00586
  4235. 00:04:16.419 : <ERROR> Unable to find 'Sign' '5110' for 0x3E66CCFEE10021F
  4236. 00:04:16.419 : <ERROR> Unable to find 'Sign' '5127' for 0x3E66CCFEF50021B
  4237. 00:04:16.422 : <ERROR> Unable to find 'Sign' '5023' for 0x3E88AEBFB900021
  4238. 00:04:16.422 : <ERROR> Unable to find 'Sign' '5014' for 0x32A6EB48CAC00000
  4239. 00:04:16.422 : <ERROR> Unable to find 'Sign' '5669rus' for 0x32B6EA4CF5C00001
  4240. 00:04:16.424 : <ERROR> Unable to find 'Sign' '5028' for 0x577FE26FFD00001
  4241. 00:04:16.424 : <ERROR> Unable to find 'Sign' '5028' for 0x577FE33C7D00000
  4242. 00:04:16.425 : <ERROR> Unable to find 'Sign' '5111' for 0x57AAB5C50E00001
  4243. 00:04:16.425 : <ERROR> Unable to find 'Sign' '5110' for 0x57AAB6284800001
  4244. 00:04:16.425 : <ERROR> Unable to find 'Sign' '5107' for 0x57AAB6BB4E00001
  4245. 00:04:16.425 : <ERROR> Unable to find 'Sign' '5107' for 0x57AAB7AF4600001
  4246. 00:04:16.425 : <ERROR> Unable to find 'Sign' '5111' for 0x57AAB95AE000001
  4247. 00:04:16.425 : <ERROR> Unable to find 'Sign' '5110' for 0x57AAB95D7900000
  4248. 00:04:16.425 : <ERROR> Unable to find 'Sign' '5107' for 0x57AABA262900001
  4249. 00:04:16.425 : <ERROR> Unable to find 'Sign' '5111' for 0x57AACACAC400001
  4250. 00:04:16.425 : <ERROR> Unable to find 'Sign' '5110' for 0x57AACACED800000
  4251. 00:04:16.425 : <ERROR> Unable to find 'Sign' '5559rus' for 0x57C7C1CB5700001
  4252. 00:04:16.425 : <ERROR> Unable to find 'Sign' '5558rus' for 0x57C7C2FDE100001
  4253. 00:04:16.426 : <ERROR> Unable to find 'Sign' '5561rus' for 0x57D7AFAF2700000
  4254. 00:04:16.426 : <ERROR> Unable to find 'Sign' '5560rus' for 0x57D7B042F500000
  4255. 00:04:16.429 : <ERROR> Unable to find 'Sign' '5111' for 0x8216EEB93400001
  4256. 00:04:16.429 : <ERROR> Unable to find 'Sign' '5110' for 0x8216EF6EDB00001
  4257. 00:04:16.429 : <ERROR> Unable to find 'Sign' '5145' for 0x822F4BCF5900018
  4258. 00:04:16.429 : <ERROR> Unable to find 'Sign' '5145' for 0x827DD57B8C00018
  4259. 00:04:16.432 : <ERROR> Unable to find 'Sign' '5659rus' for 0x83D6F4BB7900001
  4260. 00:04:16.432 : <ERROR> Unable to find 'Sign' '5660rus' for 0x83D6F5F14E00001
  4261. 00:04:16.432 : <ERROR> Unable to find 'Sign' '5121' for 0x8411464C3000001
  4262. 00:04:16.432 : <ERROR> Unable to find 'Sign' '5121' for 0x8412BC00CD00000
  4263. 00:04:16.433 : <ERROR> Unable to find 'Sign' '5002' for 0x244038E88A000001
  4264. 00:04:16.436 : <ERROR> Unable to find 'Sign' '5661rus' for 0x84A5770A3800001
  4265. 00:04:16.436 : <ERROR> Unable to find 'Sign' '5662rus' for 0x84A577E2CC00001
  4266. 00:04:16.436 : <ERROR> Unable to find 'Sign' '5662rus' for 0x84A5790DF100001
  4267. 00:04:16.436 : <ERROR> Unable to find 'Sign' '5661rus' for 0x84A57984CD00001
  4268. 00:04:16.436 : <ERROR> Unable to find 'Sign' '5002' for 0x84A5F8596500001
  4269. 00:04:16.436 : <ERROR> Unable to find 'Sign' '5111' for 0x84BB728A9A00001
  4270. 00:04:16.436 : <ERROR> Unable to find 'Sign' '5111' for 0x84BB73612600001
  4271. 00:04:16.436 : <ERROR> Unable to find 'Sign' '5002' for 0x84BB7F884600001
  4272. 00:04:16.437 : <ERROR> Unable to find 'Sign' '5121' for 0x88C528698E00001
  4273. 00:04:16.437 : <ERROR> Unable to find 'Sign' '5663rus' for 0x88EE1D371E00001
  4274. 00:04:16.437 : <ERROR> Unable to find 'Sign' '5717rus' for 0x269DBC28AA400000
  4275. 00:04:16.437 : <ERROR> Unable to find 'Sign' '5716rus' for 0x269DBC70B6800000
  4276. 00:04:16.437 : <ERROR> Unable to find 'Sign' '5002' for 0x26A9E4009E400001
  4277. 00:04:16.437 : <ERROR> Unable to find 'Sign' '5002' for 0x26A9E61024000001
  4278. 00:04:16.437 : <ERROR> Unable to find 'Sign' '5002' for 0x26A9E640F2400001
  4279. 00:04:16.440 : <ERROR> Unable to find 'Sign' '5664rus' for 0x88EE1E24A700001
  4280. 00:04:16.440 : <ERROR> Unable to find 'Sign' '5666rus' for 0x8BA6F1BEEB00001
  4281. 00:04:16.440 : <ERROR> Unable to find 'Sign' '5667rus' for 0x8BA6F2C36200001
  4282. 00:04:16.442 : <ERROR> Unable to find 'Sign' '5667rus' for 0x8BA6F3C40B00001
  4283. 00:04:16.442 : <ERROR> Unable to find 'Sign' '5666rus' for 0x8BA6F466BD00001
  4284. 00:04:16.443 : <ERROR> Unable to find 'Sign' '5002' for 0x8CCE69AF9E00001
  4285. 00:04:16.443 : <ERROR> Unable to find 'Sign' '5677rus' for 0x8CE584214F00001
  4286. 00:04:16.443 : <ERROR> Unable to find 'Sign' '5678rus' for 0x8CE585FE8000001
  4287. 00:04:16.443 : <ERROR> Unable to find 'Sign' '5731rus' for 0x27EE49BC00C00001
  4288. 00:04:16.443 : <ERROR> Unable to find 'Sign' '5730rus' for 0x27EE49FC55400001
  4289. 00:04:16.444 : <ERROR> Unable to find 'Sign' '5730rus' for 0x27EE574C9A400000
  4290. 00:04:16.444 : <ERROR> Unable to find 'Sign' '5731rus' for 0x27EE574CF2000001
  4291. 00:04:16.446 : <ERROR> Unable to find 'Sign' '5002' for 0x8D5D7363AD00001
  4292. 00:04:16.446 : <ERROR> Unable to find 'Sign' '5002' for 0x8D5EB4360100001
  4293. 00:04:16.448 : <ERROR> Unable to find 'Sign' '5110' for 0x8DF58BD94A00001
  4294. 00:04:16.449 : <ERROR> Unable to find 'Sign' '5111' for 0x8DF58D7BFC00001
  4295. 00:04:16.451 : <ERROR> Unable to find 'Sign' '5028' for 0x23F5AB4C74800004
  4296. 00:04:16.451 : <ERROR> Unable to find 'Sign' '5028' for 0x23F5BFE037800000
  4297. 00:04:16.451 : <ERROR> Unable to find 'Sign' '5111' for 0x23F79BACEC400001
  4298. 00:04:16.451 : <ERROR> Unable to find 'Sign' '5110' for 0x23F79BECA2C00001
  4299. 00:04:16.451 : <ERROR> Unable to find 'Sign' '5002' for 0x23F79D5CE1800001
  4300. 00:04:16.452 : <ERROR> Unable to find 'Sign' '5633rus' for 0x23F79E48A1000001
  4301. 00:04:16.452 : <ERROR> Unable to find 'Sign' '5028' for 0x23F79F1C73000001
  4302. 00:04:16.452 : <ERROR> Unable to find 'Sign' '5633rus' for 0x23F79F9CD4C00000
  4303. 00:04:16.452 : <ERROR> Unable to find 'Sign' '5107' for 0x23FB8688DEC00001
  4304. 00:04:16.452 : <ERROR> Unable to find 'Sign' '5002' for 0x23FB883CE9400001
  4305. 00:04:16.452 : <ERROR> Unable to find 'Sign' '5633rus' for 0x23FB890838800001
  4306. 00:04:16.452 : <ERROR> Unable to find 'Sign' '5002' for 0x23FB8A3883400000
  4307. 00:04:16.452 : <ERROR> Unable to find 'Sign' '5028' for 0x23FB8FEC49400001
  4308. 00:04:16.452 : <ERROR> Unable to find 'Sign' '5698rus' for 0x23FBB4C075400001
  4309. 00:04:16.452 : <ERROR> Unable to find 'Sign' '5699rus' for 0x23FBB56C44000001
  4310. 00:04:16.452 : <ERROR> Unable to find 'Sign' '5699rus' for 0x23FBB5CC88800001
  4311. 00:04:16.452 : <ERROR> Unable to find 'Sign' '5698rus' for 0x23FBB5F0EB800001
  4312. 00:04:16.452 : <ERROR> Unable to find 'Sign' '5698rus' for 0x23FBB6147C000001
  4313. 00:04:16.452 : <ERROR> Unable to find 'Sign' '5699rus' for 0x23FBB62C69400001
  4314. 00:04:16.455 : <ERROR> Unable to find 'Sign' '5240' for 0x3DF65390320006F
  4315. 00:04:16.455 : <ERROR> Unable to find 'Sign' '5241' for 0x3DF65390ED00070
  4316. 00:04:16.455 : <ERROR> Unable to find 'Sign' '5241' for 0x3DF6539111001C1
  4317. 00:04:16.455 : <ERROR> Unable to find 'Sign' '5023' for 0x3DF65392FD00037
  4318. 00:04:16.455 : <ERROR> Unable to find 'Sign' '5110' for 0x3DF653946800402
  4319. 00:04:16.455 : <ERROR> Unable to find 'Sign' '5111' for 0x3DF65394940048D
  4320. 00:04:16.455 : <ERROR> Unable to find 'Sign' '5240' for 0x3DF65394E9001C0
  4321. 00:04:16.455 : <ERROR> Unable to find 'Sign' '5124' for 0x3DF653993000198
  4322. 00:04:16.455 : <ERROR> Unable to find 'Sign' '5110' for 0x3DF6539A400019C
  4323. 00:04:16.455 : <ERROR> Unable to find 'Sign' '5124' for 0x3DF6539B7E00199
  4324. 00:04:16.455 : <ERROR> Unable to find 'Sign' '5023' for 0x3DF6539C6B00060
  4325. 00:04:16.455 : <ERROR> Unable to find 'Sign' '5107' for 0x3DF6539FCD0048E
  4326. 00:04:16.455 : <ERROR> Unable to find 'Sign' '5110' for 0x3DF8FC92DA00001
  4327. 00:04:16.455 : <ERROR> Unable to find 'Sign' '5111' for 0x3DF8FD86F100001
  4328. 00:04:16.455 : <ERROR> Unable to find 'Sign' '5241' for 0x3DF90AF90500000
  4329. 00:04:16.455 : <ERROR> Unable to find 'Sign' '5240' for 0x3DF90BE35200000
  4330. 00:04:16.455 : <ERROR> Unable to find 'Sign' '5023' for 0x3DF936D2CC00086
  4331. 00:04:16.455 : <ERROR> Unable to find 'Sign' '5023' for 0x3DF936D45300084
  4332. 00:04:16.455 : <ERROR> Unable to find 'Sign' '5121' for 0x3DF936D76500069
  4333. 00:04:16.455 : <ERROR> Unable to find 'Sign' '5127' for 0x3DF943A5870006E
  4334. 00:04:16.456 : <ERROR> Unable to find 'Sign' '5023' for 0x3DF943A5C800138
  4335. 00:04:16.456 : <ERROR> Unable to find 'Sign' '5023' for 0x3DF943ABEC0010B
  4336. 00:04:16.456 : <ERROR> Unable to find 'Sign' '5127' for 0x3DF943AFE20010A
  4337. 00:04:16.456 : <ERROR> Unable to find 'Sign' '5128' for 0x3DF982AD6100001
  4338. 00:04:16.456 : <ERROR> Unable to find 'Sign' '5023' for 0x3DF9873AFF00001
  4339. 00:04:16.458 : <ERROR> Unable to find 'Sign' '5110' for 0x3DDF5CB63B00462
  4340. 00:04:16.458 : <ERROR> Unable to find 'Sign' '5023' for 0x3DDF5CBCCB004BB
  4341. 00:04:16.458 : <ERROR> Unable to find 'Sign' '5023' for 0x3DDF5CBE9E003E9
  4342. 00:04:16.458 : <ERROR> Unable to find 'Sign' '5023' for 0x3DF653928600026
  4343. 00:04:16.458 : <ERROR> Unable to find 'Sign' '5023' for 0x3DF6539BED00027
  4344. 00:04:16.458 : <ERROR> Unable to find 'Sign' '5023' for 0x3DF66323A6000A3
  4345. 00:04:16.458 : <ERROR> Unable to find 'Sign' '5238' for 0x3DF676DCC400238
  4346. 00:04:16.458 : <ERROR> Unable to find 'Sign' '5239' for 0x3DF676DD4E00247
  4347. 00:04:16.459 : <ERROR> Unable to find 'Sign' '5239' for 0x3DF6A5158000000
  4348. 00:04:16.459 : <ERROR> Unable to find 'Sign' '5238' for 0x3DF6A5DDAB00000
  4349. 00:04:16.459 : <ERROR> Unable to find 'Sign' '5483rus' for 0x44E7DCC6B200001
  4350. 00:04:16.459 : <ERROR> Unable to find 'Sign' '5484rus' for 0x44E7DDC32400001
  4351. 00:04:16.461 : <ERROR> Unable to find 'Sign' '5124' for 0x3DDCEFE066005F1
  4352. 00:04:16.461 : <ERROR> Unable to find 'Sign' '5110' for 0x3DDCEFE3F9005ED
  4353. 00:04:16.461 : <ERROR> Unable to find 'Sign' '5023' for 0x3DDCEFE71300624
  4354. 00:04:16.461 : <ERROR> Unable to find 'Sign' '5023' for 0x3DDCEFE8CB00625
  4355. 00:04:16.461 : <ERROR> Unable to find 'Sign' '5127' for 0x3DDCEFEF4D0040C
  4356. 00:04:16.461 : <ERROR> Unable to find 'Sign' '5121' for 0x3DDF5CB0F9002F9
  4357. 00:04:16.461 : <ERROR> Unable to find 'Sign' '5121' for 0x3DDF5CB1F200252
  4358. 00:04:16.461 : <ERROR> Unable to find 'Sign' '5023' for 0x3DDF5CB25B00002
  4359. 00:04:16.461 : <ERROR> Unable to find 'Sign' '5127' for 0x3DDF5CB3350033B
  4360. 00:04:16.461 : <ERROR> Unable to find 'Sign' '5127' for 0x3DDF5CB41600325
  4361. 00:04:16.461 : <ERROR> Unable to find 'Sign' '5023' for 0x3DDF5CBAE70019E
  4362. 00:04:16.461 : <ERROR> Unable to find 'Sign' '5127' for 0x3DDF5CBB960034C
  4363. 00:04:16.462 : <ERROR> Unable to find 'Sign' '5128' for 0x3DDF5CBBCC002AF
  4364. 00:04:16.462 : <ERROR> Unable to find 'Sign' '5127' for 0x3DDF5CBC9700355
  4365. 00:04:16.462 : <ERROR> Unable to find 'Sign' '5023' for 0x3DDF5CBCF100142
  4366. 00:04:16.462 : <ERROR> Unable to find 'Sign' '5023' for 0x3DDF5CBDFC002BA
  4367. 00:04:16.462 : <ERROR> Unable to find 'Sign' '5128' for 0x3DDF5CBE2A00335
  4368. 00:04:16.462 : <ERROR> Unable to find 'Sign' '5127' for 0x3DDF5CBF150012A
  4369. 00:04:16.462 : <ERROR> Unable to find 'Sign' '5128' for 0x3DDFC350D000F42
  4370. 00:04:16.462 : <ERROR> Unable to find 'Sign' '5023' for 0x3DDFC3553B00F6B
  4371. 00:04:16.462 : <ERROR> Unable to find 'Sign' '5127' for 0x3DE00DABE300001
  4372. 00:04:16.462 : <ERROR> Unable to find 'Sign' '5023' for 0x3DE01DC02300001
  4373. 00:04:16.464 : <ERROR> Unable to find 'Sign' '5107' for 0x3DDFC3505B002DC
  4374. 00:04:16.464 : <ERROR> Unable to find 'Sign' '5023' for 0x3DDFC350E80022E
  4375. 00:04:16.464 : <ERROR> Unable to find 'Sign' '5282rus' for 0x3DDFC3515B0032A
  4376. 00:04:16.464 : <ERROR> Unable to find 'Sign' '5110' for 0x3DDFC3516400071
  4377. 00:04:16.464 : <ERROR> Unable to find 'Sign' '5023' for 0x3DDFC35243003A2
  4378. 00:04:16.464 : <ERROR> Unable to find 'Sign' '5127' for 0x3DDFC3529A00215
  4379. 00:04:16.464 : <ERROR> Unable to find 'Sign' '5110' for 0x3DDFC352A2003D2
  4380. 00:04:16.464 : <ERROR> Unable to find 'Sign' '5111' for 0x3DDFC3537C00151
  4381. 00:04:16.464 : <ERROR> Unable to find 'Sign' '5111' for 0x3DDFC3544F003BE
  4382. 00:04:16.464 : <ERROR> Unable to find 'Sign' '5111' for 0x3DDFC3545900106
  4383. 00:04:16.465 : <ERROR> Unable to find 'Sign' '5283rus' for 0x3DDFC3547D001A3
  4384. 00:04:16.465 : <ERROR> Unable to find 'Sign' '5111' for 0x3DDFC354AA0029C
  4385. 00:04:16.465 : <ERROR> Unable to find 'Sign' '5282rus' for 0x3DDFC3558F001A9
  4386. 00:04:16.465 : <ERROR> Unable to find 'Sign' '5282rus' for 0x3DDFC3572A000CD
  4387. 00:04:16.465 : <ERROR> Unable to find 'Sign' '5023' for 0x3DDFC357310030E
  4388. 00:04:16.465 : <ERROR> Unable to find 'Sign' '5107' for 0x3DDFC3584900158
  4389. 00:04:16.465 : <ERROR> Unable to find 'Sign' '5107' for 0x3DDFC359880035B
  4390. 00:04:16.465 : <ERROR> Unable to find 'Sign' '5023' for 0x3DDFC35A2C0024A
  4391. 00:04:16.465 : <ERROR> Unable to find 'Sign' '5110' for 0x3DDFC35C1F000B3
  4392. 00:04:16.465 : <ERROR> Unable to find 'Sign' '5110' for 0x3DDFC35C500014D
  4393. 00:04:16.465 : <ERROR> Unable to find 'Sign' '5110' for 0x3DDFC35C6B001D2
  4394. 00:04:16.465 : <ERROR> Unable to find 'Sign' '5107' for 0x3DDFC35CA900051
  4395. 00:04:16.465 : <ERROR> Unable to find 'Sign' '5283rus' for 0x3DDFC35CBE0026B
  4396. 00:04:16.465 : <ERROR> Unable to find 'Sign' '5107' for 0x3DDFC35D3A0009A
  4397. 00:04:16.465 : <ERROR> Unable to find 'Sign' '5110' for 0x3DDFC35D850006C
  4398. 00:04:16.465 : <ERROR> Unable to find 'Sign' '5107' for 0x3DDFC35E5C0006A
  4399. 00:04:16.465 : <ERROR> Unable to find 'Sign' '5283rus' for 0x3DDFC35FB10017E
  4400. 00:04:16.465 : <ERROR> Unable to find 'Sign' '5127' for 0x3DE19343BA00147
  4401. 00:04:16.465 : <ERROR> Unable to find 'Sign' '5128' for 0x3DE193496500157
  4402. 00:04:16.465 : <ERROR> Unable to find 'Sign' '5023' for 0x3DE1AE4AA200001
  4403. 00:04:16.465 : <ERROR> Unable to find 'Sign' '5127' for 0x3DE1B00C1300001
  4404. 00:04:16.465 : <ERROR> Unable to find 'Sign' '5023' for 0x3DE1B3DB8800001
  4405. 00:04:16.466 : <ERROR> Unable to find 'Sign' '5023' for 0x3DE2843ECF00001
  4406. 00:04:16.466 : <ERROR> Unable to find 'Sign' '5224' for 0x3DE49BD0F7002B7
  4407. 00:04:16.466 : <ERROR> Unable to find 'Sign' '5225' for 0x3DE49BD5040048A
  4408. 00:04:16.466 : <ERROR> Unable to find 'Sign' '5116' for 0x3DE49BD8AA002A5
  4409. 00:04:16.466 : <ERROR> Unable to find 'Sign' '5023' for 0x3DE49BDD83004DD
  4410. 00:04:16.466 : <ERROR> Unable to find 'Sign' '5023' for 0x3DE49BDED4004EF
  4411. 00:04:16.468 : <ERROR> Unable to find 'Sign' '5023' for 0x3E1189311500047
  4412. 00:04:16.468 : <ERROR> Unable to find 'Sign' '5111' for 0x3E1189319300041
  4413. 00:04:16.468 : <ERROR> Unable to find 'Sign' '5128' for 0x3E1189340E0019C
  4414. 00:04:16.468 : <ERROR> Unable to find 'Sign' '5023' for 0x3E118936F20019E
  4415. 00:04:16.468 : <ERROR> Unable to find 'Sign' '5023' for 0x3E118937FF0003D
  4416. 00:04:16.468 : <ERROR> Unable to find 'Sign' '5127' for 0x3E1189382700086
  4417. 00:04:16.468 : <ERROR> Unable to find 'Sign' '5107' for 0x3E11893C500003E
  4418. 00:04:16.468 : <ERROR> Unable to find 'Sign' '5127' for 0x3E11893CDA001A1
  4419. 00:04:16.468 : <ERROR> Unable to find 'Sign' '5127' for 0x3E11893ED20012A
  4420. 00:04:16.469 : <ERROR> Unable to find 'Sign' '5127' for 0x3E11893F8600127
  4421. 00:04:16.469 : <ERROR> Unable to find 'Sign' '5110' for 0x3E11893FE30003C
  4422. 00:04:16.469 : <ERROR> Unable to find 'Sign' '5121' for 0x3E289A788D0005F
  4423. 00:04:16.469 : <ERROR> Unable to find 'Sign' '5121' for 0x3E289A7D7000053
  4424. 00:04:16.469 : <ERROR> Unable to find 'Sign' '5023' for 0x3E289D9E0900001
  4425. 00:04:16.469 : <ERROR> Unable to find 'Sign' '5127' for 0x3E28A089CA00001
  4426. 00:04:16.469 : <ERROR> Unable to find 'Sign' '5111' for 0x3E498493560018F
  4427. 00:04:16.469 : <ERROR> Unable to find 'Sign' '5110' for 0x3E498494020018E
  4428. 00:04:16.469 : <ERROR> Unable to find 'Sign' '5107' for 0x3E498496310014E
  4429. 00:04:16.469 : <ERROR> Unable to find 'Sign' '5023' for 0x3E4984989700243
  4430. 00:04:16.469 : <ERROR> Unable to find 'Sign' '5023' for 0x3E49849DCC000AF
  4431. 00:04:16.469 : <ERROR> Unable to find 'Sign' '5023' for 0x430B605CD500001
  4432. 00:04:16.472 : <ERROR> Unable to find 'Sign' '5107' for 0x3E4979217E00223
  4433. 00:04:16.472 : <ERROR> Unable to find 'Sign' '5199' for 0x3E497922AE00179
  4434. 00:04:16.472 : <ERROR> Unable to find 'Sign' '5110' for 0x3E497922BD0021C
  4435. 00:04:16.472 : <ERROR> Unable to find 'Sign' '5107' for 0x3E497922C60026D
  4436. 00:04:16.472 : <ERROR> Unable to find 'Sign' '5111' for 0x3E4979240500279
  4437. 00:04:16.472 : <ERROR> Unable to find 'Sign' '5198' for 0x3E497924100027A
  4438. 00:04:16.472 : <ERROR> Unable to find 'Sign' '5198' for 0x3E497924280024E
  4439. 00:04:16.472 : <ERROR> Unable to find 'Sign' '5198' for 0x3E497925540017A
  4440. 00:04:16.472 : <ERROR> Unable to find 'Sign' '5199' for 0x3E4979282B0029D
  4441. 00:04:16.472 : <ERROR> Unable to find 'Sign' '5110' for 0x3E49792A1F0026A
  4442. 00:04:16.472 : <ERROR> Unable to find 'Sign' '5198' for 0x3E49792AFB0029C
  4443. 00:04:16.472 : <ERROR> Unable to find 'Sign' '5023' for 0x3E49792B230017B
  4444. 00:04:16.472 : <ERROR> Unable to find 'Sign' '5111' for 0x3E49792B9F0021F
  4445. 00:04:16.472 : <ERROR> Unable to find 'Sign' '5145' for 0x3E49792BB60027D
  4446. 00:04:16.472 : <ERROR> Unable to find 'Sign' '5199' for 0x3E49792D8D0026B
  4447. 00:04:16.473 : <ERROR> Unable to find 'Sign' '5023' for 0x3E4A4CE34D0000F
  4448. 00:04:16.473 : <ERROR> Unable to find 'Sign' '5023' for 0x3E4A4CE42F00080
  4449. 00:04:16.473 : <ERROR> Unable to find 'Sign' '5023' for 0x3E4A4CE4F9001D7
  4450. 00:04:16.473 : <ERROR> Unable to find 'Sign' '5023' for 0x3E4A4CE90A001D5
  4451. 00:04:16.473 : <ERROR> Unable to find 'Sign' '5128' for 0x3E4A4CEB5E00073
  4452. 00:04:16.473 : <ERROR> Unable to find 'Sign' '5199' for 0x3E4A4CEFEE00005
  4453. 00:04:16.473 : <ERROR> Unable to find 'Sign' '5127' for 0x4018FCF77A0036B
  4454. 00:04:16.475 : <ERROR> Unable to find 'Sign' '5023' for 0x4018FCF0D000359
  4455. 00:04:16.475 : <ERROR> Unable to find 'Sign' '5023' for 0x4018FCF1110031F
  4456. 00:04:16.475 : <ERROR> Unable to find 'Sign' '5117' for 0x4018FCFE6B00346
  4457. 00:04:16.475 : <ERROR> Unable to find 'Sign' '5111' for 0x401A9FB2EA0013E
  4458. 00:04:16.475 : <ERROR> Unable to find 'Sign' '5060' for 0x401A9FB5B300185
  4459. 00:04:16.475 : <ERROR> Unable to find 'Sign' '5070' for 0x401A9FB5B400011
  4460. 00:04:16.475 : <ERROR> Unable to find 'Sign' '5107' for 0x401A9FB70200160
  4461. 00:04:16.475 : <ERROR> Unable to find 'Sign' '5110' for 0x401A9FB79300065
  4462. 00:04:16.475 : <ERROR> Unable to find 'Sign' '5070' for 0x401A9FBB3000164
  4463. 00:04:16.475 : <ERROR> Unable to find 'Sign' '5110' for 0x401A9FBB4F0017D
  4464. 00:04:16.475 : <ERROR> Unable to find 'Sign' '5107' for 0x401A9FBC1D00086
  4465. 00:04:16.475 : <ERROR> Unable to find 'Sign' '5070' for 0x401A9FBC5700165
  4466. 00:04:16.475 : <ERROR> Unable to find 'Sign' '5060' for 0x401A9FBFE000186
  4467. 00:04:16.475 : <ERROR> Unable to find 'Sign' '5128' for 0x415790BB5800162
  4468. 00:04:16.475 : <ERROR> Unable to find 'Sign' '5127' for 0x415790BCB7000A0
  4469. 00:04:16.476 : <ERROR> Unable to find 'Sign' '5023' for 0x415790BDF200096
  4470. 00:04:16.476 : <ERROR> Unable to find 'Sign' '5107' for 0x4159BE958500001
  4471. 00:04:16.476 : <ERROR> Unable to find 'Sign' '5127' for 0x4159C48D3700001
  4472. 00:04:16.478 : <ERROR> Unable to find 'Sign' '5121' for 0x3E9DF442E4003D4
  4473. 00:04:16.478 : <ERROR> Unable to find 'Sign' '5023' for 0x3E9DF44319003E6
  4474. 00:04:16.478 : <ERROR> Unable to find 'Sign' '5023' for 0x3E9DF4436D00491
  4475. 00:04:16.478 : <ERROR> Unable to find 'Sign' '5121' for 0x3E9DF444A5002FD
  4476. 00:04:16.478 : <ERROR> Unable to find 'Sign' '5028' for 0x3E9DF445EF00438
  4477. 00:04:16.478 : <ERROR> Unable to find 'Sign' '5417rus' for 0x3E9DF44690003EC
  4478. 00:04:16.478 : <ERROR> Unable to find 'Sign' '5121' for 0x3E9DF44724002FA
  4479. 00:04:16.478 : <ERROR> Unable to find 'Sign' '5121' for 0x3E9DF44802003D5
  4480. 00:04:16.478 : <ERROR> Unable to find 'Sign' '5023' for 0x3E9DF44AB100410
  4481. 00:04:16.478 : <ERROR> Unable to find 'Sign' '5128' for 0x3E9DF44AE500499
  4482. 00:04:16.478 : <ERROR> Unable to find 'Sign' '5416rus' for 0x3E9DF44E13003ED
  4483. 00:04:16.478 : <ERROR> Unable to find 'Sign' '5416rus' for 0x3E9DF44FEC003EB
  4484. 00:04:16.479 : <ERROR> Unable to find 'Sign' '5145' for 0x460BC7B30B00018
  4485. 00:04:16.481 : <ERROR> Unable to find 'Sign' '5023' for 0x3E8C9AB30D003CF
  4486. 00:04:16.481 : <ERROR> Unable to find 'Sign' '5110' for 0x3E8C9AB4D00024B
  4487. 00:04:16.481 : <ERROR> Unable to find 'Sign' '5023' for 0x3E8C9AB7BF0023F
  4488. 00:04:16.481 : <ERROR> Unable to find 'Sign' '5424rus' for 0x3E8C9ABA0F0023C
  4489. 00:04:16.481 : <ERROR> Unable to find 'Sign' '5424rus' for 0x3E8C9ABA7800393
  4490. 00:04:16.481 : <ERROR> Unable to find 'Sign' '5127' for 0x3E8C9ABB7D003DF
  4491. 00:04:16.481 : <ERROR> Unable to find 'Sign' '5111' for 0x3E8C9ABC1700396
  4492. 00:04:16.481 : <ERROR> Unable to find 'Sign' '5425rus' for 0x3E8C9ABD950023D
  4493. 00:04:16.481 : <ERROR> Unable to find 'Sign' '5110' for 0x3E8C9ABDB700397
  4494. 00:04:16.481 : <ERROR> Unable to find 'Sign' '5425rus' for 0x3E8C9ABF5200392
  4495. 00:04:16.481 : <ERROR> Unable to find 'Sign' '5111' for 0x3E9DF4425400308
  4496. 00:04:16.481 : <ERROR> Unable to find 'Sign' '5417rus' for 0x3E9DF444BF00144
  4497. 00:04:16.481 : <ERROR> Unable to find 'Sign' '5110' for 0x3E9DF448C2003E3
  4498. 00:04:16.482 : <ERROR> Unable to find 'Sign' '5107' for 0x3E9DF44AE200309
  4499. 00:04:16.482 : <ERROR> Unable to find 'Sign' '5416rus' for 0x3E9DF44C3F00143
  4500. 00:04:16.482 : <ERROR> Unable to find 'Sign' '5023' for 0x3E9EA6825500001
  4501. 00:04:16.482 : <ERROR> Unable to find 'Sign' '5023' for 0x3EA169430C00001
  4502. 00:04:16.482 : <ERROR> Unable to find 'Sign' '5128' for 0x3EA16CF81000001
  4503. 00:04:16.484 : <ERROR> Unable to find 'Sign' '5023' for 0x3E8B69B29400012
  4504. 00:04:16.484 : <ERROR> Unable to find 'Sign' '5373rus' for 0x3E8B69B89F000C7
  4505. 00:04:16.484 : <ERROR> Unable to find 'Sign' '5374rus' for 0x3E8B69BB600007B
  4506. 00:04:16.484 : <ERROR> Unable to find 'Sign' '5111' for 0x3E8BD5F310003AF
  4507. 00:04:16.484 : <ERROR> Unable to find 'Sign' '5023' for 0x3E8BD5F317002A4
  4508. 00:04:16.485 : <ERROR> Unable to find 'Sign' '5371rus' for 0x3E8BD5F367003B5
  4509. 00:04:16.485 : <ERROR> Unable to find 'Sign' '5107' for 0x3E8BD5F3D7003B1
  4510. 00:04:16.485 : <ERROR> Unable to find 'Sign' '5023' for 0x3E8BD5F51B00342
  4511. 00:04:16.485 : <ERROR> Unable to find 'Sign' '5110' for 0x3E8BD5F5250054C
  4512. 00:04:16.485 : <ERROR> Unable to find 'Sign' '5107' for 0x3E8BD5F5700052B
  4513. 00:04:16.485 : <ERROR> Unable to find 'Sign' '5372rus' for 0x3E8BD5F73C003B6
  4514. 00:04:16.485 : <ERROR> Unable to find 'Sign' '5372rus' for 0x3E8BD5F78900347
  4515. 00:04:16.485 : <ERROR> Unable to find 'Sign' '5372rus' for 0x3E8BD5F8D1005C8
  4516. 00:04:16.485 : <ERROR> Unable to find 'Sign' '5371rus' for 0x3E8BD5F8D5005C7
  4517. 00:04:16.485 : <ERROR> Unable to find 'Sign' '5023' for 0x3E8BD5FA0B003A7
  4518. 00:04:16.485 : <ERROR> Unable to find 'Sign' '5371rus' for 0x3E8BD5FC0800348
  4519. 00:04:16.485 : <ERROR> Unable to find 'Sign' '5023' for 0x3E8BD5FCF40033A
  4520. 00:04:16.485 : <ERROR> Unable to find 'Sign' '5110' for 0x3E8BD5FD50003B0
  4521. 00:04:16.485 : <ERROR> Unable to find 'Sign' '5128' for 0x3E8BD5FE3B0033D
  4522. 00:04:16.485 : <ERROR> Unable to find 'Sign' '5111' for 0x3E8BD5FE880054D
  4523. 00:04:16.485 : <ERROR> Unable to find 'Sign' '5023' for 0x3E8BD5FF320033F
  4524. 00:04:16.485 : <ERROR> Unable to find 'Sign' '5023' for 0x3E8C27608800001
  4525. 00:04:16.485 : <ERROR> Unable to find 'Sign' '5423rus' for 0x3E8C9AB1A0000EE
  4526. 00:04:16.485 : <ERROR> Unable to find 'Sign' '5421rus' for 0x3E8C9AB209000EC
  4527. 00:04:16.485 : <ERROR> Unable to find 'Sign' '5121' for 0x3E8C9AB63A00144
  4528. 00:04:16.485 : <ERROR> Unable to find 'Sign' '5023' for 0x3E8C9AB748001B8
  4529. 00:04:16.486 : <ERROR> Unable to find 'Sign' '5023' for 0x3E8C9AB8E000152
  4530. 00:04:16.486 : <ERROR> Unable to find 'Sign' '5121' for 0x3E8C9ABA4300151
  4531. 00:04:16.486 : <ERROR> Unable to find 'Sign' '5127' for 0x3E8C9ABB5800138
  4532. 00:04:16.486 : <ERROR> Unable to find 'Sign' '5421rus' for 0x3E8C9ABCA500101
  4533. 00:04:16.486 : <ERROR> Unable to find 'Sign' '5023' for 0x3E8C9ABE9600105
  4534. 00:04:16.486 : <ERROR> Unable to find 'Sign' '5423rus' for 0x3E8C9ABEF7000ED
  4535. 00:04:16.486 : <ERROR> Unable to find 'Sign' '5023' for 0x3E9CFDF6F000001
  4536. 00:04:16.490 : <ERROR> Unable to find 'Sign' '5660rus' for 0x83FCE660B600000
  4537. 00:04:16.490 : <ERROR> Unable to find 'Sign' '5659rus' for 0x83FCE6673200001
  4538. 00:04:16.490 : <ERROR> Unable to find 'Sign' '5660rus' for 0x83FCE84CE500000
  4539. 00:04:16.490 : <ERROR> Unable to find 'Sign' '5659rus' for 0x83FCE8E01B00000
  4540. 00:04:16.496 : <ERROR> Unable to find 'Sign' '5678rus' for 0x8CE58763FF00001
  4541. 00:04:16.496 : <ERROR> Unable to find 'Sign' '5677rus' for 0x8CE588395300001
  4542. 00:04:16.502 : <ERROR> Unable to find 'Sign' '5240' for 0x3DF653957000447
  4543. 00:04:16.502 : <ERROR> Unable to find 'Sign' '5023' for 0x3DF65398F7004B9
  4544. 00:04:16.503 : <ERROR> Unable to find 'Sign' '5241' for 0x3DF6539A4600446
  4545. 00:04:16.503 : <ERROR> Unable to find 'Sign' '5023' for 0x3DF6539DF4005F3
  4546. 00:04:16.503 : <ERROR> Unable to find 'Sign' '5023' for 0x3DF7776975002E4
  4547. 00:04:16.505 : <ERROR> Unable to find 'Sign' '5023' for 0x3DF77760E8000D8
  4548. 00:04:16.505 : <ERROR> Unable to find 'Sign' '5023' for 0x3DF7776C4C00193
  4549. 00:04:16.505 : <ERROR> Unable to find 'Sign' '5023' for 0x3DF7776E5F002C9
  4550. 00:04:16.505 : <ERROR> Unable to find 'Sign' '5023' for 0x3DF7776F5C00126
  4551. 00:04:16.505 : <ERROR> Unable to find 'Sign' '5023' for 0x3DF7776FA00012A
  4552. 00:04:16.505 : <ERROR> Unable to find 'Sign' '5023' for 0x3E1EE4C9C200001
  4553. 00:04:16.505 : <ERROR> Unable to find 'Sign' '5128' for 0x3E1EE8B86F00001
  4554. 00:04:16.507 : <ERROR> Unable to find 'Sign' '5128' for 0x3DDFC3529200B3F
  4555. 00:04:16.507 : <ERROR> Unable to find 'Sign' '5110' for 0x3DDFC3531C00AD1
  4556. 00:04:16.507 : <ERROR> Unable to find 'Sign' '5128' for 0x3DDFC3536400906
  4557. 00:04:16.508 : <ERROR> Unable to find 'Sign' '5023' for 0x3DDFC3536600DDF
  4558. 00:04:16.508 : <ERROR> Unable to find 'Sign' '5023' for 0x3DDFC3548900C2F
  4559. 00:04:16.508 : <ERROR> Unable to find 'Sign' '5023' for 0x3DDFC3582300A05
  4560. 00:04:16.508 : <ERROR> Unable to find 'Sign' '5023' for 0x3DDFC358C40090B
  4561. 00:04:16.508 : <ERROR> Unable to find 'Sign' '5023' for 0x3DDFC358F300C85
  4562. 00:04:16.508 : <ERROR> Unable to find 'Sign' '5127' for 0x3DDFC35E0300E70
  4563. 00:04:16.508 : <ERROR> Unable to find 'Sign' '5023' for 0x3DDFC35F1400C53
  4564. 00:04:16.510 : <ERROR> Unable to find 'Sign' '5023' for 0x3DDFC351ED0058D
  4565. 00:04:16.510 : <ERROR> Unable to find 'Sign' '5128' for 0x3DDFC35225003AB
  4566. 00:04:16.510 : <ERROR> Unable to find 'Sign' '5023' for 0x3DDFC3590E00505
  4567. 00:04:16.510 : <ERROR> Unable to find 'Sign' '5023' for 0x3DDFC35A45004D7
  4568. 00:04:16.510 : <ERROR> Unable to find 'Sign' '5128' for 0x3DDFC35C4400747
  4569. 00:04:16.510 : <ERROR> Unable to find 'Sign' '5023' for 0x3DDFC35E99004DE
  4570. 00:04:16.510 : <ERROR> Unable to find 'Sign' '5023' for 0x3E1189310E009BE
  4571. 00:04:16.510 : <ERROR> Unable to find 'Sign' '5128' for 0x3E118933A800872
  4572. 00:04:16.510 : <ERROR> Unable to find 'Sign' '5127' for 0x3E11893BB8005F6
  4573. 00:04:16.511 : <ERROR> Unable to find 'Sign' '5127' for 0x3E11B5D3AA00060
  4574. 00:04:16.511 : <ERROR> Unable to find 'Sign' '5128' for 0x3E11B5DDB700075
  4575. 00:04:16.511 : <ERROR> Unable to find 'Sign' '5127' for 0x3E12312F6200001
  4576. 00:04:16.511 : <ERROR> Unable to find 'Sign' '5128' for 0x413FFE0D0C00001
  4577. 00:04:16.513 : <ERROR> Unable to find 'Sign' '5128' for 0x3E1189308400A33
  4578. 00:04:16.513 : <ERROR> Unable to find 'Sign' '5110' for 0x3E1189311A00416
  4579. 00:04:16.513 : <ERROR> Unable to find 'Sign' '5023' for 0x3E1189313D00270
  4580. 00:04:16.513 : <ERROR> Unable to find 'Sign' '5110' for 0x3E118931A20032F
  4581. 00:04:16.513 : <ERROR> Unable to find 'Sign' '5023' for 0x3E118932080026E
  4582. 00:04:16.513 : <ERROR> Unable to find 'Sign' '5110' for 0x3E1189324E00969
  4583. 00:04:16.513 : <ERROR> Unable to find 'Sign' '5107' for 0x3E118932690097D
  4584. 00:04:16.513 : <ERROR> Unable to find 'Sign' '5023' for 0x3E1189327A009E5
  4585. 00:04:16.513 : <ERROR> Unable to find 'Sign' '5097' for 0x3E118932D1003AA
  4586. 00:04:16.513 : <ERROR> Unable to find 'Sign' '5023' for 0x3E118933A3004F6
  4587. 00:04:16.513 : <ERROR> Unable to find 'Sign' '5044' for 0x3E1189345F0097E
  4588. 00:04:16.513 : <ERROR> Unable to find 'Sign' '5127' for 0x3E1189346B00B91
  4589. 00:04:16.513 : <ERROR> Unable to find 'Sign' '5107' for 0x3E1189348800960
  4590. 00:04:16.513 : <ERROR> Unable to find 'Sign' '5012' for 0x3E1189349500640
  4591. 00:04:16.514 : <ERROR> Unable to find 'Sign' '5128' for 0x3E118934B5009C0
  4592. 00:04:16.514 : <ERROR> Unable to find 'Sign' '5107' for 0x3E118934C7005F7
  4593. 00:04:16.514 : <ERROR> Unable to find 'Sign' '5127' for 0x3E118934E800B56
  4594. 00:04:16.514 : <ERROR> Unable to find 'Sign' '5098' for 0x3E1189356700628
  4595. 00:04:16.514 : <ERROR> Unable to find 'Sign' '5111' for 0x3E118935A200483
  4596. 00:04:16.514 : <ERROR> Unable to find 'Sign' '5107' for 0x3E118935AC005F8
  4597. 00:04:16.514 : <ERROR> Unable to find 'Sign' '5128' for 0x3E118935BC00B2E
  4598. 00:04:16.514 : <ERROR> Unable to find 'Sign' '5023' for 0x3E118935F40032E
  4599. 00:04:16.514 : <ERROR> Unable to find 'Sign' '5001' for 0x3E1189361600485
  4600. 00:04:16.514 : <ERROR> Unable to find 'Sign' '5110' for 0x3E1189366000441
  4601. 00:04:16.514 : <ERROR> Unable to find 'Sign' '5114' for 0x3E118936A200615
  4602. 00:04:16.514 : <ERROR> Unable to find 'Sign' '5112' for 0x3E1189373000609
  4603. 00:04:16.514 : <ERROR> Unable to find 'Sign' '5128' for 0x3E1189374400225
  4604. 00:04:16.514 : <ERROR> Unable to find 'Sign' '5110' for 0x3E1189375500608
  4605. 00:04:16.514 : <ERROR> Unable to find 'Sign' '5127' for 0x3E1189377400B5D
  4606. 00:04:16.514 : <ERROR> Unable to find 'Sign' '5097' for 0x3E1189377C002CA
  4607. 00:04:16.514 : <ERROR> Unable to find 'Sign' '5111' for 0x3E1189399B0096C
  4608. 00:04:16.514 : <ERROR> Unable to find 'Sign' '5107' for 0x3E118939BC0037B
  4609. 00:04:16.514 : <ERROR> Unable to find 'Sign' '5128' for 0x3E118939C600B17
  4610. 00:04:16.514 : <ERROR> Unable to find 'Sign' '5098' for 0x3E118939F7003B5
  4611. 00:04:16.514 : <ERROR> Unable to find 'Sign' '5001' for 0x3E11893A5D00952
  4612. 00:04:16.514 : <ERROR> Unable to find 'Sign' '5124' for 0x3E11893AD200411
  4613. 00:04:16.515 : <ERROR> Unable to find 'Sign' '5128' for 0x3E11893B0900B4B
  4614. 00:04:16.515 : <ERROR> Unable to find 'Sign' '5111' for 0x3E11893B3D00605
  4615. 00:04:16.515 : <ERROR> Unable to find 'Sign' '5107' for 0x3E11893B6F00332
  4616. 00:04:16.515 : <ERROR> Unable to find 'Sign' '5000' for 0x3E11893BA300849
  4617. 00:04:16.515 : <ERROR> Unable to find 'Sign' '5107' for 0x3E11893C3C0047C
  4618. 00:04:16.515 : <ERROR> Unable to find 'Sign' '5098' for 0x3E11893D5B009D2
  4619. 00:04:16.515 : <ERROR> Unable to find 'Sign' '5097' for 0x3E11893D6000627
  4620. 00:04:16.515 : <ERROR> Unable to find 'Sign' '5098' for 0x3E11893D7C002C5
  4621. 00:04:16.515 : <ERROR> Unable to find 'Sign' '5097' for 0x3E11893E1B009D3
  4622. 00:04:16.515 : <ERROR> Unable to find 'Sign' '5002' for 0x3E11893EA2002C9
  4623. 00:04:16.515 : <ERROR> Unable to find 'Sign' '5111' for 0x3E11893EDF00394
  4624. 00:04:16.515 : <ERROR> Unable to find 'Sign' '5000' for 0x3E11893EF300885
  4625. 00:04:16.515 : <ERROR> Unable to find 'Sign' '5111' for 0x3E11893F0600384
  4626. 00:04:16.515 : <ERROR> Unable to find 'Sign' '5107' for 0x3E11893F86003AB
  4627. 00:04:16.515 : <ERROR> Unable to find 'Sign' '5145' for 0x3E1247B67500007
  4628. 00:04:16.515 : <ERROR> Unable to find 'Sign' '5145' for 0x3E1247B81A00001
  4629. 00:04:16.515 : <ERROR> Unable to find 'Sign' '5128' for 0x3FA25201F800197
  4630. 00:04:16.515 : <ERROR> Unable to find 'Sign' '5127' for 0x3FA259EA6C00001
  4631. 00:04:16.515 : <ERROR> Unable to find 'Sign' '5145' for 0x3FAF63D2F10000E
  4632. 00:04:16.515 : <ERROR> Unable to find 'Sign' '5145' for 0x3FAF63DCF600002
  4633. 00:04:16.515 : <ERROR> Unable to find 'Sign' '5124' for 0x3FAFA5B13C00001
  4634. 00:04:16.516 : <ERROR> Unable to find 'Sign' '5124' for 0x3FAFA642A800000
  4635. 00:04:16.516 : <ERROR> Unable to find 'Sign' '5110' for 0x3FAFA7D77600001
  4636. 00:04:16.516 : <ERROR> Unable to find 'Sign' '5111' for 0x3FAFA922B600001
  4637. 00:04:16.516 : <ERROR> Unable to find 'Sign' '5107' for 0x3FAFAFE5D200001
  4638. 00:04:16.516 : <ERROR> Unable to find 'Sign' '5453rus' for 0x40F42958ED00001
  4639. 00:04:16.516 : <ERROR> Unable to find 'Sign' '5454rus' for 0x40F42A4B5700001
  4640. 00:04:16.516 : <ERROR> Unable to find 'Sign' '5454rus' for 0x40F42ABA2300001
  4641. 00:04:16.516 : <ERROR> Unable to find 'Sign' '5453rus' for 0x40F42B686500001
  4642. 00:04:16.516 : <ERROR> Unable to find 'Sign' '5454rus' for 0x40F42E04E400001
  4643. 00:04:16.518 : <ERROR> Unable to find 'Sign' '5142' for 0x3FA25202D70001C
  4644. 00:04:16.518 : <ERROR> Unable to find 'Sign' '5142' for 0x3FA25203140012C
  4645. 00:04:16.518 : <ERROR> Unable to find 'Sign' '5127' for 0x3FA252034200167
  4646. 00:04:16.518 : <ERROR> Unable to find 'Sign' '5142' for 0x3FA252095900112
  4647. 00:04:16.518 : <ERROR> Unable to find 'Sign' '5145' for 0x3FA2520AEA0000D
  4648. 00:04:16.519 : <ERROR> Unable to find 'Sign' '5023' for 0x4018FCF04400113
  4649. 00:04:16.519 : <ERROR> Unable to find 'Sign' '5023' for 0x4018FCF10500256
  4650. 00:04:16.519 : <ERROR> Unable to find 'Sign' '5128' for 0x4018FCF2A100033
  4651. 00:04:16.519 : <ERROR> Unable to find 'Sign' '5117' for 0x4018FCF2F6000ED
  4652. 00:04:16.519 : <ERROR> Unable to find 'Sign' '5023' for 0x4018FCF4E2000FD
  4653. 00:04:16.519 : <ERROR> Unable to find 'Sign' '5023' for 0x4018FCF53300162
  4654. 00:04:16.519 : <ERROR> Unable to find 'Sign' '5023' for 0x4018FCF73A00058
  4655. 00:04:16.519 : <ERROR> Unable to find 'Sign' '5023' for 0x4018FCF81700123
  4656. 00:04:16.519 : <ERROR> Unable to find 'Sign' '5117' for 0x4018FCF88B00122
  4657. 00:04:16.519 : <ERROR> Unable to find 'Sign' '5117' for 0x4018FCF8C900107
  4658. 00:04:16.519 : <ERROR> Unable to find 'Sign' '5023' for 0x4018FCFA6B001DA
  4659. 00:04:16.519 : <ERROR> Unable to find 'Sign' '5023' for 0x4018FCFD2200025
  4660. 00:04:16.519 : <ERROR> Unable to find 'Sign' '5117' for 0x4018FCFE04001A3
  4661. 00:04:16.519 : <ERROR> Unable to find 'Sign' '5127' for 0x4018FCFE330016B
  4662. 00:04:16.519 : <ERROR> Unable to find 'Sign' '5117' for 0x4018FCFE4800139
  4663. 00:04:16.519 : <ERROR> Unable to find 'Sign' '5117' for 0x4018FCFFBF002BD
  4664. 00:04:16.519 : <ERROR> Unable to find 'Sign' '5128' for 0x401AF90C8100001
  4665. 00:04:16.519 : <ERROR> Unable to find 'Sign' '5127' for 0x401AFE80C500001
  4666. 00:04:16.519 : <ERROR> Unable to find 'Sign' '5453rus' for 0x40F42D9AE800001
  4667. 00:04:16.522 : <ERROR> Unable to find 'Sign' '5023' for 0x415980520A00001
  4668. 00:04:16.522 : <ERROR> Unable to find 'Sign' '5023' for 0x4159847FCF00001
  4669. 00:04:16.524 : <ERROR> Unable to find 'Sign' '5417rus' for 0x3E9DF4454F004C7
  4670. 00:04:16.524 : <ERROR> Unable to find 'Sign' '5023' for 0x3E9DF44622006A3
  4671. 00:04:16.524 : <ERROR> Unable to find 'Sign' '5023' for 0x3E9DF448A2005A4
  4672. 00:04:16.524 : <ERROR> Unable to find 'Sign' '5023' for 0x3E9DF449CD00619
  4673. 00:04:16.524 : <ERROR> Unable to find 'Sign' '5023' for 0x3E9DF449FD006B1
  4674. 00:04:16.524 : <ERROR> Unable to find 'Sign' '5127' for 0x3E9DF44B14004E5
  4675. 00:04:16.524 : <ERROR> Unable to find 'Sign' '5023' for 0x3E9DF44D4B00545
  4676. 00:04:16.524 : <ERROR> Unable to find 'Sign' '5023' for 0x3EC76425D900001
  4677. 00:04:16.524 : <ERROR> Unable to find 'Sign' '5023' for 0x3EC767221600001
  4678. 00:04:16.524 : <ERROR> Unable to find 'Sign' '5023' for 0x3EC76E9C9E00001
  4679. 00:04:16.527 : <ERROR> Unable to find 'Sign' '5410rus' for 0x3E8AE4C1EF0067F
  4680. 00:04:16.527 : <ERROR> Unable to find 'Sign' '5410rus' for 0x3E8AE4C569007B4
  4681. 00:04:16.527 : <ERROR> Unable to find 'Sign' '5127' for 0x3E8AE4C69D0003D
  4682. 00:04:16.527 : <ERROR> Unable to find 'Sign' '5365rus' for 0x3E8AE4C69F00334
  4683. 00:04:16.527 : <ERROR> Unable to find 'Sign' '5409rus' for 0x3E8AE4C87800650
  4684. 00:04:16.527 : <ERROR> Unable to find 'Sign' '5366rus' for 0x3E8AE4C9BA00098
  4685. 00:04:16.527 : <ERROR> Unable to find 'Sign' '5408rus' for 0x3E8AE4CA29005E7
  4686. 00:04:16.527 : <ERROR> Unable to find 'Sign' '5409rus' for 0x3E8AE4CCA4007B5
  4687. 00:04:16.527 : <ERROR> Unable to find 'Sign' '5023' for 0x3E8AE4CCA9000A1
  4688. 00:04:16.527 : <ERROR> Unable to find 'Sign' '5407rus' for 0x3E8AE4CDFB005E6
  4689. 00:04:16.527 : <ERROR> Unable to find 'Sign' '5365rus' for 0x3E8AE4CDFC00099
  4690. 00:04:16.527 : <ERROR> Unable to find 'Sign' '5023' for 0x3E8B69B5830020F
  4691. 00:04:16.527 : <ERROR> Unable to find 'Sign' '5374rus' for 0x3E8B69B9B600198
  4692. 00:04:16.527 : <ERROR> Unable to find 'Sign' '5373rus' for 0x3E8B69BD0F00197
  4693. 00:04:16.528 : <ERROR> Unable to find 'Sign' '5023' for 0x3E8B69BD9100257
  4694. 00:04:16.528 : <ERROR> Unable to find 'Sign' '5411rus' for 0x3E9D9D006E0017D
  4695. 00:04:16.528 : <ERROR> Unable to find 'Sign' '5412rus' for 0x3E9D9D043200168
  4696. 00:04:16.528 : <ERROR> Unable to find 'Sign' '5411rus' for 0x3E9D9D095000098
  4697. 00:04:16.528 : <ERROR> Unable to find 'Sign' '5412rus' for 0x3E9D9D0C1400133
  4698. 00:04:16.532 : <ERROR> Unable to find 'Sign' '5028' for 0x3E1D44F15D00173
  4699. 00:04:16.532 : <ERROR> Unable to find 'Sign' '5028' for 0x3E1D44F47F00178
  4700. 00:04:16.532 : <ERROR> Unable to find 'Sign' '5023' for 0x3E1D44F6A000082
  4701. 00:04:16.532 : <ERROR> Unable to find 'Sign' '5128' for 0x3E1D44F74F00013
  4702. 00:04:16.532 : <ERROR> Unable to find 'Sign' '5127' for 0x3E1D44F8FF0005F
  4703. 00:04:16.533 : <ERROR> Unable to find 'Sign' '5023' for 0x3E1DF6D6040008E
  4704. 00:04:16.535 : <ERROR> Unable to find 'Sign' '5023' for 0x3E12AD579200725
  4705. 00:04:16.535 : <ERROR> Unable to find 'Sign' '5128' for 0x3E135EE0A00005B
  4706. 00:04:16.535 : <ERROR> Unable to find 'Sign' '5023' for 0x3E135EEE8A0005D
  4707. 00:04:16.535 : <ERROR> Unable to find 'Sign' '5023' for 0x3E1D1800200012B
  4708. 00:04:16.535 : <ERROR> Unable to find 'Sign' '5128' for 0x3E1D18027D00072
  4709. 00:04:16.535 : <ERROR> Unable to find 'Sign' '5023' for 0x3E1D1803DC00074
  4710. 00:04:16.535 : <ERROR> Unable to find 'Sign' '5023' for 0x3E1D18047400079
  4711. 00:04:16.535 : <ERROR> Unable to find 'Sign' '5023' for 0x3E1D1804EA0012C
  4712. 00:04:16.536 : <ERROR> Unable to find 'Sign' '5239' for 0x3E1D18056600130
  4713. 00:04:16.536 : <ERROR> Unable to find 'Sign' '5127' for 0x3E1D180AB900073
  4714. 00:04:16.536 : <ERROR> Unable to find 'Sign' '5238' for 0x3E1D180BA200081
  4715. 00:04:16.536 : <ERROR> Unable to find 'Sign' '5023' for 0x3E1D180DCB00125
  4716. 00:04:16.538 : <ERROR> Unable to find 'Sign' '5127' for 0x3DDFC357610079B
  4717. 00:04:16.538 : <ERROR> Unable to find 'Sign' '5121' for 0x3DDFC3587300800
  4718. 00:04:16.538 : <ERROR> Unable to find 'Sign' '5127' for 0x3DDFC35A5200783
  4719. 00:04:16.538 : <ERROR> Unable to find 'Sign' '5023' for 0x3DDFC35D4900722
  4720. 00:04:16.538 : <ERROR> Unable to find 'Sign' '5121' for 0x3DDFC35D820073C
  4721. 00:04:16.538 : <ERROR> Unable to find 'Sign' '5023' for 0x3DDFC35E4F00794
  4722. 00:04:16.538 : <ERROR> Unable to find 'Sign' '5274rus' for 0x3E10FB704A000F0
  4723. 00:04:16.538 : <ERROR> Unable to find 'Sign' '5023' for 0x3E10FB70710008B
  4724. 00:04:16.538 : <ERROR> Unable to find 'Sign' '5023' for 0x3E10FB70970023D
  4725. 00:04:16.538 : <ERROR> Unable to find 'Sign' '5127' for 0x3E10FB709E00088
  4726. 00:04:16.539 : <ERROR> Unable to find 'Sign' '5127' for 0x3E10FB709F00240
  4727. 00:04:16.539 : <ERROR> Unable to find 'Sign' '5110' for 0x3E10FB70A2004F1
  4728. 00:04:16.539 : <ERROR> Unable to find 'Sign' '5273rus' for 0x3E10FB711C00275
  4729. 00:04:16.539 : <ERROR> Unable to find 'Sign' '5110' for 0x3E10FB713B0038C
  4730. 00:04:16.539 : <ERROR> Unable to find 'Sign' '5111' for 0x3E10FB722F0009A
  4731. 00:04:16.539 : <ERROR> Unable to find 'Sign' '5023' for 0x3E10FB724F004E4
  4732. 00:04:16.539 : <ERROR> Unable to find 'Sign' '5023' for 0x3E10FB72C5004E2
  4733. 00:04:16.539 : <ERROR> Unable to find 'Sign' '5023' for 0x3E10FB7407000B4
  4734. 00:04:16.539 : <ERROR> Unable to find 'Sign' '5128' for 0x3E10FB7426003D2
  4735. 00:04:16.539 : <ERROR> Unable to find 'Sign' '5107' for 0x3E10FB760A00424
  4736. 00:04:16.539 : <ERROR> Unable to find 'Sign' '5121' for 0x3E10FB760E000B1
  4737. 00:04:16.539 : <ERROR> Unable to find 'Sign' '5110' for 0x3E10FB774F00449
  4738. 00:04:16.539 : <ERROR> Unable to find 'Sign' '5273rus' for 0x3E10FB77F900480
  4739. 00:04:16.539 : <ERROR> Unable to find 'Sign' '5274rus' for 0x3E10FB788C00491
  4740. 00:04:16.539 : <ERROR> Unable to find 'Sign' '5110' for 0x3E10FB78DB00244
  4741. 00:04:16.539 : <ERROR> Unable to find 'Sign' '5121' for 0x3E10FB79EE000B2
  4742. 00:04:16.539 : <ERROR> Unable to find 'Sign' '5107' for 0x3E10FB79FE0038D
  4743. 00:04:16.539 : <ERROR> Unable to find 'Sign' '5023' for 0x3E10FB7A060049C
  4744. 00:04:16.539 : <ERROR> Unable to find 'Sign' '5273rus' for 0x3E10FB7AF900454
  4745. 00:04:16.539 : <ERROR> Unable to find 'Sign' '5023' for 0x3E10FB7BF0001AB
  4746. 00:04:16.539 : <ERROR> Unable to find 'Sign' '5274rus' for 0x3E10FB7C9800395
  4747. 00:04:16.539 : <ERROR> Unable to find 'Sign' '5023' for 0x3E10FB7CBB00433
  4748. 00:04:16.540 : <ERROR> Unable to find 'Sign' '5111' for 0x3E10FB7D3D00425
  4749. 00:04:16.540 : <ERROR> Unable to find 'Sign' '5274rus' for 0x3E10FB7D850048F
  4750. 00:04:16.540 : <ERROR> Unable to find 'Sign' '5274rus' for 0x3E10FB7E79001BE
  4751. 00:04:16.540 : <ERROR> Unable to find 'Sign' '5273rus' for 0x3E10FB7E7B001BD
  4752. 00:04:16.540 : <ERROR> Unable to find 'Sign' '5110' for 0x3E10FB7ED20040E
  4753. 00:04:16.540 : <ERROR> Unable to find 'Sign' '5110' for 0x3E10FB7F1100394
  4754. 00:04:16.540 : <ERROR> Unable to find 'Sign' '5128' for 0x3E10FB7F740007E
  4755. 00:04:16.540 : <ERROR> Unable to find 'Sign' '5273rus' for 0x3E10FB7FB8000EF
  4756. 00:04:16.540 : <ERROR> Unable to find 'Sign' '5127' for 0x3E10FB7FC100080
  4757. 00:04:16.540 : <ERROR> Unable to find 'Sign' '5111' for 0x3E10FB7FE5004D5
  4758. 00:04:16.540 : <ERROR> Unable to find 'Sign' '5023' for 0x3E110D408C00001
  4759. 00:04:16.540 : <ERROR> Unable to find 'Sign' '5023' for 0x3E135EE6200003A
  4760. 00:04:16.540 : <ERROR> Unable to find 'Sign' '5128' for 0x3E139C2FCC00001
  4761. 00:04:16.540 : <ERROR> Unable to find 'Sign' '5023' for 0x413EF231AA000B6
  4762. 00:04:16.543 : <ERROR> Unable to find 'Sign' '5023' for 0x413D7CB14800349
  4763. 00:04:16.543 : <ERROR> Unable to find 'Sign' '5121' for 0x413D7CB1950031A
  4764. 00:04:16.543 : <ERROR> Unable to find 'Sign' '5023' for 0x413D7CB70C0031B
  4765. 00:04:16.543 : <ERROR> Unable to find 'Sign' '5127' for 0x413D7CBBBE0034F
  4766. 00:04:16.543 : <ERROR> Unable to find 'Sign' '5121' for 0x413D7CBCBF0033B
  4767. 00:04:16.543 : <ERROR> Unable to find 'Sign' '5107' for 0x413D7CBD41002C6
  4768. 00:04:16.543 : <ERROR> Unable to find 'Sign' '5110' for 0x413D7CBEDE002C4
  4769. 00:04:16.543 : <ERROR> Unable to find 'Sign' '5023' for 0x413EF231C50005B
  4770. 00:04:16.543 : <ERROR> Unable to find 'Sign' '5023' for 0x413EF23DB80005E
  4771. 00:04:16.545 : <ERROR> Unable to find 'Sign' '5116' for 0x3F08163006003B7
  4772. 00:04:16.545 : <ERROR> Unable to find 'Sign' '5173' for 0x3F0816306100517
  4773. 00:04:16.545 : <ERROR> Unable to find 'Sign' '5110' for 0x3F081631220050E
  4774. 00:04:16.545 : <ERROR> Unable to find 'Sign' '5110' for 0x3F0816314F0011E
  4775. 00:04:16.545 : <ERROR> Unable to find 'Sign' '5172' for 0x3F081631A5004C8
  4776. 00:04:16.545 : <ERROR> Unable to find 'Sign' '5110' for 0x3F08163260000DA
  4777. 00:04:16.545 : <ERROR> Unable to find 'Sign' '5172' for 0x3F0816326B000DD
  4778. 00:04:16.545 : <ERROR> Unable to find 'Sign' '5116' for 0x3F081632FB00201
  4779. 00:04:16.545 : <ERROR> Unable to find 'Sign' '5012' for 0x3F0816330800336
  4780. 00:04:16.546 : <ERROR> Unable to find 'Sign' '5107' for 0x3F08163462000DE
  4781. 00:04:16.546 : <ERROR> Unable to find 'Sign' '5012' for 0x3F081634770022B
  4782. 00:04:16.546 : <ERROR> Unable to find 'Sign' '5111' for 0x3F08163492000D9
  4783. 00:04:16.546 : <ERROR> Unable to find 'Sign' '5111' for 0x3F0816351900516
  4784. 00:04:16.546 : <ERROR> Unable to find 'Sign' '5173' for 0x3F081635D2004EA
  4785. 00:04:16.546 : <ERROR> Unable to find 'Sign' '5116' for 0x3F0816372F0033F
  4786. 00:04:16.546 : <ERROR> Unable to find 'Sign' '5107' for 0x3F081637540050B
  4787. 00:04:16.546 : <ERROR> Unable to find 'Sign' '5173' for 0x3F081637570008F
  4788. 00:04:16.546 : <ERROR> Unable to find 'Sign' '5023' for 0x3F0816375B0050C
  4789. 00:04:16.546 : <ERROR> Unable to find 'Sign' '5172' for 0x3F081637EE000D1
  4790. 00:04:16.546 : <ERROR> Unable to find 'Sign' '5023' for 0x3F081637F7001C8
  4791. 00:04:16.546 : <ERROR> Unable to find 'Sign' '5173' for 0x3F0816390000090
  4792. 00:04:16.546 : <ERROR> Unable to find 'Sign' '5145' for 0x3F0816390700431
  4793. 00:04:16.546 : <ERROR> Unable to find 'Sign' '5083' for 0x3F081639350043F
  4794. 00:04:16.546 : <ERROR> Unable to find 'Sign' '5012' for 0x3F0816393D0038D
  4795. 00:04:16.546 : <ERROR> Unable to find 'Sign' '5116' for 0x3F08163A46003B5
  4796. 00:04:16.546 : <ERROR> Unable to find 'Sign' '5111' for 0x3F08163B0E000D2
  4797. 00:04:16.546 : <ERROR> Unable to find 'Sign' '5023' for 0x3F08163BDB0048F
  4798. 00:04:16.547 : <ERROR> Unable to find 'Sign' '5145' for 0x3F08163C2900069
  4799. 00:04:16.547 : <ERROR> Unable to find 'Sign' '5145' for 0x3F08163C9B0043E
  4800. 00:04:16.547 : <ERROR> Unable to find 'Sign' '5172' for 0x3F08163CA20014A
  4801. 00:04:16.547 : <ERROR> Unable to find 'Sign' '5172' for 0x3F08163D53004A0
  4802. 00:04:16.547 : <ERROR> Unable to find 'Sign' '5172' for 0x3F08163DCB00508
  4803. 00:04:16.547 : <ERROR> Unable to find 'Sign' '5116' for 0x3F08163E150029A
  4804. 00:04:16.547 : <ERROR> Unable to find 'Sign' '5128' for 0x3F08163EFC00524
  4805. 00:04:16.547 : <ERROR> Unable to find 'Sign' '5012' for 0x3F08163F9100200
  4806. 00:04:16.547 : <ERROR> Unable to find 'Sign' '5116' for 0x3F08163F9C0022E
  4807. 00:04:16.547 : <ERROR> Unable to find 'Sign' '5128' for 0x3F08F4E671001C6
  4808. 00:04:16.547 : <ERROR> Unable to find 'Sign' '5127' for 0x3F08F4E839001E2
  4809. 00:04:16.547 : <ERROR> Unable to find 'Sign' '5146' for 0x41088778ED00048
  4810. 00:04:16.547 : <ERROR> Unable to find 'Sign' '5146' for 0x4108877BBE00046
  4811. 00:04:16.547 : <ERROR> Unable to find 'Sign' '5128' for 0x413D6773100001B
  4812. 00:04:16.547 : <ERROR> Unable to find 'Sign' '5023' for 0x413D6773A80001C
  4813. 00:04:16.547 : <ERROR> Unable to find 'Sign' '5023' for 0x413D677DE30004A
  4814. 00:04:16.547 : <ERROR> Unable to find 'Sign' '5127' for 0x41441C412F00001
  4815. 00:04:16.550 : <ERROR> Unable to find 'Sign' '5112' for 0x3EC698210C004BC
  4816. 00:04:16.550 : <ERROR> Unable to find 'Sign' '5110' for 0x3EC698212F004CD
  4817. 00:04:16.550 : <ERROR> Unable to find 'Sign' '5112' for 0x3EC6982356004CC
  4818. 00:04:16.550 : <ERROR> Unable to find 'Sign' '5110' for 0x3EC6982376004BE
  4819. 00:04:16.550 : <ERROR> Unable to find 'Sign' '5107' for 0x3EC69826AC004C1
  4820. 00:04:16.550 : <ERROR> Unable to find 'Sign' '5131' for 0x3EC69829E2004C9
  4821. 00:04:16.550 : <ERROR> Unable to find 'Sign' '5112' for 0x3EC6982A3E004C3
  4822. 00:04:16.550 : <ERROR> Unable to find 'Sign' '5114' for 0x3EC6982ABD004CA
  4823. 00:04:16.550 : <ERROR> Unable to find 'Sign' '5132' for 0x3EC6982DDB004C6
  4824. 00:04:16.551 : <ERROR> Unable to find 'Sign' '5128' for 0x3EF55CDBB500001
  4825. 00:04:16.551 : <ERROR> Unable to find 'Sign' '5127' for 0x3EF55DD17D00001
  4826. 00:04:16.551 : <ERROR> Unable to find 'Sign' '5110' for 0x3EF59D92BB00001
  4827. 00:04:16.551 : <ERROR> Unable to find 'Sign' '5111' for 0x3EF5A3F53000001
  4828. 00:04:16.551 : <ERROR> Unable to find 'Sign' '5107' for 0x3EF5A477C800001
  4829. 00:04:16.551 : <ERROR> Unable to find 'Sign' '5128' for 0x3F0574926100001
  4830. 00:04:16.551 : <ERROR> Unable to find 'Sign' '5023' for 0x3F0836D1640013A
  4831. 00:04:16.551 : <ERROR> Unable to find 'Sign' '5023' for 0x3F08B10A8100001
  4832. 00:04:16.551 : <ERROR> Unable to find 'Sign' '5023' for 0x3F08F4E3D60002C
  4833. 00:04:16.551 : <ERROR> Unable to find 'Sign' '5023' for 0x3F08F4E786001BC
  4834. 00:04:16.551 : <ERROR> Unable to find 'Sign' '5128' for 0x3F08F4EA640000C
  4835. 00:04:16.551 : <ERROR> Unable to find 'Sign' '5023' for 0x3F08F4EC8400198
  4836. 00:04:16.551 : <ERROR> Unable to find 'Sign' '5451rus' for 0x40F41A8E5000001
  4837. 00:04:16.551 : <ERROR> Unable to find 'Sign' '5452rus' for 0x40F41B58D600001
  4838. 00:04:16.551 : <ERROR> Unable to find 'Sign' '5452rus' for 0x40F41C426800001
  4839. 00:04:16.551 : <ERROR> Unable to find 'Sign' '5451rus' for 0x40F41D3DC200001
  4840. 00:04:16.551 : <ERROR> Unable to find 'Sign' '5023' for 0x41599EB53000001
  4841. 00:04:16.551 : <ERROR> Unable to find 'Sign' '5127' for 0x4159A463E100001
  4842. 00:04:16.551 : <ERROR> Unable to find 'Sign' '5023' for 0x4159B6957E00001
  4843. 00:04:16.551 : <ERROR> Unable to find 'Sign' '5023' for 0x4159B8E83200001
  4844. 00:04:16.554 : <ERROR> Unable to find 'Sign' '5023' for 0x3EB40FF053000C9
  4845. 00:04:16.554 : <ERROR> Unable to find 'Sign' '5045' for 0x3EB40FFE8E000B8
  4846. 00:04:16.554 : <ERROR> Unable to find 'Sign' '5121' for 0x3EC698214A00340
  4847. 00:04:16.554 : <ERROR> Unable to find 'Sign' '5107' for 0x3EC69821DE0035E
  4848. 00:04:16.554 : <ERROR> Unable to find 'Sign' '5121' for 0x3EC698233E00333
  4849. 00:04:16.554 : <ERROR> Unable to find 'Sign' '5023' for 0x3EC6982467001E9
  4850. 00:04:16.554 : <ERROR> Unable to find 'Sign' '5023' for 0x3EC69824D4004E8
  4851. 00:04:16.554 : <ERROR> Unable to find 'Sign' '5023' for 0x3EC698279200152
  4852. 00:04:16.555 : <ERROR> Unable to find 'Sign' '5023' for 0x4131D6FD0500001
  4853. 00:04:16.557 : <ERROR> Unable to find 'Sign' '5128' for 0x3E8AE4C15A003C3
  4854. 00:04:16.557 : <ERROR> Unable to find 'Sign' '5407rus' for 0x3E8AE4C594004E6
  4855. 00:04:16.557 : <ERROR> Unable to find 'Sign' '5124' for 0x3E8AE4C5DE0065A
  4856. 00:04:16.557 : <ERROR> Unable to find 'Sign' '5366rus' for 0x3E8AE4C6A000335
  4857. 00:04:16.558 : <ERROR> Unable to find 'Sign' '5124' for 0x3E8AE4C743005F4
  4858. 00:04:16.558 : <ERROR> Unable to find 'Sign' '5110' for 0x3E8AE4C83F00659
  4859. 00:04:16.558 : <ERROR> Unable to find 'Sign' '5023' for 0x3E8AE4C9440056E
  4860. 00:04:16.558 : <ERROR> Unable to find 'Sign' '5408rus' for 0x3E8AE4C984004E5
  4861. 00:04:16.558 : <ERROR> Unable to find 'Sign' '5128' for 0x3E8AE4CA0F00672
  4862. 00:04:16.560 : <ERROR> Unable to find 'Sign' '5111' for 0x3E12AD50AD001AD
  4863. 00:04:16.560 : <ERROR> Unable to find 'Sign' '5290rus' for 0x3E12AD513700153
  4864. 00:04:16.560 : <ERROR> Unable to find 'Sign' '5110' for 0x3E12AD516A00601
  4865. 00:04:16.561 : <ERROR> Unable to find 'Sign' '5023' for 0x3E12AD51D600209
  4866. 00:04:16.561 : <ERROR> Unable to find 'Sign' '5110' for 0x3E12AD5203001AC
  4867. 00:04:16.561 : <ERROR> Unable to find 'Sign' '5290rus' for 0x3E12AD52A900516
  4868. 00:04:16.561 : <ERROR> Unable to find 'Sign' '5291rus' for 0x3E12AD544E0008B
  4869. 00:04:16.561 : <ERROR> Unable to find 'Sign' '5023' for 0x3E12AD548700673
  4870. 00:04:16.561 : <ERROR> Unable to find 'Sign' '5023' for 0x3E12AD54CF0012E
  4871. 00:04:16.561 : <ERROR> Unable to find 'Sign' '5023' for 0x3E12AD55AE00694
  4872. 00:04:16.561 : <ERROR> Unable to find 'Sign' '5023' for 0x3E12AD564D00340
  4873. 00:04:16.561 : <ERROR> Unable to find 'Sign' '5023' for 0x3E12AD5680002FF
  4874. 00:04:16.561 : <ERROR> Unable to find 'Sign' '5107' for 0x3E12AD56DD001F3
  4875. 00:04:16.561 : <ERROR> Unable to find 'Sign' '5128' for 0x3E12AD57B6004E7
  4876. 00:04:16.561 : <ERROR> Unable to find 'Sign' '5107' for 0x3E12AD57FA005DD
  4877. 00:04:16.561 : <ERROR> Unable to find 'Sign' '5118' for 0x3E12AD59F90065C
  4878. 00:04:16.561 : <ERROR> Unable to find 'Sign' '5291rus' for 0x3E12AD5A86001FE
  4879. 00:04:16.561 : <ERROR> Unable to find 'Sign' '5023' for 0x3E12AD5AB80005A
  4880. 00:04:16.561 : <ERROR> Unable to find 'Sign' '5291rus' for 0x3E12AD5AC8004DA
  4881. 00:04:16.561 : <ERROR> Unable to find 'Sign' '5023' for 0x3E12AD5C0B00089
  4882. 00:04:16.562 : <ERROR> Unable to find 'Sign' '5110' for 0x3E12AD5C1500233
  4883. 00:04:16.562 : <ERROR> Unable to find 'Sign' '5290rus' for 0x3E12AD5D6B001BF
  4884. 00:04:16.562 : <ERROR> Unable to find 'Sign' '5111' for 0x3E12AD5E3800235
  4885. 00:04:16.562 : <ERROR> Unable to find 'Sign' '5290rus' for 0x3E12AD5E4A005C9
  4886. 00:04:16.562 : <ERROR> Unable to find 'Sign' '5023' for 0x3E12AD5F1A006E1
  4887. 00:04:16.562 : <ERROR> Unable to find 'Sign' '5107' for 0x3E12AD5FF8001F1
  4888. 00:04:16.562 : <ERROR> Unable to find 'Sign' '5239' for 0x3E1D18055B00132
  4889. 00:04:16.562 : <ERROR> Unable to find 'Sign' '5238' for 0x3E1D18085800131
  4890. 00:04:16.562 : <ERROR> Unable to find 'Sign' '5127' for 0x3E1D180E840015C
  4891. 00:04:16.562 : <ERROR> Unable to find 'Sign' '5290rus' for 0x516A12F82000001
  4892. 00:04:16.562 : <ERROR> Unable to find 'Sign' '5291rus' for 0x516A13549E00001
  4893. 00:04:16.565 : <ERROR> Unable to find 'Sign' '5023' for 0x3E12AD5BA100318
  4894. 00:04:16.565 : <ERROR> Unable to find 'Sign' '5023' for 0x401D90D62000108
  4895. 00:04:16.565 : <ERROR> Unable to find 'Sign' '5023' for 0x401D90D8E600289
  4896. 00:04:16.565 : <ERROR> Unable to find 'Sign' '5128' for 0x401D90D977002EF
  4897. 00:04:16.565 : <ERROR> Unable to find 'Sign' '5128' for 0x401D90DC3200233
  4898. 00:04:16.565 : <ERROR> Unable to find 'Sign' '5128' for 0x40DBA7A73300001
  4899. 00:04:16.565 : <ERROR> Unable to find 'Sign' '5023' for 0x40DC0FA63300001
  4900. 00:04:16.568 : <ERROR> Unable to find 'Sign' '5023' for 0x401D90D3AE0007E
  4901. 00:04:16.568 : <ERROR> Unable to find 'Sign' '5023' for 0x401D90D48C0007B
  4902. 00:04:16.568 : <ERROR> Unable to find 'Sign' '5023' for 0x401D90D90700013
  4903. 00:04:16.568 : <ERROR> Unable to find 'Sign' '5023' for 0x401D90DC74000C3
  4904. 00:04:16.568 : <ERROR> Unable to find 'Sign' '5023' for 0x413D7CB053000CE
  4905. 00:04:16.568 : <ERROR> Unable to find 'Sign' '5111' for 0x413D7CB234002C5
  4906. 00:04:16.568 : <ERROR> Unable to find 'Sign' '5328rus' for 0x413D7CB24D00041
  4907. 00:04:16.568 : <ERROR> Unable to find 'Sign' '5328rus' for 0x413D7CB44A002BF
  4908. 00:04:16.568 : <ERROR> Unable to find 'Sign' '5327rus' for 0x413D7CB4C2002D8
  4909. 00:04:16.568 : <ERROR> Unable to find 'Sign' '5023' for 0x413D7CB4D6001E2
  4910. 00:04:16.568 : <ERROR> Unable to find 'Sign' '5107' for 0x413D7CB78B00226
  4911. 00:04:16.568 : <ERROR> Unable to find 'Sign' '5327rus' for 0x413D7CB7FA0020D
  4912. 00:04:16.569 : <ERROR> Unable to find 'Sign' '5023' for 0x413D7CB8E80000E
  4913. 00:04:16.569 : <ERROR> Unable to find 'Sign' '5327rus' for 0x413D7CBA560020F
  4914. 00:04:16.569 : <ERROR> Unable to find 'Sign' '5110' for 0x413D7CBCED00224
  4915. 00:04:16.569 : <ERROR> Unable to find 'Sign' '5328rus' for 0x413D7CBD50002D7
  4916. 00:04:16.569 : <ERROR> Unable to find 'Sign' '5107' for 0x413D7CBE3300217
  4917. 00:04:16.569 : <ERROR> Unable to find 'Sign' '5111' for 0x413D7CBF2900225
  4918. 00:04:16.569 : <ERROR> Unable to find 'Sign' '5023' for 0x413D7CBF75002D0
  4919. 00:04:16.569 : <ERROR> Unable to find 'Sign' '5328rus' for 0x413D7CBFC10020E
  4920. 00:04:16.569 : <ERROR> Unable to find 'Sign' '5327rus' for 0x413D7CBFD200050
  4921. 00:04:16.569 : <ERROR> Unable to find 'Sign' '5023' for 0x4141327DE900001
  4922. 00:04:16.571 : <ERROR> Unable to find 'Sign' '5023' for 0x413D677F64000E2
  4923. 00:04:16.571 : <ERROR> Unable to find 'Sign' '5127' for 0x413E4630E80008A
  4924. 00:04:16.571 : <ERROR> Unable to find 'Sign' '5127' for 0x413E4637E800057
  4925. 00:04:16.571 : <ERROR> Unable to find 'Sign' '5023' for 0x413E463DF70007D
  4926. 00:04:16.571 : <ERROR> Unable to find 'Sign' '5023' for 0x413E463E900008B
  4927. 00:04:16.571 : <ERROR> Unable to find 'Sign' '5023' for 0x413E463FBD0007E
  4928. 00:04:16.572 : <ERROR> Unable to find 'Sign' '5118' for 0x413E8A832500011
  4929. 00:04:16.572 : <ERROR> Unable to find 'Sign' '5128' for 0x41442882D400001
  4930. 00:04:16.574 : <ERROR> Unable to find 'Sign' '5179' for 0x3EC7CAD36000247
  4931. 00:04:16.574 : <ERROR> Unable to find 'Sign' '5111' for 0x3EC7CAD3ED002F3
  4932. 00:04:16.574 : <ERROR> Unable to find 'Sign' '5732rus' for 0x3EC7CAD53A00370
  4933. 00:04:16.574 : <ERROR> Unable to find 'Sign' '5001' for 0x3EC7CAD6B500358
  4934. 00:04:16.574 : <ERROR> Unable to find 'Sign' '5107' for 0x3EC7CAD6F900243
  4935. 00:04:16.574 : <ERROR> Unable to find 'Sign' '5111' for 0x3EC7CAD6FE0027B
  4936. 00:04:16.574 : <ERROR> Unable to find 'Sign' '5001' for 0x3EC7CAD75F0036D
  4937. 00:04:16.574 : <ERROR> Unable to find 'Sign' '5110' for 0x3EC7CAD81B00256
  4938. 00:04:16.575 : <ERROR> Unable to find 'Sign' '5001' for 0x3EC7CAD8570037A
  4939. 00:04:16.575 : <ERROR> Unable to find 'Sign' '5732rus' for 0x3EC7CAD8C200373
  4940. 00:04:16.575 : <ERROR> Unable to find 'Sign' '5180' for 0x3EC7CAD8E300307
  4941. 00:04:16.575 : <ERROR> Unable to find 'Sign' '5110' for 0x3EC7CAD93300274
  4942. 00:04:16.575 : <ERROR> Unable to find 'Sign' '5111' for 0x3EC7CAD97100269
  4943. 00:04:16.575 : <ERROR> Unable to find 'Sign' '5124' for 0x3EC7CADA7B002B4
  4944. 00:04:16.575 : <ERROR> Unable to find 'Sign' '5111' for 0x3EC7CADAB100251
  4945. 00:04:16.575 : <ERROR> Unable to find 'Sign' '5179' for 0x3EC7CADCCA00352
  4946. 00:04:16.575 : <ERROR> Unable to find 'Sign' '5107' for 0x3EC7CADE2100275
  4947. 00:04:16.575 : <ERROR> Unable to find 'Sign' '5180' for 0x3EC7CADF8F00253
  4948. 00:04:16.575 : <ERROR> Unable to find 'Sign' '5145' for 0x3EF57C6CFB00002
  4949. 00:04:16.575 : <ERROR> Unable to find 'Sign' '5145' for 0x3EF57C6E8C0000E
  4950. 00:04:16.575 : <ERROR> Unable to find 'Sign' '5023' for 0x40E806675500099
  4951. 00:04:16.575 : <ERROR> Unable to find 'Sign' '5023' for 0x40E8066A8F001C0
  4952. 00:04:16.575 : <ERROR> Unable to find 'Sign' '5023' for 0x40E8066F44001D9
  4953. 00:04:16.575 : <ERROR> Unable to find 'Sign' '5023' for 0x40E9046B8B00001
  4954. 00:04:16.575 : <ERROR> Unable to find 'Sign' '5145' for 0x40ED3CF8080000E
  4955. 00:04:16.575 : <ERROR> Unable to find 'Sign' '5145' for 0x40ED3CFDBD00002
  4956. 00:04:16.575 : <ERROR> Unable to find 'Sign' '5128' for 0x40ED85F1F3003BD
  4957. 00:04:16.575 : <ERROR> Unable to find 'Sign' '5170' for 0x40ED85F1F5002A6
  4958. 00:04:16.575 : <ERROR> Unable to find 'Sign' '5023' for 0x40ED85F3190040A
  4959. 00:04:16.575 : <ERROR> Unable to find 'Sign' '5171' for 0x40ED85F43D0044D
  4960. 00:04:16.576 : <ERROR> Unable to find 'Sign' '5171' for 0x40ED85FAB00029A
  4961. 00:04:16.576 : <ERROR> Unable to find 'Sign' '5170' for 0x40ED85FE4F00433
  4962. 00:04:16.578 : <ERROR> Unable to find 'Sign' '5093' for 0x3EB40FF01B002D5
  4963. 00:04:16.578 : <ERROR> Unable to find 'Sign' '5023' for 0x3EB40FF0BD0099F
  4964. 00:04:16.578 : <ERROR> Unable to find 'Sign' '5001' for 0x3EB40FF1A1009A5
  4965. 00:04:16.578 : <ERROR> Unable to find 'Sign' '5112' for 0x3EB40FF20100675
  4966. 00:04:16.578 : <ERROR> Unable to find 'Sign' '5145' for 0x3EB40FF28800915
  4967. 00:04:16.578 : <ERROR> Unable to find 'Sign' '5093' for 0x3EB40FF2C8009A2
  4968. 00:04:16.578 : <ERROR> Unable to find 'Sign' '5124' for 0x3EB40FF35C001EC
  4969. 00:04:16.578 : <ERROR> Unable to find 'Sign' '5109' for 0x3EB40FF3BF001F0
  4970. 00:04:16.578 : <ERROR> Unable to find 'Sign' '5023' for 0x3EB40FF45200B5E
  4971. 00:04:16.578 : <ERROR> Unable to find 'Sign' '5107' for 0x3EB40FF53A00622
  4972. 00:04:16.578 : <ERROR> Unable to find 'Sign' '5023' for 0x3EB40FF70800736
  4973. 00:04:16.578 : <ERROR> Unable to find 'Sign' '5114' for 0x3EB40FF73A00625
  4974. 00:04:16.578 : <ERROR> Unable to find 'Sign' '5023' for 0x3EB40FF7D300313
  4975. 00:04:16.579 : <ERROR> Unable to find 'Sign' '5124' for 0x3EB40FF867001F1
  4976. 00:04:16.579 : <ERROR> Unable to find 'Sign' '5078' for 0x3EB40FF96E00902
  4977. 00:04:16.579 : <ERROR> Unable to find 'Sign' '5023' for 0x3EB40FF9A9002DF
  4978. 00:04:16.579 : <ERROR> Unable to find 'Sign' '5110' for 0x3EB40FFA6D001EE
  4979. 00:04:16.579 : <ERROR> Unable to find 'Sign' '5110' for 0x3EB40FFAD6001ED
  4980. 00:04:16.579 : <ERROR> Unable to find 'Sign' '5023' for 0x3EB40FFAE900314
  4981. 00:04:16.579 : <ERROR> Unable to find 'Sign' '5094' for 0x3EB40FFBE6002E2
  4982. 00:04:16.579 : <ERROR> Unable to find 'Sign' '5109' for 0x3EB40FFC7100236
  4983. 00:04:16.579 : <ERROR> Unable to find 'Sign' '5124' for 0x3EB40FFDEF009EA
  4984. 00:04:16.579 : <ERROR> Unable to find 'Sign' '5001' for 0x3EB40FFE1B003D5
  4985. 00:04:16.579 : <ERROR> Unable to find 'Sign' '5107' for 0x3EB40FFF1100B3F
  4986. 00:04:16.579 : <ERROR> Unable to find 'Sign' '5001' for 0x3EB40FFFD000629
  4987. 00:04:16.579 : <ERROR> Unable to find 'Sign' '5090' for 0x3EB531D05A00178
  4988. 00:04:16.579 : <ERROR> Unable to find 'Sign' '5089' for 0x3EB531D27E001F8
  4989. 00:04:16.579 : <ERROR> Unable to find 'Sign' '5023' for 0x3EC6117AB700001
  4990. 00:04:16.579 : <ERROR> Unable to find 'Sign' '5107' for 0x3EC7CAD0F000014
  4991. 00:04:16.579 : <ERROR> Unable to find 'Sign' '5127' for 0x3EC7CAD12800017
  4992. 00:04:16.579 : <ERROR> Unable to find 'Sign' '5110' for 0x3EC7CAD136000F4
  4993. 00:04:16.579 : <ERROR> Unable to find 'Sign' '5179' for 0x3EC7CAD19000110
  4994. 00:04:16.579 : <ERROR> Unable to find 'Sign' '5110' for 0x3EC7CAD1C500013
  4995. 00:04:16.579 : <ERROR> Unable to find 'Sign' '5044' for 0x3EC7CAD21800043
  4996. 00:04:16.580 : <ERROR> Unable to find 'Sign' '5145' for 0x3EC7CAD293000A0
  4997. 00:04:16.580 : <ERROR> Unable to find 'Sign' '5110' for 0x3EC7CAD33400252
  4998. 00:04:16.580 : <ERROR> Unable to find 'Sign' '5110' for 0x3EC7CAD3510006E
  4999. 00:04:16.580 : <ERROR> Unable to find 'Sign' '5180' for 0x3EC7CAD36E00111
  5000. 00:04:16.580 : <ERROR> Unable to find 'Sign' '5111' for 0x3EC7CAD52700186
  5001. 00:04:16.580 : <ERROR> Unable to find 'Sign' '5128' for 0x3EC7CAD6C600029
  5002. 00:04:16.580 : <ERROR> Unable to find 'Sign' '5045' for 0x3EC7CAD77900042
  5003. 00:04:16.580 : <ERROR> Unable to find 'Sign' '5107' for 0x3EC7CAD7BD0004A
  5004. 00:04:16.580 : <ERROR> Unable to find 'Sign' '5107' for 0x3EC7CAD882000F0
  5005. 00:04:16.580 : <ERROR> Unable to find 'Sign' '5111' for 0x3EC7CAD887000BA
  5006. 00:04:16.580 : <ERROR> Unable to find 'Sign' '5107' for 0x3EC7CADA2E00054
  5007. 00:04:16.580 : <ERROR> Unable to find 'Sign' '5180' for 0x3EC7CADA7D0010C
  5008. 00:04:16.580 : <ERROR> Unable to find 'Sign' '5110' for 0x3EC7CADC010004D
  5009. 00:04:16.580 : <ERROR> Unable to find 'Sign' '5023' for 0x3EC7CADC5200051
  5010. 00:04:16.580 : <ERROR> Unable to find 'Sign' '5111' for 0x3EC7CADD660004B
  5011. 00:04:16.580 : <ERROR> Unable to find 'Sign' '5179' for 0x3EC7CADE200010E
  5012. 00:04:16.580 : <ERROR> Unable to find 'Sign' '5110' for 0x3EC7CADE2C00182
  5013. 00:04:16.580 : <ERROR> Unable to find 'Sign' '5023' for 0x3EC7CADFCC0006C
  5014. 00:04:16.580 : <ERROR> Unable to find 'Sign' '5128' for 0x3EC97D8BA300001
  5015. 00:04:16.580 : <ERROR> Unable to find 'Sign' '5023' for 0x3EC981983C00001
  5016. 00:04:16.580 : <ERROR> Unable to find 'Sign' '5111' for 0x575B1B280E00001
  5017. 00:04:16.583 : <ERROR> Unable to find 'Sign' '5093' for 0x3EB40FF13200981
  5018. 00:04:16.583 : <ERROR> Unable to find 'Sign' '5093' for 0x3EB40FF53800678
  5019. 00:04:16.583 : <ERROR> Unable to find 'Sign' '5117' for 0x3EB40FF59600B44
  5020. 00:04:16.583 : <ERROR> Unable to find 'Sign' '5094' for 0x3EB40FF5F0009B2
  5021. 00:04:16.583 : <ERROR> Unable to find 'Sign' '5107' for 0x3EB40FF66F00621
  5022. 00:04:16.583 : <ERROR> Unable to find 'Sign' '5111' for 0x3EB40FF74000B59
  5023. 00:04:16.583 : <ERROR> Unable to find 'Sign' '5111' for 0x3EB40FF7B10062C
  5024. 00:04:16.583 : <ERROR> Unable to find 'Sign' '5110' for 0x3EB40FF82A00623
  5025. 00:04:16.583 : <ERROR> Unable to find 'Sign' '5023' for 0x3EB40FF87B00B7B
  5026. 00:04:16.583 : <ERROR> Unable to find 'Sign' '5023' for 0x3EB40FF980001D4
  5027. 00:04:16.583 : <ERROR> Unable to find 'Sign' '5128' for 0x3EB40FFDC600A6F
  5028. 00:04:16.583 : <ERROR> Unable to find 'Sign' '5114' for 0x3EB40FFEA200B6D
  5029. 00:04:16.583 : <ERROR> Unable to find 'Sign' '5117' for 0x3EB40FFEC700A56
  5030. 00:04:16.583 : <ERROR> Unable to find 'Sign' '5107' for 0x3EB40FFEEB00B58
  5031. 00:04:16.583 : <ERROR> Unable to find 'Sign' '5094' for 0x3EB40FFF84006AA
  5032. 00:04:16.588 : <ERROR> Unable to find 'Sign' '5498rus' for 0x47EC00EB3600001
  5033. 00:04:16.588 : <ERROR> Unable to find 'Sign' '5497rus' for 0x47EC02C5D400001
  5034. 00:04:16.588 : <ERROR> Unable to find 'Sign' '5111' for 0x480424197300001
  5035. 00:04:16.588 : <ERROR> Unable to find 'Sign' '5110' for 0x4804251D5400001
  5036. 00:04:16.588 : <ERROR> Unable to find 'Sign' '5107' for 0x480425D85E00001
  5037. 00:04:16.588 : <ERROR> Unable to find 'Sign' '5110' for 0x48043199BA00001
  5038. 00:04:16.588 : <ERROR> Unable to find 'Sign' '5107' for 0x4804319E0900002
  5039. 00:04:16.588 : <ERROR> Unable to find 'Sign' '5111' for 0x4804319F3500000
  5040. 00:04:16.589 : <ERROR> Unable to find 'Sign' '5028' for 0x480469280600001
  5041. 00:04:16.589 : <ERROR> Unable to find 'Sign' '5028' for 0x4804699BFD00001
  5042. 00:04:16.589 : <ERROR> Unable to find 'Sign' '5498rus' for 0x48047557E300001
  5043. 00:04:16.589 : <ERROR> Unable to find 'Sign' '5497rus' for 0x48047667F800001
  5044. 00:04:16.589 : <ERROR> Unable to find 'Sign' '5127' for 0x48047DE18A00001
  5045. 00:04:16.589 : <ERROR> Unable to find 'Sign' '5023' for 0x480480CCB200001
  5046. 00:04:16.589 : <ERROR> Unable to find 'Sign' '5023' for 0x480484483A00001
  5047. 00:04:16.589 : <ERROR> Unable to find 'Sign' '5023' for 0x4829BBECD100001
  5048. 00:04:16.589 : <ERROR> Unable to find 'Sign' '5128' for 0x484458E80000001
  5049. 00:04:16.589 : <ERROR> Unable to find 'Sign' '5127' for 0x48445A5D6000001
  5050. 00:04:16.589 : <ERROR> Unable to find 'Sign' '5128' for 0x48445D757300001
  5051. 00:04:16.589 : <ERROR> Unable to find 'Sign' '5505rus' for 0x48AC8D009200001
  5052. 00:04:16.589 : <ERROR> Unable to find 'Sign' '5506rus' for 0x48AC8D689A00001
  5053. 00:04:16.589 : <ERROR> Unable to find 'Sign' '5506rus' for 0x48AC8ED10F00001
  5054. 00:04:16.589 : <ERROR> Unable to find 'Sign' '5505rus' for 0x48AC8F356400001
  5055. 00:04:16.593 : <ERROR> Unable to find 'Sign' '5107' for 0x401CA394A6003E6
  5056. 00:04:16.594 : <ERROR> Unable to find 'Sign' '5107' for 0x401CA39551003E7
  5057. 00:04:16.594 : <ERROR> Unable to find 'Sign' '5110' for 0x401CA396BF003E5
  5058. 00:04:16.594 : <ERROR> Unable to find 'Sign' '5110' for 0x401CA396D1003E9
  5059. 00:04:16.594 : <ERROR> Unable to find 'Sign' '5312rus' for 0x401CA39A7F00328
  5060. 00:04:16.594 : <ERROR> Unable to find 'Sign' '5111' for 0x401CA39CA4003E8
  5061. 00:04:16.594 : <ERROR> Unable to find 'Sign' '5111' for 0x401CA39F7A00337
  5062. 00:04:16.594 : <ERROR> Unable to find 'Sign' '5023' for 0x401DA63C9500103
  5063. 00:04:16.594 : <ERROR> Unable to find 'Sign' '5023' for 0x401F7AAD880003C
  5064. 00:04:16.594 : <ERROR> Unable to find 'Sign' '5110' for 0x50697881B600001
  5065. 00:04:16.594 : <ERROR> Unable to find 'Sign' '5124' for 0x50697A0F3400001
  5066. 00:04:16.594 : <ERROR> Unable to find 'Sign' '5124' for 0x50697AB38E00000
  5067. 00:04:16.594 : <ERROR> Unable to find 'Sign' '5023' for 0x50699F20E400001
  5068. 00:04:16.594 : <ERROR> Unable to find 'Sign' '5023' for 0x50816F70D300001
  5069. 00:04:16.594 : <ERROR> Unable to find 'Sign' '5311rus' for 0x50818111D400001
  5070. 00:04:16.595 : <ERROR> Unable to find 'Sign' '5312rus' for 0x5081818E5500001
  5071. 00:04:16.597 : <ERROR> Unable to find 'Sign' '5312rus' for 0x401CA3916F00160
  5072. 00:04:16.597 : <ERROR> Unable to find 'Sign' '5023' for 0x401CA3926200128
  5073. 00:04:16.597 : <ERROR> Unable to find 'Sign' '5311rus' for 0x401CA392740015F
  5074. 00:04:16.597 : <ERROR> Unable to find 'Sign' '5127' for 0x401CA395380017B
  5075. 00:04:16.597 : <ERROR> Unable to find 'Sign' '5111' for 0x401CA397920033D
  5076. 00:04:16.597 : <ERROR> Unable to find 'Sign' '5311rus' for 0x401CA39A8F00327
  5077. 00:04:16.597 : <ERROR> Unable to find 'Sign' '5110' for 0x401CA39B970033C
  5078. 00:04:16.597 : <ERROR> Unable to find 'Sign' '5107' for 0x401CA39C7D0033B
  5079. 00:04:16.597 : <ERROR> Unable to find 'Sign' '5128' for 0x401CA39E6B0017C
  5080. 00:04:16.597 : <ERROR> Unable to find 'Sign' '5127' for 0x401FAF905C00001
  5081. 00:04:16.597 : <ERROR> Unable to find 'Sign' '5111' for 0x40301C700C00145
  5082. 00:04:16.598 : <ERROR> Unable to find 'Sign' '5110' for 0x40301C7175000F1
  5083. 00:04:16.598 : <ERROR> Unable to find 'Sign' '5107' for 0x40301C722B0007A
  5084. 00:04:16.598 : <ERROR> Unable to find 'Sign' '5317rus' for 0x40301C727D00176
  5085. 00:04:16.598 : <ERROR> Unable to find 'Sign' '5111' for 0x40301C7627001FB
  5086. 00:04:16.598 : <ERROR> Unable to find 'Sign' '5110' for 0x40301C784700086
  5087. 00:04:16.598 : <ERROR> Unable to find 'Sign' '5110' for 0x40301C78E0001EE
  5088. 00:04:16.598 : <ERROR> Unable to find 'Sign' '5124' for 0x40301C78F5004D4
  5089. 00:04:16.598 : <ERROR> Unable to find 'Sign' '5316rus' for 0x40301C79CC00079
  5090. 00:04:16.598 : <ERROR> Unable to find 'Sign' '5316rus' for 0x40301C7A29002C5
  5091. 00:04:16.598 : <ERROR> Unable to find 'Sign' '5023' for 0x40301C7AB300352
  5092. 00:04:16.598 : <ERROR> Unable to find 'Sign' '5111' for 0x40301C7AB700078
  5093. 00:04:16.598 : <ERROR> Unable to find 'Sign' '5023' for 0x40301C7C39002AC
  5094. 00:04:16.598 : <ERROR> Unable to find 'Sign' '5107' for 0x40301C7C5B00114
  5095. 00:04:16.598 : <ERROR> Unable to find 'Sign' '5023' for 0x40301C7CB6004BC
  5096. 00:04:16.598 : <ERROR> Unable to find 'Sign' '5317rus' for 0x40301C7D17002A4
  5097. 00:04:16.598 : <ERROR> Unable to find 'Sign' '5124' for 0x40301C7FC100449
  5098. 00:04:16.598 : <ERROR> Unable to find 'Sign' '5145' for 0x40304A254B00002
  5099. 00:04:16.598 : <ERROR> Unable to find 'Sign' '5145' for 0x40304A29320000E
  5100. 00:04:16.598 : <ERROR> Unable to find 'Sign' '5023' for 0x4030A213E200001
  5101. 00:04:16.598 : <ERROR> Unable to find 'Sign' '5127' for 0x40E73AB81C00106
  5102. 00:04:16.598 : <ERROR> Unable to find 'Sign' '5128' for 0x40E765A61000001
  5103. 00:04:16.598 : <ERROR> Unable to find 'Sign' '5023' for 0x40E7C92ED800001
  5104. 00:04:16.599 : <ERROR> Unable to find 'Sign' '5457rus' for 0x414596B88C00001
  5105. 00:04:16.599 : <ERROR> Unable to find 'Sign' '5458rus' for 0x414598412100001
  5106. 00:04:16.599 : <ERROR> Unable to find 'Sign' '5458rus' for 0x4145993C0400001
  5107. 00:04:16.599 : <ERROR> Unable to find 'Sign' '5457rus' for 0x414599991500001
  5108. 00:04:16.599 : <ERROR> Unable to find 'Sign' '5457rus' for 0x41459AC5CA00001
  5109. 00:04:16.599 : <ERROR> Unable to find 'Sign' '5458rus' for 0x41459B1BBB00001
  5110. 00:04:16.599 : <ERROR> Unable to find 'Sign' '5316rus' for 0x50BC87881B00000
  5111. 00:04:16.599 : <ERROR> Unable to find 'Sign' '5317rus' for 0x50BC8825B100000
  5112. 00:04:16.599 : <ERROR> Unable to find 'Sign' '5107' for 0x50BCB5713000001
  5113. 00:04:16.599 : <ERROR> Unable to find 'Sign' '5107' for 0x50BCB69A4300000
  5114. 00:04:16.599 : <ERROR> Unable to find 'Sign' '5110' for 0x50BCB8CA7300001
  5115. 00:04:16.599 : <ERROR> Unable to find 'Sign' '5110' for 0x50BCB9787300001
  5116. 00:04:16.599 : <ERROR> Unable to find 'Sign' '5124' for 0x50BD91618E00001
  5117. 00:04:16.599 : <ERROR> Unable to find 'Sign' '5124' for 0x50BD91FDCF00000
  5118. 00:04:16.599 : <ERROR> Unable to find 'Sign' '5110' for 0x50BD97796500001
  5119. 00:04:16.599 : <ERROR> Unable to find 'Sign' '5023' for 0x50BDBA1B7200001
  5120. 00:04:16.601 : <ERROR> Unable to find 'Sign' '5001' for 0x40D817806500324
  5121. 00:04:16.602 : <ERROR> Unable to find 'Sign' '5023' for 0x40D81781BC00464
  5122. 00:04:16.602 : <ERROR> Unable to find 'Sign' '5023' for 0x40D817824800654
  5123. 00:04:16.602 : <ERROR> Unable to find 'Sign' '5023' for 0x40D817839D0009D
  5124. 00:04:16.602 : <ERROR> Unable to find 'Sign' '5023' for 0x40D817843E002DD
  5125. 00:04:16.602 : <ERROR> Unable to find 'Sign' '5092' for 0x40D81784C300008
  5126. 00:04:16.602 : <ERROR> Unable to find 'Sign' '5091' for 0x40D817851600D4A
  5127. 00:04:16.602 : <ERROR> Unable to find 'Sign' '5001' for 0x40D81785BE00652
  5128. 00:04:16.602 : <ERROR> Unable to find 'Sign' '5023' for 0x40D817893100326
  5129. 00:04:16.602 : <ERROR> Unable to find 'Sign' '5023' for 0x40D8178BC8001C1
  5130. 00:04:16.602 : <ERROR> Unable to find 'Sign' '5023' for 0x40D8178BE9003D1
  5131. 00:04:16.602 : <ERROR> Unable to find 'Sign' '5023' for 0x40D8178C88002C5
  5132. 00:04:16.602 : <ERROR> Unable to find 'Sign' '5001' for 0x40D8178E63002F9
  5133. 00:04:16.602 : <ERROR> Unable to find 'Sign' '5023' for 0x40D8178EEC001BC
  5134. 00:04:16.602 : <ERROR> Unable to find 'Sign' '5124' for 0x40D83235110002B
  5135. 00:04:16.602 : <ERROR> Unable to find 'Sign' '5023' for 0x40D832355A0009C
  5136. 00:04:16.602 : <ERROR> Unable to find 'Sign' '5124' for 0x40D83238B00002C
  5137. 00:04:16.603 : <ERROR> Unable to find 'Sign' '5110' for 0x40D8323F5800027
  5138. 00:04:16.603 : <ERROR> Unable to find 'Sign' '5023' for 0x40E73ABB750007D
  5139. 00:04:16.603 : <ERROR> Unable to find 'Sign' '5023' for 0x40E73ABDDC0001F
  5140. 00:04:16.603 : <ERROR> Unable to find 'Sign' '5107' for 0x40E829C687000DA
  5141. 00:04:16.603 : <ERROR> Unable to find 'Sign' '5107' for 0x40E829C99E000D9
  5142. 00:04:16.603 : <ERROR> Unable to find 'Sign' '5111' for 0x40E829CEEF0001E
  5143. 00:04:16.603 : <ERROR> Unable to find 'Sign' '5110' for 0x40E829CFF70003D
  5144. 00:04:16.603 : <ERROR> Unable to find 'Sign' '5127' for 0x40E8DC8B6900001
  5145. 00:04:16.603 : <ERROR> Unable to find 'Sign' '5128' for 0x40E8E4F68200001
  5146. 00:04:16.603 : <ERROR> Unable to find 'Sign' '5450rus' for 0x40F40CCD8F00001
  5147. 00:04:16.603 : <ERROR> Unable to find 'Sign' '5450rus' for 0x40F41689EF00000
  5148. 00:04:16.603 : <ERROR> Unable to find 'Sign' '5449rus' for 0x40F416DE2800000
  5149. 00:04:16.603 : <ERROR> Unable to find 'Sign' '5449rus' for 0x40F417945F00000
  5150. 00:04:16.603 : <ERROR> Unable to find 'Sign' '5124' for 0x40FD3B785300007
  5151. 00:04:16.603 : <ERROR> Unable to find 'Sign' '5110' for 0x40FD40662F00004
  5152. 00:04:16.603 : <ERROR> Unable to find 'Sign' '5124' for 0x40FD55BA6B00000
  5153. 00:04:16.603 : <ERROR> Unable to find 'Sign' '5124' for 0x40FD56162600000
  5154. 00:04:16.603 : <ERROR> Unable to find 'Sign' '5110' for 0x40FD60E1DB00000
  5155. 00:04:16.603 : <ERROR> Unable to find 'Sign' '5145' for 0x410454D62700022
  5156. 00:04:16.604 : <ERROR> Unable to find 'Sign' '5145' for 0x410454DE5B00020
  5157. 00:04:16.604 : <ERROR> Unable to find 'Sign' '5023' for 0x412060965100001
  5158. 00:04:16.604 : <ERROR> Unable to find 'Sign' '5124' for 0x5CD8E2786A00001
  5159. 00:04:16.604 : <ERROR> Unable to find 'Sign' '5107' for 0x5CD8E492A800001
  5160. 00:04:16.604 : <ERROR> Unable to find 'Sign' '5107' for 0x5CD8E5173000000
  5161. 00:04:16.604 : <ERROR> Unable to find 'Sign' '5028' for 0x5CD8E6282400001
  5162. 00:04:16.604 : <ERROR> Unable to find 'Sign' '5028' for 0x5CD8E6A1F300000
  5163. 00:04:16.606 : <ERROR> Unable to find 'Sign' '5090' for 0x3EB531D123001FF
  5164. 00:04:16.606 : <ERROR> Unable to find 'Sign' '5110' for 0x3EB531D5490010F
  5165. 00:04:16.606 : <ERROR> Unable to find 'Sign' '5089' for 0x3EB531D56C0026F
  5166. 00:04:16.607 : <ERROR> Unable to find 'Sign' '5111' for 0x3EB531D6B80005E
  5167. 00:04:16.607 : <ERROR> Unable to find 'Sign' '5090' for 0x3EB531D73100020
  5168. 00:04:16.607 : <ERROR> Unable to find 'Sign' '5089' for 0x3EB531DB050004C
  5169. 00:04:16.607 : <ERROR> Unable to find 'Sign' '5001' for 0x40D81786B8006D7
  5170. 00:04:16.607 : <ERROR> Unable to find 'Sign' '5023' for 0x40D817884E00BFF
  5171. 00:04:16.607 : <ERROR> Unable to find 'Sign' '5001' for 0x40D817898E00A8F
  5172. 00:04:16.607 : <ERROR> Unable to find 'Sign' '5092' for 0x40D8178B80006D5
  5173. 00:04:16.607 : <ERROR> Unable to find 'Sign' '5091' for 0x40D8178E16006D4
  5174. 00:04:16.607 : <ERROR> Unable to find 'Sign' '5145' for 0x40EF1EDD4300020
  5175. 00:04:16.607 : <ERROR> Unable to find 'Sign' '5145' for 0x40EF1EDEDA00022
  5176. 00:04:16.607 : <ERROR> Unable to find 'Sign' '5023' for 0x41160EEDCA00001
  5177. 00:04:16.607 : <ERROR> Unable to find 'Sign' '5023' for 0x41160F808900001
  5178. 00:04:16.607 : <ERROR> Unable to find 'Sign' '5023' for 0x41161308EF00001
  5179. 00:04:16.607 : <ERROR> Unable to find 'Sign' '5023' for 0x4116134B9B00001
  5180. 00:04:16.607 : <ERROR> Unable to find 'Sign' '5145' for 0x411A49BB7D0000E
  5181. 00:04:16.607 : <ERROR> Unable to find 'Sign' '5145' for 0x411A49BF0D00002
  5182. 00:04:16.607 : <ERROR> Unable to find 'Sign' '5023' for 0x411ACB3FB900000
  5183. 00:04:16.608 : <ERROR> Unable to find 'Sign' '5455rus' for 0x411F23FB3900001
  5184. 00:04:16.608 : <ERROR> Unable to find 'Sign' '5455rus' for 0x411F24F5DD00001
  5185. 00:04:16.608 : <ERROR> Unable to find 'Sign' '5456rus' for 0x411F256A8B00001
  5186. 00:04:16.608 : <ERROR> Unable to find 'Sign' '5456rus' for 0x411F25C8BF00001
  5187. 00:04:16.608 : <ERROR> Unable to find 'Sign' '5023' for 0x412061E2C300001
  5188. 00:04:16.614 : <ERROR> Unable to find 'Sign' '5023' for 0x519075AD4600001
  5189. 00:04:16.615 : <ERROR> Unable to find 'Sign' '5107' for 0x523A969EEC00001
  5190. 00:04:16.615 : <ERROR> Unable to find 'Sign' '5110' for 0x523A9A7CFB00001
  5191. 00:04:16.615 : <ERROR> Unable to find 'Sign' '5111' for 0x523AB1581700001
  5192. 00:04:16.615 : <ERROR> Unable to find 'Sign' '5110' for 0x523AB3A1DE00000
  5193. 00:04:16.615 : <ERROR> Unable to find 'Sign' '5110' for 0x523ABB935800001
  5194. 00:04:16.615 : <ERROR> Unable to find 'Sign' '5110' for 0x523AC6AB6600000
  5195. 00:04:16.615 : <ERROR> Unable to find 'Sign' '5107' for 0x523AD3CAEC00001
  5196. 00:04:16.615 : <ERROR> Unable to find 'Sign' '5128' for 0x523AFCC2FC00001
  5197. 00:04:16.615 : <ERROR> Unable to find 'Sign' '5145' for 0x523B22712E00018
  5198. 00:04:16.615 : <ERROR> Unable to find 'Sign' '5537rus' for 0x524D7D771900001
  5199. 00:04:16.615 : <ERROR> Unable to find 'Sign' '5538rus' for 0x524D7DF92300001
  5200. 00:04:16.615 : <ERROR> Unable to find 'Sign' '5538rus' for 0x524D7E8CDE00001
  5201. 00:04:16.615 : <ERROR> Unable to find 'Sign' '5537rus' for 0x524D7EC8DD00001
  5202. 00:04:16.616 : <ERROR> Unable to find 'Sign' '5541rus' for 0x524D8F058300001
  5203. 00:04:16.616 : <ERROR> Unable to find 'Sign' '5542rus' for 0x524D8F51DC00001
  5204. 00:04:16.618 : <ERROR> Unable to find 'Sign' '5497rus' for 0x47EBFD6D5F00001
  5205. 00:04:16.618 : <ERROR> Unable to find 'Sign' '5498rus' for 0x47EBFE47D100001
  5206. 00:04:16.618 : <ERROR> Unable to find 'Sign' '5023' for 0x480382CCDE00001
  5207. 00:04:16.618 : <ERROR> Unable to find 'Sign' '5128' for 0x4803938DD600001
  5208. 00:04:16.618 : <ERROR> Unable to find 'Sign' '5023' for 0x48039B9CBF00001
  5209. 00:04:16.618 : <ERROR> Unable to find 'Sign' '5023' for 0x4803EC44AA00001
  5210. 00:04:16.619 : <ERROR> Unable to find 'Sign' '5023' for 0x4803F6001E00001
  5211. 00:04:16.619 : <ERROR> Unable to find 'Sign' '5128' for 0x4803FC936800001
  5212. 00:04:16.621 : <ERROR> Unable to find 'Sign' '5498rus' for 0x47EBFED99000001
  5213. 00:04:16.621 : <ERROR> Unable to find 'Sign' '5497rus' for 0x47EBFF47AD00001
  5214. 00:04:16.621 : <ERROR> Unable to find 'Sign' '5023' for 0x4803C9B17D00001
  5215. 00:04:16.621 : <ERROR> Unable to find 'Sign' '5023' for 0x4803D28E4100001
  5216. 00:04:16.621 : <ERROR> Unable to find 'Sign' '5501rus' for 0x48AC9259EC00001
  5217. 00:04:16.621 : <ERROR> Unable to find 'Sign' '5502rus' for 0x48AC93418500001
  5218. 00:04:16.621 : <ERROR> Unable to find 'Sign' '5502rus' for 0x48AC94850900001
  5219. 00:04:16.621 : <ERROR> Unable to find 'Sign' '5501rus' for 0x48AC94EE7E00001
  5220. 00:04:16.621 : <ERROR> Unable to find 'Sign' '5503rus' for 0x48AC9C2FF600001
  5221. 00:04:16.621 : <ERROR> Unable to find 'Sign' '5504rus' for 0x48AC9D062F00001
  5222. 00:04:16.621 : <ERROR> Unable to find 'Sign' '5503rus' for 0x48AC9E573300001
  5223. 00:04:16.621 : <ERROR> Unable to find 'Sign' '5504rus' for 0x48ACA040F200001
  5224. 00:04:16.624 : <ERROR> Unable to find 'Sign' '5023' for 0x486FF75B7D00001
  5225. 00:04:16.624 : <ERROR> Unable to find 'Sign' '5023' for 0x487001B79600001
  5226. 00:04:16.624 : <ERROR> Unable to find 'Sign' '5110' for 0x4A8E7FCEB400000
  5227. 00:04:16.624 : <ERROR> Unable to find 'Sign' '5124' for 0x4A8E8C7D2A00001
  5228. 00:04:16.624 : <ERROR> Unable to find 'Sign' '5124' for 0x4A8E8D7D0C00000
  5229. 00:04:16.624 : <ERROR> Unable to find 'Sign' '5023' for 0x4AE240EEBF00001
  5230. 00:04:16.624 : <ERROR> Unable to find 'Sign' '5023' for 0x4AE24191ED00001
  5231. 00:04:16.624 : <ERROR> Unable to find 'Sign' '5023' for 0x4AE241D6DA00001
  5232. 00:04:16.624 : <ERROR> Unable to find 'Sign' '5023' for 0x4AE242FCBD00001
  5233. 00:04:16.624 : <ERROR> Unable to find 'Sign' '5023' for 0x4AF6E1AB1500001
  5234. 00:04:16.624 : <ERROR> Unable to find 'Sign' '5023' for 0x4AF6E2BC4E00000
  5235. 00:04:16.627 : <ERROR> Unable to find 'Sign' '5110' for 0x4A3AAD72F100001
  5236. 00:04:16.627 : <ERROR> Unable to find 'Sign' '5110' for 0x4ABA17E27600001
  5237. 00:04:16.627 : <ERROR> Unable to find 'Sign' '5111' for 0x4ABA1A18CD00001
  5238. 00:04:16.627 : <ERROR> Unable to find 'Sign' '5107' for 0x4ABAE1360100001
  5239. 00:04:16.627 : <ERROR> Unable to find 'Sign' '5112' for 0x4ABAE2B6BB00001
  5240. 00:04:16.627 : <ERROR> Unable to find 'Sign' '5510rus' for 0x4ACF54D5DF00001
  5241. 00:04:16.627 : <ERROR> Unable to find 'Sign' '5511rus' for 0x4ACF55D78800001
  5242. 00:04:16.627 : <ERROR> Unable to find 'Sign' '5510rus' for 0x4ACF5816EF00001
  5243. 00:04:16.627 : <ERROR> Unable to find 'Sign' '5511rus' for 0x4ACF589F6C00001
  5244. 00:04:16.627 : <ERROR> Unable to find 'Sign' '5023' for 0x4AF75808A000001
  5245. 00:04:16.627 : <ERROR> Unable to find 'Sign' '5023' for 0x4AF762CCCB00001
  5246. 00:04:16.628 : <ERROR> Unable to find 'Sign' '5107' for 0x50C294F02500001
  5247. 00:04:16.628 : <ERROR> Unable to find 'Sign' '5530rus' for 0x50FE6BC0E000001
  5248. 00:04:16.628 : <ERROR> Unable to find 'Sign' '5531rus' for 0x50FE6C09B900001
  5249. 00:04:16.628 : <ERROR> Unable to find 'Sign' '5531rus' for 0x50FE6C8D1900001
  5250. 00:04:16.628 : <ERROR> Unable to find 'Sign' '5530rus' for 0x50FE6E007600001
  5251. 00:04:16.630 : <ERROR> Unable to find 'Sign' '5023' for 0x40D81780EC004DC
  5252. 00:04:16.630 : <ERROR> Unable to find 'Sign' '5023' for 0x40D81781AF003F3
  5253. 00:04:16.631 : <ERROR> Unable to find 'Sign' '5111' for 0x40D817823800616
  5254. 00:04:16.631 : <ERROR> Unable to find 'Sign' '5108' for 0x40D817824300614
  5255. 00:04:16.631 : <ERROR> Unable to find 'Sign' '5111' for 0x40D817832600622
  5256. 00:04:16.631 : <ERROR> Unable to find 'Sign' '5023' for 0x40D81783ED00610
  5257. 00:04:16.631 : <ERROR> Unable to find 'Sign' '5111' for 0x40D817871F00621
  5258. 00:04:16.631 : <ERROR> Unable to find 'Sign' '5108' for 0x40D81789B900623
  5259. 00:04:16.631 : <ERROR> Unable to find 'Sign' '5108' for 0x40D81789E800624
  5260. 00:04:16.631 : <ERROR> Unable to find 'Sign' '5108' for 0x40D8178ABE007F1
  5261. 00:04:16.631 : <ERROR> Unable to find 'Sign' '5023' for 0x40D8178C1A0043D
  5262. 00:04:16.631 : <ERROR> Unable to find 'Sign' '5023' for 0x40D8178DB9004E3
  5263. 00:04:16.631 : <ERROR> Unable to find 'Sign' '5023' for 0x40D8178E880039E
  5264. 00:04:16.631 : <ERROR> Unable to find 'Sign' '5121' for 0x50AC8AB01F00028
  5265. 00:04:16.631 : <ERROR> Unable to find 'Sign' '5121' for 0x50AC8AB1000000A
  5266. 00:04:16.631 : <ERROR> Unable to find 'Sign' '5107' for 0x50C2A9E60700000
  5267. 00:04:16.631 : <ERROR> Unable to find 'Sign' '5528rus' for 0x50FE6437A300001
  5268. 00:04:16.631 : <ERROR> Unable to find 'Sign' '5529rus' for 0x50FE657C3500001
  5269. 00:04:16.631 : <ERROR> Unable to find 'Sign' '5528rus' for 0x50FE662ECA00001
  5270. 00:04:16.632 : <ERROR> Unable to find 'Sign' '5529rus' for 0x50FE66B53800001
  5271. 00:04:16.632 : <ERROR> Unable to find 'Sign' 'strlt123rus' for 0x514F53A04400010
  5272. 00:04:16.632 : <ERROR> Unable to find 'Sign' '5145' for 0x514F53A0EA00022
  5273. 00:04:16.632 : <ERROR> Unable to find 'Sign' 'strlt123rus' for 0x514F53A23300006
  5274. 00:04:16.632 : <ERROR> Unable to find 'Sign' 'strlt123rus' for 0x514F53A30F0000C
  5275. 00:04:16.632 : <ERROR> Unable to find 'Sign' 'strlt118rus' for 0x514F53A3C100012
  5276. 00:04:16.632 : <ERROR> Unable to find 'Sign' 'strlt123rus' for 0x514F53A46100000
  5277. 00:04:16.632 : <ERROR> Unable to find 'Sign' 'strlt123rus' for 0x514F53A5C700004
  5278. 00:04:16.632 : <ERROR> Unable to find 'Sign' '5145' for 0x514F53A79900020
  5279. 00:04:16.632 : <ERROR> Unable to find 'Sign' 'strlt118rus' for 0x514F53A8A200008
  5280. 00:04:16.632 : <ERROR> Unable to find 'Sign' 'strlt123rus' for 0x514F53AB0C00002
  5281. 00:04:16.632 : <ERROR> Unable to find 'Sign' 'strlt123rus' for 0x514F53ABE20000E
  5282. 00:04:16.632 : <ERROR> Unable to find 'Sign' 'strlt123rus' for 0x514F53AE4B0000A
  5283. 00:04:16.632 : <ERROR> Unable to find 'Sign' 'strlt118rus' for 0x514FC6F4F300000
  5284. 00:04:16.632 : <ERROR> Unable to find 'Sign' 'strlt118rus' for 0x514FC7AB8300000
  5285. 00:04:16.632 : <ERROR> Unable to find 'Sign' 'strlt118rus' for 0x514FC819D300000
  5286. 00:04:16.633 : <ERROR> Unable to find 'Sign' '5001' for 0x51543B6B7C00001
  5287. 00:04:16.633 : <ERROR> Unable to find 'Sign' '5001' for 0x51543BF87100001
  5288. 00:04:16.633 : <ERROR> Unable to find 'Sign' '5023' for 0x515441D8FD00001
  5289. 00:04:16.633 : <ERROR> Unable to find 'Sign' '5023' for 0x51544256DB00000
  5290. 00:04:16.633 : <ERROR> Unable to find 'Sign' '5001' for 0x515471591D00000
  5291. 00:04:16.633 : <ERROR> Unable to find 'Sign' '5001' for 0x5154899FBD00000
  5292. 00:04:16.633 : <ERROR> Unable to find 'Sign' '5001' for 0x5154906B4400000
  5293. 00:04:16.633 : <ERROR> Unable to find 'Sign' '5091' for 0x516A7DF99E00001
  5294. 00:04:16.633 : <ERROR> Unable to find 'Sign' '5092' for 0x516A7E3D8200001
  5295. 00:04:16.633 : <ERROR> Unable to find 'Sign' '5127' for 0x5519578BC600001
  5296. 00:04:16.633 : <ERROR> Unable to find 'Sign' '5023' for 0x55195D09D900001
  5297. 00:04:16.633 : <ERROR> Unable to find 'Sign' '5107' for 0x551982D20700001
  5298. 00:04:16.633 : <ERROR> Unable to find 'Sign' '5107' for 0x55198D208A00000
  5299. 00:04:16.633 : <ERROR> Unable to find 'Sign' '5110' for 0x55199518C800001
  5300. 00:04:16.633 : <ERROR> Unable to find 'Sign' '5110' for 0x551996144E00000
  5301. 00:04:16.633 : <ERROR> Unable to find 'Sign' '5146' for 0x551BFBC8E600046
  5302. 00:04:16.633 : <ERROR> Unable to find 'Sign' '5146' for 0x551BFBCE5E00048
  5303. 00:04:16.633 : <ERROR> Unable to find 'Sign' '5556rus' for 0x5561DEA10F00001
  5304. 00:04:16.633 : <ERROR> Unable to find 'Sign' '5557rus' for 0x5561DF2C9000001
  5305. 00:04:16.633 : <ERROR> Unable to find 'Sign' '5557rus' for 0x5561DFEBB900001
  5306. 00:04:16.633 : <ERROR> Unable to find 'Sign' '5556rus' for 0x5561E020EB00001
  5307. 00:04:16.633 : <ERROR> Unable to find 'Sign' '5001' for 0x5561E9D78200001
  5308. 00:04:16.633 : <ERROR> Unable to find 'Sign' '5001' for 0x5561EABD0100000
  5309. 00:04:16.634 : <ERROR> Unable to find 'Sign' '5023' for 0x5BDD34CEF400001
  5310. 00:04:16.634 : <ERROR> Unable to find 'Sign' '5023' for 0x5BDD7E26A400001
  5311. 00:04:16.634 : <ERROR> Unable to find 'Sign' '5583rus' for 0x5BF69E0FDC00001
  5312. 00:04:16.634 : <ERROR> Unable to find 'Sign' '5584rus' for 0x5BF69E741C00001
  5313. 00:04:16.634 : <ERROR> Unable to find 'Sign' '5584rus' for 0x5BF69F537B00001
  5314. 00:04:16.634 : <ERROR> Unable to find 'Sign' '5583rus' for 0x5BF69F8C8A00001
  5315. 00:04:16.634 : <ERROR> Unable to find 'Sign' '5001' for 0x5C1AE5EDE400001
  5316. 00:04:16.634 : <ERROR> Unable to find 'Sign' '5001' for 0x5C214740DB00060
  5317. 00:04:16.634 : <ERROR> Unable to find 'Sign' '5145' for 0x5C2147486D00143
  5318. 00:04:16.634 : <ERROR> Unable to find 'Sign' '5001' for 0x5C214749CE000EF
  5319. 00:04:16.634 : <ERROR> Unable to find 'Sign' '5001' for 0x5C21474A4D00067
  5320. 00:04:16.634 : <ERROR> Unable to find 'Sign' '5001' for 0x5C21474A7B000DA
  5321. 00:04:16.634 : <ERROR> Unable to find 'Sign' '5145' for 0x5C21474C3C00144
  5322. 00:04:16.634 : <ERROR> Unable to find 'Sign' '5001' for 0x5C44B6AEBB00000
  5323. 00:04:16.634 : <ERROR> Unable to find 'Sign' '5001' for 0x5C44C4A5D000000
  5324. 00:04:16.634 : <ERROR> Unable to find 'Sign' '5001' for 0x5C44D3393E00000
  5325. 00:04:16.635 : <ERROR> Unable to find 'Sign' '5127' for 0x5C6FB3A7F600001
  5326. 00:04:16.635 : <ERROR> Unable to find 'Sign' '5091' for 0x5C8675113800001
  5327. 00:04:16.635 : <ERROR> Unable to find 'Sign' '5092' for 0x5C8675E00200001
  5328. 00:04:16.635 : <ERROR> Unable to find 'Sign' '5092' for 0x5C8678F1DD00001
  5329. 00:04:16.635 : <ERROR> Unable to find 'Sign' '5091' for 0x5C867A0DC100001
  5330. 00:04:16.637 : <ERROR> Unable to find 'Sign' '5111' for 0x40D817839F00A86
  5331. 00:04:16.638 : <ERROR> Unable to find 'Sign' '5023' for 0x40D817850C00A93
  5332. 00:04:16.638 : <ERROR> Unable to find 'Sign' '5107' for 0x40D81786E300890
  5333. 00:04:16.638 : <ERROR> Unable to find 'Sign' '5023' for 0x40D81786EB00A94
  5334. 00:04:16.638 : <ERROR> Unable to find 'Sign' '5111' for 0x40D8178877007F3
  5335. 00:04:16.638 : <ERROR> Unable to find 'Sign' '5110' for 0x40D8178E2A00A84
  5336. 00:04:16.638 : <ERROR> Unable to find 'Sign' '5023' for 0x40D8178EF400A88
  5337. 00:04:16.642 : <ERROR> Unable to find 'Sign' '5542rus' for 0x524D914F7A00001
  5338. 00:04:16.642 : <ERROR> Unable to find 'Sign' '5541rus' for 0x524D91E51600001
  5339. 00:04:16.642 : <ERROR> Unable to find 'Sign' '5539rus' for 0x524D952BE600001
  5340. 00:04:16.642 : <ERROR> Unable to find 'Sign' '5540rus' for 0x524D96096900001
  5341. 00:04:16.642 : <ERROR> Unable to find 'Sign' '5540rus' for 0x524D974B3D00001
  5342. 00:04:16.642 : <ERROR> Unable to find 'Sign' '5539rus' for 0x524D98292E00001
  5343. 00:04:16.642 : <ERROR> Unable to find 'Sign' '5548rus' for 0x533B4D0E8500001
  5344. 00:04:16.643 : <ERROR> Unable to find 'Sign' '5549rus' for 0x533B4D7E3400001
  5345. 00:04:16.643 : <ERROR> Unable to find 'Sign' '5549rus' for 0x533B4E5CC600001
  5346. 00:04:16.643 : <ERROR> Unable to find 'Sign' '5548rus' for 0x533B4EA14000001
  5347. 00:04:16.643 : <ERROR> Unable to find 'Sign' '5023' for 0x53CD0C022A00001
  5348. 00:04:16.643 : <ERROR> Unable to find 'Sign' '5127' for 0x53CD12D53900001
  5349. 00:04:16.647 : <ERROR> Unable to find 'Sign' '5023' for 0x552F25B02D00001
  5350. 00:04:16.647 : <ERROR> Unable to find 'Sign' '5001' for 0x552F46B96900001
  5351. 00:04:16.649 : <ERROR> Unable to find 'Sign' '5111' for 0x4A3AAF7C3500001
  5352. 00:04:16.649 : <ERROR> Unable to find 'Sign' '5511rus' for 0x4ACF56829F00001
  5353. 00:04:16.650 : <ERROR> Unable to find 'Sign' '5510rus' for 0x4ACF56C5D400001
  5354. 00:04:16.650 : <ERROR> Unable to find 'Sign' '5107' for 0x4D9ACC8C7300001
  5355. 00:04:16.650 : <ERROR> Unable to find 'Sign' '5107' for 0x4D9AE32B2100000
  5356. 00:04:16.650 : <ERROR> Unable to find 'Sign' '5023' for 0x552F2C330F00001
  5357. 00:04:16.650 : <ERROR> Unable to find 'Sign' '5023' for 0x552F2CD08900001
  5358. 00:04:16.650 : <ERROR> Unable to find 'Sign' '5023' for 0x552F2D252C00001
  5359. 00:04:16.650 : <ERROR> Unable to find 'Sign' '5023' for 0x552F2DDD1400001
  5360. 00:04:16.650 : <ERROR> Unable to find 'Sign' '5023' for 0x552F2E5BA900001
  5361. 00:04:16.650 : <ERROR> Unable to find 'Sign' '5023' for 0x552F2FDCDC00001
  5362. 00:04:16.650 : <ERROR> Unable to find 'Sign' '5023' for 0x552F3614CE00001
  5363. 00:04:16.650 : <ERROR> Unable to find 'Sign' '5001' for 0x552F47AAAC00001
  5364. 00:04:16.650 : <ERROR> Unable to find 'Sign' '5023' for 0x552F49F8CE00001
  5365. 00:04:16.650 : <ERROR> Unable to find 'Sign' '5107' for 0x55302AB64B00001
  5366. 00:04:16.650 : <ERROR> Unable to find 'Sign' '5107' for 0x55302B3FB100000
  5367. 00:04:16.650 : <ERROR> Unable to find 'Sign' '5107' for 0x55302E2C4700000
  5368. 00:04:16.650 : <ERROR> Unable to find 'Sign' '5107' for 0x55302FD5BE00000
  5369. 00:04:16.651 : <ERROR> Unable to find 'Sign' '5023' for 0x5A64E131F900001
  5370. 00:04:16.651 : <ERROR> Unable to find 'Sign' '5023' for 0x5A64E5F68500001
  5371. 00:04:16.651 : <ERROR> Unable to find 'Sign' '5023' for 0x5A64EAE5F300001
  5372. 00:04:16.651 : <ERROR> Unable to find 'Sign' '5023' for 0x5A64EBD96D00001
  5373. 00:04:16.651 : <ERROR> Unable to find 'Sign' '5023' for 0x5A74FDAE6F00001
  5374. 00:04:16.651 : <ERROR> Unable to find 'Sign' '5023' for 0x5A74FE4B8000001
  5375. 00:04:16.651 : <ERROR> Unable to find 'Sign' '5107' for 0x5A750408CB00001
  5376. 00:04:16.651 : <ERROR> Unable to find 'Sign' '5121' for 0x5A7544B31A0000B
  5377. 00:04:16.651 : <ERROR> Unable to find 'Sign' '5121' for 0x5A7544BE300000D
  5378. 00:04:16.651 : <ERROR> Unable to find 'Sign' '5569rus' for 0x5A8A0AE07000001
  5379. 00:04:16.651 : <ERROR> Unable to find 'Sign' '5569rus' for 0x5A8A0CC6F700001
  5380. 00:04:16.651 : <ERROR> Unable to find 'Sign' '5570rus' for 0x5A8A0D270400001
  5381. 00:04:16.651 : <ERROR> Unable to find 'Sign' '5570rus' for 0x5A8A0D8CA600001
  5382. 00:04:16.651 : <ERROR> Unable to find 'Sign' '5565rus' for 0x5A8A11BB8600001
  5383. 00:04:16.651 : <ERROR> Unable to find 'Sign' '5566rus' for 0x5A8A128C5000001
  5384. 00:04:16.651 : <ERROR> Unable to find 'Sign' '5566rus' for 0x5A8A1339F100001
  5385. 00:04:16.651 : <ERROR> Unable to find 'Sign' '5565rus' for 0x5A8A14103700001
  5386. 00:04:16.651 : <ERROR> Unable to find 'Sign' '5023' for 0x5AB5F3FA8700001
  5387. 00:04:16.651 : <ERROR> Unable to find 'Sign' '5107' for 0x5AB5F953B700001
  5388. 00:04:16.651 : <ERROR> Unable to find 'Sign' '5023' for 0x5AB5FDA09400001
  5389. 00:04:16.651 : <ERROR> Unable to find 'Sign' '5023' for 0x5AB5FF402F00001
  5390. 00:04:16.651 : <ERROR> Unable to find 'Sign' '5023' for 0x5AB5FF646800001
  5391. 00:04:16.652 : <ERROR> Unable to find 'Sign' '5023' for 0x5F27EB03F700001
  5392. 00:04:16.654 : <ERROR> Unable to find 'Sign' '5405rus' for 0x5AA252562200000
  5393. 00:04:16.654 : <ERROR> Unable to find 'Sign' '5405rus' for 0x5AA34159F500000
  5394. 00:04:16.654 : <ERROR> Unable to find 'Sign' '5107' for 0x5AB3ACC62800001
  5395. 00:04:16.654 : <ERROR> Unable to find 'Sign' '5023' for 0x5AB5BE6F8B00001
  5396. 00:04:16.654 : <ERROR> Unable to find 'Sign' '5023' for 0x5AB5C5244100001
  5397. 00:04:16.654 : <ERROR> Unable to find 'Sign' '5110' for 0x5ACD64932900001
  5398. 00:04:16.654 : <ERROR> Unable to find 'Sign' '5111' for 0x5ACD65255F00001
  5399. 00:04:16.654 : <ERROR> Unable to find 'Sign' '5107' for 0x5ACD65810700001
  5400. 00:04:16.655 : <ERROR> Unable to find 'Sign' '5107' for 0x5ACD6E7B5B00000
  5401. 00:04:16.655 : <ERROR> Unable to find 'Sign' '5111' for 0x5ACD6F57C300000
  5402. 00:04:16.655 : <ERROR> Unable to find 'Sign' '5107' for 0x5ACD71429200000
  5403. 00:04:16.655 : <ERROR> Unable to find 'Sign' '5111' for 0x5ACD768A6700000
  5404. 00:04:16.655 : <ERROR> Unable to find 'Sign' '5128' for 0x5ACD7D392800001
  5405. 00:04:16.655 : <ERROR> Unable to find 'Sign' '5577rus' for 0x5AF453DEC500001
  5406. 00:04:16.655 : <ERROR> Unable to find 'Sign' '5578rus' for 0x5AF454BA5F00001
  5407. 00:04:16.655 : <ERROR> Unable to find 'Sign' '5578rus' for 0x5AF45578D400001
  5408. 00:04:16.655 : <ERROR> Unable to find 'Sign' '5577rus' for 0x5AF455EA7500001
  5409. 00:04:16.655 : <ERROR> Unable to find 'Sign' '5023' for 0x5BA13FB7FE00001
  5410. 00:04:16.655 : <ERROR> Unable to find 'Sign' '5111' for 0x5BA1518FB200001
  5411. 00:04:16.655 : <ERROR> Unable to find 'Sign' '5110' for 0x5BA1523D9100001
  5412. 00:04:16.655 : <ERROR> Unable to find 'Sign' '5107' for 0x5BA1541FF400001
  5413. 00:04:16.655 : <ERROR> Unable to find 'Sign' '5579rus' for 0x5BA175DF7A00001
  5414. 00:04:16.655 : <ERROR> Unable to find 'Sign' '5580rus' for 0x5BA177C22D00001
  5415. 00:04:16.655 : <ERROR> Unable to find 'Sign' '5107' for 0x5BA18410AC00001
  5416. 00:04:16.655 : <ERROR> Unable to find 'Sign' '5110' for 0x5BA1848A0E00001
  5417. 00:04:16.655 : <ERROR> Unable to find 'Sign' '5111' for 0x5BA184F58200001
  5418. 00:04:16.656 : <ERROR> Unable to find 'Sign' '5110' for 0x5BA195E14D00001
  5419. 00:04:16.656 : <ERROR> Unable to find 'Sign' '5111' for 0x5BA19652E300001
  5420. 00:04:16.656 : <ERROR> Unable to find 'Sign' '5107' for 0x5BA196B1CB00001
  5421. 00:04:16.656 : <ERROR> Unable to find 'Sign' '5110' for 0x5BA198521B00001
  5422. 00:04:16.656 : <ERROR> Unable to find 'Sign' '5111' for 0x5BA198D87F00001
  5423. 00:04:16.656 : <ERROR> Unable to find 'Sign' '5579rus' for 0x5BA19F093200000
  5424. 00:04:16.656 : <ERROR> Unable to find 'Sign' '5580rus' for 0x5BA19FDC5700000
  5425. 00:04:16.656 : <ERROR> Unable to find 'Sign' '5579rus' for 0x5BA1ADD16400000
  5426. 00:04:16.656 : <ERROR> Unable to find 'Sign' '5580rus' for 0x5BA1AE781D00000
  5427. 00:04:16.656 : <ERROR> Unable to find 'Sign' '5107' for 0x5BA1AFCBEB00001
  5428. 00:04:16.656 : <ERROR> Unable to find 'Sign' '5110' for 0x5BA1BA464A00001
  5429. 00:04:16.656 : <ERROR> Unable to find 'Sign' '5111' for 0x5BA1BACB9400001
  5430. 00:04:16.656 : <ERROR> Unable to find 'Sign' '5579rus' for 0x5BB321C04C00000
  5431. 00:04:16.656 : <ERROR> Unable to find 'Sign' '5580rus' for 0x5BB3223B5C00000
  5432. 00:04:16.664 : <ERROR> Unable to find 'Sign' '5145' for 0x54C48490E100002
  5433. 00:04:16.664 : <ERROR> Unable to find 'Sign' '5145' for 0x54C4849FE20000E
  5434. 00:04:16.664 : <ERROR> Unable to find 'Sign' '5001' for 0x552EE782FB00001
  5435. 00:04:16.666 : <ERROR> Unable to find 'Sign' '5023' for 0x5F6581BDC000001
  5436. 00:04:16.669 : <ERROR> Unable to find 'Sign' '5567rus' for 0x5A8A1BFDF600001
  5437. 00:04:16.669 : <ERROR> Unable to find 'Sign' '5568rus' for 0x5A8A1C1C7800001
  5438. 00:04:16.669 : <ERROR> Unable to find 'Sign' '5107' for 0x5AB5DAD0C100001
  5439. 00:04:16.669 : <ERROR> Unable to find 'Sign' '5023' for 0x5F168133D000001
  5440. 00:04:16.669 : <ERROR> Unable to find 'Sign' '5023' for 0x5F1681ED1C00000
  5441. 00:04:16.669 : <ERROR> Unable to find 'Sign' '5023' for 0x5F16823E3B00000
  5442. 00:04:16.669 : <ERROR> Unable to find 'Sign' '5023' for 0x5F1682B5ED00000
  5443. 00:04:16.669 : <ERROR> Unable to find 'Sign' '5023' for 0x5F1682EF8700000
  5444. 00:04:16.669 : <ERROR> Unable to find 'Sign' '5023' for 0x61B2A95FB400001
  5445. 00:04:16.670 : <ERROR> Unable to find 'Sign' '5128' for 0x61B2AAF39500001
  5446. 00:04:16.674 : <ERROR> Unable to find 'Sign' '5111' for 0x53B3C5422C00001
  5447. 00:04:16.674 : <ERROR> Unable to find 'Sign' '5110' for 0x53B3C5C35500001
  5448. 00:04:16.674 : <ERROR> Unable to find 'Sign' '5107' for 0x53B3C68AB800001
  5449. 00:04:16.674 : <ERROR> Unable to find 'Sign' '5107' for 0x53B3C9EDD700001
  5450. 00:04:16.674 : <ERROR> Unable to find 'Sign' '5110' for 0x53B3CA436900001
  5451. 00:04:16.674 : <ERROR> Unable to find 'Sign' '5111' for 0x53B3CAB09B00001
  5452. 00:04:16.674 : <ERROR> Unable to find 'Sign' '5553rus' for 0x53B3F7D6DC00001
  5453. 00:04:16.674 : <ERROR> Unable to find 'Sign' '5552rus' for 0x53B3F839EB00001
  5454. 00:04:16.674 : <ERROR> Unable to find 'Sign' '5552rus' for 0x53C91124F800000
  5455. 00:04:16.674 : <ERROR> Unable to find 'Sign' '5553rus' for 0x53C911BB7B00000
  5456. 00:04:16.674 : <ERROR> Unable to find 'Sign' '5124' for 0x552E209F8000001
  5457. 00:04:16.674 : <ERROR> Unable to find 'Sign' '5124' for 0x552E20CA4E00000
  5458. 00:04:16.674 : <ERROR> Unable to find 'Sign' '5110' for 0x552E2299F800001
  5459. 00:04:16.675 : <ERROR> Unable to find 'Sign' '5553rus' for 0x552E37A3C700001
  5460. 00:04:16.675 : <ERROR> Unable to find 'Sign' '5552rus' for 0x552E37AFFF00000
  5461. 00:04:16.675 : <ERROR> Unable to find 'Sign' '5107' for 0x552E3C845B00001
  5462. 00:04:16.675 : <ERROR> Unable to find 'Sign' '5111' for 0x552E3D487D00001
  5463. 00:04:16.675 : <ERROR> Unable to find 'Sign' '5110' for 0x57001D65CA00000
  5464. 00:04:16.677 : <ERROR> Unable to find 'Sign' '5111' for 0x53B37A72AD00001
  5465. 00:04:16.677 : <ERROR> Unable to find 'Sign' '5107' for 0x53B37B58E300001
  5466. 00:04:16.677 : <ERROR> Unable to find 'Sign' '5111' for 0x53B413D1AD00001
  5467. 00:04:16.677 : <ERROR> Unable to find 'Sign' '5110' for 0x53B415191E00001
  5468. 00:04:16.677 : <ERROR> Unable to find 'Sign' '5553rus' for 0x53C912C98700000
  5469. 00:04:16.677 : <ERROR> Unable to find 'Sign' '5552rus' for 0x53C912FECB00000
  5470. 00:04:16.677 : <ERROR> Unable to find 'Sign' '5023' for 0x53CB79BD0900001
  5471. 00:04:16.677 : <ERROR> Unable to find 'Sign' '5023' for 0x53CB7B0E4300000
  5472. 00:04:16.677 : <ERROR> Unable to find 'Sign' '5552rus' for 0x53CBBF945700000
  5473. 00:04:16.678 : <ERROR> Unable to find 'Sign' '5553rus' for 0x53CBC084F200000
  5474. 00:04:16.678 : <ERROR> Unable to find 'Sign' '5110' for 0x552E2AB65C00006
  5475. 00:04:16.678 : <ERROR> Unable to find 'Sign' '5124' for 0x552E2AB8F100004
  5476. 00:04:16.678 : <ERROR> Unable to find 'Sign' '5124' for 0x552E2ABE7700005
  5477. 00:04:16.678 : <ERROR> Unable to find 'Sign' '5023' for 0x552EACDB4400001
  5478. 00:04:16.678 : <ERROR> Unable to find 'Sign' '5023' for 0x552EAE101000001
  5479. 00:04:16.678 : <ERROR> Unable to find 'Sign' '5023' for 0x552EB1324600001
  5480. 00:04:16.678 : <ERROR> Unable to find 'Sign' '5023' for 0x552EB4E44D00001
  5481. 00:04:16.682 : <ERROR> Unable to find 'Sign' '5127' for 0x5F29675C2200001
  5482. 00:04:16.682 : <ERROR> Unable to find 'Sign' '5128' for 0x5F29721B2400001
  5483. 00:04:16.685 : <ERROR> Unable to find 'Sign' '5146' for 0x5703FC2F2E00046
  5484. 00:04:16.685 : <ERROR> Unable to find 'Sign' '5110' for 0x61F3C4D8DA00001
  5485. 00:04:16.685 : <ERROR> Unable to find 'Sign' '5111' for 0x61F3C57FF600001
  5486. 00:04:16.685 : <ERROR> Unable to find 'Sign' '5107' for 0x61F3C5DEA500001
  5487. 00:04:16.685 : <ERROR> Unable to find 'Sign' '5601rus' for 0x630DBA98CE00000
  5488. 00:04:16.685 : <ERROR> Unable to find 'Sign' '5602rus' for 0x630DBB409000000
  5489. 00:04:16.685 : <ERROR> Unable to find 'Sign' '5023' for 0x630DBD2D8C00001
  5490. 00:04:16.685 : <ERROR> Unable to find 'Sign' '5127' for 0x630DC9271500001
  5491. 00:04:16.685 : <ERROR> Unable to find 'Sign' '5606rus' for 0x631960815D00001
  5492. 00:04:16.686 : <ERROR> Unable to find 'Sign' '5607rus' for 0x6319623ACE00001
  5493. 00:04:16.686 : <ERROR> Unable to find 'Sign' '5607rus' for 0x631962FCFD00001
  5494. 00:04:16.686 : <ERROR> Unable to find 'Sign' '5606rus' for 0x631964BBC200001
  5495. 00:04:16.688 : <ERROR> Unable to find 'Sign' '5128' for 0x61F3ADF9F000001
  5496. 00:04:16.688 : <ERROR> Unable to find 'Sign' '5601rus' for 0x61F3B9CABA00001
  5497. 00:04:16.688 : <ERROR> Unable to find 'Sign' '5602rus' for 0x61F3BB382700001
  5498. 00:04:16.688 : <ERROR> Unable to find 'Sign' '5023' for 0x61F3BC2D6C00001
  5499. 00:04:16.688 : <ERROR> Unable to find 'Sign' '5023' for 0x61F3BE429800001
  5500. 00:04:16.690 : <ERROR> Unable to find 'Sign' '5145' for 0x5E2A3F58C2000D7
  5501. 00:04:16.690 : <ERROR> Unable to find 'Sign' '5023' for 0x5E91FA2DD600001
  5502. 00:04:16.690 : <ERROR> Unable to find 'Sign' '5023' for 0x5E91FADBF900000
  5503. 00:04:16.691 : <ERROR> Unable to find 'Sign' '5145' for 0x615E06E80800018
  5504. 00:04:16.691 : <ERROR> Unable to find 'Sign' '5145' for 0x616393835800018
  5505. 00:04:16.693 : <ERROR> Unable to find 'Sign' '5145' for 0x5E2A3F54F8000DE
  5506. 00:04:16.693 : <ERROR> Unable to find 'Sign' '5028' for 0x5E3DA98CD800002
  5507. 00:04:16.693 : <ERROR> Unable to find 'Sign' '5028' for 0x5E3DAF410400002
  5508. 00:04:16.693 : <ERROR> Unable to find 'Sign' '5028' for 0x5E4265F5B500003
  5509. 00:04:16.694 : <ERROR> Unable to find 'Sign' '5028' for 0x5E426C3F0F00002
  5510. 00:04:16.694 : <ERROR> Unable to find 'Sign' '5107' for 0x5E9110306000001
  5511. 00:04:16.694 : <ERROR> Unable to find 'Sign' '5110' for 0x5E9110EF7100001
  5512. 00:04:16.694 : <ERROR> Unable to find 'Sign' '5111' for 0x5E91114F9B00001
  5513. 00:04:16.694 : <ERROR> Unable to find 'Sign' '5110' for 0x5E911D180E00001
  5514. 00:04:16.694 : <ERROR> Unable to find 'Sign' '5107' for 0x5E911D805B00001
  5515. 00:04:16.694 : <ERROR> Unable to find 'Sign' '5111' for 0x5E911E5DC100001
  5516. 00:04:16.694 : <ERROR> Unable to find 'Sign' '5107' for 0x5E91347BE800001
  5517. 00:04:16.694 : <ERROR> Unable to find 'Sign' '5110' for 0x5E9134D19100001
  5518. 00:04:16.694 : <ERROR> Unable to find 'Sign' '5111' for 0x5E91355FE000001
  5519. 00:04:16.694 : <ERROR> Unable to find 'Sign' '5023' for 0x5E91E0016A00001
  5520. 00:04:16.694 : <ERROR> Unable to find 'Sign' '5023' for 0x5E91E35CAF00001
  5521. 00:04:16.694 : <ERROR> Unable to find 'Sign' '5023' for 0x5E91E39BDD00000
  5522. 00:04:16.694 : <ERROR> Unable to find 'Sign' '5023' for 0x5E91FCA44F00000
  5523. 00:04:16.694 : <ERROR> Unable to find 'Sign' '5591rus' for 0x5E945DB78300001
  5524. 00:04:16.694 : <ERROR> Unable to find 'Sign' '5592rus' for 0x5E945E878C00001
  5525. 00:04:16.695 : <ERROR> Unable to find 'Sign' '5592rus' for 0x5E945F3D5500001
  5526. 00:04:16.695 : <ERROR> Unable to find 'Sign' '5591rus' for 0x5E945FDEB000001
  5527. 00:04:16.695 : <ERROR> Unable to find 'Sign' '5023' for 0x5E94C3F43500001
  5528. 00:04:16.696 : <ERROR> Unable to find 'Sign' '5023' for 0x63B0F5242600001
  5529. 00:04:16.699 : <ERROR> Unable to find 'Sign' '5597rus' for 0x6189D3E30B00101
  5530. 00:04:16.699 : <ERROR> Unable to find 'Sign' '5596rus' for 0x6189D3E3D3001F5
  5531. 00:04:16.699 : <ERROR> Unable to find 'Sign' '5023' for 0x6189D3E7FB00075
  5532. 00:04:16.699 : <ERROR> Unable to find 'Sign' '5023' for 0x618C05F91700001
  5533. 00:04:16.699 : <ERROR> Unable to find 'Sign' '5128' for 0x618C0A9D6F00001
  5534. 00:04:16.699 : <ERROR> Unable to find 'Sign' '5128' for 0x618C102AD400001
  5535. 00:04:16.699 : <ERROR> Unable to find 'Sign' '5023' for 0x618C127B2D00001
  5536. 00:04:16.699 : <ERROR> Unable to find 'Sign' '5023' for 0x618C131FA000001
  5537. 00:04:16.699 : <ERROR> Unable to find 'Sign' '5023' for 0x618C13B28300001
  5538. 00:04:16.700 : <ERROR> Unable to find 'Sign' '5023' for 0x63B0F607B700000
  5539. 00:04:16.700 : <ERROR> Unable to find 'Sign' '5023' for 0x63B0FC7BB300001
  5540. 00:04:16.706 : <ERROR> Unable to find 'Sign' '5145' for 0x63328A76D800018
  5541. 00:04:16.706 : <ERROR> Unable to find 'Sign' 'strlt123rus' for 0x6334AEE12C00000
  5542. 00:04:16.706 : <ERROR> Unable to find 'Sign' 'strlt123rus' for 0x6334B0495000000
  5543. 00:04:16.706 : <ERROR> Unable to find 'Sign' 'strlt122rus' for 0x6334B0DF1600000
  5544. 00:04:16.706 : <ERROR> Unable to find 'Sign' 'strlt122rus' for 0x6334B1944E00000
  5545. 00:04:16.706 : <ERROR> Unable to find 'Sign' 'strlt122rus' for 0x6334B1C2A200000
  5546. 00:04:16.706 : <ERROR> Unable to find 'Sign' 'strlt122rus' for 0x6334B1E44A00000
  5547. 00:04:16.706 : <ERROR> Unable to find 'Sign' '5023' for 0x63B0A5E93400001
  5548. 00:04:16.706 : <ERROR> Unable to find 'Sign' '5023' for 0x63B0B4BE6400001
  5549. 00:04:16.707 : <ERROR> Unable to find 'Sign' '5023' for 0x63B0BA813E00001
  5550. 00:04:16.707 : <ERROR> Unable to find 'Sign' '5023' for 0x63B0BB6CC300001
  5551. 00:04:16.707 : <ERROR> Unable to find 'Sign' '5023' for 0x63B0BDA97900001
  5552. 00:04:16.707 : <ERROR> Unable to find 'Sign' '5127' for 0x63B0CD15BF00001
  5553. 00:04:16.707 : <ERROR> Unable to find 'Sign' '5128' for 0x63B0CDCF2C00001
  5554. 00:04:16.707 : <ERROR> Unable to find 'Sign' '5023' for 0x63B0DE061700001
  5555. 00:04:16.707 : <ERROR> Unable to find 'Sign' '5023' for 0x63B0DEB17400000
  5556. 00:04:16.709 : <ERROR> Unable to find 'Sign' '5596rus' for 0x6189D3F000002B4
  5557. 00:04:16.709 : <ERROR> Unable to find 'Sign' '5107' for 0x6189D3F12D001C4
  5558. 00:04:16.709 : <ERROR> Unable to find 'Sign' '5111' for 0x6189D3F14000129
  5559. 00:04:16.709 : <ERROR> Unable to find 'Sign' '5110' for 0x6189D3F1A400444
  5560. 00:04:16.710 : <ERROR> Unable to find 'Sign' '5111' for 0x6189D3F578001C0
  5561. 00:04:16.710 : <ERROR> Unable to find 'Sign' '5107' for 0x6189D3F7E00012E
  5562. 00:04:16.710 : <ERROR> Unable to find 'Sign' '5597rus' for 0x6189D3F82E002C9
  5563. 00:04:16.710 : <ERROR> Unable to find 'Sign' '5110' for 0x6189D3FA5000133
  5564. 00:04:16.710 : <ERROR> Unable to find 'Sign' '5121' for 0x6189D3FAF70052E
  5565. 00:04:16.710 : <ERROR> Unable to find 'Sign' '5110' for 0x6189D3FE52000B1
  5566. 00:04:16.710 : <ERROR> Unable to find 'Sign' '5121' for 0x6189D3FF0600532
  5567. 00:04:16.710 : <ERROR> Unable to find 'Sign' '5107' for 0x6265F43F0000001
  5568. 00:04:16.710 : <ERROR> Unable to find 'Sign' '5111' for 0x6265FBF32700001
  5569. 00:04:16.710 : <ERROR> Unable to find 'Sign' '5650rus' for 0x7E8D93F64300001
  5570. 00:04:16.710 : <ERROR> Unable to find 'Sign' '5651rus' for 0x7E8D95642400001
  5571. 00:04:16.710 : <ERROR> Unable to find 'Sign' '5651rus' for 0x7E8D96EA4300001
  5572. 00:04:16.710 : <ERROR> Unable to find 'Sign' '5650rus' for 0x7E8D97397600001
  5573. 00:04:16.718 : <ERROR> Unable to find 'Sign' '5107' for 0x3414EF0018C02C8C
  5574. 00:04:16.718 : <ERROR> Unable to find 'Sign' '5028' for 0x3414EF0062003283
  5575. 00:04:16.718 : <ERROR> Unable to find 'Sign' '5107' for 0x3414EF0082802C92
  5576. 00:04:16.718 : <ERROR> Unable to find 'Sign' '5110' for 0x3414EF00CE002CA4
  5577. 00:04:16.718 : <ERROR> Unable to find 'Sign' '5028' for 0x3414EF00DAC0327B
  5578. 00:04:16.718 : <ERROR> Unable to find 'Sign' '5023' for 0x34253CB834C00111
  5579. 00:04:16.718 : <ERROR> Unable to find 'Sign' '5611rus' for 0x34253CB88000010E
  5580. 00:04:16.718 : <ERROR> Unable to find 'Sign' '5612rus' for 0x34253CB88C400112
  5581. 00:04:16.718 : <ERROR> Unable to find 'Sign' '5612rus' for 0x34253CB8B2000037
  5582. 00:04:16.718 : <ERROR> Unable to find 'Sign' '5611rus' for 0x34253CB8B9400034
  5583. 00:04:16.718 : <ERROR> Unable to find 'Sign' '5023' for 0x34253CB8EBC0013C
  5584. 00:04:16.719 : <ERROR> Unable to find 'Sign' '5023' for 0x34254DC4140004AB
  5585. 00:04:16.721 : <ERROR> Unable to find 'Sign' '5023' for 0x34254DC4020002D4
  5586. 00:04:16.721 : <ERROR> Unable to find 'Sign' '5023' for 0x34254DC439C00346
  5587. 00:04:16.721 : <ERROR> Unable to find 'Sign' '5023' for 0x34254DC4440002D5
  5588. 00:04:16.721 : <ERROR> Unable to find 'Sign' '5023' for 0x34254DC4928002BE
  5589. 00:04:16.721 : <ERROR> Unable to find 'Sign' '5023' for 0x34254DC4A2C0016E
  5590. 00:04:16.721 : <ERROR> Unable to find 'Sign' '5023' for 0x34254DC4EE4003A5
  5591. 00:04:16.733 : <ERROR> Unable to find 'Sign' '5631rus' for 0x3414EF0029C003AD
  5592. 00:04:16.733 : <ERROR> Unable to find 'Sign' '5121' for 0x3414EF0064400407
  5593. 00:04:16.733 : <ERROR> Unable to find 'Sign' '5121' for 0x3414EF006A8003F5
  5594. 00:04:16.733 : <ERROR> Unable to find 'Sign' '5632rus' for 0x3414EF0090C003A4
  5595. 00:04:16.735 : <ERROR> Unable to find 'Sign' '5028' for 0x3414EF000B80318A
  5596. 00:04:16.736 : <ERROR> Unable to find 'Sign' '5617rus' for 0x3414EF0016002899
  5597. 00:04:16.736 : <ERROR> Unable to find 'Sign' '5111' for 0x3414EF0023C02ACA
  5598. 00:04:16.736 : <ERROR> Unable to find 'Sign' '5632rus' for 0x3414EF00274005FD
  5599. 00:04:16.736 : <ERROR> Unable to find 'Sign' '5111' for 0x3414EF00464015BD
  5600. 00:04:16.736 : <ERROR> Unable to find 'Sign' '5107' for 0x3414EF00530015E9
  5601. 00:04:16.737 : <ERROR> Unable to find 'Sign' '5107' for 0x3414EF005DC00762
  5602. 00:04:16.737 : <ERROR> Unable to find 'Sign' '5617rus' for 0x3414EF006000062C
  5603. 00:04:16.737 : <ERROR> Unable to find 'Sign' '5616rus' for 0x3414EF0068400CAB
  5604. 00:04:16.737 : <ERROR> Unable to find 'Sign' '5028' for 0x3414EF006D402794
  5605. 00:04:16.737 : <ERROR> Unable to find 'Sign' '5110' for 0x3414EF00744015AD
  5606. 00:04:16.737 : <ERROR> Unable to find 'Sign' '5028' for 0x3414EF009CC0318C
  5607. 00:04:16.737 : <ERROR> Unable to find 'Sign' '5028' for 0x3414EF00B6C0279A
  5608. 00:04:16.737 : <ERROR> Unable to find 'Sign' '5631rus' for 0x3414EF00BD8005C1
  5609. 00:04:16.737 : <ERROR> Unable to find 'Sign' '5110' for 0x3414EF00C30013EF
  5610. 00:04:16.738 : <ERROR> Unable to find 'Sign' '5107' for 0x3414EF00C7401602
  5611. 00:04:16.738 : <ERROR> Unable to find 'Sign' '5107' for 0x3414EF00CDC02A87
  5612. 00:04:16.738 : <ERROR> Unable to find 'Sign' '5616rus' for 0x3414EF00DD00062D
  5613. 00:04:16.738 : <ERROR> Unable to find 'Sign' '5111' for 0x3414EF00EA0013A4
  5614. 00:04:16.738 : <ERROR> Unable to find 'Sign' '5110' for 0x3414EF00EA802AD3
  5615. 00:04:16.741 : <ERROR> Unable to find 'Sign' '5617rus' for 0x3414EF000D805C10
  5616. 00:04:16.741 : <ERROR> Unable to find 'Sign' '5028' for 0x3414EF00500035A7
  5617. 00:04:16.741 : <ERROR> Unable to find 'Sign' '5028' for 0x3414EF00520035A2
  5618. 00:04:16.741 : <ERROR> Unable to find 'Sign' '5110' for 0x3414EF006D803439
  5619. 00:04:16.741 : <ERROR> Unable to find 'Sign' '5107' for 0x3414EF00978055A5
  5620. 00:04:16.741 : <ERROR> Unable to find 'Sign' '5616rus' for 0x3414EF00A6405C04
  5621. 00:04:16.742 : <ERROR> Unable to find 'Sign' '5107' for 0x3414EF00D00035B3
  5622. 00:04:16.744 : <ERROR> Unable to find 'Sign' '5637rus' for 0x3425297C1880037C
  5623. 00:04:16.744 : <ERROR> Unable to find 'Sign' '5636rus' for 0x3425297C8600037D
  5624. 00:04:16.747 : <ERROR> Unable to find 'Sign' '5642rus' for 0x3414C6C845406CF2
  5625. 00:04:16.747 : <ERROR> Unable to find 'Sign' '5641rus' for 0x3414C6C846006CF3
  5626. 00:04:16.747 : <ERROR> Unable to find 'Sign' 'strlt122rus' for 0x3425297C10C007C6
  5627. 00:04:16.747 : <ERROR> Unable to find 'Sign' 'strlt122rus' for 0x3425297C484007E4
  5628. 00:04:16.748 : <ERROR> Unable to find 'Sign' 'strlt122rus' for 0x3425297CB5C007E9
  5629. 00:04:16.748 : <ERROR> Unable to find 'Sign' 'strlt122rus' for 0x3425297CC20007E8
  5630. 00:04:16.748 : <ERROR> Unable to find 'Sign' 'strlt122rus' for 0x3425297CE2C007CA
  5631. 00:04:16.748 : <ERROR> Unable to find 'Sign' '5637rus' for 0x3425297CF3C00491
  5632. 00:04:16.748 : <ERROR> Unable to find 'Sign' '5636rus' for 0x3425297CFDC00480
  5633. 00:04:16.751 : <ERROR> Unable to find 'Sign' '5107' for 0x3414C6C8024091C8
  5634. 00:04:16.751 : <ERROR> Unable to find 'Sign' '5111' for 0x3414C6C81B009617
  5635. 00:04:16.751 : <ERROR> Unable to find 'Sign' '5110' for 0x3414C6C83B4096D5
  5636. 00:04:16.751 : <ERROR> Unable to find 'Sign' '5641rus' for 0x3414C6C83B806FCA
  5637. 00:04:16.751 : <ERROR> Unable to find 'Sign' '5145' for 0x3414C6C84F406FAB
  5638. 00:04:16.751 : <ERROR> Unable to find 'Sign' '5111' for 0x3414C6C855C09693
  5639. 00:04:16.751 : <ERROR> Unable to find 'Sign' '5643rus' for 0x3414C6C892C0914E
  5640. 00:04:16.752 : <ERROR> Unable to find 'Sign' '5644rus' for 0x3414C6C8B54090CE
  5641. 00:04:16.752 : <ERROR> Unable to find 'Sign' '5110' for 0x3414C6C8D3C095FB
  5642. 00:04:16.752 : <ERROR> Unable to find 'Sign' '5642rus' for 0x3414C6C8D6406FCD
  5643. 00:04:16.755 : <ERROR> Unable to find 'Sign' '5107' for 0x3414C6C80E008C25
  5644. 00:04:16.755 : <ERROR> Unable to find 'Sign' '5111' for 0x3414C6C80E409D13
  5645. 00:04:16.755 : <ERROR> Unable to find 'Sign' '5655rus' for 0x3414C6C82DC08E5E
  5646. 00:04:16.755 : <ERROR> Unable to find 'Sign' '5110' for 0x3414C6C83EC08DE5
  5647. 00:04:16.755 : <ERROR> Unable to find 'Sign' '5657rus' for 0x3414C6C853008E61
  5648. 00:04:16.755 : <ERROR> Unable to find 'Sign' '5656rus' for 0x3414C6C85A008E62
  5649. 00:04:16.755 : <ERROR> Unable to find 'Sign' '5110' for 0x3414C6C862008CF5
  5650. 00:04:16.755 : <ERROR> Unable to find 'Sign' '5111' for 0x3414C6C867808BCC
  5651. 00:04:16.756 : <ERROR> Unable to find 'Sign' '5111' for 0x3414C6C8754094C5
  5652. 00:04:16.756 : <ERROR> Unable to find 'Sign' '5110' for 0x3414C6C87C8088A6
  5653. 00:04:16.756 : <ERROR> Unable to find 'Sign' '5110' for 0x3414C6C88E0094B6
  5654. 00:04:16.756 : <ERROR> Unable to find 'Sign' '5111' for 0x3414C6C8980088FF
  5655. 00:04:16.756 : <ERROR> Unable to find 'Sign' '5111' for 0x3414C6C8A100998C
  5656. 00:04:16.757 : <ERROR> Unable to find 'Sign' '5654rus' for 0x3414C6C8D1C08E63
  5657. 00:04:16.757 : <ERROR> Unable to find 'Sign' '5644rus' for 0x3414C6C8E100808F
  5658. 00:04:16.757 : <ERROR> Unable to find 'Sign' '5110' for 0x3414C6C8EB808DC9
  5659. 00:04:16.757 : <ERROR> Unable to find 'Sign' '5110' for 0x3414C6C8EC009A6C
  5660. 00:04:16.757 : <ERROR> Unable to find 'Sign' '5643rus' for 0x3414C6C8F00080A1
  5661. 00:04:16.757 : <ERROR> Unable to find 'Sign' '5111' for 0x3414C6C8F580843E
  5662. 00:04:16.757 : <ERROR> Unable to find 'Sign' '5107' for 0x3418BF0CD2800166
  5663. 00:04:16.762 : <ERROR> Unable to find 'Sign' '5620rus' for 0x3414EF002300259B
  5664. 00:04:16.762 : <ERROR> Unable to find 'Sign' '5621rus' for 0x3414EF002800259D
  5665. 00:04:16.762 : <ERROR> Unable to find 'Sign' '5621rus' for 0x3414EF004500249C
  5666. 00:04:16.762 : <ERROR> Unable to find 'Sign' '5625rus' for 0x3414EF0049004A5A
  5667. 00:04:16.762 : <ERROR> Unable to find 'Sign' '5110' for 0x3414EF00678024F8
  5668. 00:04:16.762 : <ERROR> Unable to find 'Sign' '5124' for 0x3414EF007240250C
  5669. 00:04:16.762 : <ERROR> Unable to find 'Sign' '5107' for 0x3414EF008E801C07
  5670. 00:04:16.763 : <ERROR> Unable to find 'Sign' '5620rus' for 0x3414EF00A54024A9
  5671. 00:04:16.763 : <ERROR> Unable to find 'Sign' '5124' for 0x3414EF00AD402507
  5672. 00:04:16.763 : <ERROR> Unable to find 'Sign' '5624rus' for 0x3414EF00DF802705
  5673. 00:04:16.763 : <ERROR> Unable to find 'Sign' '5110' for 0x3414EF00E1002502
  5674. 00:04:16.763 : <ERROR> Unable to find 'Sign' '5124' for 0x3414EF00E780251F
  5675. 00:04:16.763 : <ERROR> Unable to find 'Sign' '5124' for 0x3414EF00FE80250B
  5676. 00:04:16.766 : <ERROR> Unable to find 'Sign' '5028' for 0x3414EF0007C03E26
  5677. 00:04:16.766 : <ERROR> Unable to find 'Sign' '5616rus' for 0x3414EF000E805FEC
  5678. 00:04:16.766 : <ERROR> Unable to find 'Sign' '5023' for 0x3414EF001A403F03
  5679. 00:04:16.766 : <ERROR> Unable to find 'Sign' '5023' for 0x3414EF0045005814
  5680. 00:04:16.766 : <ERROR> Unable to find 'Sign' '5107' for 0x3414EF004880579B
  5681. 00:04:16.766 : <ERROR> Unable to find 'Sign' '5618rus' for 0x3414EF004F005BC0
  5682. 00:04:16.767 : <ERROR> Unable to find 'Sign' '5110' for 0x3414EF005C404107
  5683. 00:04:16.767 : <ERROR> Unable to find 'Sign' '5107' for 0x3414EF0078C04132
  5684. 00:04:16.767 : <ERROR> Unable to find 'Sign' '5107' for 0x3414EF0080005FA7
  5685. 00:04:16.767 : <ERROR> Unable to find 'Sign' '5023' for 0x3414EF0091403E43
  5686. 00:04:16.767 : <ERROR> Unable to find 'Sign' '5619rus' for 0x3414EF0092005BC6
  5687. 00:04:16.767 : <ERROR> Unable to find 'Sign' '5111' for 0x3414EF009A00411A
  5688. 00:04:16.767 : <ERROR> Unable to find 'Sign' '5028' for 0x3414EF009A403DCA
  5689. 00:04:16.767 : <ERROR> Unable to find 'Sign' '5028' for 0x3414EF009BC03E1A
  5690. 00:04:16.767 : <ERROR> Unable to find 'Sign' '5110' for 0x3414EF00AAC059DA
  5691. 00:04:16.767 : <ERROR> Unable to find 'Sign' '5023' for 0x3414EF00AE803DBC
  5692. 00:04:16.767 : <ERROR> Unable to find 'Sign' '5617rus' for 0x3414EF00C9405FED
  5693. 00:04:16.767 : <ERROR> Unable to find 'Sign' '5145' for 0x3414EF00E2003D77
  5694. 00:04:16.767 : <ERROR> Unable to find 'Sign' '5145' for 0x3414EF00E3C059B1
  5695. 00:04:16.768 : <ERROR> Unable to find 'Sign' '5111' for 0x3414EF00FB805BB6
  5696. 00:04:16.768 : <ERROR> Unable to find 'Sign' '5107' for 0x3414EF00FCC05BB1
  5697. 00:04:16.774 : <ERROR> Unable to find 'Sign' '5145' for 0x3414C6C81C40769D
  5698. 00:04:16.774 : <ERROR> Unable to find 'Sign' '5028' for 0x3414C6C8510075C7
  5699. 00:04:16.774 : <ERROR> Unable to find 'Sign' '5028' for 0x3414C6C85180757C
  5700. 00:04:16.774 : <ERROR> Unable to find 'Sign' '5652rus' for 0x3414C6C86DC075C0
  5701. 00:04:16.774 : <ERROR> Unable to find 'Sign' '5653rus' for 0x3414C6C8F48075E4
  5702. 00:04:16.777 : <ERROR> Unable to find 'Sign' '5111' for 0x3414C6C80BC0780F
  5703. 00:04:16.777 : <ERROR> Unable to find 'Sign' '5028' for 0x3414C6C8340071D2
  5704. 00:04:16.777 : <ERROR> Unable to find 'Sign' '5028' for 0x3414C6C834407373
  5705. 00:04:16.777 : <ERROR> Unable to find 'Sign' '5028' for 0x3414C6C87E8071EC
  5706. 00:04:16.777 : <ERROR> Unable to find 'Sign' '5028' for 0x3414C6C882407359
  5707. 00:04:16.777 : <ERROR> Unable to find 'Sign' '5111' for 0x3414C6C88540A36E
  5708. 00:04:16.778 : <ERROR> Unable to find 'Sign' '5110' for 0x3414C6C8C64071CC
  5709. 00:04:16.780 : <ERROR> Unable to find 'Sign' '5625rus' for 0x3414EF0005404B38
  5710. 00:04:16.780 : <ERROR> Unable to find 'Sign' '5023' for 0x3414EF0019404BD2
  5711. 00:04:16.780 : <ERROR> Unable to find 'Sign' '5626rus' for 0x3414EF004F404BCD
  5712. 00:04:16.780 : <ERROR> Unable to find 'Sign' '5626rus' for 0x3414EF0068C04B3D
  5713. 00:04:16.780 : <ERROR> Unable to find 'Sign' '5627rus' for 0x3414EF00C3C04B69
  5714. 00:04:16.780 : <ERROR> Unable to find 'Sign' '5624rus' for 0x3414EF00C5804B30
  5715. 00:04:16.780 : <ERROR> Unable to find 'Sign' '5627rus' for 0x3414EF00FB804BCF
  5716. 00:04:16.782 : <ERROR> Unable to find 'Sign' '5023' for 0x3414EF00128047E0
  5717. 00:04:16.783 : <ERROR> Unable to find 'Sign' '5002' for 0x3414EF00188047E1
  5718. 00:04:16.783 : <ERROR> Unable to find 'Sign' '5145' for 0x3414EF00344048AC
  5719. 00:04:16.783 : <ERROR> Unable to find 'Sign' '5023' for 0x3414EF0036804EFB
  5720. 00:04:16.783 : <ERROR> Unable to find 'Sign' '5618rus' for 0x3414EF003F004610
  5721. 00:04:16.783 : <ERROR> Unable to find 'Sign' '5002' for 0x3414EF0054004CB2
  5722. 00:04:16.783 : <ERROR> Unable to find 'Sign' '5023' for 0x3414EF00B3004CB1
  5723. 00:04:16.783 : <ERROR> Unable to find 'Sign' '5107' for 0x3414EF00B8404409
  5724. 00:04:16.783 : <ERROR> Unable to find 'Sign' '5110' for 0x3414EF00CD00440F
  5725. 00:04:16.783 : <ERROR> Unable to find 'Sign' '5619rus' for 0x3414EF00CF004612
  5726. 00:04:16.783 : <ERROR> Unable to find 'Sign' '5111' for 0x3414EF00CFC043FC
  5727. 00:04:25.161 : <WARNING> Unable to find 'sign' '5673rus'
  5728. 00:04:25.373 : <WARNING> Unable to find 'sign' '5671rus'
  5729. 00:04:25.379 : <WARNING> Unable to find 'sign' '5674rus'
  5730. 00:04:25.388 : <WARNING> Unable to find 'sign' '5669rus'
  5731. 00:04:26.887 : Map base sectors successfully loaded.
  5732. 00:04:26.916 : Map loaded
  5733. 00:04:26.918 : Loading save '/steam/profiles/4B616D696C20274B756E696127204B756E69636B/save/autosave/game.sii'
  5734. 00:04:27.422 : Route data generation started.
  5735. 00:04:28.267 : <ERROR> [route_data_u::compute_nav_nodes] Checkpoints with the same order, route: ols_bial1, uid: 0x2935DF76F0F5BB and 0x80BA7F399800000
  5736. 00:04:28.619 : Route data generation finished.
  5737. 00:04:28.701 : <ERROR> Company item without company assignment! (57646.3;-26.3906;-92992.5)
  5738. 00:04:28.922 : Road network navigation caching started.
  5739. 00:04:31.957 : Cached navigation loaded
  5740. 00:04:31.969 : Garage update started.
  5741. 00:04:33.255 : Garage update finished.
  5742. 00:04:33.516 : [app_lcl] Localization module '/locale/pl_pl/local_module.scania_ng.sii' has been applied.
  5743. 00:04:33.519 : [app_lcl] Localization module '/locale/pl_pl/local_module.fmax.sii' has been applied.
  5744. 00:04:33.522 : [app_lcl] Localization module '/locale/pl_pl/local_module.am_mbad.sii' has been applied.
  5745. 00:04:33.526 : [app_lcl] Localization module '/locale/pl_pl/local_module.polreb.sii' has been applied.
  5746. 00:04:33.530 : [app_lcl] Localization module '/locale/pl_pl/local_module.rusmap_cities.sii' has been applied.
  5747. 00:04:33.532 : [app_lcl] Localization module '/locale/pl_pl/local_module.pm_cargo.sii' has been applied.
  5748. 00:04:33.543 : [app_lcl] Localization module '/locale/pl_pl/local_module.pm_cities.sii' has been applied.
  5749. 00:04:33.546 : [app_lcl] Localization module '/locale/pl_pl/local_module.pm_ferry.sii' has been applied.
  5750. 00:04:33.549 : [app_lcl] Localization module '/locale/pl_pl/local_module.pm_fuel.sii' has been applied.
  5751. 00:04:33.551 : [app_lcl] Localization module '/locale/pl_pl/local_module.pm_legend.sii' has been applied.
  5752. 00:04:33.556 : [app_lcl] Localization module '/locale/pl_pl/local_module.pm_states.sii' has been applied.
  5753. 00:04:33.558 : [app_lcl] Localization module '/locale/pl_pl/local_module.pm_ui_msg.sii' has been applied.
  5754. 00:04:38.651 : <ERROR> [model] Unknown variant name 'exc_21_high' on model '/vehicle/truck/renault_t/interior/anim.pmd'
  5755. 00:04:38.651 : <ERROR> Falling back to first variant and look for interior animated model. Expect problems.
  5756. 00:04:40.609 : <ERROR> [model] Unknown look name 'exclusive_21' on model '/vehicle/truck/renault_t/interior/anim.pmd'
  5757. 00:04:40.609 : <ERROR> [model] Unknown variant name 'exc_21_high' on model '/vehicle/truck/renault_t/interior/anim.pmd'
  5758.  
RAW Paste Data